<?xml version='1.0' encoding='UTF-8'?><gpx version="1.1" creator="JPX - https://github.com/jenetics/jpx" xmlns="http://www.topografix.com/GPX/1/1"><trk><trkseg><trkpt lat="37.85249813055609" lon="15.134058292913378"><ele>565.0</ele><time>2026-04-06T10:42:30.999Z</time></trkpt><trkpt lat="37.852565180162" lon="15.13417190408029"><ele>565.0</ele><time>2026-04-06T10:42:32.999Z</time></trkpt><trkpt lat="37.8526063354232" lon="15.134241811167449"><ele>565.0</ele><time>2026-04-06T10:42:33.999Z</time></trkpt><trkpt lat="37.85265105401479" lon="15.13431777106387"><ele>565.0</ele><time>2026-04-06T10:42:34.999Z</time></trkpt><trkpt lat="37.852697816239186" lon="15.134397202333464"><ele>565.0</ele><time>2026-04-06T10:42:35.999Z</time></trkpt><trkpt lat="37.85274871836191" lon="15.134483665738777"><ele>565.0</ele><time>2026-04-06T10:42:36.999Z</time></trkpt><trkpt lat="37.85281375403865" lon="15.134562830237021"><ele>566.6666666666667</ele><time>2026-04-06T10:42:37.999Z</time></trkpt><trkpt lat="37.852858872089655" lon="15.134664891348526"><ele>568.3333333333334</ele><time>2026-04-06T10:42:38.999Z</time></trkpt><trkpt lat="37.852914756170726" lon="15.134751197401128"><ele>570.0</ele><time>2026-04-06T10:42:39.999Z</time></trkpt><trkpt lat="37.85296440383786" lon="15.134838195703503"><ele>571.6666666666666</ele><time>2026-04-06T10:42:40.999Z</time></trkpt><trkpt lat="37.85301165059818" lon="15.134924204421432"><ele>573.3333333333333</ele><time>2026-04-06T10:42:41.999Z</time></trkpt><trkpt lat="37.85306470847768" lon="15.1349992349928"><ele>575.0</ele><time>2026-04-06T10:42:42.999Z</time></trkpt><trkpt lat="37.85311759145607" lon="15.135068559175528"><ele>575.0</ele><time>2026-04-06T10:42:43.999Z</time></trkpt><trkpt lat="37.85317472153327" lon="15.135135871374445"><ele>575.0</ele><time>2026-04-06T10:42:44.999Z</time></trkpt><trkpt lat="37.85323377395957" lon="15.135196645237158"><ele>575.0</ele><time>2026-04-06T10:42:45.999Z</time></trkpt><trkpt lat="37.85329728972962" lon="15.135243256404006"><ele>575.0</ele><time>2026-04-06T10:42:46.999Z</time></trkpt><trkpt lat="37.85336408015856" lon="15.135281425029408"><ele>575.0</ele><time>2026-04-06T10:42:47.999Z</time></trkpt><trkpt lat="37.85343046595459" lon="15.135310447197096"><ele>575.0</ele><time>2026-04-06T10:42:48.999Z</time></trkpt><trkpt lat="37.8535035989235" lon="15.13533348970284"><ele>575.0</ele><time>2026-04-06T10:42:49.999Z</time></trkpt><trkpt lat="37.85357880399116" lon="15.135345166803452"><ele>576.5</ele><time>2026-04-06T10:42:50.999Z</time></trkpt><trkpt lat="37.853659597325986" lon="15.135342572848893"><ele>578.0</ele><time>2026-04-06T10:42:51.999Z</time></trkpt><trkpt lat="37.85374032605554" lon="15.13534649799593"><ele>579.5</ele><time>2026-04-06T10:42:52.999Z</time></trkpt><trkpt lat="37.853821783858535" lon="15.135303403980423"><ele>581.0</ele><time>2026-04-06T10:42:53.999Z</time></trkpt><trkpt lat="37.8539079769242" lon="15.135288198229194"><ele>582.5</ele><time>2026-04-06T10:42:54.999Z</time></trkpt><trkpt lat="37.85399713444736" lon="15.135254542657641"><ele>584.0</ele><time>2026-04-06T10:42:55.999Z</time></trkpt><trkpt lat="37.85408473694987" lon="15.135222244759397"><ele>584.0</ele><time>2026-04-06T10:42:56.999Z</time></trkpt><trkpt lat="37.85417616421951" lon="15.135195403985254"><ele>584.0</ele><time>2026-04-06T10:42:57.999Z</time></trkpt><trkpt lat="37.8542670296688" lon="15.135167329081334"><ele>584.0</ele><time>2026-04-06T10:42:58.999Z</time></trkpt><trkpt lat="37.854359654502325" lon="15.135139673772729"><ele>584.0</ele><time>2026-04-06T10:42:59.999Z</time></trkpt><trkpt lat="37.854455352285214" lon="15.135108998255607"><ele>584.0</ele><time>2026-04-06T10:43:00.999Z</time></trkpt><trkpt lat="37.85455128665517" lon="15.135088562598606"><ele>583.2</ele><time>2026-04-06T10:43:01.999Z</time></trkpt><trkpt lat="37.854649269356756" lon="15.135069472763906"><ele>582.4</ele><time>2026-04-06T10:43:02.999Z</time></trkpt><trkpt lat="37.85474951174689" lon="15.1350858021475"><ele>581.6</ele><time>2026-04-06T10:43:03.999Z</time></trkpt><trkpt lat="37.854851232582185" lon="15.135077377758877"><ele>580.8</ele><time>2026-04-06T10:43:04.999Z</time></trkpt><trkpt lat="37.854944665844364" lon="15.135100879103552"><ele>580.0</ele><time>2026-04-06T10:43:05.999Z</time></trkpt><trkpt lat="37.855043335029265" lon="15.135106466915737"><ele>579.6</ele><time>2026-04-06T10:43:06.999Z</time></trkpt><trkpt lat="37.85514381216869" lon="15.135109409370552"><ele>579.2</ele><time>2026-04-06T10:43:07.999Z</time></trkpt><trkpt lat="37.855242181637195" lon="15.13508105245219"><ele>578.8</ele><time>2026-04-06T10:43:08.999Z</time></trkpt><trkpt lat="37.855333150052296" lon="15.135073614552653"><ele>578.4</ele><time>2026-04-06T10:43:09.999Z</time></trkpt><trkpt lat="37.85542367249792" lon="15.135057364910312"><ele>578.0</ele><time>2026-04-06T10:43:10.999Z</time></trkpt><trkpt lat="37.85551546709192" lon="15.1350293896511"><ele>578.0</ele><time>2026-04-06T10:43:11.999Z</time></trkpt><trkpt lat="37.85560476643506" lon="15.134995326761988"><ele>578.0</ele><time>2026-04-06T10:43:12.999Z</time></trkpt><trkpt lat="37.85569531032299" lon="15.134955260603885"><ele>578.0</ele><time>2026-04-06T10:43:13.999Z</time></trkpt><trkpt lat="37.85578159026972" lon="15.13491588737877"><ele>578.0</ele><time>2026-04-06T10:43:14.999Z</time></trkpt><trkpt lat="37.8558759222732" lon="15.134882511878404"><ele>578.0</ele><time>2026-04-06T10:43:15.999Z</time></trkpt><trkpt lat="37.85597013438949" lon="15.134865154134845"><ele>582.0</ele><time>2026-04-06T10:43:16.999Z</time></trkpt><trkpt lat="37.85606522477761" lon="15.134828500444119"><ele>586.0</ele><time>2026-04-06T10:43:17.999Z</time></trkpt><trkpt lat="37.85615984946058" lon="15.134792736951912"><ele>590.0</ele><time>2026-04-06T10:43:18.999Z</time></trkpt><trkpt lat="37.85625519041922" lon="15.134765414920567"><ele>594.0</ele><time>2026-04-06T10:43:19.999Z</time></trkpt><trkpt lat="37.85634905636271" lon="15.134732479114858"><ele>598.0</ele><time>2026-04-06T10:43:20.999Z</time></trkpt><trkpt lat="37.85644506496736" lon="15.13470038121234"><ele>598.0</ele><time>2026-04-06T10:43:21.999Z</time></trkpt><trkpt lat="37.856539777408635" lon="15.134666049312438"><ele>598.0</ele><time>2026-04-06T10:43:22.999Z</time></trkpt><trkpt lat="37.85663830029359" lon="15.134637568508637"><ele>598.0</ele><time>2026-04-06T10:43:23.999Z</time></trkpt><trkpt lat="37.856739103932696" lon="15.134615903665043"><ele>598.0</ele><time>2026-04-06T10:43:24.999Z</time></trkpt><trkpt lat="37.856846726163916" lon="15.134603869292595"><ele>598.0</ele><time>2026-04-06T10:43:25.999Z</time></trkpt><trkpt lat="37.856946053824004" lon="15.1345998763659"><ele>598.0</ele><time>2026-04-06T10:43:26.999Z</time></trkpt><trkpt lat="37.857044897859225" lon="15.134636308959077"><ele>598.0</ele><time>2026-04-06T10:43:27.999Z</time></trkpt><trkpt lat="37.85714848680853" lon="15.134641582112687"><ele>598.0</ele><time>2026-04-06T10:43:28.999Z</time></trkpt><trkpt lat="37.85725029854456" lon="15.134662660027285"><ele>598.0</ele><time>2026-04-06T10:43:29.999Z</time></trkpt><trkpt lat="37.85734865932391" lon="15.134685272758366"><ele>598.0</ele><time>2026-04-06T10:43:30.999Z</time></trkpt><trkpt lat="37.85745156129118" lon="15.134704534815015"><ele>598.0</ele><time>2026-04-06T10:43:31.999Z</time></trkpt><trkpt lat="37.85754915716122" lon="15.1347407653556"><ele>598.0</ele><time>2026-04-06T10:43:32.999Z</time></trkpt><trkpt lat="37.8576531724998" lon="15.13475663018727"><ele>598.0</ele><time>2026-04-06T10:43:33.999Z</time></trkpt><trkpt lat="37.8577597281135" lon="15.13477371575053"><ele>598.0</ele><time>2026-04-06T10:43:34.999Z</time></trkpt><trkpt lat="37.857866867826324" lon="15.134791511982758"><ele>598.0</ele><time>2026-04-06T10:43:35.999Z</time></trkpt><trkpt lat="37.85797654837277" lon="15.134826633995253"><ele>599.4</ele><time>2026-04-06T10:43:36.999Z</time></trkpt><trkpt lat="37.85808632900362" lon="15.134843962549157"><ele>600.8</ele><time>2026-04-06T10:43:37.999Z</time></trkpt><trkpt lat="37.85819248681551" lon="15.134867326509976"><ele>602.2</ele><time>2026-04-06T10:43:38.999Z</time></trkpt><trkpt lat="37.85829508910445" lon="15.134890273245174"><ele>603.6</ele><time>2026-04-06T10:43:39.999Z</time></trkpt><trkpt lat="37.85839886156689" lon="15.134903372340693"><ele>605.0</ele><time>2026-04-06T10:43:40.999Z</time></trkpt><trkpt lat="37.85849786950078" lon="15.134909867790904"><ele>606.6</ele><time>2026-04-06T10:43:41.999Z</time></trkpt><trkpt lat="37.85860181486893" lon="15.134912356547265"><ele>608.2</ele><time>2026-04-06T10:43:42.999Z</time></trkpt><trkpt lat="37.858705917178355" lon="15.13490415618279"><ele>609.8</ele><time>2026-04-06T10:43:43.999Z</time></trkpt><trkpt lat="37.85881268334827" lon="15.134888392228515"><ele>611.4</ele><time>2026-04-06T10:43:44.999Z</time></trkpt><trkpt lat="37.85891660351142" lon="15.13486382331368"><ele>613.0</ele><time>2026-04-06T10:43:45.999Z</time></trkpt><trkpt lat="37.85902475047391" lon="15.134849180190274"><ele>613.0</ele><time>2026-04-06T10:43:46.999Z</time></trkpt><trkpt lat="37.859131413643546" lon="15.134817654318672"><ele>613.0</ele><time>2026-04-06T10:43:47.999Z</time></trkpt><trkpt lat="37.85924050341246" lon="15.134792825244404"><ele>613.0</ele><time>2026-04-06T10:43:48.999Z</time></trkpt><trkpt lat="37.859351120274106" lon="15.134757459307266"><ele>613.0</ele><time>2026-04-06T10:43:49.999Z</time></trkpt><trkpt lat="37.85945755349682" lon="15.134713669468827"><ele>613.0</ele><time>2026-04-06T10:43:50.999Z</time></trkpt><trkpt lat="37.85956739239581" lon="15.134684136729986"><ele>612.4</ele><time>2026-04-06T10:43:51.999Z</time></trkpt><trkpt lat="37.859672331601644" lon="15.134643530047457"><ele>611.8</ele><time>2026-04-06T10:43:52.999Z</time></trkpt><trkpt lat="37.85977499943685" lon="15.13460927776875"><ele>611.2</ele><time>2026-04-06T10:43:53.999Z</time></trkpt><trkpt lat="37.85988017783169" lon="15.134581296206159"><ele>610.6</ele><time>2026-04-06T10:43:54.999Z</time></trkpt><trkpt lat="37.85998711539609" lon="15.134559192735798"><ele>610.0</ele><time>2026-04-06T10:43:55.999Z</time></trkpt><trkpt lat="37.86009231990283" lon="15.134544652957835"><ele>610.8</ele><time>2026-04-06T10:43:56.999Z</time></trkpt><trkpt lat="37.8601944284763" lon="15.134527742118424"><ele>611.6</ele><time>2026-04-06T10:43:57.999Z</time></trkpt><trkpt lat="37.86029135749187" lon="15.134526876444932"><ele>612.4</ele><time>2026-04-06T10:43:58.999Z</time></trkpt><trkpt lat="37.860387021000896" lon="15.134542870158272"><ele>613.2</ele><time>2026-04-06T10:43:59.999Z</time></trkpt><trkpt lat="37.860473001060825" lon="15.13459550236857"><ele>614.0</ele><time>2026-04-06T10:44:00.999Z</time></trkpt><trkpt lat="37.86055601444601" lon="15.13464623761469"><ele>614.0</ele><time>2026-04-06T10:44:01.999Z</time></trkpt><trkpt lat="37.860643792176404" lon="15.134683855645338"><ele>614.0</ele><time>2026-04-06T10:44:02.999Z</time></trkpt><trkpt lat="37.86071589345677" lon="15.134753344542949"><ele>614.0</ele><time>2026-04-06T10:44:03.999Z</time></trkpt><trkpt lat="37.86076654078765" lon="15.13484971865445"><ele>614.0</ele><time>2026-04-06T10:44:04.999Z</time></trkpt><trkpt lat="37.860825109145026" lon="15.134936941621085"><ele>614.0</ele><time>2026-04-06T10:44:05.999Z</time></trkpt><trkpt lat="37.86087776290931" lon="15.135034434017008"><ele>614.1666666666666</ele><time>2026-04-06T10:44:06.999Z</time></trkpt><trkpt lat="37.8609268750817" lon="15.135131657775018"><ele>614.3333333333333</ele><time>2026-04-06T10:44:07.999Z</time></trkpt><trkpt lat="37.86096434530993" lon="15.135232389153506"><ele>614.5</ele><time>2026-04-06T10:44:08.999Z</time></trkpt><trkpt lat="37.860990324710315" lon="15.135340073514316"><ele>614.6666666666666</ele><time>2026-04-06T10:44:09.999Z</time></trkpt><trkpt lat="37.861007351955244" lon="15.135449040186051"><ele>614.8333333333334</ele><time>2026-04-06T10:44:10.999Z</time></trkpt><trkpt lat="37.861020961593205" lon="15.135557105839638"><ele>615.0</ele><time>2026-04-06T10:44:11.999Z</time></trkpt><trkpt lat="37.8610262735928" lon="15.135671141921618"><ele>614.2</ele><time>2026-04-06T10:44:12.999Z</time></trkpt><trkpt lat="37.861020210434795" lon="15.135786076985301"><ele>613.4</ele><time>2026-04-06T10:44:13.999Z</time></trkpt><trkpt lat="37.86101416809646" lon="15.135896893584901"><ele>612.6</ele><time>2026-04-06T10:44:14.999Z</time></trkpt><trkpt lat="37.86100710290913" lon="15.135985535549226"><ele>611.8</ele><time>2026-04-06T10:44:15.999Z</time></trkpt><trkpt lat="37.86096121674161" lon="15.136122976021554"><ele>611.0</ele><time>2026-04-06T10:44:17.999Z</time></trkpt><trkpt lat="37.86088947403599" lon="15.13624703288137"><ele>611.2857142857143</ele><time>2026-04-06T10:44:19.999Z</time></trkpt><trkpt lat="37.86085121676113" lon="15.136312149705587"><ele>611.5714285714286</ele><time>2026-04-06T10:44:20.999Z</time></trkpt><trkpt lat="37.860807054504846" lon="15.136380254997587"><ele>611.8571428571429</ele><time>2026-04-06T10:44:21.999Z</time></trkpt><trkpt lat="37.86075816713847" lon="15.136451318670932"><ele>612.1428571428571</ele><time>2026-04-06T10:44:22.999Z</time></trkpt><trkpt lat="37.86070193846413" lon="15.136511714104616"><ele>612.4285714285714</ele><time>2026-04-06T10:44:23.999Z</time></trkpt><trkpt lat="37.860638146927755" lon="15.13656623573781"><ele>612.7142857142858</ele><time>2026-04-06T10:44:24.999Z</time></trkpt><trkpt lat="37.860572008061595" lon="15.136608999173557"><ele>613.0</ele><time>2026-04-06T10:44:25.999Z</time></trkpt><trkpt lat="37.860502462512436" lon="15.136648579219223"><ele>613.0</ele><time>2026-04-06T10:44:26.999Z</time></trkpt><trkpt lat="37.8604263491906" lon="15.136684516971213"><ele>613.0</ele><time>2026-04-06T10:44:27.999Z</time></trkpt><trkpt lat="37.860343099623655" lon="15.1367212173024"><ele>613.0</ele><time>2026-04-06T10:44:28.999Z</time></trkpt><trkpt lat="37.860252549164166" lon="15.13675747747055"><ele>613.0</ele><time>2026-04-06T10:44:29.999Z</time></trkpt><trkpt lat="37.8601569619948" lon="15.136779269944988"><ele>613.0</ele><time>2026-04-06T10:44:30.999Z</time></trkpt><trkpt lat="37.86006408521934" lon="15.136800569543869"><ele>611.4</ele><time>2026-04-06T10:44:31.999Z</time></trkpt><trkpt lat="37.85996144599663" lon="15.136809750322772"><ele>609.8</ele><time>2026-04-06T10:44:32.999Z</time></trkpt><trkpt lat="37.85986335655702" lon="15.136819880416772"><ele>608.2</ele><time>2026-04-06T10:44:33.999Z</time></trkpt><trkpt lat="37.85977055076912" lon="15.136833216115384"><ele>606.6</ele><time>2026-04-06T10:44:34.999Z</time></trkpt><trkpt lat="37.85967521895709" lon="15.136850271254115"><ele>605.0</ele><time>2026-04-06T10:44:35.999Z</time></trkpt><trkpt lat="37.85958170546065" lon="15.136872406217575"><ele>605.0</ele><time>2026-04-06T10:44:36.999Z</time></trkpt><trkpt lat="37.85949279474142" lon="15.136905692985918"><ele>605.0</ele><time>2026-04-06T10:44:37.999Z</time></trkpt><trkpt lat="37.859407727490925" lon="15.136941121467162"><ele>605.0</ele><time>2026-04-06T10:44:38.999Z</time></trkpt><trkpt lat="37.85932616396232" lon="15.1369835391542"><ele>605.0</ele><time>2026-04-06T10:44:39.999Z</time></trkpt><trkpt lat="37.85925436484552" lon="15.137032575652139"><ele>605.0</ele><time>2026-04-06T10:44:40.999Z</time></trkpt><trkpt lat="37.8591928275897" lon="15.13708697590127"><ele>605.0</ele><time>2026-04-06T10:44:41.999Z</time></trkpt><trkpt lat="37.85913611209315" lon="15.137152131141159"><ele>604.3333333333333</ele><time>2026-04-06T10:44:42.999Z</time></trkpt><trkpt lat="37.85908367529349" lon="15.137227437243153"><ele>603.6666666666666</ele><time>2026-04-06T10:44:43.999Z</time></trkpt><trkpt lat="37.859044958424036" lon="15.1373135551106"><ele>603.0</ele><time>2026-04-06T10:44:44.999Z</time></trkpt><trkpt lat="37.859001778489514" lon="15.137406392848797"><ele>602.3333333333334</ele><time>2026-04-06T10:44:45.999Z</time></trkpt><trkpt lat="37.8589435811826" lon="15.137488641847396"><ele>601.6666666666667</ele><time>2026-04-06T10:44:46.999Z</time></trkpt><trkpt lat="37.85889770807492" lon="15.137582908932675"><ele>601.0</ele><time>2026-04-06T10:44:47.999Z</time></trkpt><trkpt lat="37.85886352959789" lon="15.137688913922094"><ele>604.4</ele><time>2026-04-06T10:44:48.999Z</time></trkpt><trkpt lat="37.858804788722324" lon="15.137771905328185"><ele>607.8</ele><time>2026-04-06T10:44:49.999Z</time></trkpt><trkpt lat="37.858748712381825" lon="15.13786595991192"><ele>611.1999999999999</ele><time>2026-04-06T10:44:50.999Z</time></trkpt><trkpt lat="37.85869896787477" lon="15.137970501186544"><ele>614.6</ele><time>2026-04-06T10:44:51.999Z</time></trkpt><trkpt lat="37.85864592569025" lon="15.13806615813056"><ele>618.0</ele><time>2026-04-06T10:44:52.999Z</time></trkpt><trkpt lat="37.85859124933447" lon="15.138163750675297"><ele>617.6666666666666</ele><time>2026-04-06T10:44:53.999Z</time></trkpt><trkpt lat="37.858540321244746" lon="15.138259476765075"><ele>617.3333333333334</ele><time>2026-04-06T10:44:54.999Z</time></trkpt><trkpt lat="37.858492951269106" lon="15.13834257843928"><ele>617.0</ele><time>2026-04-06T10:44:55.999Z</time></trkpt><trkpt lat="37.85844321498381" lon="15.138419463673044"><ele>616.6666666666667</ele><time>2026-04-06T10:44:56.999Z</time></trkpt><trkpt lat="37.85840124506575" lon="15.138491556954087"><ele>616.3333333333334</ele><time>2026-04-06T10:44:57.999Z</time></trkpt><trkpt lat="37.858364761074576" lon="15.138563512996503"><ele>616.0</ele><time>2026-04-06T10:44:58.999Z</time></trkpt><trkpt lat="37.85833069481783" lon="15.138633105016115"><ele>616.0</ele><time>2026-04-06T10:44:59.999Z</time></trkpt><trkpt lat="37.85828334006414" lon="15.138691170784217"><ele>616.0</ele><time>2026-04-06T10:45:00.999Z</time></trkpt><trkpt lat="37.858248555594166" lon="15.138760234203104"><ele>616.0</ele><time>2026-04-06T10:45:02.016Z</time></trkpt><trkpt lat="37.85821396966621" lon="15.138828903484416"><ele>616.0</ele><time>2026-04-06T10:45:03.021Z</time></trkpt><trkpt lat="37.85817876352643" lon="15.138898056696647"><ele>616.0</ele><time>2026-04-06T10:45:04.015Z</time></trkpt><trkpt lat="37.85814196284228" lon="15.138968675643914"><ele>616.0</ele><time>2026-04-06T10:45:05.017Z</time></trkpt><trkpt lat="37.858105544448144" lon="15.139038560958216"><ele>616.0</ele><time>2026-04-06T10:45:06.016Z</time></trkpt><trkpt lat="37.858066376221295" lon="15.139113723162348"><ele>619.0</ele><time>2026-04-06T10:45:06.999Z</time></trkpt><trkpt lat="37.85803178846442" lon="15.139182296423966"><ele>622.0</ele><time>2026-04-06T10:45:07.999Z</time></trkpt><trkpt lat="37.857971144910294" lon="15.139359754911462"><ele>625.0</ele><time>2026-04-06T10:45:08.999Z</time></trkpt><trkpt lat="37.85795458277998" lon="15.139487048178546"><ele>628.0</ele><time>2026-04-06T10:45:09.999Z</time></trkpt><trkpt lat="37.85794749411414" lon="15.139587778534471"><ele>631.0</ele><time>2026-04-06T10:45:10.999Z</time></trkpt><trkpt lat="37.85794583401619" lon="15.139678187212107"><ele>631.0</ele><time>2026-04-06T10:45:11.999Z</time></trkpt><trkpt lat="37.85794997366354" lon="15.139773800781711"><ele>631.0</ele><time>2026-04-06T10:45:12.999Z</time></trkpt><trkpt lat="37.85796698730722" lon="15.139869884170752"><ele>631.0</ele><time>2026-04-06T10:45:13.999Z</time></trkpt><trkpt lat="37.857985185655366" lon="15.139962271791497"><ele>631.0</ele><time>2026-04-06T10:45:14.999Z</time></trkpt><trkpt lat="37.85800495704011" lon="15.140049998283903"><ele>631.0</ele><time>2026-04-06T10:45:15.999Z</time></trkpt><trkpt lat="37.85802745211512" lon="15.14012761903512"><ele>631.0</ele><time>2026-04-06T10:45:16.999Z</time></trkpt><trkpt lat="37.858074947491694" lon="15.14026998434525"><ele>630.0</ele><time>2026-04-06T10:45:18.999Z</time></trkpt><trkpt lat="37.858152277543454" lon="15.140392473686887"><ele>629.0</ele><time>2026-04-06T10:45:20.999Z</time></trkpt><trkpt lat="37.85819853034037" lon="15.140449250489885"><ele>628.0</ele><time>2026-04-06T10:45:22Z</time></trkpt><trkpt lat="37.85824817185311" lon="15.140502993161219"><ele>627.0</ele><time>2026-04-06T10:45:23Z</time></trkpt><trkpt lat="37.85835278406304" lon="15.140589225690453"><ele>626.0</ele><time>2026-04-06T10:45:25Z</time></trkpt><trkpt lat="37.85842535986345" lon="15.140614401418288"><ele>627.1666666666666</ele><time>2026-04-06T10:45:26Z</time></trkpt><trkpt lat="37.85849942392997" lon="15.140646198993604"><ele>628.3333333333333</ele><time>2026-04-06T10:45:27Z</time></trkpt><trkpt lat="37.858574586454665" lon="15.140678594929481"><ele>629.5</ele><time>2026-04-06T10:45:28Z</time></trkpt><trkpt lat="37.85865087421993" lon="15.140711475771507"><ele>630.6666666666666</ele><time>2026-04-06T10:45:29Z</time></trkpt><trkpt lat="37.858733620715014" lon="15.14074714049474"><ele>631.8333333333334</ele><time>2026-04-06T10:45:30Z</time></trkpt><trkpt lat="37.85880541776061" lon="15.140790084997576"><ele>633.0</ele><time>2026-04-06T10:45:31Z</time></trkpt><trkpt lat="37.85887572333631" lon="15.140847553540906"><ele>633.0</ele><time>2026-04-06T10:45:32Z</time></trkpt><trkpt lat="37.858943343177124" lon="15.140915540355987"><ele>633.0</ele><time>2026-04-06T10:45:33Z</time></trkpt><trkpt lat="37.85900303313982" lon="15.140986517294461"><ele>633.0</ele><time>2026-04-06T10:45:34Z</time></trkpt><trkpt lat="37.85906785700017" lon="15.141062457347635"><ele>633.0</ele><time>2026-04-06T10:45:35Z</time></trkpt><trkpt lat="37.859131198610285" lon="15.141136535217283"><ele>633.0</ele><time>2026-04-06T10:45:36Z</time></trkpt><trkpt lat="37.8591983266493" lon="15.141206954999868"><ele>633.0</ele><time>2026-04-06T10:45:37Z</time></trkpt><trkpt lat="37.85926822702414" lon="15.141264351786049"><ele>636.8333333333334</ele><time>2026-04-06T10:45:38Z</time></trkpt><trkpt lat="37.85933532431376" lon="15.14132008693267"><ele>640.6666666666666</ele><time>2026-04-06T10:45:39Z</time></trkpt><trkpt lat="37.85940221778022" lon="15.141375652802557"><ele>644.5</ele><time>2026-04-06T10:45:40Z</time></trkpt><trkpt lat="37.859470395715405" lon="15.141430750444956"><ele>648.3333333333333</ele><time>2026-04-06T10:45:41Z</time></trkpt><trkpt lat="37.85953922436174" lon="15.141476332189603"><ele>652.1666666666666</ele><time>2026-04-06T10:45:42Z</time></trkpt><trkpt lat="37.85960981204" lon="15.141512455118871"><ele>656.0</ele><time>2026-04-06T10:45:43Z</time></trkpt><trkpt lat="37.85968565520699" lon="15.14154322131663"><ele>652.4</ele><time>2026-04-06T10:45:44Z</time></trkpt><trkpt lat="37.85976852064607" lon="15.141572312678115"><ele>648.8</ele><time>2026-04-06T10:45:45Z</time></trkpt><trkpt lat="37.8598589607055" lon="15.14157992727115"><ele>645.1999999999999</ele><time>2026-04-06T10:45:46Z</time></trkpt><trkpt lat="37.859950625593925" lon="15.141602072084172"><ele>641.5999999999999</ele><time>2026-04-06T10:45:47Z</time></trkpt><trkpt lat="37.860043342178834" lon="15.141632523224946"><ele>638.0</ele><time>2026-04-06T10:45:48Z</time></trkpt><trkpt lat="37.86014082777983" lon="15.141658803225793"><ele>638.0</ele><time>2026-04-06T10:45:49Z</time></trkpt><trkpt lat="37.86024172662828" lon="15.141675265382156"><ele>638.0</ele><time>2026-04-06T10:45:50Z</time></trkpt><trkpt lat="37.86033755881437" lon="15.14169241031728"><ele>638.0</ele><time>2026-04-06T10:45:51Z</time></trkpt><trkpt lat="37.86043360053116" lon="15.141716505087318"><ele>638.0</ele><time>2026-04-06T10:45:52Z</time></trkpt><trkpt lat="37.8605193043439" lon="15.14174632556628"><ele>638.0</ele><time>2026-04-06T10:45:53Z</time></trkpt><trkpt lat="37.86058402245749" lon="15.141815547932048"><ele>638.0</ele><time>2026-04-06T10:45:54Z</time></trkpt><trkpt lat="37.860657179230984" lon="15.1418678622633"><ele>638.0</ele><time>2026-04-06T10:45:55Z</time></trkpt><trkpt lat="37.86073331608118" lon="15.14192230773816"><ele>638.0</ele><time>2026-04-06T10:45:56Z</time></trkpt><trkpt lat="37.86081179011908" lon="15.141977145796128"><ele>638.0</ele><time>2026-04-06T10:45:57Z</time></trkpt><trkpt lat="37.86089949295378" lon="15.14201307778559"><ele>638.0</ele><time>2026-04-06T10:45:58Z</time></trkpt><trkpt lat="37.860975211834365" lon="15.142065587927563"><ele>638.0</ele><time>2026-04-06T10:45:59Z</time></trkpt><trkpt lat="37.86104318654387" lon="15.142116246393254"><ele>639.8571428571429</ele><time>2026-04-06T10:46:00Z</time></trkpt><trkpt lat="37.86111649084389" lon="15.14215443656561"><ele>641.7142857142857</ele><time>2026-04-06T10:46:01Z</time></trkpt><trkpt lat="37.86118610314851" lon="15.142186236736132"><ele>643.5714285714286</ele><time>2026-04-06T10:46:02Z</time></trkpt><trkpt lat="37.86125599417406" lon="15.142208150006383"><ele>645.4285714285714</ele><time>2026-04-06T10:46:03Z</time></trkpt><trkpt lat="37.8613284352394" lon="15.1422201593457"><ele>647.2857142857142</ele><time>2026-04-06T10:46:04Z</time></trkpt><trkpt lat="37.86140167106465" lon="15.142220079028819"><ele>649.1428571428571</ele><time>2026-04-06T10:46:05Z</time></trkpt><trkpt lat="37.86147030673907" lon="15.142219417741238"><ele>651.0</ele><time>2026-04-06T10:46:06Z</time></trkpt><trkpt lat="37.86153498741707" lon="15.142211249334398"><ele>651.0</ele><time>2026-04-06T10:46:07Z</time></trkpt><trkpt lat="37.861649080793164" lon="15.14221818194298"><ele>651.0</ele><time>2026-04-06T10:46:09Z</time></trkpt><trkpt lat="37.86176341406926" lon="15.142219034801672"><ele>651.0</ele><time>2026-04-06T10:46:11Z</time></trkpt><trkpt lat="37.86188018850224" lon="15.142216044136356"><ele>651.0</ele><time>2026-04-06T10:46:13.021Z</time></trkpt><trkpt lat="37.86199527218996" lon="15.142209787144541"><ele>660.0</ele><time>2026-04-06T10:46:15.023Z</time></trkpt><trkpt lat="37.862282709665735" lon="15.142203497791204"><ele>669.0</ele><time>2026-04-06T10:46:20.003Z</time></trkpt><trkpt lat="37.86239829430213" lon="15.142223301467421"><ele>678.0</ele><time>2026-04-06T10:46:22.003Z</time></trkpt><trkpt lat="37.86268715166898" lon="15.142213830680571"><ele>686.25</ele><time>2026-04-06T10:46:27.003Z</time></trkpt><trkpt lat="37.86280245335207" lon="15.142209275363594"><ele>694.5</ele><time>2026-04-06T10:46:29.002Z</time></trkpt><trkpt lat="37.86291780609222" lon="15.14220471800928"><ele>702.75</ele><time>2026-04-06T10:46:31.002Z</time></trkpt><trkpt lat="37.86303267285186" lon="15.142179148949884"><ele>711.0</ele><time>2026-04-06T10:46:33.002Z</time></trkpt><trkpt lat="37.863263662615765" lon="15.142193077555328"><ele>716.5</ele><time>2026-04-06T10:46:37.002Z</time></trkpt><trkpt lat="37.86349393222283" lon="15.142194680911839"><ele>722.0</ele><time>2026-04-06T10:46:41.003Z</time></trkpt><trkpt lat="37.863781233841785" lon="15.142207181097653"><ele>722.0</ele><time>2026-04-06T10:46:46.003Z</time></trkpt><trkpt lat="37.86389355714409" lon="15.142240770986907"><ele>722.0</ele><time>2026-04-06T10:46:48.003Z</time></trkpt><trkpt lat="37.864003435525596" lon="15.142284981581918"><ele>722.0</ele><time>2026-04-06T10:46:50.002Z</time></trkpt><trkpt lat="37.864104006803714" lon="15.142357711189891"><ele>722.0</ele><time>2026-04-06T10:46:52.002Z</time></trkpt><trkpt lat="37.8642078979768" lon="15.14241911695463"><ele>710.0</ele><time>2026-04-06T10:46:54.002Z</time></trkpt><trkpt lat="37.86431702158707" lon="15.142468805647047"><ele>698.0</ele><time>2026-04-06T10:46:56.002Z</time></trkpt><trkpt lat="37.86440723638527" lon="15.142561431272618"><ele>686.0</ele><time>2026-04-06T10:46:58.002Z</time></trkpt><trkpt lat="37.86450539730617" lon="15.142638168012711"><ele>674.0</ele><time>2026-04-06T10:47:00.003Z</time></trkpt><trkpt lat="37.8646041040604" lon="15.142714285379537"><ele>674.0</ele><time>2026-04-06T10:47:02.002Z</time></trkpt><trkpt lat="37.86470454624822" lon="15.14278678591703"><ele>674.0</ele><time>2026-04-06T10:47:12.999Z</time></trkpt><trkpt lat="37.8647786241278" lon="15.14283405235451"><ele>674.0</ele><time>2026-04-06T10:47:15.999Z</time></trkpt><trkpt lat="37.86483948781969" lon="15.142868936410494"><ele>674.0</ele><time>2026-04-06T10:47:19.001Z</time></trkpt><trkpt lat="37.864897836252844" lon="15.142899240874161"><ele>674.0</ele><time>2026-04-06T10:47:22.001Z</time></trkpt><trkpt lat="37.86497783433201" lon="15.142936810047743"><ele>674.0</ele><time>2026-04-06T10:47:29Z</time></trkpt><trkpt lat="37.865059630393745" lon="15.142964175839506"><ele>673.3333333333333</ele><time>2026-04-06T10:47:32Z</time></trkpt><trkpt lat="37.865138382629404" lon="15.14295997787464"><ele>672.6666666666666</ele><time>2026-04-06T10:47:34Z</time></trkpt><trkpt lat="37.865218387560695" lon="15.142970749225828"><ele>672.0</ele><time>2026-04-06T10:47:36Z</time></trkpt><trkpt lat="37.86528645269202" lon="15.14296936124491"><ele>671.3333333333334</ele><time>2026-04-06T10:47:38Z</time></trkpt><trkpt lat="37.86536276168151" lon="15.14296758086533"><ele>670.6666666666667</ele><time>2026-04-06T10:47:42Z</time></trkpt><trkpt lat="37.865428899002254" lon="15.142976189656869"><ele>670.0</ele><time>2026-04-06T10:47:45Z</time></trkpt><trkpt lat="37.86551214537512" lon="15.142972806563286"><ele>670.0</ele><time>2026-04-06T10:47:48Z</time></trkpt><trkpt lat="37.8656074637826" lon="15.142968213342927"><ele>670.0</ele><time>2026-04-06T10:47:51Z</time></trkpt><trkpt lat="37.8656710308588" lon="15.142964651230182"><ele>670.0</ele><time>2026-04-06T10:47:53Z</time></trkpt><trkpt lat="37.8657550329182" lon="15.14296021517883"><ele>670.0</ele><time>2026-04-06T10:47:56Z</time></trkpt><trkpt lat="37.86581932961809" lon="15.142949674613115"><ele>670.0</ele><time>2026-04-06T10:48:03Z</time></trkpt><trkpt lat="37.86589615202216" lon="15.142937713986933"><ele>670.0</ele><time>2026-04-06T10:48:08Z</time></trkpt><trkpt lat="37.86596526210399" lon="15.142929343613993"><ele>671.0</ele><time>2026-04-06T10:48:12Z</time></trkpt><trkpt lat="37.866046944218304" lon="15.142916753897993"><ele>672.0</ele><time>2026-04-06T10:48:17Z</time></trkpt><trkpt lat="37.86611363071166" lon="15.142930253044101"><ele>673.0</ele><time>2026-04-06T10:48:25Z</time></trkpt><trkpt lat="37.86620873359422" lon="15.142943024241445"><ele>674.0</ele><time>2026-04-06T10:48:28Z</time></trkpt><trkpt lat="37.866293855510754" lon="15.142923496209633"><ele>675.0</ele><time>2026-04-06T10:48:30.016Z</time></trkpt><trkpt lat="37.866500895596616" lon="15.14280846113774"><ele>675.0</ele><time>2026-04-06T10:48:35.001Z</time></trkpt><trkpt lat="37.8665860793377" lon="15.142776914393282"><ele>675.0</ele><time>2026-04-06T10:48:37.001Z</time></trkpt><trkpt lat="37.86667056045182" lon="15.142742230326375"><ele>675.0</ele><time>2026-04-06T10:48:39.002Z</time></trkpt><trkpt lat="37.86680242950477" lon="15.14270942739257"><ele>675.0</ele><time>2026-04-06T10:48:42.001Z</time></trkpt><trkpt lat="37.86688643839993" lon="15.14267314542646"><ele>675.0</ele><time>2026-04-06T10:48:44.001Z</time></trkpt><trkpt lat="37.86729592662995" lon="15.142499261170684"><ele>672.6</ele><time>2026-04-06T10:48:46Z</time></trkpt><trkpt lat="37.86735179200635" lon="15.142444611150513"><ele>670.2</ele><time>2026-04-06T10:48:47Z</time></trkpt><trkpt lat="37.86742041655483" lon="15.142360590512274"><ele>667.8</ele><time>2026-04-06T10:48:48Z</time></trkpt><trkpt lat="37.86751297144957" lon="15.142311686490746"><ele>665.4</ele><time>2026-04-06T10:48:50Z</time></trkpt><trkpt lat="37.867601750960524" lon="15.14226897212247"><ele>663.0</ele><time>2026-04-06T10:48:52Z</time></trkpt><trkpt lat="37.86770673536013" lon="15.142207386173549"><ele>662.9999999999999</ele><time>2026-04-06T10:48:54Z</time></trkpt><trkpt lat="37.86777800063112" lon="15.142160778258376"><ele>663.0</ele><time>2026-04-06T10:48:56Z</time></trkpt><trkpt lat="37.86783973375073" lon="15.142123130526272"><ele>663.0</ele><time>2026-04-06T10:49:01Z</time></trkpt><trkpt lat="37.867897732266044" lon="15.142087112915156"><ele>663.0</ele><time>2026-04-06T10:49:07Z</time></trkpt><trkpt lat="37.867958482292984" lon="15.142046987703354"><ele>663.0</ele><time>2026-04-06T10:49:18Z</time></trkpt><trkpt lat="37.86803662762294" lon="15.142007798176955"><ele>662.9999999999999</ele><time>2026-04-06T10:49:23.001Z</time></trkpt><trkpt lat="37.86810455230576" lon="15.141965485188324"><ele>663.0</ele><time>2026-04-06T10:49:26.001Z</time></trkpt><trkpt lat="37.86817673973587" lon="15.14192809075243"><ele>663.0</ele><time>2026-04-06T10:49:30.001Z</time></trkpt><trkpt lat="37.86825986423142" lon="15.141892683250596"><ele>663.0</ele><time>2026-04-06T10:49:35.001Z</time></trkpt><trkpt lat="37.868318681676236" lon="15.141857965550155"><ele>663.0</ele><time>2026-04-06T10:49:37.001Z</time></trkpt><trkpt lat="37.86838639018853" lon="15.14182379124632"><ele>663.0</ele><time>2026-04-06T10:49:39.001Z</time></trkpt><trkpt lat="37.86847189558278" lon="15.141806901595032"><ele>663.0</ele><time>2026-04-06T10:49:41.018Z</time></trkpt><trkpt lat="37.868570597178596" lon="15.141773322600049"><ele>663.0</ele><time>2026-04-06T10:49:43.027Z</time></trkpt><trkpt lat="37.86888409278682" lon="15.141609799072839"><ele>663.75</ele><time>2026-04-06T10:49:49.002Z</time></trkpt><trkpt lat="37.86898901627292" lon="15.141554970659572"><ele>664.5</ele><time>2026-04-06T10:49:51.001Z</time></trkpt><trkpt lat="37.869085382503734" lon="15.141477181258574"><ele>665.25</ele><time>2026-04-06T10:49:53.002Z</time></trkpt><trkpt lat="37.86918621938764" lon="15.141412899268461"><ele>666.0</ele><time>2026-04-06T10:49:55Z</time></trkpt><trkpt lat="37.86928574341211" lon="15.14134504229463"><ele>666.0</ele><time>2026-04-06T10:49:57.001Z</time></trkpt><trkpt lat="37.86939301306669" lon="15.141295211087147"><ele>666.0</ele><time>2026-04-06T10:49:59.001Z</time></trkpt><trkpt lat="37.869484318660184" lon="15.141208469444681"><ele>666.0</ele><time>2026-04-06T10:50:01Z</time></trkpt><trkpt lat="37.8695836072489" lon="15.14114018235624"><ele>666.0</ele><time>2026-04-06T10:50:03Z</time></trkpt><trkpt lat="37.86968294518963" lon="15.141071861325273"><ele>666.0</ele><time>2026-04-06T10:50:05.001Z</time></trkpt><trkpt lat="37.86979020710383" lon="15.141022035461038"><ele>666.0</ele><time>2026-04-06T10:50:07.001Z</time></trkpt><trkpt lat="37.86988215377543" lon="15.14093684557815"><ele>666.0</ele><time>2026-04-06T10:50:09.001Z</time></trkpt><trkpt lat="37.87013554616734" lon="15.140769192441839"><ele>664.2857142857143</ele><time>2026-04-06T10:50:10Z</time></trkpt><trkpt lat="37.87018220701768" lon="15.140714573968328"><ele>662.5714285714286</ele><time>2026-04-06T10:50:14Z</time></trkpt><trkpt lat="37.87020353659654" lon="15.140616948115799"><ele>660.8571428571429</ele><time>2026-04-06T10:50:17Z</time></trkpt><trkpt lat="37.870204198443155" lon="15.140512334836709"><ele>659.1428571428571</ele><time>2026-04-06T10:50:25Z</time></trkpt><trkpt lat="37.87025610451715" lon="15.14043925992861"><ele>657.4285714285714</ele><time>2026-04-06T10:50:31Z</time></trkpt><trkpt lat="37.870313891401146" lon="15.140391089335477"><ele>655.7142857142857</ele><time>2026-04-06T10:50:38Z</time></trkpt><trkpt lat="37.87037983716489" lon="15.140424051896135"><ele>654.0</ele><time>2026-04-06T10:50:43Z</time></trkpt><trkpt lat="37.87045791110808" lon="15.140441248540528"><ele>654.0</ele><time>2026-04-06T10:50:49Z</time></trkpt><trkpt lat="37.870525534855865" lon="15.140418242681651"><ele>654.0</ele><time>2026-04-06T10:50:52Z</time></trkpt><trkpt lat="37.87058851110449" lon="15.140395101611517"><ele>654.0</ele><time>2026-04-06T10:50:55Z</time></trkpt><trkpt lat="37.87066288201188" lon="15.14041522295708"><ele>654.0</ele><time>2026-04-06T10:51:03Z</time></trkpt><trkpt lat="37.87072798140572" lon="15.140431974216389"><ele>654.0</ele><time>2026-04-06T10:51:08Z</time></trkpt><trkpt lat="37.87080338124748" lon="15.140389073382751"><ele>654.0</ele><time>2026-04-06T10:51:17Z</time></trkpt><trkpt lat="37.87087543009867" lon="15.140352332071426"><ele>654.0</ele><time>2026-04-06T10:51:20Z</time></trkpt><trkpt lat="37.87093767776396" lon="15.140322469128973"><ele>647.2</ele><time>2026-04-06T10:51:22Z</time></trkpt><trkpt lat="37.8710037115656" lon="15.140293259996444"><ele>640.4000000000001</ele><time>2026-04-06T10:51:24Z</time></trkpt><trkpt lat="37.87108762774822" lon="15.140238535898169"><ele>633.6</ele><time>2026-04-06T10:51:26Z</time></trkpt><trkpt lat="37.8711792875134" lon="15.140188739262582"><ele>626.8</ele><time>2026-04-06T10:51:28Z</time></trkpt><trkpt lat="37.87126479669828" lon="15.140132834514873"><ele>620.0</ele><time>2026-04-06T10:51:30.001Z</time></trkpt><trkpt lat="37.87134796037088" lon="15.140069309409553"><ele>620.0</ele><time>2026-04-06T10:51:32.001Z</time></trkpt><trkpt lat="37.87143252252658" lon="15.140002137042682"><ele>620.0</ele><time>2026-04-06T10:51:34.001Z</time></trkpt><trkpt lat="37.871513504997104" lon="15.139912356886898"><ele>620.0</ele><time>2026-04-06T10:51:36.001Z</time></trkpt><trkpt lat="37.871585997161105" lon="15.139799105785176"><ele>620.0</ele><time>2026-04-06T10:51:38.001Z</time></trkpt><trkpt lat="37.87162181412127" lon="15.13973274383654"><ele>620.0</ele><time>2026-04-06T10:51:39.001Z</time></trkpt><trkpt lat="37.871654098825154" lon="15.13964983651816"><ele>619.1666666666666</ele><time>2026-04-06T10:51:40.001Z</time></trkpt><trkpt lat="37.87168714304525" lon="15.13956232918237"><ele>618.3333333333333</ele><time>2026-04-06T10:51:41.001Z</time></trkpt><trkpt lat="37.871723455979485" lon="15.139470610432515"><ele>617.5</ele><time>2026-04-06T10:51:42.001Z</time></trkpt><trkpt lat="37.871760672061285" lon="15.13938189922767"><ele>616.6666666666666</ele><time>2026-04-06T10:51:43.001Z</time></trkpt><trkpt lat="37.871803120168586" lon="15.139293056911347"><ele>615.8333333333334</ele><time>2026-04-06T10:51:44.001Z</time></trkpt><trkpt lat="37.87183685832532" lon="15.139199399827115"><ele>615.0</ele><time>2026-04-06T10:51:45.001Z</time></trkpt><trkpt lat="37.871870990042986" lon="15.139104801928319"><ele>617.5</ele><time>2026-04-06T10:51:46.001Z</time></trkpt><trkpt lat="37.8719014539876" lon="15.139010868590258"><ele>620.0</ele><time>2026-04-06T10:51:47Z</time></trkpt><trkpt lat="37.871931211299014" lon="15.138914720413373"><ele>622.5</ele><time>2026-04-06T10:51:48Z</time></trkpt><trkpt lat="37.87196059531827" lon="15.138823185857659"><ele>625.0</ele><time>2026-04-06T10:51:49Z</time></trkpt><trkpt lat="37.87198872774704" lon="15.13873586652671"><ele>627.5</ele><time>2026-04-06T10:51:50Z</time></trkpt><trkpt lat="37.87202159202224" lon="15.138652328166398"><ele>630.0</ele><time>2026-04-06T10:51:51Z</time></trkpt><trkpt lat="37.872061442464435" lon="15.138585309084828"><ele>630.0</ele><time>2026-04-06T10:51:52Z</time></trkpt><trkpt lat="37.87208557388443" lon="15.13850808881116"><ele>630.0</ele><time>2026-04-06T10:51:53Z</time></trkpt><trkpt lat="37.87214639629462" lon="15.138375228196907"><ele>630.0</ele><time>2026-04-06T10:51:55Z</time></trkpt><trkpt lat="37.872207133608306" lon="15.138268974465447"><ele>630.0</ele><time>2026-04-06T10:51:57Z</time></trkpt><trkpt lat="37.8722668893268" lon="15.138202256651482"><ele>630.0</ele><time>2026-04-06T10:51:59Z</time></trkpt><trkpt lat="37.872309270352304" lon="15.13813353758107"><ele>630.0</ele><time>2026-04-06T10:52:06Z</time></trkpt><trkpt lat="37.87236770979783" lon="15.138072971115985"><ele>634.5</ele><time>2026-04-06T10:52:10Z</time></trkpt><trkpt lat="37.8724356187594" lon="15.138005694800274"><ele>639.0</ele><time>2026-04-06T10:52:13Z</time></trkpt><trkpt lat="37.87249635410105" lon="15.137961783104714"><ele>643.5</ele><time>2026-04-06T10:52:15Z</time></trkpt><trkpt lat="37.87257326888297" lon="15.13792226064992"><ele>648.0</ele><time>2026-04-06T10:52:17Z</time></trkpt><trkpt lat="37.872661045586284" lon="15.137918384462102"><ele>652.5</ele><time>2026-04-06T10:52:19Z</time></trkpt><trkpt lat="37.87273964945541" lon="15.137900619888551"><ele>657.0</ele><time>2026-04-06T10:52:21.019Z</time></trkpt><trkpt lat="37.8728270060332" lon="15.137881200315995"><ele>660.6666666666666</ele><time>2026-04-06T10:52:23.02Z</time></trkpt><trkpt lat="37.87292669989865" lon="15.137859039437025"><ele>664.3333333333333</ele><time>2026-04-06T10:52:25.019Z</time></trkpt><trkpt lat="37.87324395318224" lon="15.137763718244212"><ele>668.0</ele><time>2026-04-06T10:52:30.999Z</time></trkpt><trkpt lat="37.87340884419545" lon="15.1377403982322"><ele>660.0</ele><time>2026-04-06T10:52:33.999Z</time></trkpt><trkpt lat="37.873512541243954" lon="15.137688799063357"><ele>652.0</ele><time>2026-04-06T10:52:36Z</time></trkpt><trkpt lat="37.873676920461484" lon="15.13766138004029"><ele>644.0</ele><time>2026-04-06T10:52:38.999Z</time></trkpt><trkpt lat="37.87378393836193" lon="15.137629463843766"><ele>636.0</ele><time>2026-04-06T10:52:40.999Z</time></trkpt><trkpt lat="37.87404676571991" lon="15.137591101570473"><ele>636.0</ele><time>2026-04-06T10:52:43Z</time></trkpt><trkpt lat="37.874112096455185" lon="15.137540267907783"><ele>636.0</ele><time>2026-04-06T10:52:44Z</time></trkpt><trkpt lat="37.87418985831364" lon="15.137521481932973"><ele>636.0</ele><time>2026-04-06T10:52:46Z</time></trkpt><trkpt lat="37.87426364138739" lon="15.137504602590482"><ele>636.0</ele><time>2026-04-06T10:52:48Z</time></trkpt><trkpt lat="37.87435493285101" lon="15.13748991756296"><ele>636.0</ele><time>2026-04-06T10:52:51Z</time></trkpt><trkpt lat="37.874443693499444" lon="15.137467691097548"><ele>636.0</ele><time>2026-04-06T10:52:54Z</time></trkpt><trkpt lat="37.87454089217639" lon="15.137442354128625"><ele>636.8</ele><time>2026-04-06T10:52:57Z</time></trkpt><trkpt lat="37.87462121568138" lon="15.137413614111491"><ele>637.6</ele><time>2026-04-06T10:52:59Z</time></trkpt><trkpt lat="37.874699833511144" lon="15.137392449575513"><ele>638.4</ele><time>2026-04-06T10:53:01Z</time></trkpt><trkpt lat="37.874786258275556" lon="15.13737275008015"><ele>639.2</ele><time>2026-04-06T10:53:03Z</time></trkpt><trkpt lat="37.87488319711393" lon="15.13735119069824"><ele>640.0</ele><time>2026-04-06T10:53:05Z</time></trkpt><trkpt lat="37.874979363780355" lon="15.137317700203472"><ele>642.4</ele><time>2026-04-06T10:53:07Z</time></trkpt><trkpt lat="37.87507846690958" lon="15.137275018426198"><ele>644.8</ele><time>2026-04-06T10:53:09Z</time></trkpt><trkpt lat="37.87518602875043" lon="15.137241284646425"><ele>647.2</ele><time>2026-04-06T10:53:11Z</time></trkpt><trkpt lat="37.87528389694074" lon="15.137186137495874"><ele>649.6</ele><time>2026-04-06T10:53:13Z</time></trkpt><trkpt lat="37.87538253144999" lon="15.137131630398022"><ele>652.0</ele><time>2026-04-06T10:53:15Z</time></trkpt><trkpt lat="37.87529186813669" lon="15.13720407474705"><ele>603.0</ele><time>2026-04-06T10:53:16Z</time></trkpt><trkpt lat="37.87615050314941" lon="15.135840700495692"><ele>603.0</ele><time>2026-04-06T10:53:29.999Z</time></trkpt><trkpt lat="37.876180541166796" lon="15.135749498070888"><ele>603.0</ele><time>2026-04-06T10:53:30.999Z</time></trkpt><trkpt lat="37.87618209304151" lon="15.135665938141038"><ele>603.0</ele><time>2026-04-06T10:53:31.999Z</time></trkpt><trkpt lat="37.87619456058907" lon="15.135587148226358"><ele>603.0</ele><time>2026-04-06T10:53:32.999Z</time></trkpt><trkpt lat="37.87622881858807" lon="15.13543295915799"><ele>603.0</ele><time>2026-04-06T10:53:35.001Z</time></trkpt><trkpt lat="37.87622729440429" lon="15.135334080717847"><ele>603.0</ele><time>2026-04-06T10:53:36.001Z</time></trkpt><trkpt lat="37.876215170044844" lon="15.135243924028556"><ele>602.6666666666666</ele><time>2026-04-06T10:53:37.001Z</time></trkpt><trkpt lat="37.876215704150425" lon="15.135149977026124"><ele>602.3333333333334</ele><time>2026-04-06T10:53:38.001Z</time></trkpt><trkpt lat="37.87621728565805" lon="15.13505055557454"><ele>602.0</ele><time>2026-04-06T10:53:39.001Z</time></trkpt><trkpt lat="37.87622542731896" lon="15.134948776492632"><ele>601.6666666666667</ele><time>2026-04-06T10:53:40.001Z</time></trkpt><trkpt lat="37.87622876629193" lon="15.134859290960007"><ele>601.3333333333334</ele><time>2026-04-06T10:53:41.001Z</time></trkpt><trkpt lat="37.876243989336665" lon="15.134755308771968"><ele>601.0</ele><time>2026-04-06T10:53:42.001Z</time></trkpt><trkpt lat="37.87624859211549" lon="15.134655418618854"><ele>602.1428571428571</ele><time>2026-04-06T10:53:43Z</time></trkpt><trkpt lat="37.8762592042515" lon="15.134553275488017"><ele>603.2857142857143</ele><time>2026-04-06T10:53:44Z</time></trkpt><trkpt lat="37.87626788842934" lon="15.13446612670841"><ele>604.4285714285714</ele><time>2026-04-06T10:53:45Z</time></trkpt><trkpt lat="37.876267066768" lon="15.134373083664773"><ele>605.5714285714286</ele><time>2026-04-06T10:53:46Z</time></trkpt><trkpt lat="37.87625848830037" lon="15.134271853874829"><ele>606.7142857142858</ele><time>2026-04-06T10:53:47Z</time></trkpt><trkpt lat="37.87624763274356" lon="15.134186015733297"><ele>607.8571428571429</ele><time>2026-04-06T10:53:48Z</time></trkpt><trkpt lat="37.8762289505774" lon="15.134107476678206"><ele>609.0</ele><time>2026-04-06T10:53:49Z</time></trkpt><trkpt lat="37.87621560162044" lon="15.13402209347421"><ele>605.0</ele><time>2026-04-06T10:53:50Z</time></trkpt><trkpt lat="37.87618106578864" lon="15.133899667558188"><ele>601.0</ele><time>2026-04-06T10:53:52Z</time></trkpt><trkpt lat="37.876129850478605" lon="15.133797503266749"><ele>597.0</ele><time>2026-04-06T10:53:54Z</time></trkpt><trkpt lat="37.876084659498446" lon="15.133712971377635"><ele>593.0</ele><time>2026-04-06T10:53:56Z</time></trkpt><trkpt lat="37.87601916356079" lon="15.13362234526955"><ele>589.0</ele><time>2026-04-06T10:53:58Z</time></trkpt><trkpt lat="37.87594608738912" lon="15.133517189621163"><ele>590.0</ele><time>2026-04-06T10:54:00Z</time></trkpt><trkpt lat="37.87587062388079" lon="15.133399079035435"><ele>591.0</ele><time>2026-04-06T10:54:02Z</time></trkpt><trkpt lat="37.87582119843189" lon="15.133348925391262"><ele>592.0</ele><time>2026-04-06T10:54:03Z</time></trkpt><trkpt lat="37.87574667121172" lon="15.133233031267121"><ele>593.0</ele><time>2026-04-06T10:54:05Z</time></trkpt><trkpt lat="37.875662307917516" lon="15.133123829547168"><ele>594.0</ele><time>2026-04-06T10:54:07Z</time></trkpt><trkpt lat="37.87557808525745" lon="15.133012753613459"><ele>594.0</ele><time>2026-04-06T10:54:09Z</time></trkpt><trkpt lat="37.875506356539226" lon="15.132899231715076"><ele>594.0</ele><time>2026-04-06T10:54:11Z</time></trkpt><trkpt lat="37.875436344796924" lon="15.132781779986487"><ele>594.0</ele><time>2026-04-06T10:54:13Z</time></trkpt><trkpt lat="37.87537649593451" lon="15.132657144391725"><ele>594.0</ele><time>2026-04-06T10:54:15Z</time></trkpt><trkpt lat="37.87534769491766" lon="15.132585456883486"><ele>594.0</ele><time>2026-04-06T10:54:16Z</time></trkpt><trkpt lat="37.87529341716249" lon="15.132450184793232"><ele>593.3333333333334</ele><time>2026-04-06T10:54:18Z</time></trkpt><trkpt lat="37.87523772790842" lon="15.132315122958591"><ele>592.6666666666666</ele><time>2026-04-06T10:54:20Z</time></trkpt><trkpt lat="37.8752028622304" lon="15.132174837027993"><ele>592.0</ele><time>2026-04-06T10:54:22Z</time></trkpt><trkpt lat="37.87519560212965" lon="15.13209395583471"><ele>591.3333333333333</ele><time>2026-04-06T10:54:23Z</time></trkpt><trkpt lat="37.87518086841427" lon="15.13201219501796"><ele>590.6666666666666</ele><time>2026-04-06T10:54:24Z</time></trkpt><trkpt lat="37.87517212123185" lon="15.13193143585014"><ele>590.0</ele><time>2026-04-06T10:54:25Z</time></trkpt><trkpt lat="37.87517589561763" lon="15.13178063559136"><ele>590.0</ele><time>2026-04-06T10:54:27Z</time></trkpt><trkpt lat="37.875197498369" lon="15.13163840588569"><ele>590.0</ele><time>2026-04-06T10:54:29Z</time></trkpt><trkpt lat="37.875224946152045" lon="15.13154426696173"><ele>590.0</ele><time>2026-04-06T10:54:31Z</time></trkpt><trkpt lat="37.875257707887656" lon="15.131458278283509"><ele>590.0</ele><time>2026-04-06T10:54:35Z</time></trkpt><trkpt lat="37.875292351342644" lon="15.131364821688093"><ele>590.0</ele><time>2026-04-06T10:54:38Z</time></trkpt><trkpt lat="37.87533982030741" lon="15.131272536098711"><ele>590.0</ele><time>2026-04-06T10:54:40Z</time></trkpt><trkpt lat="37.87537998500715" lon="15.131159507487075"><ele>591.75</ele><time>2026-04-06T10:54:42Z</time></trkpt><trkpt lat="37.87539865103358" lon="15.13102616210264"><ele>593.5</ele><time>2026-04-06T10:54:44Z</time></trkpt><trkpt lat="37.87540826825146" lon="15.130873944213093"><ele>595.25</ele><time>2026-04-06T10:54:46Z</time></trkpt><trkpt lat="37.875401907681834" lon="15.13073027613775"><ele>597.0</ele><time>2026-04-06T10:54:48Z</time></trkpt><trkpt lat="37.875358531916085" lon="15.130597630970406"><ele>600.0000000000001</ele><time>2026-04-06T10:54:50Z</time></trkpt><trkpt lat="37.87532157917852" lon="15.130492325311861"><ele>603.0</ele><time>2026-04-06T10:54:52Z</time></trkpt><trkpt lat="37.87534725501156" lon="15.130405025905416"><ele>606.0</ele><time>2026-04-06T10:54:54Z</time></trkpt><trkpt lat="37.8753763224326" lon="15.130330358471879"><ele>609.0</ele><time>2026-04-06T10:54:56Z</time></trkpt><trkpt lat="37.87542620853704" lon="15.130234476640481"><ele>612.0</ele><time>2026-04-06T10:54:58Z</time></trkpt><trkpt lat="37.87546943664707" lon="15.130174506400918"><ele>615.0000000000001</ele><time>2026-04-06T10:54:59.999Z</time></trkpt><trkpt lat="37.87552080788412" lon="15.130126870491099"><ele>618.0</ele><time>2026-04-06T10:55:04.999Z</time></trkpt><trkpt lat="37.875578967783795" lon="15.130059533540871"><ele>618.0000000000001</ele><time>2026-04-06T10:55:10.999Z</time></trkpt><trkpt lat="37.875648099748325" lon="15.129989516743855"><ele>618.0</ele><time>2026-04-06T10:55:13.999Z</time></trkpt><trkpt lat="37.875708149237525" lon="15.129944737758514"><ele>618.0</ele><time>2026-04-06T10:55:15.999Z</time></trkpt><trkpt lat="37.87577454224657" lon="15.129898880804797"><ele>618.0</ele><time>2026-04-06T10:55:17.999Z</time></trkpt><trkpt lat="37.87583369133408" lon="15.129865263833318"><ele>618.0</ele><time>2026-04-06T10:55:19.999Z</time></trkpt><trkpt lat="37.87589507296639" lon="15.1298357086216"><ele>618.0000000000001</ele><time>2026-04-06T10:55:24.999Z</time></trkpt><trkpt lat="37.8758248681578" lon="15.129866530509243"><ele>618.0</ele><time>2026-04-06T10:55:41Z</time></trkpt><trkpt lat="37.87573872705408" lon="15.129942566439658"><ele>618.0</ele><time>2026-04-06T10:55:43Z</time></trkpt><trkpt lat="37.875675333902045" lon="15.129991270110887"><ele>618.0</ele><time>2026-04-06T10:55:44Z</time></trkpt><trkpt lat="37.87561344385384" lon="15.130038815794261"><ele>618.0</ele><time>2026-04-06T10:55:45Z</time></trkpt><trkpt lat="37.87555810641398" lon="15.130090960058856"><ele>618.0</ele><time>2026-04-06T10:55:46Z</time></trkpt><trkpt lat="37.87550810778549" lon="15.13015035576932"><ele>618.0</ele><time>2026-04-06T10:55:47Z</time></trkpt><trkpt lat="37.87542514326795" lon="15.130268822445222"><ele>618.0</ele><time>2026-04-06T10:55:49Z</time></trkpt><trkpt lat="37.87537205522357" lon="15.130371996811713"><ele>618.0</ele><time>2026-04-06T10:55:51Z</time></trkpt><trkpt lat="37.87533274096027" lon="15.130460480806862"><ele>618.0</ele><time>2026-04-06T10:55:53Z</time></trkpt><trkpt lat="37.87532536948623" lon="15.130546094449087"><ele>618.0</ele><time>2026-04-06T10:55:55Z</time></trkpt><trkpt lat="37.87535652234863" lon="15.130631728359075"><ele>618.0</ele><time>2026-04-06T10:55:57Z</time></trkpt><trkpt lat="37.8754003385709" lon="15.130726995680677"><ele>618.0</ele><time>2026-04-06T10:55:59Z</time></trkpt><trkpt lat="37.87541820179086" lon="15.130833628019888"><ele>618.0</ele><time>2026-04-06T10:56:01Z</time></trkpt><trkpt lat="37.87541013359787" lon="15.13093636323758"><ele>613.8</ele><time>2026-04-06T10:56:03Z</time></trkpt><trkpt lat="37.875397898440845" lon="15.131052966667777"><ele>609.5999999999999</ele><time>2026-04-06T10:56:05Z</time></trkpt><trkpt lat="37.875383585224476" lon="15.131179561545178"><ele>605.4000000000001</ele><time>2026-04-06T10:56:07Z</time></trkpt><trkpt lat="37.87533587931065" lon="15.131309033773272"><ele>601.2</ele><time>2026-04-06T10:56:09Z</time></trkpt><trkpt lat="37.87535533786691" lon="15.131436059941828"><ele>597.0</ele><time>2026-04-06T10:56:11Z</time></trkpt><trkpt lat="37.87525079045269" lon="15.131461589990773"><ele>597.0</ele><time>2026-04-06T10:56:12Z</time></trkpt><trkpt lat="37.875209091054124" lon="15.131533111272487"><ele>597.0</ele><time>2026-04-06T10:56:15Z</time></trkpt><trkpt lat="37.87519055937086" lon="15.131615516642276"><ele>597.0</ele><time>2026-04-06T10:56:17Z</time></trkpt><trkpt lat="37.87517009953699" lon="15.131720421115256"><ele>597.0</ele><time>2026-04-06T10:56:19Z</time></trkpt><trkpt lat="37.87516069020218" lon="15.131849108985993"><ele>597.0</ele><time>2026-04-06T10:56:21Z</time></trkpt><trkpt lat="37.87516980928583" lon="15.131992418760547"><ele>597.0</ele><time>2026-04-06T10:56:23Z</time></trkpt><trkpt lat="37.87519059653027" lon="15.132135064150459"><ele>596.4</ele><time>2026-04-06T10:56:25Z</time></trkpt><trkpt lat="37.87521576217488" lon="15.132266198643858"><ele>595.8000000000001</ele><time>2026-04-06T10:56:27Z</time></trkpt><trkpt lat="37.87522041050574" lon="15.13240251016933"><ele>595.2</ele><time>2026-04-06T10:56:29Z</time></trkpt><trkpt lat="37.87526947088824" lon="15.132514969253945"><ele>594.6</ele><time>2026-04-06T10:56:31Z</time></trkpt><trkpt lat="37.8753190200953" lon="15.132615448036235"><ele>594.0</ele><time>2026-04-06T10:56:33Z</time></trkpt><trkpt lat="37.875371563408365" lon="15.132703181919542"><ele>594.0</ele><time>2026-04-06T10:56:35Z</time></trkpt><trkpt lat="37.87542490039543" lon="15.132804621747269"><ele>594.0</ele><time>2026-04-06T10:56:37Z</time></trkpt><trkpt lat="37.87548973846852" lon="15.132913348994382"><ele>594.0</ele><time>2026-04-06T10:56:39Z</time></trkpt><trkpt lat="37.87556279835602" lon="15.133021024190366"><ele>594.0</ele><time>2026-04-06T10:56:41Z</time></trkpt><trkpt lat="37.87564532901685" lon="15.133148615813013"><ele>594.0</ele><time>2026-04-06T10:56:43Z</time></trkpt><trkpt lat="37.8757079618973" lon="15.133212035981371"><ele>593.1666666666666</ele><time>2026-04-06T10:56:44Z</time></trkpt><trkpt lat="37.8757556208454" lon="15.133279255007539"><ele>592.3333333333334</ele><time>2026-04-06T10:56:45Z</time></trkpt><trkpt lat="37.87579784271525" lon="15.133343012555708"><ele>591.5</ele><time>2026-04-06T10:56:46Z</time></trkpt><trkpt lat="37.87586517210427" lon="15.133458531875359"><ele>590.6666666666667</ele><time>2026-04-06T10:56:48Z</time></trkpt><trkpt lat="37.87593655325751" lon="15.133542211296902"><ele>589.8333333333334</ele><time>2026-04-06T10:56:50Z</time></trkpt><trkpt lat="37.87597386821882" lon="15.133609856572487"><ele>589.0</ele><time>2026-04-06T10:57:06.999Z</time></trkpt><trkpt lat="37.8760223896697" lon="15.13367352098368"><ele>589.0</ele><time>2026-04-06T10:57:09.999Z</time></trkpt><trkpt lat="37.87607024602926" lon="15.133743556371035"><ele>589.0</ele><time>2026-04-06T10:57:12.999Z</time></trkpt><trkpt lat="37.87610726770785" lon="15.133818893757233"><ele>589.0</ele><time>2026-04-06T10:57:15.999Z</time></trkpt><trkpt lat="37.87614398883625" lon="15.133913191514539"><ele>589.0</ele><time>2026-04-06T10:57:18.999Z</time></trkpt><trkpt lat="37.876177264755455" lon="15.134022169238962"><ele>589.0</ele><time>2026-04-06T10:57:21.999Z</time></trkpt><trkpt lat="37.87620421765077" lon="15.13413187810874"><ele>589.0</ele><time>2026-04-06T10:57:24.999Z</time></trkpt><trkpt lat="37.8762237078106" lon="15.134241663712833"><ele>591.0</ele><time>2026-04-06T10:57:27.999Z</time></trkpt><trkpt lat="37.87623209082711" lon="15.134336050375245"><ele>593.0</ele><time>2026-04-06T10:57:29.999Z</time></trkpt><trkpt lat="37.87623121183812" lon="15.134433234121184"><ele>595.0</ele><time>2026-04-06T10:57:31.999Z</time></trkpt><trkpt lat="37.87624165690513" lon="15.134550332517092"><ele>597.0</ele><time>2026-04-06T10:57:33.999Z</time></trkpt><trkpt lat="37.87622300464921" lon="15.134683863222746"><ele>599.0</ele><time>2026-04-06T10:57:35.999Z</time></trkpt><trkpt lat="37.87620879377084" lon="15.134781067034222"><ele>601.0</ele><time>2026-04-06T10:57:36.999Z</time></trkpt><trkpt lat="37.87619291404224" lon="15.134889836697452"><ele>601.0</ele><time>2026-04-06T10:57:37.999Z</time></trkpt><trkpt lat="37.876188226066446" lon="15.135001717629546"><ele>601.0</ele><time>2026-04-06T10:57:38.999Z</time></trkpt><trkpt lat="37.87617983311691" lon="15.135121922957511"><ele>601.0</ele><time>2026-04-06T10:57:39.999Z</time></trkpt><trkpt lat="37.876181495670075" lon="15.135246076708448"><ele>601.0</ele><time>2026-04-06T10:57:40.999Z</time></trkpt><trkpt lat="37.87617608819609" lon="15.135373982591892"><ele>601.0</ele><time>2026-04-06T10:57:41.999Z</time></trkpt><trkpt lat="37.876173644395365" lon="15.135487849504262"><ele>601.0</ele><time>2026-04-06T10:57:42.999Z</time></trkpt><trkpt lat="37.876144575762446" lon="15.135581304635306"><ele>601.0</ele><time>2026-04-06T10:57:43.999Z</time></trkpt><trkpt lat="37.87613899788719" lon="15.135662608116677"><ele>601.0</ele><time>2026-04-06T10:57:44.999Z</time></trkpt><trkpt lat="37.876118822081374" lon="15.135773869400975"><ele>601.0</ele><time>2026-04-06T10:57:47Z</time></trkpt><trkpt lat="37.87609821309466" lon="15.135854042904016"><ele>601.0</ele><time>2026-04-06T10:57:51Z</time></trkpt><trkpt lat="37.87620867471573" lon="15.135974599759288"><ele>601.0</ele><time>2026-04-06T10:57:54Z</time></trkpt><trkpt lat="37.876237565273044" lon="15.136062386778633"><ele>601.2857142857142</ele><time>2026-04-06T10:57:56Z</time></trkpt><trkpt lat="37.87626833978703" lon="15.136139540203553"><ele>601.5714285714287</ele><time>2026-04-06T10:57:58Z</time></trkpt><trkpt lat="37.87630735737694" lon="15.136210093782577"><ele>601.8571428571429</ele><time>2026-04-06T10:58:00Z</time></trkpt><trkpt lat="37.87633717894508" lon="15.136295376975433"><ele>602.1428571428571</ele><time>2026-04-06T10:58:02Z</time></trkpt><trkpt lat="37.87638619969988" lon="15.136360495886928"><ele>602.4285714285713</ele><time>2026-04-06T10:58:04Z</time></trkpt><trkpt lat="37.87642911578729" lon="15.136436699662767"><ele>602.7142857142858</ele><time>2026-04-06T10:58:06Z</time></trkpt><trkpt lat="37.8764713570916" lon="15.136515531367595"><ele>603.0</ele><time>2026-04-06T10:58:08Z</time></trkpt><trkpt lat="37.876514030755544" lon="15.13657919473354"><ele>603.5714285714286</ele><time>2026-04-06T10:58:10Z</time></trkpt><trkpt lat="37.87654609994068" lon="15.136657058361166"><ele>604.1428571428571</ele><time>2026-04-06T10:58:28Z</time></trkpt><trkpt lat="37.87658326382612" lon="15.136748424287019"><ele>604.7142857142857</ele><time>2026-04-06T10:58:31Z</time></trkpt><trkpt lat="37.87662707826132" lon="15.136816349916867"><ele>605.2857142857142</ele><time>2026-04-06T10:58:33Z</time></trkpt><trkpt lat="37.87669381750568" lon="15.136861673081322"><ele>605.8571428571429</ele><time>2026-04-06T10:58:35Z</time></trkpt><trkpt lat="37.87677651438897" lon="15.136858219287172"><ele>606.4285714285713</ele><time>2026-04-06T10:58:37Z</time></trkpt><trkpt lat="37.87684225097545" lon="15.136887923690185"><ele>607.0</ele><time>2026-04-06T10:58:39Z</time></trkpt><trkpt lat="37.876913628229936" lon="15.136909349508207"><ele>607.0</ele><time>2026-04-06T10:58:41Z</time></trkpt><trkpt lat="37.87697449852951" lon="15.136954272893316"><ele>607.0</ele><time>2026-04-06T10:58:43Z</time></trkpt><trkpt lat="37.877030426326264" lon="15.137009201126318"><ele>607.0</ele><time>2026-04-06T10:58:45Z</time></trkpt><trkpt lat="37.87708604536448" lon="15.137075790706419"><ele>607.0</ele><time>2026-04-06T10:58:48Z</time></trkpt><trkpt lat="37.877159803029826" lon="15.13715696528684"><ele>607.0</ele><time>2026-04-06T10:58:55.999Z</time></trkpt><trkpt lat="37.877209397928894" lon="15.137224120372435"><ele>607.0</ele><time>2026-04-06T10:58:57.999Z</time></trkpt><trkpt lat="37.87726480224027" lon="15.137301508263803"><ele>612.6</ele><time>2026-04-06T10:58:59.999Z</time></trkpt><trkpt lat="37.877316590709796" lon="15.137401955665855"><ele>618.2</ele><time>2026-04-06T10:59:01.999Z</time></trkpt><trkpt lat="37.877369601188825" lon="15.137505119397947"><ele>623.8</ele><time>2026-04-06T10:59:03.999Z</time></trkpt><trkpt lat="37.87742026237353" lon="15.137605206461268"><ele>629.4</ele><time>2026-04-06T10:59:05.999Z</time></trkpt><trkpt lat="37.8774785320071" lon="15.137703055920019"><ele>635.0</ele><time>2026-04-06T10:59:07.999Z</time></trkpt><trkpt lat="37.87755170563447" lon="15.137781385867264"><ele>634.8333333333333</ele><time>2026-04-06T10:59:09.999Z</time></trkpt><trkpt lat="37.87762185143338" lon="15.137849885851947"><ele>634.6666666666666</ele><time>2026-04-06T10:59:11.999Z</time></trkpt><trkpt lat="37.87766914472032" lon="15.13791263349191"><ele>634.5</ele><time>2026-04-06T10:59:13.999Z</time></trkpt><trkpt lat="37.87774810005412" lon="15.137935177603087"><ele>634.3333333333334</ele><time>2026-04-06T10:59:18.999Z</time></trkpt><trkpt lat="37.87782968341313" lon="15.13795172763519"><ele>634.1666666666667</ele><time>2026-04-06T10:59:20.999Z</time></trkpt><trkpt lat="37.87792555595621" lon="15.137937574911941"><ele>634.0</ele><time>2026-04-06T10:59:22.999Z</time></trkpt><trkpt lat="37.87802989796671" lon="15.137935103204082"><ele>634.0</ele><time>2026-04-06T10:59:24.999Z</time></trkpt><trkpt lat="37.87811602490279" lon="15.137968799522444"><ele>634.0</ele><time>2026-04-06T10:59:26.999Z</time></trkpt><trkpt lat="37.87816558104077" lon="15.13803411229909"><ele>634.0</ele><time>2026-04-06T10:59:28.999Z</time></trkpt><trkpt lat="37.87823755814194" lon="15.138071967966855"><ele>634.0</ele><time>2026-04-06T10:59:40.999Z</time></trkpt><trkpt lat="37.87830915407887" lon="15.138105335540928"><ele>634.0</ele><time>2026-04-06T10:59:43.999Z</time></trkpt><trkpt lat="37.878373766030236" lon="15.138130085194625"><ele>634.0</ele><time>2026-04-06T10:59:46.999Z</time></trkpt><trkpt lat="37.87844022952263" lon="15.138167162867262"><ele>635.4285714285714</ele><time>2026-04-06T10:59:51.999Z</time></trkpt><trkpt lat="37.87849475654626" lon="15.138208324787529"><ele>636.8571428571429</ele><time>2026-04-06T10:59:55.999Z</time></trkpt><trkpt lat="37.87855789834499" lon="15.138251250455808"><ele>638.2857142857142</ele><time>2026-04-06T11:00:00.999Z</time></trkpt><trkpt lat="37.87860986314088" lon="15.138323921383662"><ele>639.7142857142858</ele><time>2026-04-06T11:00:05.999Z</time></trkpt><trkpt lat="37.87865124317923" lon="15.13838746927817"><ele>641.1428571428571</ele><time>2026-04-06T11:00:08.999Z</time></trkpt><trkpt lat="37.878691659981335" lon="15.138451214654701"><ele>642.5714285714286</ele><time>2026-04-06T11:00:10.999Z</time></trkpt><trkpt lat="37.87874894348321" lon="15.138491093963111"><ele>644.0</ele><time>2026-04-06T11:00:12.999Z</time></trkpt><trkpt lat="37.87880517411619" lon="15.138535824971235"><ele>644.0</ele><time>2026-04-06T11:00:14.999Z</time></trkpt><trkpt lat="37.87887360230732" lon="15.138559030105615"><ele>644.0</ele><time>2026-04-06T11:00:16.999Z</time></trkpt><trkpt lat="37.878966611999246" lon="15.138591982005769"><ele>644.0</ele><time>2026-04-06T11:00:19.999Z</time></trkpt><trkpt lat="37.879027180527366" lon="15.138626241538287"><ele>644.0</ele><time>2026-04-06T11:00:21.999Z</time></trkpt><trkpt lat="37.87908797863128" lon="15.13870935267254"><ele>644.0</ele><time>2026-04-06T11:00:24.999Z</time></trkpt><trkpt lat="37.87913979676748" lon="15.13878385303061"><ele>644.0</ele><time>2026-04-06T11:00:27.999Z</time></trkpt><trkpt lat="37.87917689425853" lon="15.138876410382581"><ele>644.0</ele><time>2026-04-06T11:00:30.999Z</time></trkpt><trkpt lat="37.8791977032293" lon="15.138958501667474"><ele>644.0</ele><time>2026-04-06T11:00:32.999Z</time></trkpt><trkpt lat="37.87920871314004" lon="15.139040336247486"><ele>644.0</ele><time>2026-04-06T11:00:34.999Z</time></trkpt><trkpt lat="37.879218979397734" lon="15.139147849605765"><ele>644.0</ele><time>2026-04-06T11:00:36.999Z</time></trkpt><trkpt lat="37.87922305903889" lon="15.139253290096816"><ele>644.0</ele><time>2026-04-06T11:00:38.999Z</time></trkpt><trkpt lat="37.879245610401874" lon="15.139369515328537"><ele>644.0</ele><time>2026-04-06T11:00:40.999Z</time></trkpt><trkpt lat="37.87928098121459" lon="15.139462550427371"><ele>642.0</ele><time>2026-04-06T11:00:42.999Z</time></trkpt><trkpt lat="37.879318365833" lon="15.13954322038049"><ele>640.0</ele><time>2026-04-06T11:00:44.999Z</time></trkpt><trkpt lat="37.87933584425838" lon="15.139625639768532"><ele>638.0</ele><time>2026-04-06T11:00:46.999Z</time></trkpt><trkpt lat="37.879346892648066" lon="15.139737183349466"><ele>636.0</ele><time>2026-04-06T11:00:49.999Z</time></trkpt><trkpt lat="37.87936372058098" lon="15.139818181695665"><ele>634.0</ele><time>2026-04-06T11:00:52.999Z</time></trkpt><trkpt lat="37.879400160510215" lon="15.139893099031848"><ele>632.0</ele><time>2026-04-06T11:00:57.999Z</time></trkpt><trkpt lat="37.87947066346446" lon="15.139895825308793"><ele>630.0</ele><time>2026-04-06T11:01:00.999Z</time></trkpt><trkpt lat="37.87952442110981" lon="15.139954845615115"><ele>630.0</ele><time>2026-04-06T11:01:06.999Z</time></trkpt><trkpt lat="37.87958753802368" lon="15.140004314147587"><ele>630.0</ele><time>2026-04-06T11:01:10.999Z</time></trkpt><trkpt lat="37.879619175920624" lon="15.140082654775185"><ele>630.0</ele><time>2026-04-06T11:01:15.999Z</time></trkpt><trkpt lat="37.879657091679476" lon="15.140165234009267"><ele>630.0</ele><time>2026-04-06T11:01:19.999Z</time></trkpt><trkpt lat="37.8796929434221" lon="15.14024045817757"><ele>630.0</ele><time>2026-04-06T11:01:22.999Z</time></trkpt><trkpt lat="37.87973074544939" lon="15.140309438843849"><ele>630.0</ele><time>2026-04-06T11:01:26.999Z</time></trkpt><trkpt lat="37.87976698755396" lon="15.140388227671773"><ele>630.0</ele><time>2026-04-06T11:01:31.999Z</time></trkpt><trkpt lat="37.87980442907458" lon="15.140467837718274"><ele>630.0</ele><time>2026-04-06T11:01:37.999Z</time></trkpt><trkpt lat="37.87984459613451" lon="15.140543472871359"><ele>630.0</ele><time>2026-04-06T11:01:43.999Z</time></trkpt><trkpt lat="37.87989547411315" lon="15.140611117104845"><ele>630.0</ele><time>2026-04-06T11:01:48.999Z</time></trkpt><trkpt lat="37.87994094708985" lon="15.140666727797813"><ele>630.0</ele><time>2026-04-06T11:01:53.999Z</time></trkpt><trkpt lat="37.87999686917588" lon="15.140719845896742"><ele>630.0</ele><time>2026-04-06T11:02:02.999Z</time></trkpt><trkpt lat="37.88004773886864" lon="15.140773468498109"><ele>630.0</ele><time>2026-04-06T11:02:08.999Z</time></trkpt><trkpt lat="37.88010349647998" lon="15.140820417696377"><ele>630.0</ele><time>2026-04-06T11:02:16Z</time></trkpt><trkpt lat="37.88015285560946" lon="15.140871107877624"><ele>627.0</ele><time>2026-04-06T11:02:19Z</time></trkpt><trkpt lat="37.880207490692065" lon="15.140915746244415"><ele>624.0</ele><time>2026-04-06T11:02:24Z</time></trkpt><trkpt lat="37.880258968058264" lon="15.140964827183247"><ele>621.0</ele><time>2026-04-06T11:02:31Z</time></trkpt><trkpt lat="37.88031716400896" lon="15.141018414012645"><ele>618.0</ele><time>2026-04-06T11:02:39Z</time></trkpt><trkpt lat="37.88037774608901" lon="15.141061535600532"><ele>615.0</ele><time>2026-04-06T11:02:45Z</time></trkpt><trkpt lat="37.88043851785849" lon="15.141101164122638"><ele>612.0</ele><time>2026-04-06T11:02:54Z</time></trkpt><trkpt lat="37.88049005554855" lon="15.141150644327316"><ele>609.0</ele><time>2026-04-06T11:03:01Z</time></trkpt><trkpt lat="37.88053844862863" lon="15.141220175180866"><ele>609.0</ele><time>2026-04-06T11:03:07.999Z</time></trkpt><trkpt lat="37.88059542982537" lon="15.141278568272213"><ele>609.0</ele><time>2026-04-06T11:03:12.999Z</time></trkpt><trkpt lat="37.8806598794945" lon="15.141314600121625"><ele>609.0</ele><time>2026-04-06T11:03:18.999Z</time></trkpt><trkpt lat="37.88071138646891" lon="15.141366748301536"><ele>609.0</ele><time>2026-04-06T11:03:24.999Z</time></trkpt><trkpt lat="37.88075904099364" lon="15.14143330560473"><ele>609.0</ele><time>2026-04-06T11:03:29.999Z</time></trkpt><trkpt lat="37.88081021102985" lon="15.14149211174265"><ele>609.0</ele><time>2026-04-06T11:03:33.999Z</time></trkpt><trkpt lat="37.88086088615978" lon="15.141549556062767"><ele>609.0</ele><time>2026-04-06T11:03:37.999Z</time></trkpt><trkpt lat="37.88091464384782" lon="15.141604340173224"><ele>604.0</ele><time>2026-04-06T11:03:41.999Z</time></trkpt><trkpt lat="37.880964004462186" lon="15.141663497100577"><ele>599.0</ele><time>2026-04-06T11:03:45.999Z</time></trkpt><trkpt lat="37.88102024859456" lon="15.141722021051983"><ele>594.0</ele><time>2026-04-06T11:03:50.999Z</time></trkpt><trkpt lat="37.8810761314431" lon="15.141771082054936"><ele>589.0</ele><time>2026-04-06T11:03:57.999Z</time></trkpt><trkpt lat="37.881104275563075" lon="15.141845268902026"><ele>584.0</ele><time>2026-04-06T11:04:05Z</time></trkpt><trkpt lat="37.881129384584774" lon="15.141940493034761"><ele>579.0</ele><time>2026-04-06T11:04:11Z</time></trkpt><trkpt lat="37.881142263531274" lon="15.142026783645168"><ele>574.0</ele><time>2026-04-06T11:04:16Z</time></trkpt><trkpt lat="37.88116456360429" lon="15.142105822984375"><ele>574.0</ele><time>2026-04-06T11:04:21Z</time></trkpt><trkpt lat="37.88117860153547" lon="15.142187503397663"><ele>574.0</ele><time>2026-04-06T11:04:26Z</time></trkpt><trkpt lat="37.8811704364501" lon="15.142280396576446"><ele>574.0</ele><time>2026-04-06T11:04:32Z</time></trkpt><trkpt lat="37.881177233781834" lon="15.142367959368206"><ele>574.0</ele><time>2026-04-06T11:04:39Z</time></trkpt><trkpt lat="37.88122395097419" lon="15.142432712403377"><ele>574.0</ele><time>2026-04-06T11:04:44Z</time></trkpt><trkpt lat="37.88126480449703" lon="15.142498359082172"><ele>574.0</ele><time>2026-04-06T11:04:50Z</time></trkpt><trkpt lat="37.88130837992955" lon="15.1425648982099"><ele>574.0</ele><time>2026-04-06T11:04:56Z</time></trkpt><trkpt lat="37.88135588746693" lon="15.142634011583391"><ele>572.1428571428571</ele><time>2026-04-06T11:05:03Z</time></trkpt><trkpt lat="37.88140940454099" lon="15.142689974306599"><ele>570.2857142857142</ele><time>2026-04-06T11:05:09Z</time></trkpt><trkpt lat="37.88146851294535" lon="15.14272718783711"><ele>568.4285714285714</ele><time>2026-04-06T11:05:17Z</time></trkpt><trkpt lat="37.88152371939246" lon="15.142779641347"><ele>566.5714285714286</ele><time>2026-04-06T11:05:22Z</time></trkpt><trkpt lat="37.88158633637236" lon="15.142816387446281"><ele>564.7142857142857</ele><time>2026-04-06T11:05:27Z</time></trkpt><trkpt lat="37.88164961609242" lon="15.142844002042805"><ele>562.8571428571429</ele><time>2026-04-06T11:05:34Z</time></trkpt><trkpt lat="37.881712672952645" lon="15.142866619257806"><ele>561.0</ele><time>2026-04-06T11:05:39.999Z</time></trkpt><trkpt lat="37.88177789432765" lon="15.142849279939494"><ele>561.0</ele><time>2026-04-06T11:05:43.999Z</time></trkpt><trkpt lat="37.881826823999624" lon="15.142797868415787"><ele>561.0</ele><time>2026-04-06T11:05:47.999Z</time></trkpt><trkpt lat="37.88187745295758" lon="15.142736919136043"><ele>561.0</ele><time>2026-04-06T11:05:52.999Z</time></trkpt><trkpt lat="37.88193693554751" lon="15.142692318305391"><ele>561.0</ele><time>2026-04-06T11:05:59.999Z</time></trkpt><trkpt lat="37.881998871769405" lon="15.142653439390678"><ele>561.0</ele><time>2026-04-06T11:06:11Z</time></trkpt><trkpt lat="37.88207299638012" lon="15.142682283800857"><ele>561.0</ele><time>2026-04-06T11:06:17Z</time></trkpt><trkpt lat="37.88213047268017" lon="15.142724829423425"><ele>561.0</ele><time>2026-04-06T11:06:21Z</time></trkpt><trkpt lat="37.8821748532831" lon="15.142783701838704"><ele>561.0</ele><time>2026-04-06T11:06:26Z</time></trkpt><trkpt lat="37.88222588555357" lon="15.142840825735636"><ele>561.0</ele><time>2026-04-06T11:06:30Z</time></trkpt><trkpt lat="37.8822791232926" lon="15.14290410202481"><ele>561.0</ele><time>2026-04-06T11:06:34Z</time></trkpt><trkpt lat="37.882332722943275" lon="15.142975005439595"><ele>561.0</ele><time>2026-04-06T11:06:38Z</time></trkpt><trkpt lat="37.88236871205994" lon="15.143044500789177"><ele>561.0</ele><time>2026-04-06T11:06:44Z</time></trkpt><trkpt lat="37.882409062371615" lon="15.143123879557278"><ele>561.0</ele><time>2026-04-06T11:06:49Z</time></trkpt><trkpt lat="37.88245340809848" lon="15.143187341482506"><ele>561.0</ele><time>2026-04-06T11:06:54Z</time></trkpt><trkpt lat="37.8825165272067" lon="15.143247806152697"><ele>559.4285714285714</ele><time>2026-04-06T11:07:00Z</time></trkpt><trkpt lat="37.88257349732312" lon="15.14330759836469"><ele>557.8571428571428</ele><time>2026-04-06T11:07:04Z</time></trkpt><trkpt lat="37.882625758794966" lon="15.143371903696003"><ele>556.2857142857142</ele><time>2026-04-06T11:07:12Z</time></trkpt><trkpt lat="37.882673437786906" lon="15.143430392599328"><ele>554.7142857142857</ele><time>2026-04-06T11:07:19Z</time></trkpt><trkpt lat="37.88271409898429" lon="15.14350203409377"><ele>553.1428571428571</ele><time>2026-04-06T11:07:25Z</time></trkpt><trkpt lat="37.88273787213836" lon="15.143589882654485"><ele>551.5714285714286</ele><time>2026-04-06T11:07:30Z</time></trkpt><trkpt lat="37.882745677246625" lon="15.143676025504456"><ele>550.0</ele><time>2026-04-06T11:07:35Z</time></trkpt><trkpt lat="37.882803360793794" lon="15.143730883453873"><ele>550.0</ele><time>2026-04-06T11:07:42Z</time></trkpt><trkpt lat="37.88287078725661" lon="15.143711943960161"><ele>550.0</ele><time>2026-04-06T11:07:47Z</time></trkpt><trkpt lat="37.88293061668148" lon="15.143643298718652"><ele>550.0</ele><time>2026-04-06T11:07:51Z</time></trkpt><trkpt lat="37.882952956094606" lon="15.143564627464196"><ele>550.0</ele><time>2026-04-06T11:07:56Z</time></trkpt><trkpt lat="37.88297402946831" lon="15.143475919269314"><ele>550.0</ele><time>2026-04-06T11:08:00Z</time></trkpt><trkpt lat="37.882935246085175" lon="15.14340472702428"><ele>550.0</ele><time>2026-04-06T11:08:08Z</time></trkpt><trkpt lat="37.88290766992885" lon="15.143331135922786"><ele>550.0</ele><time>2026-04-06T11:08:12Z</time></trkpt><trkpt lat="37.882870490639384" lon="15.143257319740457"><ele>548.5714285714286</ele><time>2026-04-06T11:08:16Z</time></trkpt><trkpt lat="37.882844210797046" lon="15.143178956632463"><ele>547.1428571428571</ele><time>2026-04-06T11:08:20.001Z</time></trkpt><trkpt lat="37.88283324339925" lon="15.143097965042267"><ele>545.7142857142857</ele><time>2026-04-06T11:08:24.001Z</time></trkpt><trkpt lat="37.88283058695632" lon="15.143011575657061"><ele>544.2857142857142</ele><time>2026-04-06T11:08:28.001Z</time></trkpt><trkpt lat="37.88282846323816" lon="15.142920310362728"><ele>542.8571428571428</ele><time>2026-04-06T11:08:32.001Z</time></trkpt><trkpt lat="37.882825921507795" lon="15.142833000307231"><ele>541.4285714285714</ele><time>2026-04-06T11:08:35Z</time></trkpt><trkpt lat="37.88284282824141" lon="15.142748948069482"><ele>540.0</ele><time>2026-04-06T11:08:41Z</time></trkpt><trkpt lat="37.882833585457554" lon="15.1428478006579"><ele>540.0</ele><time>2026-04-06T11:09:07Z</time></trkpt><trkpt lat="37.882834057596845" lon="15.14295530871045"><ele>540.0</ele><time>2026-04-06T11:09:09Z</time></trkpt><trkpt lat="37.882851458772194" lon="15.143067281853128"><ele>540.0</ele><time>2026-04-06T11:09:11Z</time></trkpt><trkpt lat="37.88286327193549" lon="15.143154492155912"><ele>540.0</ele><time>2026-04-06T11:09:13Z</time></trkpt><trkpt lat="37.882870872104185" lon="15.143242159605181"><ele>540.0</ele><time>2026-04-06T11:09:15Z</time></trkpt><trkpt lat="37.88290557048394" lon="15.143333772907294"><ele>540.0</ele><time>2026-04-06T11:09:17Z</time></trkpt><trkpt lat="37.88295372480768" lon="15.143403777129038"><ele>541.6666666666666</ele><time>2026-04-06T11:09:19Z</time></trkpt><trkpt lat="37.882967059613506" lon="15.143483868439333"><ele>543.3333333333334</ele><time>2026-04-06T11:09:24Z</time></trkpt><trkpt lat="37.88296430303319" lon="15.14357776335809"><ele>545.0</ele><time>2026-04-06T11:09:27Z</time></trkpt><trkpt lat="37.882927196729945" lon="15.143670114832258"><ele>546.6666666666667</ele><time>2026-04-06T11:09:30Z</time></trkpt><trkpt lat="37.88285869048268" lon="15.143740522372525"><ele>548.3333333333334</ele><time>2026-04-06T11:09:33Z</time></trkpt><trkpt lat="37.88278399413582" lon="15.143722427713262"><ele>550.0</ele><time>2026-04-06T11:09:48Z</time></trkpt><trkpt lat="37.882749803544634" lon="15.1436448218146"><ele>550.0</ele><time>2026-04-06T11:10:01.999Z</time></trkpt><trkpt lat="37.88273423546092" lon="15.14355959152498"><ele>550.0</ele><time>2026-04-06T11:10:04.999Z</time></trkpt><trkpt lat="37.88270625897241" lon="15.14347801545551"><ele>550.0</ele><time>2026-04-06T11:10:07.999Z</time></trkpt><trkpt lat="37.88266290500609" lon="15.143414790091073"><ele>550.0</ele><time>2026-04-06T11:10:10.999Z</time></trkpt><trkpt lat="37.8826107132553" lon="15.143351261869897"><ele>550.0</ele><time>2026-04-06T11:10:13.999Z</time></trkpt><trkpt lat="37.88256559397359" lon="15.143276453576783"><ele>550.0</ele><time>2026-04-06T11:10:16.999Z</time></trkpt><trkpt lat="37.88249105434468" lon="15.143215618192723"><ele>550.0</ele><time>2026-04-06T11:10:19.999Z</time></trkpt><trkpt lat="37.88243283939794" lon="15.143136064567333"><ele>551.8333333333334</ele><time>2026-04-06T11:10:23Z</time></trkpt><trkpt lat="37.8823836583969" lon="15.143037673104564"><ele>553.6666666666667</ele><time>2026-04-06T11:10:26Z</time></trkpt><trkpt lat="37.88232765246366" lon="15.142960895793864"><ele>555.5</ele><time>2026-04-06T11:10:29Z</time></trkpt><trkpt lat="37.88227091200604" lon="15.14288229665116"><ele>557.3333333333334</ele><time>2026-04-06T11:10:32Z</time></trkpt><trkpt lat="37.882222791376364" lon="15.142819376626532"><ele>559.1666666666666</ele><time>2026-04-06T11:10:34Z</time></trkpt><trkpt lat="37.88216736078907" lon="15.142753799036642"><ele>561.0</ele><time>2026-04-06T11:10:37Z</time></trkpt><trkpt lat="37.88210895970682" lon="15.142683263702471"><ele>561.0</ele><time>2026-04-06T11:10:40Z</time></trkpt><trkpt lat="37.88196393543625" lon="15.142659922411246"><ele>561.0</ele><time>2026-04-06T11:13:50.999Z</time></trkpt><trkpt lat="37.88190324658352" lon="15.142701447999897"><ele>561.0</ele><time>2026-04-06T11:13:55.999Z</time></trkpt><trkpt lat="37.88185190017905" lon="15.142747657969801"><ele>561.0</ele><time>2026-04-06T11:13:59.999Z</time></trkpt><trkpt lat="37.8818080468077" lon="15.142813545002001"><ele>561.0</ele><time>2026-04-06T11:14:03.999Z</time></trkpt><trkpt lat="37.88174284978398" lon="15.142854983648878"><ele>561.0</ele><time>2026-04-06T11:14:11.999Z</time></trkpt><trkpt lat="37.88167969452982" lon="15.142831497647038"><ele>564.8571428571429</ele><time>2026-04-06T11:14:16.999Z</time></trkpt><trkpt lat="37.88161547176394" lon="15.14281287573982"><ele>568.7142857142857</ele><time>2026-04-06T11:14:21.999Z</time></trkpt><trkpt lat="37.88154817079247" lon="15.142783837453093"><ele>572.5714285714286</ele><time>2026-04-06T11:14:26.999Z</time></trkpt><trkpt lat="37.88147992158622" lon="15.142747623291934"><ele>576.4285714285714</ele><time>2026-04-06T11:15:22Z</time></trkpt><trkpt lat="37.88142478226278" lon="15.142698477396216"><ele>580.2857142857142</ele><time>2026-04-06T11:15:28Z</time></trkpt><trkpt lat="37.88136672753131" lon="15.14264451909775"><ele>584.1428571428571</ele><time>2026-04-06T11:15:34Z</time></trkpt><trkpt lat="37.881314648489315" lon="15.142588927934694"><ele>588.0</ele><time>2026-04-06T11:15:40.999Z</time></trkpt><trkpt lat="37.8812760939761" lon="15.142523455359038"><ele>588.0</ele><time>2026-04-06T11:15:46.999Z</time></trkpt><trkpt lat="37.88123266805994" lon="15.142454596875256"><ele>588.0</ele><time>2026-04-06T11:15:51.999Z</time></trkpt><trkpt lat="37.88119296744008" lon="15.14238653062121"><ele>588.0</ele><time>2026-04-06T11:15:56.999Z</time></trkpt><trkpt lat="37.88115731102163" lon="15.142312119598554"><ele>588.0</ele><time>2026-04-06T11:16:01.999Z</time></trkpt><trkpt lat="37.88116348328399" lon="15.142223323962392"><ele>588.0</ele><time>2026-04-06T11:16:06.999Z</time></trkpt><trkpt lat="37.881162468702755" lon="15.142135811024504"><ele>588.0</ele><time>2026-04-06T11:16:10.999Z</time></trkpt><trkpt lat="37.88114656304995" lon="15.142036966262726"><ele>588.0</ele><time>2026-04-06T11:16:14.999Z</time></trkpt><trkpt lat="37.88113760729147" lon="15.141946472923435"><ele>585.6666666666666</ele><time>2026-04-06T11:16:20.999Z</time></trkpt><trkpt lat="37.881113328592306" lon="15.141864631135917"><ele>583.3333333333334</ele><time>2026-04-06T11:17:03Z</time></trkpt><trkpt lat="37.881076805040955" lon="15.141772214061819"><ele>581.0</ele><time>2026-04-06T11:17:07Z</time></trkpt><trkpt lat="37.88101604438573" lon="15.141713866725219"><ele>578.6666666666667</ele><time>2026-04-06T11:17:11Z</time></trkpt><trkpt lat="37.88095825585288" lon="15.141651803560046"><ele>576.3333333333334</ele><time>2026-04-06T11:17:15Z</time></trkpt><trkpt lat="37.88091904206644" lon="15.141573212284547"><ele>574.0</ele><time>2026-04-06T11:17:19Z</time></trkpt><trkpt lat="37.88085021686588" lon="15.14153557753306"><ele>579.0</ele><time>2026-04-06T11:25:06Z</time></trkpt><trkpt lat="37.88079596836184" lon="15.141472227095424"><ele>584.0</ele><time>2026-04-06T11:25:09Z</time></trkpt><trkpt lat="37.88072855530834" lon="15.1413973375627"><ele>589.0</ele><time>2026-04-06T11:25:12Z</time></trkpt><trkpt lat="37.880666947406276" lon="15.141352809833847"><ele>594.0</ele><time>2026-04-06T11:25:15Z</time></trkpt><trkpt lat="37.880621743888454" lon="15.141295861563117"><ele>599.0</ele><time>2026-04-06T11:25:18Z</time></trkpt><trkpt lat="37.880562990628086" lon="15.141256815292774"><ele>604.0</ele><time>2026-04-06T11:25:21Z</time></trkpt><trkpt lat="37.88050160650251" lon="15.14119634529597"><ele>609.0</ele><time>2026-04-06T11:25:25Z</time></trkpt><trkpt lat="37.88046044348893" lon="15.141134697784135"><ele>609.0</ele><time>2026-04-06T11:25:28Z</time></trkpt><trkpt lat="37.880389659633046" lon="15.141078057328704"><ele>609.0</ele><time>2026-04-06T11:25:33Z</time></trkpt><trkpt lat="37.88030780937773" lon="15.141031205007186"><ele>609.0</ele><time>2026-04-06T11:25:36Z</time></trkpt><trkpt lat="37.88025924001834" lon="15.140978674912443"><ele>609.0</ele><time>2026-04-06T11:25:39Z</time></trkpt><trkpt lat="37.88020525722549" lon="15.140936951867564"><ele>609.0</ele><time>2026-04-06T11:25:42Z</time></trkpt><trkpt lat="37.88014527178603" lon="15.14087048090103"><ele>609.0</ele><time>2026-04-06T11:25:45Z</time></trkpt><trkpt lat="37.88009135321003" lon="15.14081975483123"><ele>609.0</ele><time>2026-04-06T11:25:47Z</time></trkpt><trkpt lat="37.880027267285854" lon="15.1407707371706"><ele>612.5</ele><time>2026-04-06T11:25:50Z</time></trkpt><trkpt lat="37.87997217752243" lon="15.140702197380334"><ele>616.0</ele><time>2026-04-06T11:25:53Z</time></trkpt><trkpt lat="37.87991489510482" lon="15.140628342154107"><ele>619.5</ele><time>2026-04-06T11:25:56Z</time></trkpt><trkpt lat="37.87985288321516" lon="15.14056599663251"><ele>623.0</ele><time>2026-04-06T11:25:59Z</time></trkpt><trkpt lat="37.879800615135366" lon="15.140492094961068"><ele>626.5</ele><time>2026-04-06T11:26:02Z</time></trkpt><trkpt lat="37.87977660078069" lon="15.140413636382114"><ele>630.0</ele><time>2026-04-06T11:26:05Z</time></trkpt><trkpt lat="37.879746460640206" lon="15.140332540144842"><ele>630.0</ele><time>2026-04-06T11:29:19Z</time></trkpt><trkpt lat="37.879698436491594" lon="15.140248026491438"><ele>630.0</ele><time>2026-04-06T11:29:23Z</time></trkpt><trkpt lat="37.8796366953066" lon="15.140151210998031"><ele>630.0</ele><time>2026-04-06T11:29:26Z</time></trkpt><trkpt lat="37.87959834451795" lon="15.140072845197714"><ele>630.0</ele><time>2026-04-06T11:29:28Z</time></trkpt><trkpt lat="37.879570062971794" lon="15.139991796778736"><ele>630.0</ele><time>2026-04-06T11:29:30Z</time></trkpt><trkpt lat="37.87953319043899" lon="15.139917942427262"><ele>630.0</ele><time>2026-04-06T11:29:32Z</time></trkpt><trkpt lat="37.87946536602966" lon="15.139892150036346"><ele>629.2857142857143</ele><time>2026-04-06T11:29:35Z</time></trkpt><trkpt lat="37.879402098044814" lon="15.139836042962493"><ele>628.5714285714286</ele><time>2026-04-06T11:29:38Z</time></trkpt><trkpt lat="37.879380402699915" lon="15.139737638895982"><ele>627.8571428571429</ele><time>2026-04-06T11:29:41Z</time></trkpt><trkpt lat="37.879384192791306" lon="15.139641305643107"><ele>627.1428571428571</ele><time>2026-04-06T11:29:47Z</time></trkpt><trkpt lat="37.87936956786993" lon="15.13955187822578"><ele>626.4285714285714</ele><time>2026-04-06T11:31:38Z</time></trkpt><trkpt lat="37.87933830985609" lon="15.13947835311232"><ele>625.7142857142858</ele><time>2026-04-06T11:31:40Z</time></trkpt><trkpt lat="37.87929549585371" lon="15.139403256806196"><ele>625.0</ele><time>2026-04-06T11:31:42Z</time></trkpt><trkpt lat="37.87927211571923" lon="15.139322951212511"><ele>627.6666666666667</ele><time>2026-04-06T11:31:44Z</time></trkpt><trkpt lat="37.8792624804281" lon="15.139225097136896"><ele>630.3333333333334</ele><time>2026-04-06T11:31:46Z</time></trkpt><trkpt lat="37.87925638190194" lon="15.139118964860435"><ele>633.0</ele><time>2026-04-06T11:31:48Z</time></trkpt><trkpt lat="37.879248620177016" lon="15.139018499879885"><ele>635.6666666666666</ele><time>2026-04-06T11:31:50Z</time></trkpt><trkpt lat="37.87923048582494" lon="15.13892466066433"><ele>638.3333333333333</ele><time>2026-04-06T11:31:52Z</time></trkpt><trkpt lat="37.87919441414818" lon="15.138821532430029"><ele>641.0</ele><time>2026-04-06T11:31:54Z</time></trkpt><trkpt lat="37.879141056704775" lon="15.138722630314305"><ele>641.5999999999999</ele><time>2026-04-06T11:31:56Z</time></trkpt><trkpt lat="37.87906683655824" lon="15.138651809744445"><ele>642.2</ele><time>2026-04-06T11:31:58Z</time></trkpt><trkpt lat="37.878995255629675" lon="15.138596974333836"><ele>642.8</ele><time>2026-04-06T11:32:00Z</time></trkpt><trkpt lat="37.87890360967048" lon="15.138561333006372"><ele>643.4000000000001</ele><time>2026-04-06T11:32:02Z</time></trkpt><trkpt lat="37.878801947109274" lon="15.138530558788778"><ele>644.0</ele><time>2026-04-06T11:32:04Z</time></trkpt><trkpt lat="37.878725113019776" lon="15.13846767995382"><ele>644.0</ele><time>2026-04-06T11:32:06Z</time></trkpt><trkpt lat="37.878682476067375" lon="15.1383783886934"><ele>644.0</ele><time>2026-04-06T11:32:08Z</time></trkpt><trkpt lat="37.878635816975574" lon="15.13831058247111"><ele>644.0</ele><time>2026-04-06T11:32:10Z</time></trkpt><trkpt lat="37.878563633486095" lon="15.138261543695524"><ele>644.0</ele><time>2026-04-06T11:32:12.999Z</time></trkpt><trkpt lat="37.878474099853705" lon="15.138183293024396"><ele>644.0</ele><time>2026-04-06T11:32:15.999Z</time></trkpt><trkpt lat="37.87841048775886" lon="15.138140902613285"><ele>644.0</ele><time>2026-04-06T11:32:17.999Z</time></trkpt><trkpt lat="37.87832859200077" lon="15.138106270818444"><ele>642.5714285714286</ele><time>2026-04-06T11:32:20.999Z</time></trkpt><trkpt lat="37.87826626488277" lon="15.138064479529737"><ele>641.1428571428571</ele><time>2026-04-06T11:32:26.999Z</time></trkpt><trkpt lat="37.87821069310093" lon="15.138015149665145"><ele>639.7142857142858</ele><time>2026-04-06T11:32:33.999Z</time></trkpt><trkpt lat="37.878157307932526" lon="15.13795848155459"><ele>638.2857142857142</ele><time>2026-04-06T11:32:40.999Z</time></trkpt><trkpt lat="37.878092357451436" lon="15.137939661388973"><ele>636.8571428571429</ele><time>2026-04-06T11:32:46.999Z</time></trkpt><trkpt lat="37.8780262323715" lon="15.137925543122115"><ele>635.4285714285714</ele><time>2026-04-06T11:32:51.999Z</time></trkpt><trkpt lat="37.8779489649427" lon="15.137924429567432"><ele>634.0</ele><time>2026-04-06T11:32:57.999Z</time></trkpt><trkpt lat="37.877875815395534" lon="15.137934746451622"><ele>634.0</ele><time>2026-04-06T11:33:03.999Z</time></trkpt><trkpt lat="37.87780401674393" lon="15.137932844456987"><ele>634.0</ele><time>2026-04-06T11:33:08.999Z</time></trkpt><trkpt lat="37.87773485621921" lon="15.137917814686672"><ele>634.0</ele><time>2026-04-06T11:33:18.999Z</time></trkpt><trkpt lat="37.87766915140488" lon="15.137879308570609"><ele>634.0</ele><time>2026-04-06T11:33:22.998Z</time></trkpt><trkpt lat="37.87760496566436" lon="15.137815568290504"><ele>634.0</ele><time>2026-04-06T11:33:26.998Z</time></trkpt><trkpt lat="37.87755765517862" lon="15.137758024030791"><ele>634.0</ele><time>2026-04-06T11:33:29.999Z</time></trkpt><trkpt lat="37.87751309077824" lon="15.137694261222386"><ele>634.0</ele><time>2026-04-06T11:33:32.999Z</time></trkpt><trkpt lat="37.877467014405916" lon="15.13763335477822"><ele>634.1666666666667</ele><time>2026-04-06T11:33:35.999Z</time></trkpt><trkpt lat="37.877424276289396" lon="15.137564407771297"><ele>634.3333333333334</ele><time>2026-04-06T11:33:38.999Z</time></trkpt><trkpt lat="37.87738534934498" lon="15.137477348601294"><ele>634.5</ele><time>2026-04-06T11:33:41.999Z</time></trkpt><trkpt lat="37.877343301583814" lon="15.137381467814961"><ele>634.6666666666666</ele><time>2026-04-06T11:33:44.999Z</time></trkpt><trkpt lat="37.87727659879277" lon="15.137310434246912"><ele>634.8333333333333</ele><time>2026-04-06T11:33:47.999Z</time></trkpt><trkpt lat="37.87721750794492" lon="15.13723197583747"><ele>635.0</ele><time>2026-04-06T11:33:50.999Z</time></trkpt><trkpt lat="37.87716946810023" lon="15.137139744812089"><ele>633.3333333333333</ele><time>2026-04-06T11:33:53.999Z</time></trkpt><trkpt lat="37.877108086485364" lon="15.13706734586175"><ele>631.6666666666666</ele><time>2026-04-06T11:33:56.999Z</time></trkpt><trkpt lat="37.8770411005557" lon="15.136992625050421"><ele>630.0</ele><time>2026-04-06T11:33:59.999Z</time></trkpt><trkpt lat="37.876963887594236" lon="15.136925741151051"><ele>628.3333333333334</ele><time>2026-04-06T11:34:02.999Z</time></trkpt><trkpt lat="37.876897279344576" lon="15.136886897005825"><ele>626.6666666666667</ele><time>2026-04-06T11:34:04.999Z</time></trkpt><trkpt lat="37.876820961846825" lon="15.136857108599752"><ele>625.0</ele><time>2026-04-06T11:34:06.999Z</time></trkpt><trkpt lat="37.87673557268291" lon="15.136854801050205"><ele>625.0</ele><time>2026-04-06T11:34:08.999Z</time></trkpt><trkpt lat="37.876658320533075" lon="15.136809381595874"><ele>625.0</ele><time>2026-04-06T11:34:10.999Z</time></trkpt><trkpt lat="37.87660238455454" lon="15.136712718174346"><ele>625.0</ele><time>2026-04-06T11:34:12.999Z</time></trkpt><trkpt lat="37.8765541374441" lon="15.136604191944736"><ele>625.0</ele><time>2026-04-06T11:34:14.999Z</time></trkpt><trkpt lat="37.87649141041078" lon="15.136502106520247"><ele>625.0</ele><time>2026-04-06T11:34:16.999Z</time></trkpt><trkpt lat="37.87644979329263" lon="15.136419357754939"><ele>621.8571428571429</ele><time>2026-04-06T11:34:18.999Z</time></trkpt><trkpt lat="37.87640185150919" lon="15.13634553901788"><ele>618.7142857142858</ele><time>2026-04-06T11:34:20.999Z</time></trkpt><trkpt lat="37.876366359708484" lon="15.13626947097306"><ele>615.5714285714287</ele><time>2026-04-06T11:34:22.999Z</time></trkpt><trkpt lat="37.87630717766139" lon="15.136177112158489"><ele>612.4285714285714</ele><time>2026-04-06T11:34:25.999Z</time></trkpt><trkpt lat="37.876288272592994" lon="15.13608625184801"><ele>609.2857142857142</ele><time>2026-04-06T11:34:27.999Z</time></trkpt><trkpt lat="37.87626235964436" lon="15.136011980528746"><ele>606.1428571428572</ele><time>2026-04-06T11:34:29.999Z</time></trkpt><trkpt lat="37.87623854486476" lon="15.135927398559184"><ele>603.0</ele><time>2026-04-06T11:34:32.999Z</time></trkpt><trkpt lat="37.876209320389734" lon="15.13584888219172"><ele>603.0</ele><time>2026-04-06T11:34:36.999Z</time></trkpt><trkpt lat="37.87616354094335" lon="15.135783966150981"><ele>603.0</ele><time>2026-04-06T11:35:04.999Z</time></trkpt><trkpt lat="37.876106695356185" lon="15.135745677406108"><ele>603.0</ele><time>2026-04-06T11:35:09.999Z</time></trkpt><trkpt lat="37.87615975124454" lon="15.135642712572883"><ele>603.0</ele><time>2026-04-06T11:35:10.999Z</time></trkpt><trkpt lat="37.8761840785809" lon="15.13550494009043"><ele>603.0</ele><time>2026-04-06T11:35:12.999Z</time></trkpt><trkpt lat="37.87619096747045" lon="15.135409596230087"><ele>603.0</ele><time>2026-04-06T11:35:13.999Z</time></trkpt><trkpt lat="37.876196813377675" lon="15.13530770155301"><ele>602.6</ele><time>2026-04-06T11:35:14.999Z</time></trkpt><trkpt lat="37.876202894060334" lon="15.13519638843589"><ele>602.1999999999999</ele><time>2026-04-06T11:35:15.999Z</time></trkpt><trkpt lat="37.8762196499563" lon="15.135083646752955"><ele>601.8</ele><time>2026-04-06T11:35:16.998Z</time></trkpt><trkpt lat="37.8762230878998" lon="15.134962247341871"><ele>601.4</ele><time>2026-04-06T11:35:17.998Z</time></trkpt><trkpt lat="37.876241232206226" lon="15.134847627305621"><ele>601.0</ele><time>2026-04-06T11:35:18.998Z</time></trkpt><trkpt lat="37.87624636476352" lon="15.134734870490117"><ele>602.1428571428571</ele><time>2026-04-06T11:35:19.998Z</time></trkpt><trkpt lat="37.8762506354299" lon="15.134631436184359"><ele>603.2857142857143</ele><time>2026-04-06T11:35:20.998Z</time></trkpt><trkpt lat="37.87625475425345" lon="15.134530669280593"><ele>604.4285714285714</ele><time>2026-04-06T11:35:21.998Z</time></trkpt><trkpt lat="37.876254904579326" lon="15.134436096760698"><ele>605.5714285714286</ele><time>2026-04-06T11:35:22.998Z</time></trkpt><trkpt lat="37.87625464518192" lon="15.134346479548872"><ele>606.7142857142858</ele><time>2026-04-06T11:35:23.998Z</time></trkpt><trkpt lat="37.87625113285555" lon="15.134264195679604"><ele>607.8571428571429</ele><time>2026-04-06T11:35:24.998Z</time></trkpt><trkpt lat="37.87623904530134" lon="15.134178850288157"><ele>609.0</ele><time>2026-04-06T11:35:25.998Z</time></trkpt><trkpt lat="37.87621776334509" lon="15.134098825705841"><ele>604.0</ele><time>2026-04-06T11:35:26.998Z</time></trkpt><trkpt lat="37.87618561886575" lon="15.133944490864504"><ele>599.0</ele><time>2026-04-06T11:35:28.998Z</time></trkpt><trkpt lat="37.87613171223673" lon="15.133798943925921"><ele>594.0</ele><time>2026-04-06T11:35:30.998Z</time></trkpt><trkpt lat="37.87609343523881" lon="15.133725445525236"><ele>589.0</ele><time>2026-04-06T11:35:31.998Z</time></trkpt><trkpt lat="37.876002502749316" lon="15.133606425607232"><ele>589.0</ele><time>2026-04-06T11:35:33.998Z</time></trkpt><trkpt lat="37.87594934345055" lon="15.133526808420275"><ele>589.0</ele><time>2026-04-06T11:35:34.998Z</time></trkpt><trkpt lat="37.87589295359224" lon="15.133452176532561"><ele>589.0</ele><time>2026-04-06T11:35:35.998Z</time></trkpt><trkpt lat="37.875837262526005" lon="15.133373334712237"><ele>589.0</ele><time>2026-04-06T11:35:36.998Z</time></trkpt><trkpt lat="37.87578679933627" lon="15.133299094023597"><ele>589.0</ele><time>2026-04-06T11:35:37.998Z</time></trkpt><trkpt lat="37.87573639455384" lon="15.133221056934305"><ele>589.0</ele><time>2026-04-06T11:35:38.998Z</time></trkpt><trkpt lat="37.87568036965628" lon="15.133148718382495"><ele>589.8333333333334</ele><time>2026-04-06T11:35:39.998Z</time></trkpt><trkpt lat="37.87562395416908" lon="15.133077000057721"><ele>590.6666666666667</ele><time>2026-04-06T11:35:40.998Z</time></trkpt><trkpt lat="37.875566293624054" lon="15.132997428004428"><ele>591.5</ele><time>2026-04-06T11:35:41.998Z</time></trkpt><trkpt lat="37.875524927709854" lon="15.13290550332942"><ele>592.3333333333334</ele><time>2026-04-06T11:35:42.998Z</time></trkpt><trkpt lat="37.87546992035757" lon="15.13283919244697"><ele>593.1666666666666</ele><time>2026-04-06T11:35:43.998Z</time></trkpt><trkpt lat="37.875424368502784" lon="15.132770081339546"><ele>594.0</ele><time>2026-04-06T11:35:44.998Z</time></trkpt><trkpt lat="37.8753916735409" lon="15.132694469684791"><ele>594.0</ele><time>2026-04-06T11:35:45.999Z</time></trkpt><trkpt lat="37.87536083832372" lon="15.132621979313058"><ele>594.0</ele><time>2026-04-06T11:35:46.999Z</time></trkpt><trkpt lat="37.87529991751775" lon="15.13249096115289"><ele>594.0</ele><time>2026-04-06T11:35:48.999Z</time></trkpt><trkpt lat="37.87525421626358" lon="15.132363691606205"><ele>594.0</ele><time>2026-04-06T11:35:50.999Z</time></trkpt><trkpt lat="37.87521383869555" lon="15.132239766494884"><ele>594.0</ele><time>2026-04-06T11:35:52.999Z</time></trkpt><trkpt lat="37.87519644962671" lon="15.132089239399908"><ele>594.5</ele><time>2026-04-06T11:35:54.999Z</time></trkpt><trkpt lat="37.87518368067101" lon="15.131990580311346"><ele>595.0</ele><time>2026-04-06T11:35:55.999Z</time></trkpt><trkpt lat="37.87519174146471" lon="15.131894444006885"><ele>595.5</ele><time>2026-04-06T11:35:56.999Z</time></trkpt><trkpt lat="37.87518064114843" lon="15.131813755433205"><ele>596.0</ele><time>2026-04-06T11:35:57.999Z</time></trkpt><trkpt lat="37.87517680881955" lon="15.13168910931782"><ele>596.5</ele><time>2026-04-06T11:35:59.999Z</time></trkpt><trkpt lat="37.875201368624374" lon="15.131587486238722"><ele>597.0</ele><time>2026-04-06T11:36:01.999Z</time></trkpt><trkpt lat="37.875225007934766" lon="15.131496536590928"><ele>597.0</ele><time>2026-04-06T11:36:03.999Z</time></trkpt><trkpt lat="37.87527422649734" lon="15.131421431298824"><ele>597.0</ele><time>2026-04-06T11:36:06.999Z</time></trkpt><trkpt lat="37.875325877595365" lon="15.131325443671756"><ele>597.0</ele><time>2026-04-06T11:36:08.999Z</time></trkpt><trkpt lat="37.875358071652855" lon="15.131246673898747"><ele>597.0</ele><time>2026-04-06T11:36:09.999Z</time></trkpt><trkpt lat="37.875386808776796" lon="15.131155176560156"><ele>597.0</ele><time>2026-04-06T11:36:10.999Z</time></trkpt><trkpt lat="37.8754011891153" lon="15.131057147654444"><ele>597.0</ele><time>2026-04-06T11:36:11.999Z</time></trkpt><trkpt lat="37.8754060396355" lon="15.130962233671688"><ele>597.0</ele><time>2026-04-06T11:36:12.999Z</time></trkpt><trkpt lat="37.87540634267877" lon="15.130860516785946"><ele>597.0</ele><time>2026-04-06T11:36:13.999Z</time></trkpt><trkpt lat="37.87540725195578" lon="15.130769295367967"><ele>597.0</ele><time>2026-04-06T11:36:14.999Z</time></trkpt><trkpt lat="37.87537561970716" lon="15.130621129969933"><ele>597.0</ele><time>2026-04-06T11:36:16.999Z</time></trkpt><trkpt lat="37.87534085000297" lon="15.13050453320953"><ele>597.0</ele><time>2026-04-06T11:36:18.999Z</time></trkpt><trkpt lat="37.87534046149392" lon="15.130406768076408"><ele>597.0</ele><time>2026-04-06T11:36:20.999Z</time></trkpt><trkpt lat="37.87540285525302" lon="15.130289393260636"><ele>600.0000000000001</ele><time>2026-04-06T11:36:22.999Z</time></trkpt><trkpt lat="37.87544672514965" lon="15.130225408825696"><ele>603.0</ele><time>2026-04-06T11:36:23.999Z</time></trkpt><trkpt lat="37.87549204791508" lon="15.13015881715265"><ele>606.0</ele><time>2026-04-06T11:36:24.999Z</time></trkpt><trkpt lat="37.87553810912544" lon="15.130101394562237"><ele>609.0</ele><time>2026-04-06T11:36:25.999Z</time></trkpt><trkpt lat="37.87559080357767" lon="15.130043810544057"><ele>612.0</ele><time>2026-04-06T11:36:26.999Z</time></trkpt><trkpt lat="37.87565332216738" lon="15.12999441759923"><ele>615.0000000000001</ele><time>2026-04-06T11:36:27.999Z</time></trkpt><trkpt lat="37.87571755577124" lon="15.129943799256315"><ele>618.0</ele><time>2026-04-06T11:36:28.999Z</time></trkpt><trkpt lat="37.875786051387266" lon="15.12988639531429"><ele>621.6666666666666</ele><time>2026-04-06T11:36:29.999Z</time></trkpt><trkpt lat="37.87586115388496" lon="15.12984853156729"><ele>625.3333333333334</ele><time>2026-04-06T11:36:30.999Z</time></trkpt><trkpt lat="37.87594420347715" lon="15.129812412935772"><ele>629.0</ele><time>2026-04-06T11:36:31.999Z</time></trkpt><trkpt lat="37.87603140020651" lon="15.129781782018908"><ele>632.6666666666667</ele><time>2026-04-06T11:36:32.999Z</time></trkpt><trkpt lat="37.876124353464455" lon="15.129770745318131"><ele>636.3333333333334</ele><time>2026-04-06T11:36:33.999Z</time></trkpt><trkpt lat="37.87621033437843" lon="15.129748014076126"><ele>640.0</ele><time>2026-04-06T11:36:34.999Z</time></trkpt><trkpt lat="37.87628924927468" lon="15.12970624177109"><ele>640.0</ele><time>2026-04-06T11:36:35.999Z</time></trkpt><trkpt lat="37.876367119356615" lon="15.129656629494612"><ele>640.0</ele><time>2026-04-06T11:36:36.999Z</time></trkpt><trkpt lat="37.87644341407663" lon="15.129609912145364"><ele>640.0</ele><time>2026-04-06T11:36:37.999Z</time></trkpt><trkpt lat="37.87652361773735" lon="15.12957079663741"><ele>640.0</ele><time>2026-04-06T11:36:38.999Z</time></trkpt><trkpt lat="37.87660849750494" lon="15.129543102810581"><ele>640.0</ele><time>2026-04-06T11:36:39.999Z</time></trkpt><trkpt lat="37.876696307517726" lon="15.129521186277021"><ele>640.0</ele><time>2026-04-06T11:36:40.999Z</time></trkpt><trkpt lat="37.87678468062282" lon="15.129511199564318"><ele>638.8</ele><time>2026-04-06T11:36:41.999Z</time></trkpt><trkpt lat="37.87687855353001" lon="15.129501678013659"><ele>637.6</ele><time>2026-04-06T11:36:42.999Z</time></trkpt><trkpt lat="37.876981955755255" lon="15.129501879621362"><ele>636.4</ele><time>2026-04-06T11:36:43.999Z</time></trkpt><trkpt lat="37.87708853634398" lon="15.129508722045664"><ele>635.2</ele><time>2026-04-06T11:36:44.999Z</time></trkpt><trkpt lat="37.877191453014525" lon="15.129511935336783"><ele>634.0</ele><time>2026-04-06T11:36:45.999Z</time></trkpt><trkpt lat="37.87728912394071" lon="15.129506966708584"><ele>634.0</ele><time>2026-04-06T11:36:46.999Z</time></trkpt><trkpt lat="37.87738644360485" lon="15.12951145233531"><ele>634.0</ele><time>2026-04-06T11:36:47.999Z</time></trkpt><trkpt lat="37.877479510526314" lon="15.129509827161137"><ele>634.0</ele><time>2026-04-06T11:36:48.999Z</time></trkpt><trkpt lat="37.87756786138828" lon="15.129505720884241"><ele>634.0</ele><time>2026-04-06T11:36:49.999Z</time></trkpt><trkpt lat="37.87764361032796" lon="15.129504192947827"><ele>634.0</ele><time>2026-04-06T11:36:50.999Z</time></trkpt><trkpt lat="37.87771757105181" lon="15.129498358055733"><ele>634.0</ele><time>2026-04-06T11:36:51.999Z</time></trkpt><trkpt lat="37.87779692391601" lon="15.129486478419192"><ele>629.2</ele><time>2026-04-06T11:36:52.999Z</time></trkpt><trkpt lat="37.87786251905672" lon="15.129461668690805"><ele>624.4</ele><time>2026-04-06T11:36:53.999Z</time></trkpt><trkpt lat="37.877981264316404" lon="15.129405075820147"><ele>619.6</ele><time>2026-04-06T11:36:55.999Z</time></trkpt><trkpt lat="37.87804244416014" lon="15.12937993087645"><ele>614.8</ele><time>2026-04-06T11:36:56.999Z</time></trkpt><trkpt lat="37.878117477812026" lon="15.129263794430408"><ele>610.0</ele><time>2026-04-06T11:36:59.018Z</time></trkpt><trkpt lat="37.878190079224694" lon="15.129151676245026"><ele>610.0</ele><time>2026-04-06T11:37:01.015Z</time></trkpt><trkpt lat="37.878244631848716" lon="15.12904345015078"><ele>610.0</ele><time>2026-04-06T11:37:03.016Z</time></trkpt><trkpt lat="37.87827745402347" lon="15.12894328666412"><ele>610.0</ele><time>2026-04-06T11:37:05.016Z</time></trkpt><trkpt lat="37.87820755041938" lon="15.129122324301981"><ele>610.0</ele><time>2026-04-06T11:37:05.999Z</time></trkpt><trkpt lat="37.878223169355806" lon="15.12903443924403"><ele>610.0</ele><time>2026-04-06T11:37:11.999Z</time></trkpt><trkpt lat="37.878277390892265" lon="15.128942758685541"><ele>611.6666666666667</ele><time>2026-04-06T11:37:32.998Z</time></trkpt><trkpt lat="37.87824933361753" lon="15.129017320091187"><ele>613.3333333333334</ele><time>2026-04-06T11:54:27.998Z</time></trkpt><trkpt lat="37.87828974724114" lon="15.128907021657348"><ele>615.0</ele><time>2026-04-06T11:56:41Z</time></trkpt><trkpt lat="37.87830107506904" lon="15.128826176408818"><ele>616.6666666666666</ele><time>2026-04-06T11:56:46Z</time></trkpt><trkpt lat="37.878321085971805" lon="15.128726311137099"><ele>618.3333333333333</ele><time>2026-04-06T11:56:48Z</time></trkpt><trkpt lat="37.878358701813184" lon="15.12860051512607"><ele>620.0</ele><time>2026-04-06T11:56:50Z</time></trkpt><trkpt lat="37.87841208164749" lon="15.128463453673898"><ele>615.0</ele><time>2026-04-06T11:56:52Z</time></trkpt><trkpt lat="37.87843729836129" lon="15.128388992862144"><ele>610.0</ele><time>2026-04-06T11:56:53Z</time></trkpt><trkpt lat="37.87846372114995" lon="15.128313402365418"><ele>605.0</ele><time>2026-04-06T11:56:54Z</time></trkpt><trkpt lat="37.87849036452155" lon="15.12823013525839"><ele>600.0</ele><time>2026-04-06T11:56:55Z</time></trkpt><trkpt lat="37.8785139575148" lon="15.128151370505844"><ele>595.0</ele><time>2026-04-06T11:56:56Z</time></trkpt><trkpt lat="37.87854179525847" lon="15.128074225828131"><ele>590.0</ele><time>2026-04-06T11:56:57Z</time></trkpt><trkpt lat="37.87859200065905" lon="15.127932890911989"><ele>590.0</ele><time>2026-04-06T11:56:59Z</time></trkpt><trkpt lat="37.878632625629436" lon="15.127790207243587"><ele>590.0</ele><time>2026-04-06T11:57:01Z</time></trkpt><trkpt lat="37.8786763031468" lon="15.127656662068576"><ele>590.0</ele><time>2026-04-06T11:57:03Z</time></trkpt><trkpt lat="37.87870277796441" lon="15.127517091264687"><ele>590.0</ele><time>2026-04-06T11:57:05Z</time></trkpt><trkpt lat="37.87871265562408" lon="15.127371332013713"><ele>590.2</ele><time>2026-04-06T11:57:06.999Z</time></trkpt><trkpt lat="37.87871866389387" lon="15.12722577522943"><ele>590.4</ele><time>2026-04-06T11:57:08.999Z</time></trkpt><trkpt lat="37.878700205820266" lon="15.127084092332092"><ele>590.6</ele><time>2026-04-06T11:57:10.999Z</time></trkpt><trkpt lat="37.878666030519575" lon="15.126957415272967"><ele>590.8</ele><time>2026-04-06T11:57:12.999Z</time></trkpt><trkpt lat="37.878611091476124" lon="15.12683868344083"><ele>591.0</ele><time>2026-04-06T11:57:14.999Z</time></trkpt><trkpt lat="37.87855536581532" lon="15.126726951145166"><ele>591.0</ele><time>2026-04-06T11:57:16.999Z</time></trkpt><trkpt lat="37.87847917418528" lon="15.126631104004183"><ele>591.0</ele><time>2026-04-06T11:57:18.999Z</time></trkpt><trkpt lat="37.87840247271168" lon="15.126558188041264"><ele>591.0</ele><time>2026-04-06T11:57:20.999Z</time></trkpt><trkpt lat="37.87833521669048" lon="15.126520635178021"><ele>591.0</ele><time>2026-04-06T11:57:22.999Z</time></trkpt><trkpt lat="37.87824827571834" lon="15.126461025978248"><ele>591.0</ele><time>2026-04-06T11:57:25.999Z</time></trkpt><trkpt lat="37.878172003581945" lon="15.126381897249052"><ele>591.2</ele><time>2026-04-06T11:57:27.999Z</time></trkpt><trkpt lat="37.878088623498485" lon="15.126290997818836"><ele>591.4000000000001</ele><time>2026-04-06T11:57:29.999Z</time></trkpt><trkpt lat="37.878007355038505" lon="15.126179233114687"><ele>591.6</ele><time>2026-04-06T11:57:31.999Z</time></trkpt><trkpt lat="37.87793382160066" lon="15.126047671617872"><ele>591.8000000000001</ele><time>2026-04-06T11:57:33.999Z</time></trkpt><trkpt lat="37.87791541704544" lon="15.125967885131663"><ele>592.0</ele><time>2026-04-06T11:57:34.999Z</time></trkpt><trkpt lat="37.877884943757294" lon="15.125897366543205"><ele>592.0</ele><time>2026-04-06T11:57:35.999Z</time></trkpt><trkpt lat="37.87782405999097" lon="15.125759962870118"><ele>592.0</ele><time>2026-04-06T11:57:37.999Z</time></trkpt><trkpt lat="37.87781077877767" lon="15.125679579515623"><ele>592.0</ele><time>2026-04-06T11:57:38.999Z</time></trkpt><trkpt lat="37.87777656458878" lon="15.125609390235754"><ele>592.0</ele><time>2026-04-06T11:57:39.999Z</time></trkpt><trkpt lat="37.87775387030527" lon="15.125531868944242"><ele>592.0</ele><time>2026-04-06T11:57:40.999Z</time></trkpt><trkpt lat="37.877737018320275" lon="15.12545474723326"><ele>592.0</ele><time>2026-04-06T11:57:41.999Z</time></trkpt><trkpt lat="37.87769080449469" lon="15.125309320073516"><ele>591.1666666666667</ele><time>2026-04-06T11:57:43.999Z</time></trkpt><trkpt lat="37.87765468884894" lon="15.125167207967676"><ele>590.3333333333334</ele><time>2026-04-06T11:57:45.999Z</time></trkpt><trkpt lat="37.877648585501824" lon="15.125086889149136"><ele>589.5</ele><time>2026-04-06T11:57:46.999Z</time></trkpt><trkpt lat="37.87761160868039" lon="15.125006129004229"><ele>588.6666666666666</ele><time>2026-04-06T11:57:47.999Z</time></trkpt><trkpt lat="37.877588937445026" lon="15.12492603933261"><ele>587.8333333333333</ele><time>2026-04-06T11:57:48.999Z</time></trkpt><trkpt lat="37.87755557426874" lon="15.124777830208302"><ele>587.0</ele><time>2026-04-06T11:57:50.999Z</time></trkpt><trkpt lat="37.87751203147152" lon="15.124649588568866"><ele>589.3333333333333</ele><time>2026-04-06T11:57:52.999Z</time></trkpt><trkpt lat="37.87747741830444" lon="15.124530793433804"><ele>591.6666666666666</ele><time>2026-04-06T11:57:54.998Z</time></trkpt><trkpt lat="37.877451241190904" lon="15.124439625538276"><ele>594.0</ele><time>2026-04-06T11:57:56.998Z</time></trkpt><trkpt lat="37.87743414425907" lon="15.124362400189286"><ele>596.3333333333334</ele><time>2026-04-06T11:58:01.998Z</time></trkpt><trkpt lat="37.87740089075465" lon="15.124265417358487"><ele>598.6666666666667</ele><time>2026-04-06T11:58:18.998Z</time></trkpt><trkpt lat="37.87735897310447" lon="15.124170010157558"><ele>601.0</ele><time>2026-04-06T11:58:21.998Z</time></trkpt><trkpt lat="37.87731467638318" lon="15.124062995803742"><ele>601.0</ele><time>2026-04-06T11:58:24.998Z</time></trkpt><trkpt lat="37.87727938137754" lon="15.123955204043153"><ele>601.0</ele><time>2026-04-06T11:58:26.998Z</time></trkpt><trkpt lat="37.87726449570088" lon="15.123820365705004"><ele>601.0</ele><time>2026-04-06T11:58:28.998Z</time></trkpt><trkpt lat="37.87721713314678" lon="15.123684236887042"><ele>601.0</ele><time>2026-04-06T11:58:30.998Z</time></trkpt><trkpt lat="37.877208579472175" lon="15.123553290203578"><ele>601.0</ele><time>2026-04-06T11:58:32.998Z</time></trkpt><trkpt lat="37.87719043551311" lon="15.123449467494005"><ele>601.0</ele><time>2026-04-06T11:58:34.998Z</time></trkpt><trkpt lat="37.87716113452294" lon="15.123365376655956"><ele>601.0</ele><time>2026-04-06T11:58:36.998Z</time></trkpt><trkpt lat="37.87711217164104" lon="15.123269676669587"><ele>601.0</ele><time>2026-04-06T11:58:39.998Z</time></trkpt><trkpt lat="37.87707346573707" lon="15.123191657020595"><ele>601.0</ele><time>2026-04-06T11:58:43Z</time></trkpt><trkpt lat="37.877061992600744" lon="15.123108026264605"><ele>601.0</ele><time>2026-04-06T11:58:50Z</time></trkpt><trkpt lat="37.87704648594995" lon="15.123020000798656"><ele>601.0</ele><time>2026-04-06T11:59:39.999Z</time></trkpt><trkpt lat="37.87702236700343" lon="15.122911480660994"><ele>599.3333333333334</ele><time>2026-04-06T11:59:42.999Z</time></trkpt><trkpt lat="37.87700191784976" lon="15.122819472011948"><ele>597.6666666666667</ele><time>2026-04-06T11:59:44.999Z</time></trkpt><trkpt lat="37.876977723025526" lon="15.122710610335993"><ele>596.0</ele><time>2026-04-06T11:59:46.999Z</time></trkpt><trkpt lat="37.876957206910106" lon="15.122612703922007"><ele>594.3333333333334</ele><time>2026-04-06T11:59:48.999Z</time></trkpt><trkpt lat="37.8769276652546" lon="15.12252650838802"><ele>592.6666666666666</ele><time>2026-04-06T11:59:50.999Z</time></trkpt><trkpt lat="37.87690455026518" lon="15.122442981889385"><ele>591.0</ele><time>2026-04-06T11:59:52.999Z</time></trkpt><trkpt lat="37.87687925178792" lon="15.122349251840427"><ele>589.5714285714286</ele><time>2026-04-06T11:59:54.999Z</time></trkpt><trkpt lat="37.87685310187116" lon="15.122252585060664"><ele>588.1428571428571</ele><time>2026-04-06T11:59:56.999Z</time></trkpt><trkpt lat="37.876825595339824" lon="15.122152846250103"><ele>586.7142857142858</ele><time>2026-04-06T11:59:58.999Z</time></trkpt><trkpt lat="37.876793742402505" lon="15.12205704004155"><ele>585.2857142857142</ele><time>2026-04-06T12:00:00.999Z</time></trkpt><trkpt lat="37.87677357928056" lon="15.121969606985179"><ele>583.8571428571429</ele><time>2026-04-06T12:00:02.999Z</time></trkpt><trkpt lat="37.87674856723285" lon="15.1218920646352"><ele>582.4285714285714</ele><time>2026-04-06T12:00:04.999Z</time></trkpt><trkpt lat="37.876742323808784" lon="15.121809935579147"><ele>581.0</ele><time>2026-04-06T12:00:06.999Z</time></trkpt><trkpt lat="37.87671864434669" lon="15.121733373385986"><ele>584.8333333333333</ele><time>2026-04-06T12:00:08.999Z</time></trkpt><trkpt lat="37.87668425336281" lon="15.121624721300963"><ele>588.6666666666666</ele><time>2026-04-06T12:00:11.998Z</time></trkpt><trkpt lat="37.876636091054074" lon="15.121529755840752"><ele>592.5</ele><time>2026-04-06T12:00:14.998Z</time></trkpt><trkpt lat="37.87660553371743" lon="15.121426021323444"><ele>596.3333333333334</ele><time>2026-04-06T12:00:17.998Z</time></trkpt><trkpt lat="37.8765772940955" lon="15.1213478969436"><ele>600.1666666666667</ele><time>2026-04-06T12:00:19.998Z</time></trkpt><trkpt lat="37.87655092642413" lon="15.121265040140658"><ele>604.0</ele><time>2026-04-06T12:00:21.998Z</time></trkpt><trkpt lat="37.87652471637287" lon="15.121182194733152"><ele>604.0</ele><time>2026-04-06T12:00:23.998Z</time></trkpt><trkpt lat="37.87650251740958" lon="15.121101433397987"><ele>604.0</ele><time>2026-04-06T12:00:25.998Z</time></trkpt><trkpt lat="37.87647419795889" lon="15.121006978061795"><ele>604.0</ele><time>2026-04-06T12:00:27.998Z</time></trkpt><trkpt lat="37.87644103530491" lon="15.120912869765228"><ele>604.0</ele><time>2026-04-06T12:00:29.998Z</time></trkpt><trkpt lat="37.876397188700345" lon="15.120804800398814"><ele>604.0</ele><time>2026-04-06T12:00:31.998Z</time></trkpt><trkpt lat="37.87635862151252" lon="15.120691549539925"><ele>604.0</ele><time>2026-04-06T12:00:33.998Z</time></trkpt><trkpt lat="37.87631386508622" lon="15.120571242642338"><ele>603.8333333333334</ele><time>2026-04-06T12:00:35.998Z</time></trkpt><trkpt lat="37.87626376556679" lon="15.120451077860366"><ele>603.6666666666667</ele><time>2026-04-06T12:00:37.998Z</time></trkpt><trkpt lat="37.876232349463805" lon="15.120325358288255"><ele>603.5</ele><time>2026-04-06T12:00:39.998Z</time></trkpt><trkpt lat="37.87619524876726" lon="15.120220148265073"><ele>603.3333333333334</ele><time>2026-04-06T12:00:41.998Z</time></trkpt><trkpt lat="37.87614712761529" lon="15.120146600337355"><ele>603.1666666666666</ele><time>2026-04-06T12:00:43.998Z</time></trkpt><trkpt lat="37.87613002804408" lon="15.120068256474465"><ele>603.0</ele><time>2026-04-06T12:00:45.998Z</time></trkpt><trkpt lat="37.87609372022036" lon="15.11999832423372"><ele>603.0</ele><time>2026-04-06T12:00:48Z</time></trkpt><trkpt lat="37.87605505783637" lon="15.119928668415655"><ele>603.0</ele><time>2026-04-06T12:00:50Z</time></trkpt><trkpt lat="37.87601613838306" lon="15.119858532001025"><ele>603.0</ele><time>2026-04-06T12:00:52Z</time></trkpt><trkpt lat="37.87597196861933" lon="15.119794608004039"><ele>603.0</ele><time>2026-04-06T12:00:54Z</time></trkpt><trkpt lat="37.87592113771891" lon="15.119738366261045"><ele>603.0</ele><time>2026-04-06T12:00:56Z</time></trkpt><trkpt lat="37.87587694937604" lon="15.11968036546831"><ele>603.0</ele><time>2026-04-06T12:00:58Z</time></trkpt><trkpt lat="37.87583467702044" lon="15.11961729183681"><ele>603.0</ele><time>2026-04-06T12:01:00Z</time></trkpt><trkpt lat="37.87576346260264" lon="15.119571836290755"><ele>605.5</ele><time>2026-04-06T12:01:02Z</time></trkpt><trkpt lat="37.87570007577584" lon="15.119517033915669"><ele>608.0</ele><time>2026-04-06T12:01:04Z</time></trkpt><trkpt lat="37.87564106976143" lon="15.119446113659738"><ele>610.5</ele><time>2026-04-06T12:01:06Z</time></trkpt><trkpt lat="37.87558659193225" lon="15.119342171483407"><ele>613.0</ele><time>2026-04-06T12:01:08Z</time></trkpt><trkpt lat="37.8755029788943" lon="15.119268901171514"><ele>615.5</ele><time>2026-04-06T12:01:10Z</time></trkpt><trkpt lat="37.87547190933018" lon="15.119168031070517"><ele>618.0</ele><time>2026-04-06T12:01:12Z</time></trkpt><trkpt lat="37.87552241547218" lon="15.119097017212685"><ele>618.0</ele><time>2026-04-06T12:01:14Z</time></trkpt><trkpt lat="37.87557301474068" lon="15.119176430691654"><ele>618.0</ele><time>2026-04-06T12:01:16Z</time></trkpt><trkpt lat="37.87562063788228" lon="15.119228844091593"><ele>618.0</ele><time>2026-04-06T12:01:27.999Z</time></trkpt><trkpt lat="37.87556708427711" lon="15.119184549208752"><ele>618.0</ele><time>2026-04-06T12:01:31.999Z</time></trkpt><trkpt lat="37.87551147960048" lon="15.119146263091821"><ele>618.0</ele><time>2026-04-06T12:01:33.999Z</time></trkpt><trkpt lat="37.8754318007662" lon="15.11912180896877"><ele>618.0</ele><time>2026-04-06T12:01:35.999Z</time></trkpt><trkpt lat="37.875357879697724" lon="15.118828044447978"><ele>615.8333333333334</ele><time>2026-04-06T12:01:37.999Z</time></trkpt><trkpt lat="37.87528648648587" lon="15.11880501311244"><ele>613.6666666666666</ele><time>2026-04-06T12:01:38.999Z</time></trkpt><trkpt lat="37.875214459853375" lon="15.118778629898147"><ele>611.5</ele><time>2026-04-06T12:01:39.999Z</time></trkpt><trkpt lat="37.87514963141758" lon="15.11875643012367"><ele>609.3333333333333</ele><time>2026-04-06T12:01:40.999Z</time></trkpt><trkpt lat="37.87508924627773" lon="15.118732109286638"><ele>607.1666666666666</ele><time>2026-04-06T12:01:41.999Z</time></trkpt><trkpt lat="37.87498359274875" lon="15.118679745970498"><ele>605.0</ele><time>2026-04-06T12:01:43.999Z</time></trkpt><trkpt lat="37.8749111686513" lon="15.118606138627202"><ele>605.0</ele><time>2026-04-06T12:01:45.999Z</time></trkpt><trkpt lat="37.874883769726125" lon="15.118502743557997"><ele>605.0</ele><time>2026-04-06T12:01:47.999Z</time></trkpt><trkpt lat="37.874900489948715" lon="15.118404467963376"><ele>605.0</ele><time>2026-04-06T12:01:49.999Z</time></trkpt><trkpt lat="37.87494849022576" lon="15.118336385689256"><ele>605.0</ele><time>2026-04-06T12:01:51.999Z</time></trkpt><trkpt lat="37.875033153577235" lon="15.118284939651838"><ele>605.0</ele><time>2026-04-06T12:01:53.999Z</time></trkpt><trkpt lat="37.875124753123636" lon="15.1183016711302"><ele>605.0</ele><time>2026-04-06T12:01:55.999Z</time></trkpt><trkpt lat="37.87522083806844" lon="15.118353645478349"><ele>603.75</ele><time>2026-04-06T12:01:57.999Z</time></trkpt><trkpt lat="37.87533086797504" lon="15.118419095255701"><ele>602.5</ele><time>2026-04-06T12:01:59.999Z</time></trkpt><trkpt lat="37.8754422099111" lon="15.118477218183186"><ele>601.25</ele><time>2026-04-06T12:02:01.999Z</time></trkpt><trkpt lat="37.8755563684943" lon="15.118508278684834"><ele>600.0</ele><time>2026-04-06T12:02:03.999Z</time></trkpt><trkpt lat="37.875677585980476" lon="15.118499379461243"><ele>600.0</ele><time>2026-04-06T12:02:05.999Z</time></trkpt><trkpt lat="37.87579586734802" lon="15.118460777266542"><ele>600.0</ele><time>2026-04-06T12:02:07.999Z</time></trkpt><trkpt lat="37.875909078991576" lon="15.118410372509508"><ele>600.0</ele><time>2026-04-06T12:02:09.999Z</time></trkpt><trkpt lat="37.87602379532635" lon="15.118385203844515"><ele>600.0</ele><time>2026-04-06T12:02:11.998Z</time></trkpt><trkpt lat="37.876129291293815" lon="15.118379823702046"><ele>600.0</ele><time>2026-04-06T12:02:13.998Z</time></trkpt><trkpt lat="37.8762364124463" lon="15.118368354144817"><ele>600.0</ele><time>2026-04-06T12:02:15.998Z</time></trkpt><trkpt lat="37.87634783605304" lon="15.118302115825431"><ele>600.0</ele><time>2026-04-06T12:02:17.998Z</time></trkpt><trkpt lat="37.8764038854174" lon="15.118252784007652"><ele>600.0</ele><time>2026-04-06T12:02:18.998Z</time></trkpt><trkpt lat="37.87646379148042" lon="15.118200956570744"><ele>600.0</ele><time>2026-04-06T12:02:19.998Z</time></trkpt><trkpt lat="37.87652405735542" lon="15.118147626730368"><ele>600.0</ele><time>2026-04-06T12:02:20.998Z</time></trkpt><trkpt lat="37.87658404976031" lon="15.118086712016773"><ele>597.0</ele><time>2026-04-06T12:02:21.998Z</time></trkpt><trkpt lat="37.876629419881574" lon="15.118007026174414"><ele>594.0</ele><time>2026-04-06T12:02:22.998Z</time></trkpt><trkpt lat="37.876683314167586" lon="15.117943260668332"><ele>591.0</ele><time>2026-04-06T12:02:23.998Z</time></trkpt><trkpt lat="37.87673268290386" lon="15.117885271653353"><ele>588.0</ele><time>2026-04-06T12:02:24.998Z</time></trkpt><trkpt lat="37.87677753169205" lon="15.117828048680378"><ele>585.0</ele><time>2026-04-06T12:02:25.998Z</time></trkpt><trkpt lat="37.87684632354007" lon="15.11770666105057"><ele>582.0</ele><time>2026-04-06T12:02:27.998Z</time></trkpt><trkpt lat="37.8769128009794" lon="15.117590975390234"><ele>580.8333333333334</ele><time>2026-04-06T12:02:29.998Z</time></trkpt><trkpt lat="37.87695225044491" lon="15.117474914907035"><ele>579.6666666666666</ele><time>2026-04-06T12:02:31.998Z</time></trkpt><trkpt lat="37.876983976532834" lon="15.11738154332536"><ele>578.5</ele><time>2026-04-06T12:02:33.998Z</time></trkpt><trkpt lat="37.87701970711904" lon="15.117295481755585"><ele>577.3333333333333</ele><time>2026-04-06T12:02:36.998Z</time></trkpt><trkpt lat="37.87708780711692" lon="15.117326454559443"><ele>576.1666666666666</ele><time>2026-04-06T12:02:38.998Z</time></trkpt><trkpt lat="37.877119029682184" lon="15.117455315375468"><ele>575.0</ele><time>2026-04-06T12:02:40.998Z</time></trkpt><trkpt lat="37.87712669634549" lon="15.117609205957597"><ele>575.0</ele><time>2026-04-06T12:02:42.998Z</time></trkpt><trkpt lat="37.87713124384541" lon="15.117697103268515"><ele>575.0</ele><time>2026-04-06T12:02:43.998Z</time></trkpt><trkpt lat="37.87714005695783" lon="15.117785578689176"><ele>575.0</ele><time>2026-04-06T12:02:44.998Z</time></trkpt><trkpt lat="37.8771564550888" lon="15.117872893225035"><ele>575.0</ele><time>2026-04-06T12:02:45.998Z</time></trkpt><trkpt lat="37.87718221501408" lon="15.11795318274505"><ele>575.0</ele><time>2026-04-06T12:02:46.998Z</time></trkpt><trkpt lat="37.877211061908476" lon="15.118031380169883"><ele>575.0</ele><time>2026-04-06T12:02:47.998Z</time></trkpt><trkpt lat="37.87724673234483" lon="15.118105882235087"><ele>575.0</ele><time>2026-04-06T12:02:48.998Z</time></trkpt><trkpt lat="37.877292705865074" lon="15.118177288529667"><ele>576.1666666666666</ele><time>2026-04-06T12:02:49.998Z</time></trkpt><trkpt lat="37.87734534379218" lon="15.118241576357132"><ele>577.3333333333333</ele><time>2026-04-06T12:02:50.998Z</time></trkpt><trkpt lat="37.87740309801024" lon="15.118305899612032"><ele>578.5</ele><time>2026-04-06T12:02:51.998Z</time></trkpt><trkpt lat="37.87746136864119" lon="15.118370244132517"><ele>579.6666666666666</ele><time>2026-04-06T12:02:53Z</time></trkpt><trkpt lat="37.8775226921479" lon="15.118438313812572"><ele>580.8333333333334</ele><time>2026-04-06T12:02:54Z</time></trkpt><trkpt lat="37.87758209612262" lon="15.11850035847941"><ele>582.0</ele><time>2026-04-06T12:02:55Z</time></trkpt><trkpt lat="37.87764236382955" lon="15.118560588888169"><ele>579.5714285714286</ele><time>2026-04-06T12:02:56Z</time></trkpt><trkpt lat="37.8777013175504" lon="15.118621932636318"><ele>577.1428571428571</ele><time>2026-04-06T12:02:57Z</time></trkpt><trkpt lat="37.87776780860424" lon="15.11867393590181"><ele>574.7142857142857</ele><time>2026-04-06T12:02:58Z</time></trkpt><trkpt lat="37.87783499200763" lon="15.118721474423365"><ele>572.2857142857142</ele><time>2026-04-06T12:02:59Z</time></trkpt><trkpt lat="37.87790336135194" lon="15.118760558706667"><ele>569.8571428571429</ele><time>2026-04-06T12:03:00Z</time></trkpt><trkpt lat="37.87797041303569" lon="15.11879473867045"><ele>567.4285714285713</ele><time>2026-04-06T12:03:01Z</time></trkpt><trkpt lat="37.878035264281934" lon="15.118828057874058"><ele>565.0</ele><time>2026-04-06T12:03:02Z</time></trkpt><trkpt lat="37.878091774524606" lon="15.118866741154195"><ele>565.0</ele><time>2026-04-06T12:03:03Z</time></trkpt><trkpt lat="37.87818743673604" lon="15.11896366046833"><ele>565.0</ele><time>2026-04-06T12:03:05Z</time></trkpt><trkpt lat="37.87826911312166" lon="15.119063043905696"><ele>565.0</ele><time>2026-04-06T12:03:07Z</time></trkpt><trkpt lat="37.87835240571296" lon="15.119148264355148"><ele>565.0</ele><time>2026-04-06T12:03:09Z</time></trkpt><trkpt lat="37.878447523499126" lon="15.119207934280599"><ele>565.0</ele><time>2026-04-06T12:03:11Z</time></trkpt><trkpt lat="37.878545488439194" lon="15.119249500993336"><ele>566.3333333333334</ele><time>2026-04-06T12:03:13Z</time></trkpt><trkpt lat="37.878607297552136" lon="15.1192917095584"><ele>567.6666666666667</ele><time>2026-04-06T12:03:15Z</time></trkpt><trkpt lat="37.878618028722244" lon="15.11937272480152"><ele>569.0</ele><time>2026-04-06T12:03:17Z</time></trkpt><trkpt lat="37.87853772528789" lon="15.1194178045586"><ele>570.3333333333334</ele><time>2026-04-06T12:03:18.999Z</time></trkpt><trkpt lat="37.87843612948072" lon="15.119472644296126"><ele>571.6666666666666</ele><time>2026-04-06T12:03:20.999Z</time></trkpt><trkpt lat="37.878373883219325" lon="15.119496705567014"><ele>573.0</ele><time>2026-04-06T12:03:21.999Z</time></trkpt><trkpt lat="37.87831661928598" lon="15.119536112476164"><ele>573.0</ele><time>2026-04-06T12:03:22.999Z</time></trkpt><trkpt lat="37.87826429184845" lon="15.119580747468994"><ele>573.0</ele><time>2026-04-06T12:03:23.999Z</time></trkpt><trkpt lat="37.87817535767681" lon="15.11967484711352"><ele>573.0</ele><time>2026-04-06T12:03:25.999Z</time></trkpt><trkpt lat="37.87812593730169" lon="15.119771570981639"><ele>573.0</ele><time>2026-04-06T12:03:27.999Z</time></trkpt><trkpt lat="37.878121360825816" lon="15.119861231298643"><ele>573.0</ele><time>2026-04-06T12:03:29.999Z</time></trkpt><trkpt lat="37.87815342880872" lon="15.119935204363495"><ele>573.0</ele><time>2026-04-06T12:03:31.999Z</time></trkpt><trkpt lat="37.87823797206595" lon="15.11999973018081"><ele>572.8333333333334</ele><time>2026-04-06T12:03:33.999Z</time></trkpt><trkpt lat="37.87835515358792" lon="15.120040643312615"><ele>572.6666666666666</ele><time>2026-04-06T12:03:35.999Z</time></trkpt><trkpt lat="37.878424091832606" lon="15.120047895906621"><ele>572.5</ele><time>2026-04-06T12:03:36.999Z</time></trkpt><trkpt lat="37.87849505117452" lon="15.120051278843299"><ele>572.3333333333333</ele><time>2026-04-06T12:03:37.999Z</time></trkpt><trkpt lat="37.87856286654686" lon="15.120076225046908"><ele>572.1666666666666</ele><time>2026-04-06T12:03:38.999Z</time></trkpt><trkpt lat="37.87862513442106" lon="15.120118014275326"><ele>572.0</ele><time>2026-04-06T12:03:39.999Z</time></trkpt><trkpt lat="37.8786797778737" lon="15.120169236612927"><ele>568.7142857142857</ele><time>2026-04-06T12:03:40.999Z</time></trkpt><trkpt lat="37.87872848671938" lon="15.12022401388347"><ele>565.4285714285714</ele><time>2026-04-06T12:03:41.999Z</time></trkpt><trkpt lat="37.87877683431398" lon="15.120275547067829"><ele>562.1428571428571</ele><time>2026-04-06T12:03:42.999Z</time></trkpt><trkpt lat="37.878884929003085" lon="15.120349903861442"><ele>558.8571428571429</ele><time>2026-04-06T12:03:44.999Z</time></trkpt><trkpt lat="37.87894825067818" lon="15.120360582531877"><ele>555.5714285714286</ele><time>2026-04-06T12:03:45.999Z</time></trkpt><trkpt lat="37.87901379311728" lon="15.120361825876468"><ele>552.2857142857142</ele><time>2026-04-06T12:03:46.999Z</time></trkpt><trkpt lat="37.879079219473134" lon="15.120349302619337"><ele>549.0</ele><time>2026-04-06T12:03:47.999Z</time></trkpt><trkpt lat="37.87919626453186" lon="15.120316066273132"><ele>549.0</ele><time>2026-04-06T12:03:49.999Z</time></trkpt><trkpt lat="37.879300417483584" lon="15.120341953718325"><ele>549.0</ele><time>2026-04-06T12:03:51.999Z</time></trkpt><trkpt lat="37.87936342407885" lon="15.120433899323043"><ele>549.0</ele><time>2026-04-06T12:03:53.999Z</time></trkpt><trkpt lat="37.87935789028995" lon="15.120541505117465"><ele>549.0</ele><time>2026-04-06T12:03:55.999Z</time></trkpt><trkpt lat="37.87929178332309" lon="15.120629231040999"><ele>549.0</ele><time>2026-04-06T12:03:57.999Z</time></trkpt><trkpt lat="37.87919385292382" lon="15.120722043755434"><ele>549.6</ele><time>2026-04-06T12:03:59.999Z</time></trkpt><trkpt lat="37.87910946061889" lon="15.120805541277008"><ele>550.2</ele><time>2026-04-06T12:04:01.999Z</time></trkpt><trkpt lat="37.8790778270736" lon="15.12088934024313"><ele>550.8000000000001</ele><time>2026-04-06T12:04:03.999Z</time></trkpt><trkpt lat="37.87912142721921" lon="15.12097627375695"><ele>551.4</ele><time>2026-04-06T12:04:05.999Z</time></trkpt><trkpt lat="37.879208581579775" lon="15.121023923647083"><ele>552.0</ele><time>2026-04-06T12:04:07.999Z</time></trkpt><trkpt lat="37.87931658643994" lon="15.121068155824899"><ele>548.0</ele><time>2026-04-06T12:04:09.999Z</time></trkpt><trkpt lat="37.879441278210344" lon="15.121075841976946"><ele>544.0</ele><time>2026-04-06T12:04:11.999Z</time></trkpt><trkpt lat="37.87950489877195" lon="15.121057126344056"><ele>540.0</ele><time>2026-04-06T12:04:12.999Z</time></trkpt><trkpt lat="37.87961564813941" lon="15.121020878400161"><ele>536.0</ele><time>2026-04-06T12:04:14.998Z</time></trkpt><trkpt lat="37.87971917113613" lon="15.12102919503157"><ele>532.0</ele><time>2026-04-06T12:04:16.998Z</time></trkpt><trkpt lat="37.87980913622045" lon="15.121114941152834"><ele>532.0</ele><time>2026-04-06T12:04:18.998Z</time></trkpt><trkpt lat="37.8798642915341" lon="15.121237783678943"><ele>532.0</ele><time>2026-04-06T12:04:20.998Z</time></trkpt><trkpt lat="37.87992998423878" lon="15.121352328416263"><ele>532.0</ele><time>2026-04-06T12:04:22.998Z</time></trkpt><trkpt lat="37.88000960189513" lon="15.121460169209238"><ele>532.0</ele><time>2026-04-06T12:04:24.998Z</time></trkpt><trkpt lat="37.88001984938094" lon="15.121587693129134"><ele>532.0</ele><time>2026-04-06T12:04:26.998Z</time></trkpt><trkpt lat="37.87999120027489" lon="15.121712412093292"><ele>533.0</ele><time>2026-04-06T12:04:28.998Z</time></trkpt><trkpt lat="37.8799690592482" lon="15.121787693261993"><ele>534.0</ele><time>2026-04-06T12:04:29.998Z</time></trkpt><trkpt lat="37.87992474883782" lon="15.121857046627808"><ele>535.0</ele><time>2026-04-06T12:04:30.998Z</time></trkpt><trkpt lat="37.87989730198468" lon="15.1219438903978"><ele>536.0</ele><time>2026-04-06T12:04:31.998Z</time></trkpt><trkpt lat="37.87986612115294" lon="15.122046941855075"><ele>537.0</ele><time>2026-04-06T12:04:32.998Z</time></trkpt><trkpt lat="37.87985892259211" lon="15.122166558550067"><ele>538.0</ele><time>2026-04-06T12:04:33.998Z</time></trkpt><trkpt lat="37.879828437391396" lon="15.122266173026539"><ele>538.0</ele><time>2026-04-06T12:04:34.998Z</time></trkpt><trkpt lat="37.8797996920681" lon="15.122363316723375"><ele>538.0</ele><time>2026-04-06T12:04:35.998Z</time></trkpt><trkpt lat="37.87977236692601" lon="15.122457564996637"><ele>538.0</ele><time>2026-04-06T12:04:36.998Z</time></trkpt><trkpt lat="37.87974811425076" lon="15.12255375680593"><ele>538.0</ele><time>2026-04-06T12:04:37.998Z</time></trkpt><trkpt lat="37.879723636958744" lon="15.122649251000636"><ele>538.0</ele><time>2026-04-06T12:04:38.998Z</time></trkpt><trkpt lat="37.879694219175185" lon="15.122732969165746"><ele>538.0</ele><time>2026-04-06T12:04:39.998Z</time></trkpt><trkpt lat="37.87966684259705" lon="15.122820135603877"><ele>538.8571428571429</ele><time>2026-04-06T12:04:40.998Z</time></trkpt><trkpt lat="37.879635416431405" lon="15.122901015835236"><ele>539.7142857142858</ele><time>2026-04-06T12:04:41.998Z</time></trkpt><trkpt lat="37.87961944045576" lon="15.122982276078538"><ele>540.5714285714286</ele><time>2026-04-06T12:04:42.998Z</time></trkpt><trkpt lat="37.87962228428618" lon="15.12306309791932"><ele>541.4285714285714</ele><time>2026-04-06T12:04:43.998Z</time></trkpt><trkpt lat="37.87963196469667" lon="15.123142224171417"><ele>542.2857142857142</ele><time>2026-04-06T12:04:44.998Z</time></trkpt><trkpt lat="37.87964089354204" lon="15.123227579155522"><ele>543.1428571428571</ele><time>2026-04-06T12:04:45.998Z</time></trkpt><trkpt lat="37.879651729886156" lon="15.123312254026335"><ele>544.0</ele><time>2026-04-06T12:04:46.998Z</time></trkpt><trkpt lat="37.87963364358727" lon="15.123402081965022"><ele>545.0</ele><time>2026-04-06T12:04:47.998Z</time></trkpt><trkpt lat="37.879664762874185" lon="15.123479626624245"><ele>546.0</ele><time>2026-04-06T12:04:48.998Z</time></trkpt><trkpt lat="37.87968131442131" lon="15.123630202868522"><ele>547.0</ele><time>2026-04-06T12:04:50.998Z</time></trkpt><trkpt lat="37.87969960467292" lon="15.123769140978737"><ele>548.0</ele><time>2026-04-06T12:04:52.998Z</time></trkpt><trkpt lat="37.8797088479279" lon="15.123894929074183"><ele>549.0</ele><time>2026-04-06T12:04:54.998Z</time></trkpt><trkpt lat="37.87975863058645" lon="15.12400382566501"><ele>549.0</ele><time>2026-04-06T12:04:56.998Z</time></trkpt><trkpt lat="37.879857931640636" lon="15.124060551706268"><ele>549.0</ele><time>2026-04-06T12:04:58.999Z</time></trkpt><trkpt lat="37.879921395571714" lon="15.124078523096525"><ele>549.0</ele><time>2026-04-06T12:04:59.999Z</time></trkpt><trkpt lat="37.87998918241697" lon="15.124092365808346"><ele>549.0</ele><time>2026-04-06T12:05:00.999Z</time></trkpt><trkpt lat="37.88006334392754" lon="15.124103303610404"><ele>549.0</ele><time>2026-04-06T12:05:01.999Z</time></trkpt><trkpt lat="37.88013891792858" lon="15.124113065747444"><ele>549.0</ele><time>2026-04-06T12:05:02.999Z</time></trkpt><trkpt lat="37.88021278591224" lon="15.12412152182779"><ele>551.8</ele><time>2026-04-06T12:05:03.999Z</time></trkpt><trkpt lat="37.88027609429567" lon="15.124123292740183"><ele>554.5999999999999</ele><time>2026-04-06T12:05:04.999Z</time></trkpt><trkpt lat="37.880376935804506" lon="15.124129439135176"><ele>557.4</ele><time>2026-04-06T12:05:06.999Z</time></trkpt><trkpt lat="37.88044627380886" lon="15.124157349570163"><ele>560.1999999999999</ele><time>2026-04-06T12:05:09Z</time></trkpt><trkpt lat="37.88040285885253" lon="15.124324634112996"><ele>563.0</ele><time>2026-04-06T12:05:13Z</time></trkpt><trkpt lat="37.88033854739199" lon="15.124421867229003"><ele>563.0</ele><time>2026-04-06T12:05:15Z</time></trkpt><trkpt lat="37.88026461801902" lon="15.124494953847675"><ele>563.0</ele><time>2026-04-06T12:05:17Z</time></trkpt><trkpt lat="37.880201578496155" lon="15.1245609027604"><ele>563.0</ele><time>2026-04-06T12:05:19Z</time></trkpt><trkpt lat="37.88012574196403" lon="15.124652807018657"><ele>563.0</ele><time>2026-04-06T12:05:20.999Z</time></trkpt><trkpt lat="37.880036346298546" lon="15.124746818190632"><ele>563.0</ele><time>2026-04-06T12:05:22.999Z</time></trkpt><trkpt lat="37.879968277361684" lon="15.124794544916396"><ele>562.5</ele><time>2026-04-06T12:05:24.999Z</time></trkpt><trkpt lat="37.879921059656354" lon="15.124852107849353"><ele>562.0</ele><time>2026-04-06T12:05:29.999Z</time></trkpt><trkpt lat="37.88009527964616" lon="15.125002669742019"><ele>561.5</ele><time>2026-04-06T12:05:33.999Z</time></trkpt><trkpt lat="37.88019478273763" lon="15.125067729289663"><ele>561.0</ele><time>2026-04-06T12:05:35.999Z</time></trkpt><trkpt lat="37.88028452978034" lon="15.125135223013288"><ele>560.4</ele><time>2026-04-06T12:05:37.999Z</time></trkpt><trkpt lat="37.88035700689895" lon="15.125187576613975"><ele>559.8</ele><time>2026-04-06T12:05:39.999Z</time></trkpt><trkpt lat="37.88041590988133" lon="15.125224078690064"><ele>559.1999999999999</ele><time>2026-04-06T12:05:42.999Z</time></trkpt><trkpt lat="37.88047909055056" lon="15.125235659504746"><ele>558.6</ele><time>2026-04-06T12:05:48.999Z</time></trkpt><trkpt lat="37.88055474002828" lon="15.12501594778647"><ele>558.0</ele><time>2026-04-06T12:05:50.999Z</time></trkpt><trkpt lat="37.880602373917164" lon="15.124910226232322"><ele>559.0</ele><time>2026-04-06T12:05:52.999Z</time></trkpt><trkpt lat="37.880655452423184" lon="15.124788430593618"><ele>560.0</ele><time>2026-04-06T12:05:54.999Z</time></trkpt><trkpt lat="37.880716016106824" lon="15.124674863002156"><ele>561.0</ele><time>2026-04-06T12:05:56.999Z</time></trkpt><trkpt lat="37.88076426738655" lon="15.12453971487259"><ele>562.0</ele><time>2026-04-06T12:05:58.999Z</time></trkpt><trkpt lat="37.88080986695274" lon="15.124432608642229"><ele>563.0</ele><time>2026-04-06T12:06:00.999Z</time></trkpt><trkpt lat="37.88085336303886" lon="15.12433223458327"><ele>563.0</ele><time>2026-04-06T12:06:02.999Z</time></trkpt><trkpt lat="37.88086892301137" lon="15.124250387274598"><ele>563.0</ele><time>2026-04-06T12:06:05.999Z</time></trkpt><trkpt lat="37.88087455604568" lon="15.124169583343498"><ele>563.0</ele><time>2026-04-06T12:06:09.999Z</time></trkpt><trkpt lat="37.880918882424695" lon="15.12410416685318"><ele>563.0</ele><time>2026-04-06T12:06:12.999Z</time></trkpt><trkpt lat="37.880952224621794" lon="15.124026522608325"><ele>563.0</ele><time>2026-04-06T12:06:15.999Z</time></trkpt><trkpt lat="37.88099802506888" lon="15.123927713361597"><ele>563.0</ele><time>2026-04-06T12:06:18.999Z</time></trkpt><trkpt lat="37.88105266358497" lon="15.123871430345748"><ele>563.0</ele><time>2026-04-06T12:06:20.999Z</time></trkpt><trkpt lat="37.881109452673144" lon="15.12379036227538"><ele>564.1666666666666</ele><time>2026-04-06T12:06:23.998Z</time></trkpt><trkpt lat="37.88115780953133" lon="15.123685594322785"><ele>565.3333333333333</ele><time>2026-04-06T12:06:26.998Z</time></trkpt><trkpt lat="37.881202406843975" lon="15.123576549568376"><ele>566.5</ele><time>2026-04-06T12:06:28.998Z</time></trkpt><trkpt lat="37.88124674360972" lon="15.123435315886189"><ele>567.6666666666666</ele><time>2026-04-06T12:06:30.998Z</time></trkpt><trkpt lat="37.881271562230395" lon="15.12335939430408"><ele>568.8333333333334</ele><time>2026-04-06T12:06:31.998Z</time></trkpt><trkpt lat="37.88129068224608" lon="15.123275144264285"><ele>570.0</ele><time>2026-04-06T12:06:32.998Z</time></trkpt><trkpt lat="37.88133547129072" lon="15.123134195211627"><ele>570.0</ele><time>2026-04-06T12:06:34.998Z</time></trkpt><trkpt lat="37.88136966124504" lon="15.122992426547578"><ele>570.0</ele><time>2026-04-06T12:06:36.998Z</time></trkpt><trkpt lat="37.88141900694443" lon="15.122864460305397"><ele>570.0</ele><time>2026-04-06T12:06:38.998Z</time></trkpt><trkpt lat="37.88147855390897" lon="15.122741101716606"><ele>570.0</ele><time>2026-04-06T12:06:40.998Z</time></trkpt><trkpt lat="37.881559446349875" lon="15.122621687673401"><ele>570.0</ele><time>2026-04-06T12:06:42.998Z</time></trkpt><trkpt lat="37.88160036338766" lon="15.122474922410763"><ele>570.0</ele><time>2026-04-06T12:06:44.998Z</time></trkpt><trkpt lat="37.881645162424014" lon="15.122408425383384"><ele>570.0</ele><time>2026-04-06T12:06:45.998Z</time></trkpt><trkpt lat="37.881661006716804" lon="15.122318832176761"><ele>570.0</ele><time>2026-04-06T12:06:46.998Z</time></trkpt><trkpt lat="37.881692044176134" lon="15.122238882848135"><ele>570.0</ele><time>2026-04-06T12:06:47.998Z</time></trkpt><trkpt lat="37.881742747925855" lon="15.12210783896965"><ele>572.2</ele><time>2026-04-06T12:06:49.998Z</time></trkpt><trkpt lat="37.88179219523461" lon="15.122007683821474"><ele>574.4</ele><time>2026-04-06T12:06:51.998Z</time></trkpt><trkpt lat="37.88186634851903" lon="15.122000483531718"><ele>576.6</ele><time>2026-04-06T12:06:54.998Z</time></trkpt><trkpt lat="37.88177999521859" lon="15.121999711514539"><ele>578.8</ele><time>2026-04-06T12:07:01.998Z</time></trkpt><trkpt lat="37.88180043624596" lon="15.122192252485082"><ele>581.0</ele><time>2026-04-06T12:07:03.998Z</time></trkpt><trkpt lat="37.88177798939285" lon="15.122273332604106"><ele>579.1666666666666</ele><time>2026-04-06T12:07:04.999Z</time></trkpt><trkpt lat="37.88175332072165" lon="15.122362970892354"><ele>577.3333333333333</ele><time>2026-04-06T12:07:05.999Z</time></trkpt><trkpt lat="37.88172782492766" lon="15.122455614657541"><ele>575.5</ele><time>2026-04-06T12:07:06.999Z</time></trkpt><trkpt lat="37.88170049637531" lon="15.12255491828583"><ele>573.6666666666666</ele><time>2026-04-06T12:07:07.999Z</time></trkpt><trkpt lat="37.88167207734556" lon="15.12265864317461"><ele>571.8333333333334</ele><time>2026-04-06T12:07:08.999Z</time></trkpt><trkpt lat="37.88164399928574" lon="15.122755458228992"><ele>570.0</ele><time>2026-04-06T12:07:09.999Z</time></trkpt><trkpt lat="37.88161640120601" lon="15.122850617934423"><ele>570.0</ele><time>2026-04-06T12:07:10.999Z</time></trkpt><trkpt lat="37.88159097328312" lon="15.122938294960102"><ele>570.0</ele><time>2026-04-06T12:07:11.999Z</time></trkpt><trkpt lat="37.88153736391918" lon="15.123075064158993"><ele>570.0</ele><time>2026-04-06T12:07:12.999Z</time></trkpt><trkpt lat="37.881483571789786" lon="15.123165353156974"><ele>570.0</ele><time>2026-04-06T12:07:15Z</time></trkpt><trkpt lat="37.88145811843965" lon="15.123242165661383"><ele>570.0</ele><time>2026-04-06T12:07:16Z</time></trkpt><trkpt lat="37.88143383327151" lon="15.12334219569962"><ele>570.0</ele><time>2026-04-06T12:07:18Z</time></trkpt><trkpt lat="37.881413794330264" lon="15.123433317013717"><ele>571.75</ele><time>2026-04-06T12:07:19Z</time></trkpt><trkpt lat="37.88138632629502" lon="15.123556954654793"><ele>573.5</ele><time>2026-04-06T12:07:21Z</time></trkpt><trkpt lat="37.88136743535926" lon="15.12364092048683"><ele>575.25</ele><time>2026-04-06T12:07:23Z</time></trkpt><trkpt lat="37.881346126417384" lon="15.123735633829801"><ele>577.0</ele><time>2026-04-06T12:07:26Z</time></trkpt><trkpt lat="37.88112799331959" lon="15.123607137002375"><ele>577.0</ele><time>2026-04-06T12:07:31.999Z</time></trkpt><trkpt lat="37.881180190043835" lon="15.123520063451933"><ele>577.0</ele><time>2026-04-06T12:07:34.999Z</time></trkpt><trkpt lat="37.88120394304611" lon="15.123444392611924"><ele>577.0</ele><time>2026-04-06T12:07:37.999Z</time></trkpt><trkpt lat="37.88123253846148" lon="15.123302577748252"><ele>577.0</ele><time>2026-04-06T12:07:39.999Z</time></trkpt><trkpt lat="37.881256667663166" lon="15.123208381383003"><ele>577.0</ele><time>2026-04-06T12:07:40.999Z</time></trkpt><trkpt lat="37.88128571480432" lon="15.123111389180584"><ele>577.0</ele><time>2026-04-06T12:07:41.999Z</time></trkpt><trkpt lat="37.881314933026246" lon="15.123014208765307"><ele>575.8333333333334</ele><time>2026-04-06T12:07:42.999Z</time></trkpt><trkpt lat="37.881343263319756" lon="15.122918609738019"><ele>574.6666666666667</ele><time>2026-04-06T12:07:43.999Z</time></trkpt><trkpt lat="37.881378841255604" lon="15.122830336925679"><ele>573.5</ele><time>2026-04-06T12:07:44.999Z</time></trkpt><trkpt lat="37.88140757955594" lon="15.122742092523746"><ele>572.3333333333334</ele><time>2026-04-06T12:07:45.999Z</time></trkpt><trkpt lat="37.881434751947765" lon="15.122651583828864"><ele>571.1666666666666</ele><time>2026-04-06T12:07:46.999Z</time></trkpt><trkpt lat="37.88145175232097" lon="15.122558413095977"><ele>570.0</ele><time>2026-04-06T12:07:47.999Z</time></trkpt><trkpt lat="37.88145779523695" lon="15.122452404652527"><ele>568.5</ele><time>2026-04-06T12:07:48.999Z</time></trkpt><trkpt lat="37.881455738509835" lon="15.122344276274998"><ele>567.0</ele><time>2026-04-06T12:07:49.999Z</time></trkpt><trkpt lat="37.88145366410438" lon="15.122258245337955"><ele>565.5</ele><time>2026-04-06T12:07:50.999Z</time></trkpt><trkpt lat="37.88147292146828" lon="15.122164320204856"><ele>564.0</ele><time>2026-04-06T12:07:51.999Z</time></trkpt><trkpt lat="37.881516792993025" lon="15.122089291665752"><ele>562.5</ele><time>2026-04-06T12:07:52.999Z</time></trkpt><trkpt lat="37.881587868341065" lon="15.1219615672022"><ele>561.0</ele><time>2026-04-06T12:07:54.999Z</time></trkpt><trkpt lat="37.881601921454916" lon="15.121873966765907"><ele>561.0</ele><time>2026-04-06T12:07:55.999Z</time></trkpt><trkpt lat="37.881601997196825" lon="15.121772230236267"><ele>561.0</ele><time>2026-04-06T12:07:56.999Z</time></trkpt><trkpt lat="37.881605714722355" lon="15.121672650745854"><ele>561.0</ele><time>2026-04-06T12:07:57.999Z</time></trkpt><trkpt lat="37.88159884457894" lon="15.121560640175277"><ele>561.0</ele><time>2026-04-06T12:07:58.999Z</time></trkpt><trkpt lat="37.88159836696717" lon="15.121424529163042"><ele>561.0</ele><time>2026-04-06T12:07:59.999Z</time></trkpt><trkpt lat="37.8817348130733" lon="15.121299223731627"><ele>560.2</ele><time>2026-04-06T12:08:00.999Z</time></trkpt><trkpt lat="37.88172886064334" lon="15.121173936516334"><ele>559.4000000000001</ele><time>2026-04-06T12:08:01.999Z</time></trkpt><trkpt lat="37.88172878698161" lon="15.121074810748464"><ele>558.6</ele><time>2026-04-06T12:08:02.999Z</time></trkpt><trkpt lat="37.881733548792255" lon="15.120956063171425"><ele>557.8000000000001</ele><time>2026-04-06T12:08:03.999Z</time></trkpt><trkpt lat="37.88165732569106" lon="15.12081214779606"><ele>557.0</ele><time>2026-04-06T12:08:04.999Z</time></trkpt><trkpt lat="37.88164776610613" lon="15.120719978214712"><ele>558.6</ele><time>2026-04-06T12:08:05.999Z</time></trkpt><trkpt lat="37.881647766107974" lon="15.120616248215223"><ele>560.2</ele><time>2026-04-06T12:08:06.999Z</time></trkpt><trkpt lat="37.881647766109936" lon="15.120512568326086"><ele>561.8</ele><time>2026-04-06T12:08:07.999Z</time></trkpt><trkpt lat="37.88178066549169" lon="15.120458357074742"><ele>563.4</ele><time>2026-04-06T12:08:09.999Z</time></trkpt><trkpt lat="37.881824787790656" lon="15.120371100466256"><ele>565.0</ele><time>2026-04-06T12:08:10.999Z</time></trkpt><trkpt lat="37.88186750666255" lon="15.120286619288692"><ele>557.6666666666667</ele><time>2026-04-06T12:08:11.999Z</time></trkpt><trkpt lat="37.88165448708812" lon="15.119984840173252"><ele>550.3333333333334</ele><time>2026-04-06T12:08:12.999Z</time></trkpt><trkpt lat="37.88167693309375" lon="15.119877874865292"><ele>543.0</ele><time>2026-04-06T12:08:13.999Z</time></trkpt><trkpt lat="37.88169620929998" lon="15.11975971420079"><ele>543.6</ele><time>2026-04-06T12:08:14.999Z</time></trkpt><trkpt lat="37.881717951478755" lon="15.119637684253323"><ele>544.1999999999999</ele><time>2026-04-06T12:08:15.999Z</time></trkpt><trkpt lat="37.88174202231279" lon="15.119509982625498"><ele>544.8</ele><time>2026-04-06T12:08:16.999Z</time></trkpt><trkpt lat="37.88176379436902" lon="15.119385290973467"><ele>545.4</ele><time>2026-04-06T12:08:17.999Z</time></trkpt><trkpt lat="37.881783120737516" lon="15.119270532247416"><ele>546.0</ele><time>2026-04-06T12:08:18.999Z</time></trkpt><trkpt lat="37.881813728688435" lon="15.119167318113997"><ele>542.5</ele><time>2026-04-06T12:08:19.999Z</time></trkpt><trkpt lat="37.881830832217226" lon="15.119064040761215"><ele>539.0</ele><time>2026-04-06T12:08:20.999Z</time></trkpt><trkpt lat="37.88184824769228" lon="15.118964703692816"><ele>535.5</ele><time>2026-04-06T12:08:21.999Z</time></trkpt><trkpt lat="37.88186706681979" lon="15.118872018810567"><ele>532.0</ele><time>2026-04-06T12:08:22.999Z</time></trkpt><trkpt lat="37.88188235764435" lon="15.118780341848684"><ele>528.5</ele><time>2026-04-06T12:08:23.999Z</time></trkpt><trkpt lat="37.881892422969614" lon="15.118691108221684"><ele>525.0</ele><time>2026-04-06T12:08:24.999Z</time></trkpt><trkpt lat="37.88189506661512" lon="15.11860345249931"><ele>525.0</ele><time>2026-04-06T12:08:25.999Z</time></trkpt><trkpt lat="37.881920662613325" lon="15.118464255666426"><ele>525.0</ele><time>2026-04-06T12:08:27.999Z</time></trkpt><trkpt lat="37.881964939967254" lon="15.118356435691345"><ele>525.0</ele><time>2026-04-06T12:08:29.999Z</time></trkpt><trkpt lat="37.88205519473313" lon="15.118338074507177"><ele>525.0</ele><time>2026-04-06T12:08:31.999Z</time></trkpt><trkpt lat="37.88216608976811" lon="15.118330691426497"><ele>525.0</ele><time>2026-04-06T12:08:33.999Z</time></trkpt><trkpt lat="37.88227883335927" lon="15.118392246156313"><ele>525.0</ele><time>2026-04-06T12:08:35.998Z</time></trkpt><trkpt lat="37.88234793320752" lon="15.118437176502956"><ele>525.0</ele><time>2026-04-06T12:08:36.998Z</time></trkpt><trkpt lat="37.88242236256977" lon="15.118488734288219"><ele>525.0</ele><time>2026-04-06T12:08:37.998Z</time></trkpt><trkpt lat="37.88249701922118" lon="15.118541184911006"><ele>525.0</ele><time>2026-04-06T12:08:38.998Z</time></trkpt><trkpt lat="37.88256736854705" lon="15.118590609361407"><ele>525.0</ele><time>2026-04-06T12:08:39.998Z</time></trkpt><trkpt lat="37.882635456554894" lon="15.1186389412554"><ele>525.0</ele><time>2026-04-06T12:08:40.998Z</time></trkpt><trkpt lat="37.88269547419759" lon="15.118682212255173"><ele>524.0</ele><time>2026-04-06T12:08:41.998Z</time></trkpt><trkpt lat="37.882764510588" lon="15.118731556057242"><ele>523.0</ele><time>2026-04-06T12:08:42.998Z</time></trkpt><trkpt lat="37.88282932535575" lon="15.118766348085774"><ele>522.0</ele><time>2026-04-06T12:08:43.998Z</time></trkpt><trkpt lat="37.88289364805429" lon="15.118793571522213"><ele>521.0</ele><time>2026-04-06T12:08:44.998Z</time></trkpt><trkpt lat="37.882965571310415" lon="15.11880056778287"><ele>520.0</ele><time>2026-04-06T12:08:45.998Z</time></trkpt><trkpt lat="37.88307763840149" lon="15.118781100954378"><ele>519.0</ele><time>2026-04-06T12:08:47.998Z</time></trkpt><trkpt lat="37.88319353380867" lon="15.118765277344556"><ele>519.0</ele><time>2026-04-06T12:08:49.998Z</time></trkpt><trkpt lat="37.883289721855526" lon="15.118706826841597"><ele>519.0</ele><time>2026-04-06T12:08:51.998Z</time></trkpt><trkpt lat="37.88331908714981" lon="15.118629167997067"><ele>519.0</ele><time>2026-04-06T12:08:53.998Z</time></trkpt><trkpt lat="37.88338513566563" lon="15.118524725433069"><ele>519.0</ele><time>2026-04-06T12:08:56.998Z</time></trkpt><trkpt lat="37.883447945570275" lon="15.118421085143765"><ele>519.0</ele><time>2026-04-06T12:08:58.998Z</time></trkpt><trkpt lat="37.88351156310842" lon="15.118284701137704"><ele>516.3333333333334</ele><time>2026-04-06T12:09:00.998Z</time></trkpt><trkpt lat="37.88356820025244" lon="15.118140485021762"><ele>513.6666666666666</ele><time>2026-04-06T12:09:02.998Z</time></trkpt><trkpt lat="37.88359808171915" lon="15.118068062977587"><ele>511.0</ele><time>2026-04-06T12:09:03.998Z</time></trkpt><trkpt lat="37.88362737679153" lon="15.117994470273299"><ele>508.3333333333333</ele><time>2026-04-06T12:09:04.998Z</time></trkpt><trkpt lat="37.88370483995007" lon="15.11787689403189"><ele>505.66666666666663</ele><time>2026-04-06T12:09:06.998Z</time></trkpt><trkpt lat="37.883756711152536" lon="15.117829750118938"><ele>503.0</ele><time>2026-04-06T12:09:07.998Z</time></trkpt><trkpt lat="37.88386951284933" lon="15.11780299165615"><ele>503.0</ele><time>2026-04-06T12:09:09.998Z</time></trkpt><trkpt lat="37.88398982919394" lon="15.117804668002622"><ele>502.99999999999994</ele><time>2026-04-06T12:09:12Z</time></trkpt><trkpt lat="37.88411475905395" lon="15.117797597500799"><ele>502.99999999999994</ele><time>2026-04-06T12:09:14Z</time></trkpt><trkpt lat="37.88418111560536" lon="15.117804269259425"><ele>503.0</ele><time>2026-04-06T12:09:15Z</time></trkpt><trkpt lat="37.884248495974944" lon="15.117808247501676"><ele>503.0</ele><time>2026-04-06T12:09:16Z</time></trkpt><trkpt lat="37.88431874527924" lon="15.117807182809257"><ele>501.3333333333333</ele><time>2026-04-06T12:09:17Z</time></trkpt><trkpt lat="37.8843882515056" lon="15.117805605369131"><ele>499.66666666666663</ele><time>2026-04-06T12:09:18Z</time></trkpt><trkpt lat="37.88446257096653" lon="15.117810298124295"><ele>498.0</ele><time>2026-04-06T12:09:19Z</time></trkpt><trkpt lat="37.88453262224284" lon="15.11781199621364"><ele>496.33333333333337</ele><time>2026-04-06T12:09:20Z</time></trkpt><trkpt lat="37.88460026064027" lon="15.117804939966284"><ele>494.6666666666667</ele><time>2026-04-06T12:09:21Z</time></trkpt><trkpt lat="37.8846632113314" lon="15.11779473570376"><ele>493.0</ele><time>2026-04-06T12:09:22Z</time></trkpt><trkpt lat="37.88475333803267" lon="15.117724852028331"><ele>493.0</ele><time>2026-04-06T12:09:24Z</time></trkpt><trkpt lat="37.88477855425153" lon="15.117604820236052"><ele>492.99999999999994</ele><time>2026-04-06T12:09:26Z</time></trkpt><trkpt lat="37.88473733548762" lon="15.117498049697447"><ele>492.99999999999994</ele><time>2026-04-06T12:09:28Z</time></trkpt><trkpt lat="37.884641216460736" lon="15.117432467015295"><ele>493.0</ele><time>2026-04-06T12:09:30Z</time></trkpt><trkpt lat="37.88452366848165" lon="15.11745455604786"><ele>493.0</ele><time>2026-04-06T12:09:32Z</time></trkpt><trkpt lat="37.884403959762025" lon="15.117514784818953"><ele>493.0</ele><time>2026-04-06T12:09:34Z</time></trkpt><trkpt lat="37.884341960429886" lon="15.117529050556225"><ele>493.0</ele><time>2026-04-06T12:09:35Z</time></trkpt><trkpt lat="37.88427817860777" lon="15.117524829759754"><ele>493.0</ele><time>2026-04-06T12:09:36Z</time></trkpt><trkpt lat="37.88421445341059" lon="15.11750023173108"><ele>493.0</ele><time>2026-04-06T12:09:37Z</time></trkpt><trkpt lat="37.884153374066734" lon="15.117453371994877"><ele>493.0</ele><time>2026-04-06T12:09:38Z</time></trkpt><trkpt lat="37.88410168052936" lon="15.117388611419521"><ele>493.0</ele><time>2026-04-06T12:09:39Z</time></trkpt><trkpt lat="37.88406548443423" lon="15.117314887968407"><ele>493.0</ele><time>2026-04-06T12:09:40Z</time></trkpt><trkpt lat="37.88404110336353" lon="15.117240670703708"><ele>490.79999999999995</ele><time>2026-04-06T12:09:40.999Z</time></trkpt><trkpt lat="37.884007848446046" lon="15.117109502105617"><ele>488.59999999999997</ele><time>2026-04-06T12:09:42.999Z</time></trkpt><trkpt lat="37.883963238515626" lon="15.117004907994097"><ele>486.40000000000003</ele><time>2026-04-06T12:09:44.999Z</time></trkpt><trkpt lat="37.88385513560435" lon="15.11700547249613"><ele>484.20000000000005</ele><time>2026-04-06T12:09:46.999Z</time></trkpt><trkpt lat="37.88374156899673" lon="15.117043423492408"><ele>482.0</ele><time>2026-04-06T12:09:48.999Z</time></trkpt><trkpt lat="37.88367404367358" lon="15.117067334523652"><ele>481.99999999999994</ele><time>2026-04-06T12:09:49.999Z</time></trkpt><trkpt lat="37.88359980473884" lon="15.117096095375148"><ele>482.0</ele><time>2026-04-06T12:09:50.999Z</time></trkpt><trkpt lat="37.883521778505894" lon="15.11712952968598"><ele>482.0</ele><time>2026-04-06T12:09:51.999Z</time></trkpt><trkpt lat="37.883441698531094" lon="15.11716613003041"><ele>482.0</ele><time>2026-04-06T12:09:52.999Z</time></trkpt><trkpt lat="37.88336412188295" lon="15.117208411791097"><ele>481.99999999999994</ele><time>2026-04-06T12:09:53.999Z</time></trkpt><trkpt lat="37.883286016750965" lon="15.117250405237511"><ele>482.0</ele><time>2026-04-06T12:09:54.999Z</time></trkpt><trkpt lat="37.883209163129706" lon="15.117290679094458"><ele>481.42857142857144</ele><time>2026-04-06T12:09:55.999Z</time></trkpt><trkpt lat="37.8831337296048" lon="15.11732892379625"><ele>480.8571428571429</ele><time>2026-04-06T12:09:56.999Z</time></trkpt><trkpt lat="37.88305848805372" lon="15.117360349388749"><ele>480.28571428571433</ele><time>2026-04-06T12:09:57.999Z</time></trkpt><trkpt lat="37.88298371077088" lon="15.117378533709303"><ele>479.7142857142858</ele><time>2026-04-06T12:09:58.999Z</time></trkpt><trkpt lat="37.88291621682922" lon="15.117381769398392"><ele>479.14285714285717</ele><time>2026-04-06T12:09:59.999Z</time></trkpt><trkpt lat="37.88284593061794" lon="15.117374950708314"><ele>478.57142857142867</ele><time>2026-04-06T12:10:00.999Z</time></trkpt><trkpt lat="37.882785022434916" lon="15.117352384410207"><ele>478.00000000000006</ele><time>2026-04-06T12:10:01.999Z</time></trkpt><trkpt lat="37.882701449059645" lon="15.117252296495515"><ele>478.00000000000006</ele><time>2026-04-06T12:10:03.999Z</time></trkpt><trkpt lat="37.882684536938925" lon="15.117162621221798"><ele>478.0</ele><time>2026-04-06T12:10:04.999Z</time></trkpt><trkpt lat="37.88264957729947" lon="15.117077719065367"><ele>478.0</ele><time>2026-04-06T12:10:05.999Z</time></trkpt><trkpt lat="37.88260304713546" lon="15.11699123597327"><ele>478.0</ele><time>2026-04-06T12:10:06.999Z</time></trkpt><trkpt lat="37.882573547963986" lon="15.116886513741468"><ele>478.00000000000006</ele><time>2026-04-06T12:10:07.999Z</time></trkpt><trkpt lat="37.882545105918865" lon="15.116779735039106"><ele>478.0</ele><time>2026-04-06T12:10:08.999Z</time></trkpt><trkpt lat="37.88252067975146" lon="15.116667173257929"><ele>477.2</ele><time>2026-04-06T12:10:09.999Z</time></trkpt><trkpt lat="37.8825000434567" lon="15.11655493452129"><ele>476.4</ele><time>2026-04-06T12:10:10.999Z</time></trkpt><trkpt lat="37.88249583057406" lon="15.116437957658574"><ele>475.59999999999997</ele><time>2026-04-06T12:10:11.999Z</time></trkpt><trkpt lat="37.88247171201448" lon="15.116325678240045"><ele>474.79999999999995</ele><time>2026-04-06T12:10:12.999Z</time></trkpt><trkpt lat="37.88244173756916" lon="15.11621860984356"><ele>474.0</ele><time>2026-04-06T12:10:13.999Z</time></trkpt><trkpt lat="37.882390092239184" lon="15.116120673710986"><ele>474.0</ele><time>2026-04-06T12:10:14.999Z</time></trkpt><trkpt lat="37.88235590385625" lon="15.116017481028024"><ele>474.0</ele><time>2026-04-06T12:10:15.999Z</time></trkpt><trkpt lat="37.88231787411295" lon="15.115918202710132"><ele>474.0</ele><time>2026-04-06T12:10:16.999Z</time></trkpt><trkpt lat="37.88228161934315" lon="15.115820405640866"><ele>474.0</ele><time>2026-04-06T12:10:17.999Z</time></trkpt><trkpt lat="37.88225329410527" lon="15.11572006964532"><ele>474.0</ele><time>2026-04-06T12:10:18.999Z</time></trkpt><trkpt lat="37.88223553901621" lon="15.11561631128151"><ele>474.0</ele><time>2026-04-06T12:10:19.999Z</time></trkpt><trkpt lat="37.88222705422489" lon="15.115512822964398"><ele>472.3333333333333</ele><time>2026-04-06T12:10:20.999Z</time></trkpt><trkpt lat="37.8822254180089" lon="15.115407259125208"><ele>470.66666666666663</ele><time>2026-04-06T12:10:21.999Z</time></trkpt><trkpt lat="37.8822298557098" lon="15.11530126805688"><ele>469.0</ele><time>2026-04-06T12:10:22.999Z</time></trkpt><trkpt lat="37.88223695825586" lon="15.115197694505426"><ele>467.3333333333333</ele><time>2026-04-06T12:10:23.999Z</time></trkpt><trkpt lat="37.882242071564605" lon="15.115103468411917"><ele>465.66666666666663</ele><time>2026-04-06T12:10:24.999Z</time></trkpt><trkpt lat="37.88224045415628" lon="15.115017888461702"><ele>464.0</ele><time>2026-04-06T12:10:25.999Z</time></trkpt><trkpt lat="37.882220785040325" lon="15.11493482054846"><ele>462.4285714285715</ele><time>2026-04-06T12:10:26.999Z</time></trkpt><trkpt lat="37.882185304200995" lon="15.114860704510203"><ele>460.8571428571429</ele><time>2026-04-06T12:10:27.999Z</time></trkpt><trkpt lat="37.88214172927757" lon="15.114800454928679"><ele>459.2857142857143</ele><time>2026-04-06T12:10:28.999Z</time></trkpt><trkpt lat="37.882095661657964" lon="15.114739463018445"><ele>457.7142857142857</ele><time>2026-04-06T12:10:29.999Z</time></trkpt><trkpt lat="37.88204133799966" lon="15.114680477233339"><ele>456.1428571428571</ele><time>2026-04-06T12:10:30.999Z</time></trkpt><trkpt lat="37.881988454983365" lon="15.11461997015589"><ele>454.5714285714285</ele><time>2026-04-06T12:10:31.999Z</time></trkpt><trkpt lat="37.881929148531796" lon="15.114561747438062"><ele>452.99999999999994</ele><time>2026-04-06T12:10:32.999Z</time></trkpt><trkpt lat="37.8818651595457" lon="15.114498151234152"><ele>452.99999999999994</ele><time>2026-04-06T12:10:33.999Z</time></trkpt><trkpt lat="37.88179649079099" lon="15.114442279063947"><ele>453.0</ele><time>2026-04-06T12:10:34.999Z</time></trkpt><trkpt lat="37.88172661748029" lon="15.11439248291289"><ele>452.99999999999994</ele><time>2026-04-06T12:10:35.999Z</time></trkpt><trkpt lat="37.881663778170406" lon="15.114347986995808"><ele>452.99999999999994</ele><time>2026-04-06T12:10:36.999Z</time></trkpt><trkpt lat="37.88160458240511" lon="15.114296723109998"><ele>453.0</ele><time>2026-04-06T12:10:37.999Z</time></trkpt><trkpt lat="37.8815472628542" lon="15.114252510373714"><ele>452.99999999999994</ele><time>2026-04-06T12:10:38.999Z</time></trkpt><trkpt lat="37.88149066861668" lon="15.11420846906996"><ele>452.99999999999994</ele><time>2026-04-06T12:10:39.999Z</time></trkpt><trkpt lat="37.88139535435868" lon="15.114134971519784"><ele>451.0</ele><time>2026-04-06T12:10:41.999Z</time></trkpt><trkpt lat="37.88131024353426" lon="15.114066572719356"><ele>448.99999999999994</ele><time>2026-04-06T12:10:43.999Z</time></trkpt><trkpt lat="37.88124681117823" lon="15.11401702264952"><ele>446.99999999999994</ele><time>2026-04-06T12:10:45.999Z</time></trkpt><trkpt lat="37.881234932059826" lon="15.11390282265204"><ele>445.0</ele><time>2026-04-06T12:10:48.998Z</time></trkpt><trkpt lat="37.88130557072352" lon="15.113861039622599"><ele>443.0</ele><time>2026-04-06T12:10:50.998Z</time></trkpt><trkpt lat="37.88142116191751" lon="15.113931332643729"><ele>442.99999999999994</ele><time>2026-04-06T12:10:52.998Z</time></trkpt><trkpt lat="37.88148428442634" lon="15.113978832931739"><ele>443.0</ele><time>2026-04-06T12:10:53.998Z</time></trkpt><trkpt lat="37.88155399480233" lon="15.114029598526624"><ele>443.0</ele><time>2026-04-06T12:10:54.998Z</time></trkpt><trkpt lat="37.88162652384321" lon="15.114072617003321"><ele>443.0</ele><time>2026-04-06T12:10:55.998Z</time></trkpt><trkpt lat="37.88169795569902" lon="15.11411391128829"><ele>442.99999999999994</ele><time>2026-04-06T12:10:56.998Z</time></trkpt><trkpt lat="37.88176584139085" lon="15.114147437776458"><ele>443.0</ele><time>2026-04-06T12:10:57.998Z</time></trkpt><trkpt lat="37.88183715013584" lon="15.114165599804211"><ele>444.42857142857144</ele><time>2026-04-06T12:10:58.998Z</time></trkpt><trkpt lat="37.88190947434878" lon="15.11416678499985"><ele>445.8571428571429</ele><time>2026-04-06T12:10:59.998Z</time></trkpt><trkpt lat="37.88198407271659" lon="15.114158042783759"><ele>447.2857142857142</ele><time>2026-04-06T12:11:00.998Z</time></trkpt><trkpt lat="37.88205736544619" lon="15.114140264628308"><ele>448.71428571428567</ele><time>2026-04-06T12:11:01.998Z</time></trkpt><trkpt lat="37.88213217644829" lon="15.114120769712914"><ele>450.1428571428571</ele><time>2026-04-06T12:11:02.998Z</time></trkpt><trkpt lat="37.882206262672476" lon="15.114104444077103"><ele>451.5714285714285</ele><time>2026-04-06T12:11:03.998Z</time></trkpt><trkpt lat="37.88227826383553" lon="15.114092673599519"><ele>452.99999999999994</ele><time>2026-04-06T12:11:04.998Z</time></trkpt><trkpt lat="37.882348881913195" lon="15.114091892927945"><ele>452.99999999999994</ele><time>2026-04-06T12:11:05.998Z</time></trkpt><trkpt lat="37.8824185325499" lon="15.114110445639927"><ele>453.0</ele><time>2026-04-06T12:11:06.998Z</time></trkpt><trkpt lat="37.88248491479038" lon="15.11413581046071"><ele>452.99999999999994</ele><time>2026-04-06T12:11:07.998Z</time></trkpt><trkpt lat="37.88255048531588" lon="15.114177968346384"><ele>452.99999999999994</ele><time>2026-04-06T12:11:08.998Z</time></trkpt><trkpt lat="37.882611892163126" lon="15.114222255820405"><ele>453.0</ele><time>2026-04-06T12:11:09.998Z</time></trkpt><trkpt lat="37.882673551449265" lon="15.114261750422154"><ele>452.99999999999994</ele><time>2026-04-06T12:11:10.998Z</time></trkpt><trkpt lat="37.88273151728174" lon="15.114301064742978"><ele>452.99999999999994</ele><time>2026-04-06T12:11:11.998Z</time></trkpt><trkpt lat="37.882789475696086" lon="15.11434113660666"><ele>450.59999999999997</ele><time>2026-04-06T12:11:12.998Z</time></trkpt><trkpt lat="37.882846936170274" lon="15.11437834521508"><ele>448.19999999999993</ele><time>2026-04-06T12:11:13.998Z</time></trkpt><trkpt lat="37.88290587983621" lon="15.114422753349578"><ele>445.8</ele><time>2026-04-06T12:11:14.998Z</time></trkpt><trkpt lat="37.88298346292167" lon="15.114538034688831"><ele>443.4</ele><time>2026-04-06T12:11:17Z</time></trkpt><trkpt lat="37.883002602515795" lon="15.114685327867221"><ele>441.0</ele><time>2026-04-06T12:11:19Z</time></trkpt><trkpt lat="37.88301295656285" lon="15.114840654382169"><ele>441.2857142857143</ele><time>2026-04-06T12:11:21Z</time></trkpt><trkpt lat="37.883021612139295" lon="15.114919913222877"><ele>441.57142857142856</ele><time>2026-04-06T12:11:22Z</time></trkpt><trkpt lat="37.88302792972178" lon="15.11500357583321"><ele>441.8571428571429</ele><time>2026-04-06T12:11:23Z</time></trkpt><trkpt lat="37.88303939101644" lon="15.115084844748322"><ele>442.1428571428571</ele><time>2026-04-06T12:11:24Z</time></trkpt><trkpt lat="37.883066074188854" lon="15.115160424064571"><ele>442.42857142857144</ele><time>2026-04-06T12:11:25Z</time></trkpt><trkpt lat="37.88310514846457" lon="15.115232052667695"><ele>442.7142857142857</ele><time>2026-04-06T12:11:26Z</time></trkpt><trkpt lat="37.883155589557965" lon="15.115297336798145"><ele>443.0</ele><time>2026-04-06T12:11:27Z</time></trkpt><trkpt lat="37.88321442490886" lon="15.115361389990492"><ele>442.99999999999994</ele><time>2026-04-06T12:11:28Z</time></trkpt><trkpt lat="37.88327360781035" lon="15.11542558075337"><ele>443.0</ele><time>2026-04-06T12:11:29Z</time></trkpt><trkpt lat="37.88332995285124" lon="15.115483442248689"><ele>443.0</ele><time>2026-04-06T12:11:30Z</time></trkpt><trkpt lat="37.88338018644797" lon="15.115536390387673"><ele>443.0</ele><time>2026-04-06T12:11:31Z</time></trkpt><trkpt lat="37.883497976164506" lon="15.115581904159455"><ele>442.99999999999994</ele><time>2026-04-06T12:11:33Z</time></trkpt><trkpt lat="37.88356302646793" lon="15.115575380024111"><ele>443.0</ele><time>2026-04-06T12:11:34Z</time></trkpt><trkpt lat="37.88363099789768" lon="15.11555623776084"><ele>441.66666666666663</ele><time>2026-04-06T12:11:35Z</time></trkpt><trkpt lat="37.88370239464777" lon="15.115535463472035"><ele>440.3333333333333</ele><time>2026-04-06T12:11:36Z</time></trkpt><trkpt lat="37.88377588990388" lon="15.115508412080128"><ele>439.0</ele><time>2026-04-06T12:11:37Z</time></trkpt><trkpt lat="37.88384607101309" lon="15.115480497546837"><ele>437.66666666666663</ele><time>2026-04-06T12:11:38Z</time></trkpt><trkpt lat="37.883910907187385" lon="15.115448760619955"><ele>436.3333333333333</ele><time>2026-04-06T12:11:39Z</time></trkpt><trkpt lat="37.884002140838696" lon="15.11534593550487"><ele>435.0</ele><time>2026-04-06T12:11:41Z</time></trkpt><trkpt lat="37.88405015482099" lon="15.115210302915447"><ele>435.0</ele><time>2026-04-06T12:11:43Z</time></trkpt><trkpt lat="37.884067221650135" lon="15.115131792388564"><ele>435.0</ele><time>2026-04-06T12:11:44Z</time></trkpt><trkpt lat="37.88411459429836" lon="15.115003259072365"><ele>435.0</ele><time>2026-04-06T12:11:46Z</time></trkpt><trkpt lat="37.8841945167385" lon="15.114941462492185"><ele>435.0</ele><time>2026-04-06T12:11:48Z</time></trkpt><trkpt lat="37.8843048897192" lon="15.114965442854091"><ele>435.0</ele><time>2026-04-06T12:11:50Z</time></trkpt><trkpt lat="37.8843687689409" lon="15.114941957224076"><ele>435.0</ele><time>2026-04-06T12:11:51Z</time></trkpt><trkpt lat="37.88444246486233" lon="15.114909817940621"><ele>432.5</ele><time>2026-04-06T12:11:52Z</time></trkpt><trkpt lat="37.88451316821031" lon="15.114861688573084"><ele>430.0</ele><time>2026-04-06T12:11:53Z</time></trkpt><trkpt lat="37.88458533666395" lon="15.114809499459714"><ele>427.5</ele><time>2026-04-06T12:11:53.999Z</time></trkpt><trkpt lat="37.884661069187636" lon="15.114784700039074"><ele>425.0</ele><time>2026-04-06T12:11:54.999Z</time></trkpt><trkpt lat="37.88473837430148" lon="15.114772706738467"><ele>422.5</ele><time>2026-04-06T12:11:55.999Z</time></trkpt><trkpt lat="37.88481710677391" lon="15.114780732208867"><ele>420.0</ele><time>2026-04-06T12:11:56.999Z</time></trkpt><trkpt lat="37.88489649034002" lon="15.11480095742752"><ele>420.0</ele><time>2026-04-06T12:11:57.999Z</time></trkpt><trkpt lat="37.88497129364659" lon="15.114821949525272"><ele>420.0</ele><time>2026-04-06T12:11:58.999Z</time></trkpt><trkpt lat="37.885040728055635" lon="15.114840452040026"><ele>420.0</ele><time>2026-04-06T12:11:59.999Z</time></trkpt><trkpt lat="37.88510310598231" lon="15.114855104773675"><ele>420.0</ele><time>2026-04-06T12:12:00.999Z</time></trkpt><trkpt lat="37.88519352527079" lon="15.11493198072448"><ele>420.0</ele><time>2026-04-06T12:12:02.999Z</time></trkpt><trkpt lat="37.88519133860438" lon="15.115088453418203"><ele>420.0</ele><time>2026-04-06T12:12:04.999Z</time></trkpt><trkpt lat="37.885208899417904" lon="15.115166976085849"><ele>419.5</ele><time>2026-04-06T12:12:05.999Z</time></trkpt><trkpt lat="37.88524214759105" lon="15.11523721349485"><ele>419.0</ele><time>2026-04-06T12:12:06.999Z</time></trkpt><trkpt lat="37.8853191511564" lon="15.115268430312902"><ele>418.5</ele><time>2026-04-06T12:12:07.999Z</time></trkpt><trkpt lat="37.88543571692835" lon="15.11532703056854"><ele>418.0</ele><time>2026-04-06T12:12:09.999Z</time></trkpt><trkpt lat="37.88550944158918" lon="15.115354113130941"><ele>417.5</ele><time>2026-04-06T12:12:10.999Z</time></trkpt><trkpt lat="37.88559134924742" lon="15.115384425176238"><ele>417.0</ele><time>2026-04-06T12:12:11.999Z</time></trkpt><trkpt lat="37.885662951544774" lon="15.115409061643303"><ele>417.0</ele><time>2026-04-06T12:12:12.999Z</time></trkpt><trkpt lat="37.885729024173834" lon="15.115432516530854"><ele>417.0</ele><time>2026-04-06T12:12:13.999Z</time></trkpt><trkpt lat="37.88584051853862" lon="15.115477823323701"><ele>417.0</ele><time>2026-04-06T12:12:15.999Z</time></trkpt><trkpt lat="37.88591873382812" lon="15.115558393720772"><ele>417.0</ele><time>2026-04-06T12:12:17.999Z</time></trkpt><trkpt lat="37.88594810054184" lon="15.115699523396097"><ele>417.0</ele><time>2026-04-06T12:12:19.999Z</time></trkpt><trkpt lat="37.88595025543412" lon="15.115783792237908"><ele>417.0</ele><time>2026-04-06T12:12:20.999Z</time></trkpt><trkpt lat="37.88594786538559" lon="15.115876861436151"><ele>417.0</ele><time>2026-04-06T12:12:21.999Z</time></trkpt><trkpt lat="37.88594917189772" lon="15.115977846820137"><ele>417.0</ele><time>2026-04-06T12:12:22.999Z</time></trkpt><trkpt lat="37.88595499750031" lon="15.116080805029455"><ele>417.0</ele><time>2026-04-06T12:12:23.999Z</time></trkpt><trkpt lat="37.885964758951935" lon="15.116187224359871"><ele>417.0</ele><time>2026-04-06T12:12:24.999Z</time></trkpt><trkpt lat="37.885982579815234" lon="15.116288100688832"><ele>417.0</ele><time>2026-04-06T12:12:25.999Z</time></trkpt><trkpt lat="37.88601349300777" lon="15.116389754397547"><ele>417.0</ele><time>2026-04-06T12:12:26.999Z</time></trkpt><trkpt lat="37.88605723454796" lon="15.116489708763133"><ele>417.0</ele><time>2026-04-06T12:12:27.999Z</time></trkpt><trkpt lat="37.886106762556125" lon="15.116587622734485"><ele>417.0</ele><time>2026-04-06T12:12:28.999Z</time></trkpt><trkpt lat="37.88616241228457" lon="15.116683214251259"><ele>417.0</ele><time>2026-04-06T12:12:29.999Z</time></trkpt><trkpt lat="37.88621429567577" lon="15.116781825200741"><ele>417.0</ele><time>2026-04-06T12:12:30.999Z</time></trkpt><trkpt lat="37.88626379778937" lon="15.116882234566452"><ele>416.20000000000005</ele><time>2026-04-06T12:12:31.999Z</time></trkpt><trkpt lat="37.88631606300044" lon="15.116978792119717"><ele>415.4</ele><time>2026-04-06T12:12:32.999Z</time></trkpt><trkpt lat="37.88636966360841" lon="15.117077762967444"><ele>414.6</ele><time>2026-04-06T12:12:33.999Z</time></trkpt><trkpt lat="37.88642236268075" lon="15.117172730391326"><ele>413.79999999999995</ele><time>2026-04-06T12:12:34.999Z</time></trkpt><trkpt lat="37.88647163467751" lon="15.117269543661935"><ele>413.0</ele><time>2026-04-06T12:12:35.999Z</time></trkpt><trkpt lat="37.88651154441635" lon="15.117368122231685"><ele>413.66666666666663</ele><time>2026-04-06T12:12:36.999Z</time></trkpt><trkpt lat="37.886560806026395" lon="15.117457920586302"><ele>414.3333333333333</ele><time>2026-04-06T12:12:37.999Z</time></trkpt><trkpt lat="37.88660379174827" lon="15.117549525125401"><ele>415.0</ele><time>2026-04-06T12:12:38.999Z</time></trkpt><trkpt lat="37.88664204429769" lon="15.117641512758087"><ele>415.66666666666663</ele><time>2026-04-06T12:12:39.999Z</time></trkpt><trkpt lat="37.886683409583746" lon="15.11772864428025"><ele>416.3333333333333</ele><time>2026-04-06T12:12:40.999Z</time></trkpt><trkpt lat="37.88672439718169" lon="15.1178118453503"><ele>417.0</ele><time>2026-04-06T12:12:41.999Z</time></trkpt><trkpt lat="37.88676349690358" lon="15.11789193961848"><ele>415.6666666666667</ele><time>2026-04-06T12:12:42.999Z</time></trkpt><trkpt lat="37.88680131462872" lon="15.117967501750748"><ele>414.33333333333337</ele><time>2026-04-06T12:12:43.999Z</time></trkpt><trkpt lat="37.8868342942551" lon="15.118040984417581"><ele>413.0</ele><time>2026-04-06T12:12:44.999Z</time></trkpt><trkpt lat="37.88689589001936" lon="15.118162512067842"><ele>411.6666666666667</ele><time>2026-04-06T12:12:46.999Z</time></trkpt><trkpt lat="37.886959413951075" lon="15.118251792626452"><ele>410.33333333333337</ele><time>2026-04-06T12:12:48.999Z</time></trkpt><trkpt lat="37.887030412809025" lon="15.11826321959905"><ele>409.0</ele><time>2026-04-06T12:12:49.999Z</time></trkpt><trkpt lat="37.88715433958633" lon="15.118246885826037"><ele>408.6666666666667</ele><time>2026-04-06T12:12:51.999Z</time></trkpt><trkpt lat="37.88721983597743" lon="15.118224025616135"><ele>408.33333333333337</ele><time>2026-04-06T12:12:52.999Z</time></trkpt><trkpt lat="37.88729348028833" lon="15.118181990823853"><ele>408.0</ele><time>2026-04-06T12:12:53.999Z</time></trkpt><trkpt lat="37.887368322075616" lon="15.118124698341946"><ele>407.66666666666663</ele><time>2026-04-06T12:12:54.999Z</time></trkpt><trkpt lat="37.88744860727912" lon="15.118058774856264"><ele>407.3333333333333</ele><time>2026-04-06T12:12:55.999Z</time></trkpt><trkpt lat="37.8875334075397" lon="15.11798639641617"><ele>407.0</ele><time>2026-04-06T12:12:56.999Z</time></trkpt><trkpt lat="37.88763325918278" lon="15.117936365721619"><ele>405.5</ele><time>2026-04-06T12:12:57.999Z</time></trkpt><trkpt lat="37.887731128552716" lon="15.117861341567398"><ele>404.0</ele><time>2026-04-06T12:12:58.999Z</time></trkpt><trkpt lat="37.887826197825525" lon="15.117786886931643"><ele>402.5</ele><time>2026-04-06T12:12:59.999Z</time></trkpt><trkpt lat="37.88792443780686" lon="15.117710885644918"><ele>401.0</ele><time>2026-04-06T12:13:00.999Z</time></trkpt><trkpt lat="37.888022232646854" lon="15.117639504963998"><ele>400.99999999999994</ele><time>2026-04-06T12:13:01.999Z</time></trkpt><trkpt lat="37.88811508161713" lon="15.117568625272115"><ele>401.0</ele><time>2026-04-06T12:13:02.999Z</time></trkpt><trkpt lat="37.88819856269476" lon="15.117505415320398"><ele>401.0</ele><time>2026-04-06T12:13:03.999Z</time></trkpt><trkpt lat="37.8882751123504" lon="15.11744639221902"><ele>401.0</ele><time>2026-04-06T12:13:04.999Z</time></trkpt><trkpt lat="37.8883402476006" lon="15.117392768451488"><ele>400.99999999999994</ele><time>2026-04-06T12:13:05.998Z</time></trkpt><trkpt lat="37.88839730617731" lon="15.117340065941894"><ele>401.0</ele><time>2026-04-06T12:13:06.998Z</time></trkpt><trkpt lat="37.8884819807831" lon="15.117266513036903"><ele>400.66666666666663</ele><time>2026-04-06T12:13:08.998Z</time></trkpt><trkpt lat="37.888542254949314" lon="15.117203273892255"><ele>400.3333333333333</ele><time>2026-04-06T12:13:11.998Z</time></trkpt><trkpt lat="37.888597483893264" lon="15.117143172373638"><ele>400.0</ele><time>2026-04-06T12:13:14.998Z</time></trkpt><trkpt lat="37.88866346401142" lon="15.117078684226723"><ele>399.66666666666663</ele><time>2026-04-06T12:13:17.998Z</time></trkpt><trkpt lat="37.88872854808093" lon="15.117015071906657"><ele>399.3333333333333</ele><time>2026-04-06T12:13:20.998Z</time></trkpt><trkpt lat="37.88879897812119" lon="15.116939488333788"><ele>399.0</ele><time>2026-04-06T12:13:24Z</time></trkpt><trkpt lat="37.88885698206957" lon="15.11688841405683"><ele>399.0</ele><time>2026-04-06T12:13:26Z</time></trkpt><trkpt lat="37.88891783686717" lon="15.116840817154355"><ele>399.0</ele><time>2026-04-06T12:13:28Z</time></trkpt><trkpt lat="37.888985989428825" lon="15.116782625685476"><ele>399.0</ele><time>2026-04-06T12:13:30Z</time></trkpt><trkpt lat="37.88906553756685" lon="15.116719989444661"><ele>399.0</ele><time>2026-04-06T12:13:32Z</time></trkpt><trkpt lat="37.889162342125196" lon="15.116654509845901"><ele>399.0</ele><time>2026-04-06T12:13:34Z</time></trkpt><trkpt lat="37.88926623133576" lon="15.11662128307712"><ele>399.79999999999995</ele><time>2026-04-06T12:13:36Z</time></trkpt><trkpt lat="37.88937095477843" lon="15.116625448119407"><ele>400.59999999999997</ele><time>2026-04-06T12:13:38Z</time></trkpt><trkpt lat="37.88945804933706" lon="15.116678764143472"><ele>401.4</ele><time>2026-04-06T12:13:40Z</time></trkpt><trkpt lat="37.889512397175906" lon="15.116776163974995"><ele>402.2</ele><time>2026-04-06T12:13:42Z</time></trkpt><trkpt lat="37.88954301507301" lon="15.11689677684673"><ele>403.0</ele><time>2026-04-06T12:13:44Z</time></trkpt><trkpt lat="37.88955498865239" lon="15.116989247158713"><ele>403.00000000000006</ele><time>2026-04-06T12:13:46Z</time></trkpt><trkpt lat="37.889561200491286" lon="15.117077191832342"><ele>403.0</ele><time>2026-04-06T12:13:48Z</time></trkpt><trkpt lat="37.88956881006947" lon="15.117190482596031"><ele>403.0</ele><time>2026-04-06T12:13:51Z</time></trkpt><trkpt lat="37.88960584644963" lon="15.117284755099643"><ele>403.0</ele><time>2026-04-06T12:13:54Z</time></trkpt><trkpt lat="37.88958734375629" lon="15.117185015387612"><ele>403.00000000000006</ele><time>2026-04-06T12:14:18.999Z</time></trkpt><trkpt lat="37.88957700612006" lon="15.117064406012123"><ele>403.0</ele><time>2026-04-06T12:14:20.999Z</time></trkpt><trkpt lat="37.88958474758734" lon="15.116833179422486"><ele>403.0</ele><time>2026-04-06T12:14:22.999Z</time></trkpt><trkpt lat="37.88953740684739" lon="15.116699047972089"><ele>403.0</ele><time>2026-04-06T12:14:24.999Z</time></trkpt><trkpt lat="37.889493685578195" lon="15.116636713788406"><ele>403.0</ele><time>2026-04-06T12:14:25.999Z</time></trkpt><trkpt lat="37.8893220139218" lon="15.116559248646585"><ele>403.0</ele><time>2026-04-06T12:14:28.999Z</time></trkpt><trkpt lat="37.88925728890754" lon="15.11657186774334"><ele>403.0</ele><time>2026-04-06T12:14:29.999Z</time></trkpt><trkpt lat="37.88918837465567" lon="15.116604234057107"><ele>402.33333333333337</ele><time>2026-04-06T12:14:30.999Z</time></trkpt><trkpt lat="37.88911755061724" lon="15.116644064024175"><ele>401.6666666666667</ele><time>2026-04-06T12:14:31.999Z</time></trkpt><trkpt lat="37.88904591744115" lon="15.116691542720556"><ele>401.0</ele><time>2026-04-06T12:14:32.999Z</time></trkpt><trkpt lat="37.888972017830845" lon="15.116758597541367"><ele>400.33333333333337</ele><time>2026-04-06T12:14:33.999Z</time></trkpt><trkpt lat="37.88889924709742" lon="15.116828902238128"><ele>399.6666666666667</ele><time>2026-04-06T12:14:34.999Z</time></trkpt><trkpt lat="37.888826904950406" lon="15.116901693793634"><ele>399.0</ele><time>2026-04-06T12:14:35.999Z</time></trkpt><trkpt lat="37.8887547899483" lon="15.116965465532504"><ele>399.0</ele><time>2026-04-06T12:14:36.999Z</time></trkpt><trkpt lat="37.88869063943019" lon="15.11702870003274"><ele>399.0</ele><time>2026-04-06T12:14:37.999Z</time></trkpt><trkpt lat="37.8886267504134" lon="15.11708680591991"><ele>399.0</ele><time>2026-04-06T12:14:38.999Z</time></trkpt><trkpt lat="37.888569068200006" lon="15.117140401535238"><ele>399.0</ele><time>2026-04-06T12:14:39.999Z</time></trkpt><trkpt lat="37.88851477451209" lon="15.117189454157105"><ele>399.0</ele><time>2026-04-06T12:14:40.999Z</time></trkpt><trkpt lat="37.88843340368235" lon="15.117264276587587"><ele>399.0</ele><time>2026-04-06T12:14:42.999Z</time></trkpt><trkpt lat="37.88837449286942" lon="15.117322842083333"><ele>399.2857142857143</ele><time>2026-04-06T12:14:44.999Z</time></trkpt><trkpt lat="37.888306264440864" lon="15.11736049362112"><ele>399.57142857142856</ele><time>2026-04-06T12:14:47.999Z</time></trkpt><trkpt lat="37.88825194237574" lon="15.117309673375313"><ele>399.8571428571429</ele><time>2026-04-06T12:14:50.999Z</time></trkpt><trkpt lat="37.88824299088169" lon="15.117210228895274"><ele>400.1428571428571</ele><time>2026-04-06T12:14:53.999Z</time></trkpt><trkpt lat="37.88823683415889" lon="15.117127994677881"><ele>400.42857142857144</ele><time>2026-04-06T12:14:57.999Z</time></trkpt><trkpt lat="37.88823096576613" lon="15.117037127113969"><ele>400.7142857142857</ele><time>2026-04-06T12:15:01.999Z</time></trkpt><trkpt lat="37.888274939183056" lon="15.116960930709409"><ele>401.0</ele><time>2026-04-06T12:15:05.999Z</time></trkpt><trkpt lat="37.888344434188944" lon="15.116946724135769"><ele>401.0</ele><time>2026-04-06T12:15:11.998Z</time></trkpt><trkpt lat="37.88835499408285" lon="15.116677979064228"><ele>401.0</ele><time>2026-04-06T12:15:24.998Z</time></trkpt><trkpt lat="37.88833264398403" lon="15.116574323980567"><ele>401.0</ele><time>2026-04-06T12:15:26.998Z</time></trkpt><trkpt lat="37.88828617242266" lon="15.116475972020314"><ele>401.0</ele><time>2026-04-06T12:15:30Z</time></trkpt><trkpt lat="37.88826692588667" lon="15.11639081850414"><ele>401.14285714285717</ele><time>2026-04-06T12:15:33Z</time></trkpt><trkpt lat="37.88825931238627" lon="15.116305339389497"><ele>401.28571428571433</ele><time>2026-04-06T12:15:36Z</time></trkpt><trkpt lat="37.88823755412085" lon="15.116228775065442"><ele>401.42857142857144</ele><time>2026-04-06T12:15:39Z</time></trkpt><trkpt lat="37.88819492324499" lon="15.116140863974676"><ele>401.57142857142856</ele><time>2026-04-06T12:15:45Z</time></trkpt><trkpt lat="37.88813354616757" lon="15.116069726985163"><ele>401.7142857142857</ele><time>2026-04-06T12:15:49Z</time></trkpt><trkpt lat="37.88807163272861" lon="15.11601666275308"><ele>401.85714285714283</ele><time>2026-04-06T12:15:52Z</time></trkpt><trkpt lat="37.88801080992998" lon="15.115956310578623"><ele>402.0</ele><time>2026-04-06T12:15:55Z</time></trkpt><trkpt lat="37.88803107980123" lon="15.115872113581727"><ele>402.0</ele><time>2026-04-06T12:15:57Z</time></trkpt><trkpt lat="37.888045096365445" lon="15.115783392158143"><ele>402.0</ele><time>2026-04-06T12:16:00Z</time></trkpt><trkpt lat="37.888082352831226" lon="15.115686801932046"><ele>402.0</ele><time>2026-04-06T12:16:03Z</time></trkpt><trkpt lat="37.88808661526663" lon="15.115601807465715"><ele>402.0</ele><time>2026-04-06T12:16:05Z</time></trkpt><trkpt lat="37.88808224097033" lon="15.115521620423548"><ele>402.0</ele><time>2026-04-06T12:16:07Z</time></trkpt><trkpt lat="37.88807576407904" lon="15.11543014388865"><ele>402.0</ele><time>2026-04-06T12:16:10Z</time></trkpt><trkpt lat="37.88806949515399" lon="15.115341604583412"><ele>402.0</ele><time>2026-04-06T12:16:13Z</time></trkpt><trkpt lat="37.88805213665377" lon="15.115262332127639"><ele>402.5</ele><time>2026-04-06T12:16:15.999Z</time></trkpt><trkpt lat="37.88799404862814" lon="15.1151925051706"><ele>403.0</ele><time>2026-04-06T12:16:19.999Z</time></trkpt><trkpt lat="37.887933372640155" lon="15.115150951145166"><ele>403.5</ele><time>2026-04-06T12:16:24.999Z</time></trkpt><trkpt lat="37.887892867958996" lon="15.11505915436506"><ele>404.0</ele><time>2026-04-06T12:16:28.999Z</time></trkpt><trkpt lat="37.887864362750385" lon="15.114948340472653"><ele>404.5</ele><time>2026-04-06T12:16:31.999Z</time></trkpt><trkpt lat="37.88783430122864" lon="15.114866488704592"><ele>405.0</ele><time>2026-04-06T12:16:33.999Z</time></trkpt><trkpt lat="37.88782589095436" lon="15.114766574343287"><ele>405.1666666666667</ele><time>2026-04-06T12:16:36.999Z</time></trkpt><trkpt lat="37.88780192602602" lon="15.114669361443239"><ele>405.33333333333337</ele><time>2026-04-06T12:16:40.999Z</time></trkpt><trkpt lat="37.88774889237374" lon="15.114598367702339"><ele>405.5</ele><time>2026-04-06T12:16:43.999Z</time></trkpt><trkpt lat="37.88767359994838" lon="15.114525002907223"><ele>405.6666666666667</ele><time>2026-04-06T12:16:46.999Z</time></trkpt><trkpt lat="37.88761331779295" lon="15.114451473400253"><ele>405.83333333333337</ele><time>2026-04-06T12:16:48.999Z</time></trkpt><trkpt lat="37.88755368761315" lon="15.114358683893867"><ele>406.0</ele><time>2026-04-06T12:16:50.999Z</time></trkpt><trkpt lat="37.88748784974711" lon="15.114264707942162"><ele>406.4</ele><time>2026-04-06T12:16:52.999Z</time></trkpt><trkpt lat="37.88745711670226" lon="15.114142911514959"><ele>406.8</ele><time>2026-04-06T12:16:54.999Z</time></trkpt><trkpt lat="37.88743972088647" lon="15.114017676393518"><ele>407.2</ele><time>2026-04-06T12:16:56.999Z</time></trkpt><trkpt lat="37.887447125709286" lon="15.11389341959766"><ele>407.59999999999997</ele><time>2026-04-06T12:16:58.999Z</time></trkpt><trkpt lat="37.88740835964897" lon="15.113795559332676"><ele>408.0</ele><time>2026-04-06T12:17:00.999Z</time></trkpt><trkpt lat="37.88735480309804" lon="15.113737148360059"><ele>408.0</ele><time>2026-04-06T12:17:03.999Z</time></trkpt><trkpt lat="37.88730859371345" lon="15.113668565648656"><ele>408.0</ele><time>2026-04-06T12:17:07.999Z</time></trkpt><trkpt lat="37.88725983852535" lon="15.113614970476315"><ele>408.0</ele><time>2026-04-06T12:17:10.999Z</time></trkpt><trkpt lat="37.88721281591504" lon="15.113525596437203"><ele>408.0</ele><time>2026-04-06T12:17:13.999Z</time></trkpt><trkpt lat="37.88721326387798" lon="15.11344417079041"><ele>408.0</ele><time>2026-04-06T12:17:16.999Z</time></trkpt><trkpt lat="37.88720857795383" lon="15.113358341923032"><ele>408.0</ele><time>2026-04-06T12:17:19.999Z</time></trkpt><trkpt lat="37.887206994911246" lon="15.113246628489321"><ele>408.0</ele><time>2026-04-06T12:17:22.999Z</time></trkpt><trkpt lat="37.88720686648532" lon="15.113138832509934"><ele>408.0</ele><time>2026-04-06T12:17:25.999Z</time></trkpt><trkpt lat="37.88715247164313" lon="15.113246393859061"><ele>408.0</ele><time>2026-04-06T12:40:10.998Z</time></trkpt><trkpt lat="37.8872235197556" lon="15.113260156857026"><ele>408.0</ele><time>2026-04-06T12:40:15.998Z</time></trkpt><trkpt lat="37.887230973078594" lon="15.113342436085981"><ele>408.0</ele><time>2026-04-06T12:40:19.998Z</time></trkpt><trkpt lat="37.88723867875184" lon="15.11344180974321"><ele>408.0</ele><time>2026-04-06T12:40:24.998Z</time></trkpt><trkpt lat="37.88724682691566" lon="15.113527750212178"><ele>408.0</ele><time>2026-04-06T12:40:28.998Z</time></trkpt><trkpt lat="37.887261517194574" lon="15.113610055086935"><ele>408.0</ele><time>2026-04-06T12:40:32.998Z</time></trkpt><trkpt lat="37.887311926401225" lon="15.113668330782948"><ele>408.0</ele><time>2026-04-06T12:40:37.997Z</time></trkpt><trkpt lat="37.88736375824698" lon="15.11372354405763"><ele>408.0</ele><time>2026-04-06T12:40:42Z</time></trkpt><trkpt lat="37.88741049412116" lon="15.113791942680008"><ele>408.0</ele><time>2026-04-06T12:40:46Z</time></trkpt><trkpt lat="37.88744864037388" lon="15.113883300428535"><ele>408.0</ele><time>2026-04-06T12:40:49Z</time></trkpt><trkpt lat="37.88746742539273" lon="15.113991634160652"><ele>408.0</ele><time>2026-04-06T12:40:51Z</time></trkpt><trkpt lat="37.88747501991767" lon="15.11410936853011"><ele>408.0</ele><time>2026-04-06T12:40:53Z</time></trkpt><trkpt lat="37.88750193960666" lon="15.114233862316325"><ele>408.0</ele><time>2026-04-06T12:40:55Z</time></trkpt><trkpt lat="37.88754126358432" lon="15.114335032766371"><ele>408.0</ele><time>2026-04-06T12:40:57Z</time></trkpt><trkpt lat="37.88761105227641" lon="15.114419432868964"><ele>408.0</ele><time>2026-04-06T12:40:59Z</time></trkpt><trkpt lat="37.88768141941413" lon="15.114508091457655"><ele>408.0</ele><time>2026-04-06T12:41:01Z</time></trkpt><trkpt lat="37.88775458629363" lon="15.114592417598962"><ele>407.6666666666667</ele><time>2026-04-06T12:41:03Z</time></trkpt><trkpt lat="37.88782180841682" lon="15.114665571523657"><ele>407.33333333333337</ele><time>2026-04-06T12:41:05Z</time></trkpt><trkpt lat="37.88786156092309" lon="15.114743568382888"><ele>407.0</ele><time>2026-04-06T12:41:07.999Z</time></trkpt><trkpt lat="37.88787246504556" lon="15.114847974036005"><ele>406.6666666666667</ele><time>2026-04-06T12:41:11.999Z</time></trkpt><trkpt lat="37.8878822732577" lon="15.114926780779209"><ele>406.33333333333337</ele><time>2026-04-06T12:41:13.999Z</time></trkpt><trkpt lat="37.88789190515434" lon="15.11503379244313"><ele>406.0</ele><time>2026-04-06T12:41:16.999Z</time></trkpt><trkpt lat="37.88794406957442" lon="15.115107792556083"><ele>405.83333333333337</ele><time>2026-04-06T12:41:19.999Z</time></trkpt><trkpt lat="37.887969511041085" lon="15.115194859425452"><ele>405.6666666666667</ele><time>2026-04-06T12:41:22.999Z</time></trkpt><trkpt lat="37.888022881380486" lon="15.115252154133149"><ele>405.5</ele><time>2026-04-06T12:41:25.999Z</time></trkpt><trkpt lat="37.88807943476205" lon="15.115355559234493"><ele>405.33333333333337</ele><time>2026-04-06T12:41:28.999Z</time></trkpt><trkpt lat="37.888081720454345" lon="15.115468979264755"><ele>405.1666666666667</ele><time>2026-04-06T12:41:30.999Z</time></trkpt><trkpt lat="37.888096996989496" lon="15.115570495331957"><ele>405.0</ele><time>2026-04-06T12:41:32.999Z</time></trkpt><trkpt lat="37.88810013094904" lon="15.115670179489115"><ele>404.5</ele><time>2026-04-06T12:41:34.999Z</time></trkpt><trkpt lat="37.88806852295027" lon="15.115776598868305"><ele>404.0</ele><time>2026-04-06T12:41:36.999Z</time></trkpt><trkpt lat="37.88805010767929" lon="15.115871772886203"><ele>403.5</ele><time>2026-04-06T12:41:38.999Z</time></trkpt><trkpt lat="37.88805644627567" lon="15.115964556593259"><ele>403.0</ele><time>2026-04-06T12:41:40.999Z</time></trkpt><trkpt lat="37.88808711673475" lon="15.116051705672408"><ele>402.5</ele><time>2026-04-06T12:41:42.999Z</time></trkpt><trkpt lat="37.88813636741941" lon="15.11610975241418"><ele>402.0</ele><time>2026-04-06T12:41:44.999Z</time></trkpt><trkpt lat="37.888194181368796" lon="15.116163403795918"><ele>402.0</ele><time>2026-04-06T12:41:47.999Z</time></trkpt><trkpt lat="37.888232815725395" lon="15.116226911059874"><ele>402.0</ele><time>2026-04-06T12:41:50.999Z</time></trkpt><trkpt lat="37.88824612391469" lon="15.116308341520533"><ele>402.0</ele><time>2026-04-06T12:41:53.999Z</time></trkpt><trkpt lat="37.888280824711835" lon="15.116400309312981"><ele>402.0</ele><time>2026-04-06T12:41:57.998Z</time></trkpt><trkpt lat="37.88830846970807" lon="15.116487443473222"><ele>402.0</ele><time>2026-04-06T12:42:00.998Z</time></trkpt><trkpt lat="37.888328514717536" lon="15.116585429791735"><ele>402.0</ele><time>2026-04-06T12:42:03.998Z</time></trkpt><trkpt lat="37.88834474130581" lon="15.116670403358697"><ele>402.0</ele><time>2026-04-06T12:42:05.998Z</time></trkpt><trkpt lat="37.888363747466826" lon="15.116790877191878"><ele>401.8333333333333</ele><time>2026-04-06T12:42:07.998Z</time></trkpt><trkpt lat="37.88837633436819" lon="15.116871666223304"><ele>401.66666666666663</ele><time>2026-04-06T12:42:09.998Z</time></trkpt><trkpt lat="37.88832932364022" lon="15.116948542417228"><ele>401.5</ele><time>2026-04-06T12:42:14.998Z</time></trkpt><trkpt lat="37.88825039952295" lon="15.116984067281985"><ele>401.3333333333333</ele><time>2026-04-06T12:42:17.998Z</time></trkpt><trkpt lat="37.888244783651075" lon="15.117093978623997"><ele>401.16666666666663</ele><time>2026-04-06T12:42:19.998Z</time></trkpt><trkpt lat="37.88826823385104" lon="15.117249327967734"><ele>401.0</ele><time>2026-04-06T12:42:21.998Z</time></trkpt><trkpt lat="37.888296145285324" lon="15.117343999040912"><ele>401.0</ele><time>2026-04-06T12:42:23.998Z</time></trkpt><trkpt lat="37.88836012955274" lon="15.117379590205863"><ele>401.0</ele><time>2026-04-06T12:42:27.998Z</time></trkpt><trkpt lat="37.88844064368006" lon="15.117302504669471"><ele>401.0</ele><time>2026-04-06T12:42:29.998Z</time></trkpt><trkpt lat="37.88852313384751" lon="15.117210422027991"><ele>401.0</ele><time>2026-04-06T12:42:31.998Z</time></trkpt><trkpt lat="37.888612498058095" lon="15.117123691913802"><ele>401.0</ele><time>2026-04-06T12:42:33.998Z</time></trkpt><trkpt lat="37.88869391573473" lon="15.11703701983365"><ele>400.6</ele><time>2026-04-06T12:42:35.998Z</time></trkpt><trkpt lat="37.888772239282005" lon="15.116963986933813"><ele>400.20000000000005</ele><time>2026-04-06T12:42:37.998Z</time></trkpt><trkpt lat="37.88884787035656" lon="15.11689733792329"><ele>399.79999999999995</ele><time>2026-04-06T12:42:39.998Z</time></trkpt><trkpt lat="37.888941999565354" lon="15.116826415765637"><ele>399.4</ele><time>2026-04-06T12:42:41.997Z</time></trkpt><trkpt lat="37.88904726143284" lon="15.116749197787977"><ele>399.0</ele><time>2026-04-06T12:42:43.997Z</time></trkpt><trkpt lat="37.889152365900934" lon="15.116669004455558"><ele>400.0</ele><time>2026-04-06T12:42:45.997Z</time></trkpt><trkpt lat="37.88926345979258" lon="15.116615894903418"><ele>401.0</ele><time>2026-04-06T12:42:47.999Z</time></trkpt><trkpt lat="37.88938021296289" lon="15.116607505977731"><ele>402.0</ele><time>2026-04-06T12:42:49.999Z</time></trkpt><trkpt lat="37.88948512090136" lon="15.116653995314758"><ele>403.0</ele><time>2026-04-06T12:42:51.999Z</time></trkpt><trkpt lat="37.88954081059663" lon="15.11676472464416"><ele>403.0</ele><time>2026-04-06T12:42:53.999Z</time></trkpt><trkpt lat="37.889564467260406" lon="15.116928549733002"><ele>403.0</ele><time>2026-04-06T12:42:55.999Z</time></trkpt><trkpt lat="37.88957433499781" lon="15.117029083582723"><ele>403.0</ele><time>2026-04-06T12:42:56.999Z</time></trkpt><trkpt lat="37.8895834254534" lon="15.117139442785485"><ele>403.0</ele><time>2026-04-06T12:42:57.999Z</time></trkpt><trkpt lat="37.889593313377155" lon="15.117258380299866"><ele>403.0</ele><time>2026-04-06T12:42:58.999Z</time></trkpt><trkpt lat="37.889602887885886" lon="15.117376048151325"><ele>402.6666666666667</ele><time>2026-04-06T12:42:59.999Z</time></trkpt><trkpt lat="37.88961227536242" lon="15.117491417488491"><ele>402.33333333333337</ele><time>2026-04-06T12:43:00.999Z</time></trkpt><trkpt lat="37.88962124896311" lon="15.117601700451432"><ele>402.0</ele><time>2026-04-06T12:43:01.999Z</time></trkpt><trkpt lat="37.8896299149326" lon="15.11770820239213"><ele>401.66666666666663</ele><time>2026-04-06T12:43:02.999Z</time></trkpt><trkpt lat="37.889641644601134" lon="15.117809187489128"><ele>401.3333333333333</ele><time>2026-04-06T12:43:03.999Z</time></trkpt><trkpt lat="37.889663747582354" lon="15.117899799871346"><ele>401.0</ele><time>2026-04-06T12:43:04.999Z</time></trkpt><trkpt lat="37.889714521186356" lon="15.117981180016809"><ele>400.99999999999994</ele><time>2026-04-06T12:43:05.999Z</time></trkpt><trkpt lat="37.889778748420056" lon="15.118040185442293"><ele>401.0</ele><time>2026-04-06T12:43:06.999Z</time></trkpt><trkpt lat="37.889828284345846" lon="15.118123300585978"><ele>401.0</ele><time>2026-04-06T12:43:07.999Z</time></trkpt><trkpt lat="37.889885332726536" lon="15.118203084582126"><ele>401.0</ele><time>2026-04-06T12:43:08.999Z</time></trkpt><trkpt lat="37.889940616428305" lon="15.118289802754296"><ele>400.99999999999994</ele><time>2026-04-06T12:43:09.999Z</time></trkpt><trkpt lat="37.889999897407485" lon="15.118378280337836"><ele>401.0</ele><time>2026-04-06T12:43:10.999Z</time></trkpt><trkpt lat="37.89005541335231" lon="15.118471532702108"><ele>400.0</ele><time>2026-04-06T12:43:11.999Z</time></trkpt><trkpt lat="37.89010948268381" lon="15.118567457848155"><ele>399.0</ele><time>2026-04-06T12:43:12.999Z</time></trkpt><trkpt lat="37.89014509168434" lon="15.118680730839756"><ele>398.0</ele><time>2026-04-06T12:43:13.999Z</time></trkpt><trkpt lat="37.89019596870067" lon="15.118785395133632"><ele>397.0</ele><time>2026-04-06T12:43:14.999Z</time></trkpt><trkpt lat="37.890246596140535" lon="15.118890129186425"><ele>396.0</ele><time>2026-04-06T12:43:15.999Z</time></trkpt><trkpt lat="37.89029860081467" lon="15.118995470814301"><ele>396.0</ele><time>2026-04-06T12:43:16.999Z</time></trkpt><trkpt lat="37.89036058176308" lon="15.119084682417517"><ele>396.0</ele><time>2026-04-06T12:43:17.999Z</time></trkpt><trkpt lat="37.89040605620416" lon="15.119177532756211"><ele>396.0</ele><time>2026-04-06T12:43:18.999Z</time></trkpt><trkpt lat="37.89045029923916" lon="15.119264481253744"><ele>396.0</ele><time>2026-04-06T12:43:19.999Z</time></trkpt><trkpt lat="37.890496772328866" lon="15.119346708662741"><ele>396.0</ele><time>2026-04-06T12:43:20.999Z</time></trkpt><trkpt lat="37.89054346733229" lon="15.119422557940016"><ele>396.0</ele><time>2026-04-06T12:43:21.999Z</time></trkpt><trkpt lat="37.89059044717708" lon="15.119494947884236"><ele>396.0</ele><time>2026-04-06T12:43:22.999Z</time></trkpt><trkpt lat="37.890637574719385" lon="15.119564208716676"><ele>396.0</ele><time>2026-04-06T12:43:23.999Z</time></trkpt><trkpt lat="37.89068848356415" lon="15.1196328490113"><ele>396.0</ele><time>2026-04-06T12:43:24.999Z</time></trkpt><trkpt lat="37.89073785576837" lon="15.11970140113228"><ele>396.0</ele><time>2026-04-06T12:43:25.999Z</time></trkpt><trkpt lat="37.89078788976172" lon="15.119772385534732"><ele>396.0</ele><time>2026-04-06T12:43:26.999Z</time></trkpt><trkpt lat="37.89083719564983" lon="15.119851013846574"><ele>396.0</ele><time>2026-04-06T12:43:27.999Z</time></trkpt><trkpt lat="37.89088196609647" lon="15.11993779220041"><ele>395.6</ele><time>2026-04-06T12:43:28.999Z</time></trkpt><trkpt lat="37.890922516197556" lon="15.120031300284065"><ele>395.20000000000005</ele><time>2026-04-06T12:43:29.999Z</time></trkpt><trkpt lat="37.89096208842373" lon="15.12013030761218"><ele>394.79999999999995</ele><time>2026-04-06T12:43:30.999Z</time></trkpt><trkpt lat="37.89098062529331" lon="15.120243998256354"><ele>394.4</ele><time>2026-04-06T12:43:31.999Z</time></trkpt><trkpt lat="37.891012467951406" lon="15.120352279826024"><ele>394.0</ele><time>2026-04-06T12:43:32.999Z</time></trkpt><trkpt lat="37.89104544373265" lon="15.1204662441595"><ele>392.79999999999995</ele><time>2026-04-06T12:43:33.999Z</time></trkpt><trkpt lat="37.89107703513322" lon="15.120583880615634"><ele>391.59999999999997</ele><time>2026-04-06T12:43:34.999Z</time></trkpt><trkpt lat="37.891108549583215" lon="15.120705770909575"><ele>390.4</ele><time>2026-04-06T12:43:35.999Z</time></trkpt><trkpt lat="37.89114035518436" lon="15.120828787284182"><ele>389.2</ele><time>2026-04-06T12:43:36.999Z</time></trkpt><trkpt lat="37.89117449887265" lon="15.120956253749778"><ele>388.0</ele><time>2026-04-06T12:43:37.999Z</time></trkpt><trkpt lat="37.89122195516528" lon="15.121076531065853"><ele>387.0</ele><time>2026-04-06T12:43:38.999Z</time></trkpt><trkpt lat="37.8912518975134" lon="15.12120858171203"><ele>386.0</ele><time>2026-04-06T12:43:39.999Z</time></trkpt><trkpt lat="37.891288893655656" lon="15.121333957735475"><ele>385.0</ele><time>2026-04-06T12:43:40.999Z</time></trkpt><trkpt lat="37.89132290410502" lon="15.121460210540123"><ele>384.0</ele><time>2026-04-06T12:43:41.999Z</time></trkpt><trkpt lat="37.89135766868027" lon="15.121586975599923"><ele>383.0</ele><time>2026-04-06T12:43:42.999Z</time></trkpt><trkpt lat="37.89138961553663" lon="15.121711621623753"><ele>383.0</ele><time>2026-04-06T12:43:43.999Z</time></trkpt><trkpt lat="37.891419050853386" lon="15.121833298392799"><ele>383.0</ele><time>2026-04-06T12:43:44.999Z</time></trkpt><trkpt lat="37.89144016370011" lon="15.121959143176303"><ele>383.0</ele><time>2026-04-06T12:43:45.999Z</time></trkpt><trkpt lat="37.8914616112034" lon="15.122084506681094"><ele>383.0</ele><time>2026-04-06T12:43:46.999Z</time></trkpt><trkpt lat="37.89146175033536" lon="15.122211402605714"><ele>383.0</ele><time>2026-04-06T12:43:47.999Z</time></trkpt><trkpt lat="37.89148822616661" lon="15.122329938479211"><ele>383.0</ele><time>2026-04-06T12:43:48.999Z</time></trkpt><trkpt lat="37.8915032206333" lon="15.122449708290917"><ele>383.0</ele><time>2026-04-06T12:43:49.999Z</time></trkpt><trkpt lat="37.891528623958436" lon="15.12256383138102"><ele>383.0</ele><time>2026-04-06T12:43:50.999Z</time></trkpt><trkpt lat="37.891568236356825" lon="15.122669631656924"><ele>383.0</ele><time>2026-04-06T12:43:51.999Z</time></trkpt><trkpt lat="37.89161804022085" lon="15.122767140786337"><ele>383.0</ele><time>2026-04-06T12:43:52.999Z</time></trkpt><trkpt lat="37.891680695333356" lon="15.122860053425503"><ele>383.0</ele><time>2026-04-06T12:43:53.999Z</time></trkpt><trkpt lat="37.89175547628384" lon="15.12296401715581"><ele>383.0</ele><time>2026-04-06T12:43:54.999Z</time></trkpt><trkpt lat="37.891832969093656" lon="15.123073051124111"><ele>383.0</ele><time>2026-04-06T12:43:55.999Z</time></trkpt><trkpt lat="37.89190543834869" lon="15.123190699026173"><ele>383.0</ele><time>2026-04-06T12:43:56.999Z</time></trkpt><trkpt lat="37.89197708775892" lon="15.123298653384246"><ele>382.2</ele><time>2026-04-06T12:43:57.999Z</time></trkpt><trkpt lat="37.89204378362817" lon="15.123403515727762"><ele>381.4</ele><time>2026-04-06T12:43:58.999Z</time></trkpt><trkpt lat="37.892101279191095" lon="15.123504508497577"><ele>380.59999999999997</ele><time>2026-04-06T12:43:59.998Z</time></trkpt><trkpt lat="37.892145838211356" lon="15.123614637482822"><ele>379.79999999999995</ele><time>2026-04-06T12:44:00.998Z</time></trkpt><trkpt lat="37.89217450412044" lon="15.123733156438977"><ele>379.0</ele><time>2026-04-06T12:44:01.998Z</time></trkpt><trkpt lat="37.892222970070165" lon="15.123846603646502"><ele>379.0</ele><time>2026-04-06T12:44:02.998Z</time></trkpt><trkpt lat="37.892245903954596" lon="15.123976800594065"><ele>379.0</ele><time>2026-04-06T12:44:03.998Z</time></trkpt><trkpt lat="37.89228499282879" lon="15.12410136518882"><ele>379.0</ele><time>2026-04-06T12:44:04.998Z</time></trkpt><trkpt lat="37.89232436845558" lon="15.124226843268675"><ele>379.0</ele><time>2026-04-06T12:44:05.998Z</time></trkpt><trkpt lat="37.892363860494534" lon="15.1243526923532"><ele>379.0</ele><time>2026-04-06T12:44:06.998Z</time></trkpt><trkpt lat="37.89240320324055" lon="15.124478065883046"><ele>378.6</ele><time>2026-04-06T12:44:07.998Z</time></trkpt><trkpt lat="37.892441680261435" lon="15.124605453238539"><ele>378.2</ele><time>2026-04-06T12:44:08.998Z</time></trkpt><trkpt lat="37.892489997150214" lon="15.124728964908673"><ele>377.8</ele><time>2026-04-06T12:44:09.998Z</time></trkpt><trkpt lat="37.892499274810284" lon="15.124864378854765"><ele>377.40000000000003</ele><time>2026-04-06T12:44:10.998Z</time></trkpt><trkpt lat="37.89251065650973" lon="15.124999993153804"><ele>377.0</ele><time>2026-04-06T12:44:11.998Z</time></trkpt><trkpt lat="37.89252038886581" lon="15.125128467929732"><ele>376.6666666666667</ele><time>2026-04-06T12:44:12.998Z</time></trkpt><trkpt lat="37.892529454248525" lon="15.125246838768703"><ele>376.33333333333337</ele><time>2026-04-06T12:44:13.998Z</time></trkpt><trkpt lat="37.89253881408922" lon="15.125360578011648"><ele>376.0</ele><time>2026-04-06T12:44:14.998Z</time></trkpt><trkpt lat="37.89254782013547" lon="15.125469649077449"><ele>375.6666666666667</ele><time>2026-04-06T12:44:15.998Z</time></trkpt><trkpt lat="37.892557030481576" lon="15.125574661563308"><ele>375.3333333333333</ele><time>2026-04-06T12:44:16.998Z</time></trkpt><trkpt lat="37.89256845026773" lon="15.125676270563378"><ele>375.0</ele><time>2026-04-06T12:44:17.998Z</time></trkpt><trkpt lat="37.89259370820984" lon="15.125777134493964"><ele>375.0</ele><time>2026-04-06T12:44:18.998Z</time></trkpt><trkpt lat="37.89262864258927" lon="15.125864789178857"><ele>375.0</ele><time>2026-04-06T12:44:19.998Z</time></trkpt><trkpt lat="37.892690753103" lon="15.125943460700421"><ele>375.0</ele><time>2026-04-06T12:44:20.998Z</time></trkpt><trkpt lat="37.89275815369624" lon="15.126013238606788"><ele>375.0</ele><time>2026-04-06T12:44:21.998Z</time></trkpt><trkpt lat="37.89281219946599" lon="15.126108530977417"><ele>375.0</ele><time>2026-04-06T12:44:22.998Z</time></trkpt><trkpt lat="37.89286766309584" lon="15.126216289519327"><ele>375.0</ele><time>2026-04-06T12:44:23.998Z</time></trkpt><trkpt lat="37.892919749972386" lon="15.126331536324614"><ele>375.0</ele><time>2026-04-06T12:44:24.998Z</time></trkpt><trkpt lat="37.89294832350923" lon="15.126465676217197"><ele>375.0</ele><time>2026-04-06T12:44:25.998Z</time></trkpt><trkpt lat="37.89298996190571" lon="15.126597974930487"><ele>375.0</ele><time>2026-04-06T12:44:26.998Z</time></trkpt><trkpt lat="37.893038386026944" lon="15.126734312981526"><ele>375.0</ele><time>2026-04-06T12:44:27.998Z</time></trkpt><trkpt lat="37.893096069940455" lon="15.126864124304223"><ele>374.5</ele><time>2026-04-06T12:44:28.998Z</time></trkpt><trkpt lat="37.893159796283314" lon="15.126992151366553"><ele>374.0</ele><time>2026-04-06T12:44:29.998Z</time></trkpt><trkpt lat="37.89322334634575" lon="15.127109638173636"><ele>373.5</ele><time>2026-04-06T12:44:30.998Z</time></trkpt><trkpt lat="37.89328725089082" lon="15.127227911005651"><ele>373.0</ele><time>2026-04-06T12:44:31.998Z</time></trkpt><trkpt lat="37.89331149835257" lon="15.127362698252295"><ele>372.59999999999997</ele><time>2026-04-06T12:44:32.998Z</time></trkpt><trkpt lat="37.89334384057543" lon="15.127487957380316"><ele>372.2</ele><time>2026-04-06T12:44:33.998Z</time></trkpt><trkpt lat="37.89337571977786" lon="15.12760843004782"><ele>371.8</ele><time>2026-04-06T12:44:34.998Z</time></trkpt><trkpt lat="37.89340468567703" lon="15.12772709540203"><ele>371.4</ele><time>2026-04-06T12:44:35.998Z</time></trkpt><trkpt lat="37.89342087964961" lon="15.127848385695714"><ele>371.0</ele><time>2026-04-06T12:44:36.998Z</time></trkpt><trkpt lat="37.89343193062304" lon="15.127978313280028"><ele>373.0</ele><time>2026-04-06T12:44:37.998Z</time></trkpt><trkpt lat="37.89344354509697" lon="15.12811471850409"><ele>375.0</ele><time>2026-04-06T12:44:38.998Z</time></trkpt><trkpt lat="37.893457192982396" lon="15.128256554703311"><ele>377.0</ele><time>2026-04-06T12:44:39.998Z</time></trkpt><trkpt lat="37.89347181401908" lon="15.128402469736027"><ele>379.0</ele><time>2026-04-06T12:44:40.998Z</time></trkpt><trkpt lat="37.89348669050944" lon="15.128551715218078"><ele>379.0</ele><time>2026-04-06T12:44:41.998Z</time></trkpt><trkpt lat="37.893502523886376" lon="15.128706096834074"><ele>379.0</ele><time>2026-04-06T12:44:42.998Z</time></trkpt><trkpt lat="37.8935196383945" lon="15.12885340088327"><ele>379.0</ele><time>2026-04-06T12:44:43.998Z</time></trkpt><trkpt lat="37.893536777710764" lon="15.129000918322975"><ele>379.0</ele><time>2026-04-06T12:44:44.998Z</time></trkpt><trkpt lat="37.89355048608391" lon="15.129135004888468"><ele>378.3333333333333</ele><time>2026-04-06T12:44:45.998Z</time></trkpt><trkpt lat="37.89356288002383" lon="15.129261296148588"><ele>377.66666666666663</ele><time>2026-04-06T12:44:46.998Z</time></trkpt><trkpt lat="37.89356099570447" lon="15.129363078127557"><ele>377.0</ele><time>2026-04-06T12:44:47.998Z</time></trkpt><trkpt lat="37.89354195693852" lon="15.129473559944557"><ele>376.3333333333333</ele><time>2026-04-06T12:44:48.998Z</time></trkpt><trkpt lat="37.89351528289726" lon="15.129582317369998"><ele>375.6666666666667</ele><time>2026-04-06T12:44:49.998Z</time></trkpt><trkpt lat="37.89348786861644" lon="15.12968438765461"><ele>375.0</ele><time>2026-04-06T12:44:50.997Z</time></trkpt><trkpt lat="37.89346116769619" lon="15.129781172402431"><ele>375.0</ele><time>2026-04-06T12:44:51.997Z</time></trkpt><trkpt lat="37.893443350844905" lon="15.129865558802887"><ele>375.0</ele><time>2026-04-06T12:44:52.999Z</time></trkpt><trkpt lat="37.8934349981106" lon="15.129955197992777"><ele>375.0</ele><time>2026-04-06T12:44:53.999Z</time></trkpt><trkpt lat="37.89343994807847" lon="15.130043083431572"><ele>375.0</ele><time>2026-04-06T12:44:54.999Z</time></trkpt><trkpt lat="37.89345397798215" lon="15.13012621708637"><ele>375.0</ele><time>2026-04-06T12:44:55.999Z</time></trkpt><trkpt lat="37.89348385635088" lon="15.130205855733703"><ele>375.0</ele><time>2026-04-06T12:44:56.999Z</time></trkpt><trkpt lat="37.89350698425335" lon="15.130280230384034"><ele>375.0</ele><time>2026-04-06T12:44:57.999Z</time></trkpt><trkpt lat="37.893535966875255" lon="15.130353937060805"><ele>374.5714285714286</ele><time>2026-04-06T12:44:58.999Z</time></trkpt><trkpt lat="37.89358308446506" lon="15.130416561264534"><ele>374.1428571428571</ele><time>2026-04-06T12:44:59.999Z</time></trkpt><trkpt lat="37.893590207988375" lon="15.130496845774323"><ele>373.7142857142857</ele><time>2026-04-06T12:45:00.999Z</time></trkpt><trkpt lat="37.89360482981285" lon="15.130574517951766"><ele>373.28571428571433</ele><time>2026-04-06T12:45:01.999Z</time></trkpt><trkpt lat="37.89361734382256" lon="15.130654862109644"><ele>372.8571428571429</ele><time>2026-04-06T12:45:02.999Z</time></trkpt><trkpt lat="37.89362822627098" lon="15.130810419267425"><ele>372.42857142857144</ele><time>2026-04-06T12:45:04.999Z</time></trkpt><trkpt lat="37.893633240600856" lon="15.130893570318948"><ele>372.0</ele><time>2026-04-06T12:45:05.999Z</time></trkpt><trkpt lat="37.89363816839498" lon="15.130975286546184"><ele>371.40000000000003</ele><time>2026-04-06T12:45:06.999Z</time></trkpt><trkpt lat="37.893644381584195" lon="15.131058677898562"><ele>370.8</ele><time>2026-04-06T12:45:07.999Z</time></trkpt><trkpt lat="37.893650370159136" lon="15.131213397486748"><ele>370.2</ele><time>2026-04-06T12:45:09.999Z</time></trkpt><trkpt lat="37.8936325407846" lon="15.131368917216008"><ele>369.6</ele><time>2026-04-06T12:45:11.999Z</time></trkpt><trkpt lat="37.893619858152896" lon="15.13145339421747"><ele>369.0</ele><time>2026-04-06T12:45:12.999Z</time></trkpt><trkpt lat="37.893606084532415" lon="15.131541089094933"><ele>368.8333333333333</ele><time>2026-04-06T12:45:13.999Z</time></trkpt><trkpt lat="37.89359164886232" lon="15.131630253365728"><ele>368.6666666666667</ele><time>2026-04-06T12:45:14.999Z</time></trkpt><trkpt lat="37.89357714031014" lon="15.131711616558325"><ele>368.5</ele><time>2026-04-06T12:45:15.999Z</time></trkpt><trkpt lat="37.89356050378423" lon="15.131793313240722"><ele>368.33333333333337</ele><time>2026-04-06T12:45:16.999Z</time></trkpt><trkpt lat="37.89354977792637" lon="15.131872210226108"><ele>368.1666666666667</ele><time>2026-04-06T12:45:17.999Z</time></trkpt><trkpt lat="37.8935475334438" lon="15.13203191630597"><ele>368.0</ele><time>2026-04-06T12:45:19.999Z</time></trkpt><trkpt lat="37.89356915533805" lon="15.13211853002816"><ele>368.0</ele><time>2026-04-06T12:45:20.999Z</time></trkpt><trkpt lat="37.89359400278664" lon="15.132201300338274"><ele>368.0</ele><time>2026-04-06T12:45:21.999Z</time></trkpt><trkpt lat="37.89362904806846" lon="15.13227845418935"><ele>368.0</ele><time>2026-04-06T12:45:22.999Z</time></trkpt><trkpt lat="37.89368750340465" lon="15.132332718660862"><ele>368.0</ele><time>2026-04-06T12:45:23.999Z</time></trkpt><trkpt lat="37.8937316265225" lon="15.132407085400862"><ele>368.0</ele><time>2026-04-06T12:45:24.999Z</time></trkpt><trkpt lat="37.89378239499642" lon="15.132476823763332"><ele>368.0</ele><time>2026-04-06T12:45:25.999Z</time></trkpt><trkpt lat="37.89382390646652" lon="15.132550959459474"><ele>368.0</ele><time>2026-04-06T12:45:26.999Z</time></trkpt><trkpt lat="37.89384161759238" lon="15.132641065984775"><ele>367.1666666666667</ele><time>2026-04-06T12:45:27.999Z</time></trkpt><trkpt lat="37.89387318981462" lon="15.132730340086638"><ele>366.33333333333337</ele><time>2026-04-06T12:45:28.999Z</time></trkpt><trkpt lat="37.89391591347851" lon="15.13281378059042"><ele>365.5</ele><time>2026-04-06T12:45:29.999Z</time></trkpt><trkpt lat="37.893977222981185" lon="15.132875967542972"><ele>364.6666666666667</ele><time>2026-04-06T12:45:30.999Z</time></trkpt><trkpt lat="37.894035046443996" lon="15.132944986173964"><ele>363.8333333333333</ele><time>2026-04-06T12:45:31.999Z</time></trkpt><trkpt lat="37.89410191699252" lon="15.133004946624077"><ele>363.0</ele><time>2026-04-06T12:45:32.999Z</time></trkpt><trkpt lat="37.89416796465828" lon="15.133054819645146"><ele>362.99999999999994</ele><time>2026-04-06T12:45:33.999Z</time></trkpt><trkpt lat="37.8942355458317" lon="15.133095998857376"><ele>363.0</ele><time>2026-04-06T12:45:34.999Z</time></trkpt><trkpt lat="37.89429455656067" lon="15.133142210057136"><ele>363.0</ele><time>2026-04-06T12:45:35.999Z</time></trkpt><trkpt lat="37.89435392260824" lon="15.133188596247026"><ele>363.0</ele><time>2026-04-06T12:45:36.999Z</time></trkpt><trkpt lat="37.89441669012071" lon="15.133238888339417"><ele>363.0</ele><time>2026-04-06T12:45:37.999Z</time></trkpt><trkpt lat="37.894484133267895" lon="15.133291183228184"><ele>362.99999999999994</ele><time>2026-04-06T12:45:38.999Z</time></trkpt><trkpt lat="37.89455347510276" lon="15.133344516725042"><ele>363.0</ele><time>2026-04-06T12:45:39.999Z</time></trkpt><trkpt lat="37.89462693357113" lon="15.133405270479415"><ele>361.4</ele><time>2026-04-06T12:45:40.999Z</time></trkpt><trkpt lat="37.894703585300896" lon="15.133472285030168"><ele>359.79999999999995</ele><time>2026-04-06T12:45:41.999Z</time></trkpt><trkpt lat="37.89478060350561" lon="15.133542653318585"><ele>358.2</ele><time>2026-04-06T12:45:42.999Z</time></trkpt><trkpt lat="37.8948616890218" lon="15.133614068443816"><ele>356.6</ele><time>2026-04-06T12:45:43.999Z</time></trkpt><trkpt lat="37.89494244042737" lon="15.133685614128774"><ele>355.0</ele><time>2026-04-06T12:45:44.999Z</time></trkpt><trkpt lat="37.895022794903284" lon="15.133758604903786"><ele>355.5</ele><time>2026-04-06T12:45:45.999Z</time></trkpt><trkpt lat="37.895103283276384" lon="15.13382954949411"><ele>356.0</ele><time>2026-04-06T12:45:46.999Z</time></trkpt><trkpt lat="37.89518251418355" lon="15.133899950299776"><ele>356.5</ele><time>2026-04-06T12:45:47.999Z</time></trkpt><trkpt lat="37.89525602757131" lon="15.133963756564533"><ele>357.0</ele><time>2026-04-06T12:45:48.999Z</time></trkpt><trkpt lat="37.895325589227994" lon="15.134023242297266"><ele>357.5</ele><time>2026-04-06T12:45:49.999Z</time></trkpt><trkpt lat="37.89538984957939" lon="15.134078584892816"><ele>358.0</ele><time>2026-04-06T12:45:50.999Z</time></trkpt><trkpt lat="37.895448458501846" lon="15.134136664067748"><ele>356.0</ele><time>2026-04-06T12:45:51.999Z</time></trkpt><trkpt lat="37.89549683235874" lon="15.134204001963864"><ele>354.0</ele><time>2026-04-06T12:45:52.999Z</time></trkpt><trkpt lat="37.895532918607664" lon="15.134280433258883"><ele>352.0</ele><time>2026-04-06T12:45:53.999Z</time></trkpt><trkpt lat="37.89554118486708" lon="15.134370173918837"><ele>350.0</ele><time>2026-04-06T12:45:54.999Z</time></trkpt><trkpt lat="37.89555781356787" lon="15.134450294146376"><ele>348.0</ele><time>2026-04-06T12:45:55.999Z</time></trkpt><trkpt lat="37.895592031669814" lon="15.134521224676236"><ele>346.0</ele><time>2026-04-06T12:45:56.999Z</time></trkpt><trkpt lat="37.89565828315024" lon="15.134646080024016"><ele>346.0</ele><time>2026-04-06T12:45:58.999Z</time></trkpt><trkpt lat="37.89571084630109" lon="15.134699017649"><ele>346.0</ele><time>2026-04-06T12:45:59.999Z</time></trkpt><trkpt lat="37.8957743868344" lon="15.134748696478944"><ele>346.0</ele><time>2026-04-06T12:46:00.999Z</time></trkpt><trkpt lat="37.89584774022454" lon="15.134794950790717"><ele>346.0</ele><time>2026-04-06T12:46:01.999Z</time></trkpt><trkpt lat="37.89592898341054" lon="15.134841696355986"><ele>346.0</ele><time>2026-04-06T12:46:02.999Z</time></trkpt><trkpt lat="37.896018320673484" lon="15.134883898539195"><ele>346.0</ele><time>2026-04-06T12:46:03.999Z</time></trkpt><trkpt lat="37.896109027481096" lon="15.134928384625331"><ele>345.8</ele><time>2026-04-06T12:46:04.999Z</time></trkpt><trkpt lat="37.89620176613103" lon="15.134974143844087"><ele>345.6</ele><time>2026-04-06T12:46:05.999Z</time></trkpt><trkpt lat="37.896295104023224" lon="15.135017217101455"><ele>345.4</ele><time>2026-04-06T12:46:06.999Z</time></trkpt><trkpt lat="37.89638537759822" lon="15.13506204759453"><ele>345.2</ele><time>2026-04-06T12:46:07.999Z</time></trkpt><trkpt lat="37.896474129849835" lon="15.13510925829594"><ele>345.0</ele><time>2026-04-06T12:46:08.999Z</time></trkpt><trkpt lat="37.896561289844655" lon="15.1351611171086"><ele>345.0</ele><time>2026-04-06T12:46:09.999Z</time></trkpt><trkpt lat="37.89664000301601" lon="15.135215252193717"><ele>345.0</ele><time>2026-04-06T12:46:10.999Z</time></trkpt><trkpt lat="37.89671352598293" lon="15.135275667521292"><ele>345.0</ele><time>2026-04-06T12:46:11.999Z</time></trkpt><trkpt lat="37.89677844946215" lon="15.135337388531566"><ele>345.0</ele><time>2026-04-06T12:46:12.999Z</time></trkpt><trkpt lat="37.89684450882742" lon="15.135394039450802"><ele>345.0</ele><time>2026-04-06T12:46:13.998Z</time></trkpt><trkpt lat="37.896912396064444" lon="15.135440236211435"><ele>345.0</ele><time>2026-04-06T12:46:14.998Z</time></trkpt><trkpt lat="37.896983466714104" lon="15.135475003678224"><ele>345.1666666666667</ele><time>2026-04-06T12:46:15.998Z</time></trkpt><trkpt lat="37.89705501446022" lon="15.135500166601648"><ele>345.3333333333333</ele><time>2026-04-06T12:46:16.998Z</time></trkpt><trkpt lat="37.89713804484699" lon="15.135505850574427"><ele>345.5</ele><time>2026-04-06T12:46:17.998Z</time></trkpt><trkpt lat="37.897217745681154" lon="15.135503340231104"><ele>345.66666666666663</ele><time>2026-04-06T12:46:18.998Z</time></trkpt><trkpt lat="37.89730132998811" lon="15.135498745328954"><ele>345.8333333333333</ele><time>2026-04-06T12:46:19.998Z</time></trkpt><trkpt lat="37.89738440737614" lon="15.135496008841445"><ele>346.0</ele><time>2026-04-06T12:46:20.998Z</time></trkpt><trkpt lat="37.89746881196903" lon="15.135504892939371"><ele>346.0</ele><time>2026-04-06T12:46:21.998Z</time></trkpt><trkpt lat="37.897552764182535" lon="15.135509156351755"><ele>346.0</ele><time>2026-04-06T12:46:22.998Z</time></trkpt><trkpt lat="37.897638774228476" lon="15.135522350528507"><ele>346.0</ele><time>2026-04-06T12:46:23.998Z</time></trkpt><trkpt lat="37.897726033985336" lon="15.135531223493405"><ele>346.0</ele><time>2026-04-06T12:46:24.998Z</time></trkpt><trkpt lat="37.89781620857689" lon="15.135539720153485"><ele>346.0</ele><time>2026-04-06T12:46:25.998Z</time></trkpt><trkpt lat="37.897913101849994" lon="15.13554786831949"><ele>346.0</ele><time>2026-04-06T12:46:26.998Z</time></trkpt><trkpt lat="37.898008849501224" lon="15.135554008648201"><ele>345.5</ele><time>2026-04-06T12:46:27.998Z</time></trkpt><trkpt lat="37.898102388076516" lon="15.135570367028995"><ele>345.0</ele><time>2026-04-06T12:46:28.998Z</time></trkpt><trkpt lat="37.89818301943971" lon="15.135581406532784"><ele>344.5</ele><time>2026-04-06T12:46:29.998Z</time></trkpt><trkpt lat="37.89825412067307" lon="15.135593312730187"><ele>344.0</ele><time>2026-04-06T12:46:30.998Z</time></trkpt><trkpt lat="37.89831784237141" lon="15.13560132333984"><ele>343.5</ele><time>2026-04-06T12:46:31.998Z</time></trkpt><trkpt lat="37.898425758071824" lon="15.13561941314349"><ele>343.0</ele><time>2026-04-06T12:46:33.998Z</time></trkpt><trkpt lat="37.8985327690672" lon="15.135624480461905"><ele>342.66666666666663</ele><time>2026-04-06T12:46:35.998Z</time></trkpt><trkpt lat="37.89866311742095" lon="15.135647614133845"><ele>342.3333333333333</ele><time>2026-04-06T12:46:37.998Z</time></trkpt><trkpt lat="37.89873379399326" lon="15.135664828804908"><ele>342.0</ele><time>2026-04-06T12:46:38.998Z</time></trkpt><trkpt lat="37.89880744070512" lon="15.135683596699755"><ele>341.6666666666667</ele><time>2026-04-06T12:46:39.998Z</time></trkpt><trkpt lat="37.89888072538983" lon="15.135692555586656"><ele>341.33333333333337</ele><time>2026-04-06T12:46:40.998Z</time></trkpt><trkpt lat="37.8989610571073" lon="15.135706166165791"><ele>341.0</ele><time>2026-04-06T12:46:41.998Z</time></trkpt><trkpt lat="37.899040503546644" lon="15.13571876409138"><ele>340.6</ele><time>2026-04-06T12:46:42.998Z</time></trkpt><trkpt lat="37.89912781974383" lon="15.135732199185167"><ele>340.20000000000005</ele><time>2026-04-06T12:46:43.998Z</time></trkpt><trkpt lat="37.89921574337647" lon="15.135744676331232"><ele>339.79999999999995</ele><time>2026-04-06T12:46:44.998Z</time></trkpt><trkpt lat="37.89930524438405" lon="15.135755093817545"><ele>339.4</ele><time>2026-04-06T12:46:45.998Z</time></trkpt><trkpt lat="37.8993981101818" lon="15.135767729197045"><ele>339.0</ele><time>2026-04-06T12:46:46.998Z</time></trkpt><trkpt lat="37.89949311790913" lon="15.135779178823661"><ele>338.79999999999995</ele><time>2026-04-06T12:46:47.998Z</time></trkpt><trkpt lat="37.89958675568739" lon="15.135789501839058"><ele>338.59999999999997</ele><time>2026-04-06T12:46:48.998Z</time></trkpt><trkpt lat="37.89968139441773" lon="15.135796650638593"><ele>338.4</ele><time>2026-04-06T12:46:49.998Z</time></trkpt><trkpt lat="37.89978091092673" lon="15.135807141765211"><ele>338.2</ele><time>2026-04-06T12:46:50.998Z</time></trkpt><trkpt lat="37.89988994484859" lon="15.135816614771384"><ele>338.0</ele><time>2026-04-06T12:46:51.998Z</time></trkpt><trkpt lat="37.90000621968084" lon="15.13582824608079"><ele>337.79999999999995</ele><time>2026-04-06T12:46:52.998Z</time></trkpt><trkpt lat="37.90011680319001" lon="15.135837416737958"><ele>337.6</ele><time>2026-04-06T12:46:53.998Z</time></trkpt><trkpt lat="37.90021538831165" lon="15.135848756962785"><ele>337.4</ele><time>2026-04-06T12:46:54.998Z</time></trkpt><trkpt lat="37.90030695070281" lon="15.135862821743832"><ele>337.20000000000005</ele><time>2026-04-06T12:46:55.998Z</time></trkpt><trkpt lat="37.90039614038459" lon="15.135876365970473"><ele>337.0</ele><time>2026-04-06T12:46:56.998Z</time></trkpt><trkpt lat="37.900483855259864" lon="15.135890655090268"><ele>337.0</ele><time>2026-04-06T12:46:57.998Z</time></trkpt><trkpt lat="37.90056737266038" lon="15.1359041463631"><ele>337.0</ele><time>2026-04-06T12:46:58.999Z</time></trkpt><trkpt lat="37.90064835168277" lon="15.135921621170096"><ele>337.0</ele><time>2026-04-06T12:46:59.999Z</time></trkpt><trkpt lat="37.90072129910317" lon="15.135931421733044"><ele>337.0</ele><time>2026-04-06T12:47:00.999Z</time></trkpt><trkpt lat="37.90083794703661" lon="15.135953977949193"><ele>337.0</ele><time>2026-04-06T12:47:02.999Z</time></trkpt><trkpt lat="37.900932127696144" lon="15.135971437305418"><ele>336.5714285714286</ele><time>2026-04-06T12:47:05Z</time></trkpt><trkpt lat="37.90101553654916" lon="15.135981255209643"><ele>336.14285714285717</ele><time>2026-04-06T12:47:07Z</time></trkpt><trkpt lat="37.901093870202274" lon="15.135984244953296"><ele>335.7142857142857</ele><time>2026-04-06T12:47:09Z</time></trkpt><trkpt lat="37.90116800327678" lon="15.135986912482661"><ele>335.28571428571433</ele><time>2026-04-06T12:47:11Z</time></trkpt><trkpt lat="37.90124262725947" lon="15.135982615997667"><ele>334.8571428571429</ele><time>2026-04-06T12:47:13Z</time></trkpt><trkpt lat="37.90131151395605" lon="15.135971355713789"><ele>334.42857142857144</ele><time>2026-04-06T12:47:15Z</time></trkpt><trkpt lat="37.9013750486219" lon="15.135961367522478"><ele>334.0</ele><time>2026-04-06T12:47:17Z</time></trkpt><trkpt lat="37.90143948250713" lon="15.135959664081005"><ele>334.0</ele><time>2026-04-06T12:47:21Z</time></trkpt><trkpt lat="37.901458489977585" lon="15.136061099126936"><ele>334.0</ele><time>2026-04-06T12:47:23.999Z</time></trkpt><trkpt lat="37.90146168355467" lon="15.136145360203441"><ele>334.0</ele><time>2026-04-06T12:47:25.999Z</time></trkpt><trkpt lat="37.90158206104992" lon="15.136198161480136"><ele>334.0</ele><time>2026-04-06T12:47:29.999Z</time></trkpt><trkpt lat="37.90164980485035" lon="15.136181201927489"><ele>334.0</ele><time>2026-04-06T12:47:32.999Z</time></trkpt><trkpt lat="37.901737482875696" lon="15.136183910628311"><ele>334.0</ele><time>2026-04-06T12:47:35.999Z</time></trkpt><trkpt lat="37.901809836104846" lon="15.136172859563827"><ele>333.6</ele><time>2026-04-06T12:47:37.999Z</time></trkpt><trkpt lat="37.90190879687402" lon="15.136162747007615"><ele>333.2</ele><time>2026-04-06T12:47:39.999Z</time></trkpt><trkpt lat="37.90200460565194" lon="15.136192328371688"><ele>332.8</ele><time>2026-04-06T12:47:41.999Z</time></trkpt><trkpt lat="37.90205279955389" lon="15.136286683922725"><ele>332.40000000000003</ele><time>2026-04-06T12:47:43.999Z</time></trkpt><trkpt lat="37.902094381690624" lon="15.136414763986943"><ele>332.0</ele><time>2026-04-06T12:47:45.999Z</time></trkpt><trkpt lat="37.902126662871545" lon="15.136567166292622"><ele>331.4285714285714</ele><time>2026-04-06T12:47:47.999Z</time></trkpt><trkpt lat="37.90213631802752" lon="15.136648156461344"><ele>330.8571428571429</ele><time>2026-04-06T12:47:48.999Z</time></trkpt><trkpt lat="37.90213848979889" lon="15.136732539555775"><ele>330.2857142857143</ele><time>2026-04-06T12:47:49.999Z</time></trkpt><trkpt lat="37.9021403875278" lon="15.136815488725691"><ele>329.71428571428567</ele><time>2026-04-06T12:47:50.999Z</time></trkpt><trkpt lat="37.90214985080037" lon="15.136900670128945"><ele>329.1428571428571</ele><time>2026-04-06T12:47:51.999Z</time></trkpt><trkpt lat="37.90216997987285" lon="15.136991136463992"><ele>328.57142857142856</ele><time>2026-04-06T12:47:52.999Z</time></trkpt><trkpt lat="37.90219996593036" lon="15.137069325320262"><ele>328.0</ele><time>2026-04-06T12:47:53.999Z</time></trkpt><trkpt lat="37.9022461121989" lon="15.137129313890187"><ele>328.0</ele><time>2026-04-06T12:47:54.999Z</time></trkpt><trkpt lat="37.902346029859174" lon="15.13722125566609"><ele>328.0</ele><time>2026-04-06T12:47:56.999Z</time></trkpt><trkpt lat="37.902395723916825" lon="15.137274535861385"><ele>328.0</ele><time>2026-04-06T12:47:57.999Z</time></trkpt><trkpt lat="37.90244563816357" lon="15.137331599749025"><ele>328.0</ele><time>2026-04-06T12:47:58.999Z</time></trkpt><trkpt lat="37.90248796914871" lon="15.13740730489972"><ele>328.0</ele><time>2026-04-06T12:47:59.999Z</time></trkpt><trkpt lat="37.90249714172872" lon="15.137490860398964"><ele>328.0</ele><time>2026-04-06T12:48:00.999Z</time></trkpt><trkpt lat="37.90252552777001" lon="15.137567305468302"><ele>327.71428571428567</ele><time>2026-04-06T12:48:01.999Z</time></trkpt><trkpt lat="37.90255442716713" lon="15.13764727274202"><ele>327.42857142857144</ele><time>2026-04-06T12:48:02.999Z</time></trkpt><trkpt lat="37.9025803288305" lon="15.137724321409229"><ele>327.1428571428571</ele><time>2026-04-06T12:48:03.999Z</time></trkpt><trkpt lat="37.902596493058056" lon="15.137802219914763"><ele>326.85714285714283</ele><time>2026-04-06T12:48:04.999Z</time></trkpt><trkpt lat="37.902594610148114" lon="15.137885066152819"><ele>326.57142857142856</ele><time>2026-04-06T12:48:05.999Z</time></trkpt><trkpt lat="37.902592233323155" lon="15.137971617157055"><ele>326.2857142857143</ele><time>2026-04-06T12:48:06.999Z</time></trkpt><trkpt lat="37.90259519251214" lon="15.138058871600833"><ele>326.0</ele><time>2026-04-06T12:48:07.999Z</time></trkpt><trkpt lat="37.90260905192969" lon="15.13815309231556"><ele>325.33333333333337</ele><time>2026-04-06T12:48:08.999Z</time></trkpt><trkpt lat="37.90263595612668" lon="15.13824298379035"><ele>324.6666666666667</ele><time>2026-04-06T12:48:09.999Z</time></trkpt><trkpt lat="37.90268035742321" lon="15.138317772356368"><ele>324.0</ele><time>2026-04-06T12:48:10.999Z</time></trkpt><trkpt lat="37.90273578087508" lon="15.138395983058372"><ele>323.3333333333333</ele><time>2026-04-06T12:48:11.999Z</time></trkpt><trkpt lat="37.90277779097312" lon="15.13848859322709"><ele>322.66666666666663</ele><time>2026-04-06T12:48:12.999Z</time></trkpt><trkpt lat="37.902820668136116" lon="15.138581611210032"><ele>322.0</ele><time>2026-04-06T12:48:13.999Z</time></trkpt><trkpt lat="37.90287003843306" lon="15.138678103102048"><ele>322.0</ele><time>2026-04-06T12:48:14.999Z</time></trkpt><trkpt lat="37.902923163387605" lon="15.138773741515525"><ele>322.0</ele><time>2026-04-06T12:48:15.999Z</time></trkpt><trkpt lat="37.90297701563119" lon="15.138876041580987"><ele>322.0</ele><time>2026-04-06T12:48:16.999Z</time></trkpt><trkpt lat="37.903028129953256" lon="15.138976392971626"><ele>322.0</ele><time>2026-04-06T12:48:17.999Z</time></trkpt><trkpt lat="37.9030823922768" lon="15.139080038941175"><ele>322.0</ele><time>2026-04-06T12:48:18.999Z</time></trkpt><trkpt lat="37.90312999402154" lon="15.139182042357431"><ele>321.6</ele><time>2026-04-06T12:48:19.999Z</time></trkpt><trkpt lat="37.90317562320477" lon="15.139278415536843"><ele>321.20000000000005</ele><time>2026-04-06T12:48:20.999Z</time></trkpt><trkpt lat="37.90322107565336" lon="15.139361679657789"><ele>320.8</ele><time>2026-04-06T12:48:21.999Z</time></trkpt><trkpt lat="37.90326467089673" lon="15.139432482162583"><ele>320.4</ele><time>2026-04-06T12:48:22.999Z</time></trkpt><trkpt lat="37.90338392436149" lon="15.1395435129316"><ele>320.0</ele><time>2026-04-06T12:48:24.999Z</time></trkpt><trkpt lat="37.90344489437642" lon="15.139594099268082"><ele>319.85714285714283</ele><time>2026-04-06T12:48:25.999Z</time></trkpt><trkpt lat="37.90349003602649" lon="15.139652182810025"><ele>319.7142857142857</ele><time>2026-04-06T12:48:26.998Z</time></trkpt><trkpt lat="37.9035428449729" lon="15.13973372748694"><ele>319.57142857142856</ele><time>2026-04-06T12:48:27.998Z</time></trkpt><trkpt lat="37.903582897350404" lon="15.139812011585565"><ele>319.42857142857144</ele><time>2026-04-06T12:48:28.998Z</time></trkpt><trkpt lat="37.90362195496155" lon="15.139898958973998"><ele>319.2857142857143</ele><time>2026-04-06T12:48:29.998Z</time></trkpt><trkpt lat="37.90366269447747" lon="15.139979295516616"><ele>319.14285714285717</ele><time>2026-04-06T12:48:30.998Z</time></trkpt><trkpt lat="37.903702197902014" lon="15.140058610066806"><ele>319.0</ele><time>2026-04-06T12:48:31.998Z</time></trkpt><trkpt lat="37.903742405859234" lon="15.140139621171462"><ele>318.3333333333333</ele><time>2026-04-06T12:48:32.998Z</time></trkpt><trkpt lat="37.903782386379994" lon="15.140226073389359"><ele>317.66666666666663</ele><time>2026-04-06T12:48:33.998Z</time></trkpt><trkpt lat="37.90382089176941" lon="15.140318723212705"><ele>317.0</ele><time>2026-04-06T12:48:34.998Z</time></trkpt><trkpt lat="37.90385347184405" lon="15.140410774516862"><ele>316.3333333333333</ele><time>2026-04-06T12:48:35.998Z</time></trkpt><trkpt lat="37.90389746073054" lon="15.140489445295705"><ele>315.6666666666667</ele><time>2026-04-06T12:48:36.998Z</time></trkpt><trkpt lat="37.90393409835739" lon="15.14057204969899"><ele>315.0</ele><time>2026-04-06T12:48:37.998Z</time></trkpt><trkpt lat="37.90396866069493" lon="15.140657355345091"><ele>314.0</ele><time>2026-04-06T12:48:38.998Z</time></trkpt><trkpt lat="37.904005281152614" lon="15.140738896334488"><ele>313.0</ele><time>2026-04-06T12:48:39.998Z</time></trkpt><trkpt lat="37.904041149904" lon="15.140811052016256"><ele>312.0</ele><time>2026-04-06T12:48:40.998Z</time></trkpt><trkpt lat="37.90410064969006" lon="15.140942229126399"><ele>311.0</ele><time>2026-04-06T12:48:42.998Z</time></trkpt><trkpt lat="37.90414034914011" lon="15.14103128560926"><ele>310.0</ele><time>2026-04-06T12:48:44.998Z</time></trkpt><trkpt lat="37.90416137666209" lon="15.141110463700384"><ele>309.0</ele><time>2026-04-06T12:48:50.998Z</time></trkpt><trkpt lat="37.904284883659344" lon="15.140968520389265"><ele>309.00000000000006</ele><time>2026-04-06T12:48:53.998Z</time></trkpt><trkpt lat="37.90434146034594" lon="15.140924570024024"><ele>309.0</ele><time>2026-04-06T12:48:54.998Z</time></trkpt><trkpt lat="37.90439707480931" lon="15.140881961045638"><ele>309.0</ele><time>2026-04-06T12:48:55.998Z</time></trkpt><trkpt lat="37.90445477329183" lon="15.140837986699234"><ele>309.0</ele><time>2026-04-06T12:48:56.998Z</time></trkpt><trkpt lat="37.90452327526581" lon="15.140805804776004"><ele>309.0</ele><time>2026-04-06T12:48:57.998Z</time></trkpt><trkpt lat="37.90458486503298" lon="15.140750903631666"><ele>309.00000000000006</ele><time>2026-04-06T12:48:58.998Z</time></trkpt><trkpt lat="37.90464464229636" lon="15.140700330205963"><ele>309.0</ele><time>2026-04-06T12:48:59.998Z</time></trkpt><trkpt lat="37.90470507006268" lon="15.14064988198027"><ele>309.0</ele><time>2026-04-06T12:49:00.998Z</time></trkpt><trkpt lat="37.90475962208279" lon="15.1405985378008"><ele>309.0</ele><time>2026-04-06T12:49:01.998Z</time></trkpt><trkpt lat="37.904857923153216" lon="15.140525831988194"><ele>309.0</ele><time>2026-04-06T12:49:03.998Z</time></trkpt><trkpt lat="37.90493904138369" lon="15.140468602484114"><ele>309.0</ele><time>2026-04-06T12:49:05.999Z</time></trkpt><trkpt lat="37.90500871505914" lon="15.140465212596697"><ele>309.0</ele><time>2026-04-06T12:49:08.999Z</time></trkpt><trkpt lat="37.905060127917935" lon="15.140558674389327"><ele>309.0</ele><time>2026-04-06T12:49:10.999Z</time></trkpt><trkpt lat="37.90505124135071" lon="15.140656829652595"><ele>307.3333333333333</ele><time>2026-04-06T12:49:11.999Z</time></trkpt><trkpt lat="37.905084946718624" lon="15.140734646621148"><ele>305.6666666666667</ele><time>2026-04-06T12:49:12.999Z</time></trkpt><trkpt lat="37.90512154912589" lon="15.140818702073531"><ele>304.0</ele><time>2026-04-06T12:49:13.999Z</time></trkpt><trkpt lat="37.90516033421185" lon="15.140907769928187"><ele>302.33333333333337</ele><time>2026-04-06T12:49:14.999Z</time></trkpt><trkpt lat="37.90519650360946" lon="15.140997047828119"><ele>300.6666666666667</ele><time>2026-04-06T12:49:15.999Z</time></trkpt><trkpt lat="37.90523345158214" lon="15.141090706499952"><ele>299.0</ele><time>2026-04-06T12:49:16.999Z</time></trkpt><trkpt lat="37.90527230389557" lon="15.141182979674094"><ele>299.0</ele><time>2026-04-06T12:49:17.999Z</time></trkpt><trkpt lat="37.905312916558046" lon="15.141273147908953"><ele>299.0</ele><time>2026-04-06T12:49:18.999Z</time></trkpt><trkpt lat="37.90536176898419" lon="15.141358345436997"><ele>299.0</ele><time>2026-04-06T12:49:19.999Z</time></trkpt><trkpt lat="37.90541972470048" lon="15.141430626957039"><ele>299.0</ele><time>2026-04-06T12:49:20.999Z</time></trkpt><trkpt lat="37.90547168393199" lon="15.14149410289253"><ele>299.0</ele><time>2026-04-06T12:49:21.999Z</time></trkpt><trkpt lat="37.90552805723951" lon="15.141562676501449"><ele>299.0</ele><time>2026-04-06T12:49:22.999Z</time></trkpt><trkpt lat="37.905579101951524" lon="15.141624339719838"><ele>299.2857142857143</ele><time>2026-04-06T12:49:23.999Z</time></trkpt><trkpt lat="37.9056278243039" lon="15.141683095724577"><ele>299.57142857142856</ele><time>2026-04-06T12:49:24.999Z</time></trkpt><trkpt lat="37.905678412030696" lon="15.141744101255549"><ele>299.8571428571429</ele><time>2026-04-06T12:49:25.999Z</time></trkpt><trkpt lat="37.90572893374971" lon="15.14180542069948"><ele>300.1428571428571</ele><time>2026-04-06T12:49:26.999Z</time></trkpt><trkpt lat="37.905781520732496" lon="15.141866307780822"><ele>300.42857142857144</ele><time>2026-04-06T12:49:27.999Z</time></trkpt><trkpt lat="37.90583671179059" lon="15.141917672908814"><ele>300.7142857142857</ele><time>2026-04-06T12:49:28.999Z</time></trkpt><trkpt lat="37.90590628792769" lon="15.141944478707023"><ele>301.0</ele><time>2026-04-06T12:49:29.999Z</time></trkpt><trkpt lat="37.905965415243294" lon="15.141990663432248"><ele>299.8</ele><time>2026-04-06T12:49:30.999Z</time></trkpt><trkpt lat="37.906032338719385" lon="15.142024551858437"><ele>298.6</ele><time>2026-04-06T12:49:31.999Z</time></trkpt><trkpt lat="37.906098876831074" lon="15.142057417410141"><ele>297.4</ele><time>2026-04-06T12:49:32.999Z</time></trkpt><trkpt lat="37.906146900820104" lon="15.142118488062199"><ele>296.2</ele><time>2026-04-06T12:49:33.999Z</time></trkpt><trkpt lat="37.906241098338235" lon="15.142220273057147"><ele>295.0</ele><time>2026-04-06T12:49:35.999Z</time></trkpt><trkpt lat="37.906327461763404" lon="15.142315546123335"><ele>295.2</ele><time>2026-04-06T12:49:37.999Z</time></trkpt><trkpt lat="37.906415809951056" lon="15.142383503892404"><ele>295.4</ele><time>2026-04-06T12:49:39.999Z</time></trkpt><trkpt lat="37.90647590381358" lon="15.142456077991746"><ele>295.6</ele><time>2026-04-06T12:49:41.999Z</time></trkpt><trkpt lat="37.906563374106376" lon="15.142533121031486"><ele>295.8</ele><time>2026-04-06T12:49:43.999Z</time></trkpt><trkpt lat="37.90667457352832" lon="15.142607243865216"><ele>296.0</ele><time>2026-04-06T12:49:45.999Z</time></trkpt><trkpt lat="37.906743757414894" lon="15.142644025673313"><ele>296.83333333333337</ele><time>2026-04-06T12:49:46.999Z</time></trkpt><trkpt lat="37.906817536570315" lon="15.142686607942164"><ele>297.6666666666667</ele><time>2026-04-06T12:49:47.999Z</time></trkpt><trkpt lat="37.90689297607151" lon="15.142721278015872"><ele>298.5</ele><time>2026-04-06T12:49:48.999Z</time></trkpt><trkpt lat="37.90696743259517" lon="15.142760633263293"><ele>299.3333333333333</ele><time>2026-04-06T12:49:49.999Z</time></trkpt><trkpt lat="37.90704161480953" lon="15.142799399730727"><ele>300.16666666666663</ele><time>2026-04-06T12:49:50.999Z</time></trkpt><trkpt lat="37.90711002341131" lon="15.142836700540398"><ele>301.0</ele><time>2026-04-06T12:49:51.999Z</time></trkpt><trkpt lat="37.90717510435588" lon="15.142869512075485"><ele>301.0</ele><time>2026-04-06T12:49:52.999Z</time></trkpt><trkpt lat="37.907241922425214" lon="15.142900221789972"><ele>301.0</ele><time>2026-04-06T12:49:53.999Z</time></trkpt><trkpt lat="37.9073065861781" lon="15.142934739252675"><ele>301.0</ele><time>2026-04-06T12:49:54.999Z</time></trkpt><trkpt lat="37.907370469373" lon="15.142978093484405"><ele>301.0</ele><time>2026-04-06T12:49:55.999Z</time></trkpt><trkpt lat="37.907418173916604" lon="15.143053382825036"><ele>301.0</ele><time>2026-04-06T12:49:56.999Z</time></trkpt><trkpt lat="37.907453724726835" lon="15.143138243733713"><ele>301.0</ele><time>2026-04-06T12:49:57.999Z</time></trkpt><trkpt lat="37.90749431126074" lon="15.143224038097728"><ele>301.0</ele><time>2026-04-06T12:49:58.999Z</time></trkpt><trkpt lat="37.9075355393775" lon="15.143319316593919"><ele>301.3333333333333</ele><time>2026-04-06T12:49:59.999Z</time></trkpt><trkpt lat="37.90757738630117" lon="15.143417787210245"><ele>301.66666666666663</ele><time>2026-04-06T12:50:00.999Z</time></trkpt><trkpt lat="37.90761538789236" lon="15.143515579631309"><ele>302.0</ele><time>2026-04-06T12:50:01.999Z</time></trkpt><trkpt lat="37.907647541691226" lon="15.14360838572544"><ele>302.3333333333333</ele><time>2026-04-06T12:50:02.999Z</time></trkpt><trkpt lat="37.907693613026595" lon="15.143681510289873"><ele>302.6666666666667</ele><time>2026-04-06T12:50:03.999Z</time></trkpt><trkpt lat="37.90772699806345" lon="15.143816221915404"><ele>303.0</ele><time>2026-04-06T12:50:05.999Z</time></trkpt><trkpt lat="37.90770715268088" lon="15.143896205874576"><ele>303.0</ele><time>2026-04-06T12:50:07.999Z</time></trkpt><trkpt lat="37.90783467951751" lon="15.143823926889905"><ele>303.0</ele><time>2026-04-06T12:50:10.999Z</time></trkpt><trkpt lat="37.90795764512669" lon="15.143728988062486"><ele>303.0</ele><time>2026-04-06T12:50:12.999Z</time></trkpt><trkpt lat="37.908041229341016" lon="15.143664439174334"><ele>303.0</ele><time>2026-04-06T12:50:13.999Z</time></trkpt><trkpt lat="37.908126000104374" lon="15.143599295330631"><ele>303.0</ele><time>2026-04-06T12:50:14.999Z</time></trkpt><trkpt lat="37.90821667532402" lon="15.143531249131122"><ele>303.0</ele><time>2026-04-06T12:50:15.999Z</time></trkpt><trkpt lat="37.90831303708918" lon="15.143465423616048"><ele>303.0</ele><time>2026-04-06T12:50:16.999Z</time></trkpt><trkpt lat="37.90840577210856" lon="15.143397408600501"><ele>303.0</ele><time>2026-04-06T12:50:17.999Z</time></trkpt><trkpt lat="37.908497746742135" lon="15.14333042566762"><ele>303.0</ele><time>2026-04-06T12:50:18.999Z</time></trkpt><trkpt lat="37.9085910329122" lon="15.143260864688319"><ele>304.0</ele><time>2026-04-06T12:50:19.999Z</time></trkpt><trkpt lat="37.90869638434122" lon="15.143181815685358"><ele>305.0</ele><time>2026-04-06T12:50:20.999Z</time></trkpt><trkpt lat="37.908804245378505" lon="15.14310341813337"><ele>306.0</ele><time>2026-04-06T12:50:21.999Z</time></trkpt><trkpt lat="37.90891043087945" lon="15.143021991997168"><ele>307.0</ele><time>2026-04-06T12:50:22.999Z</time></trkpt><trkpt lat="37.90901781482418" lon="15.142944746504659"><ele>307.0</ele><time>2026-04-06T12:50:23.999Z</time></trkpt><trkpt lat="37.90912366956599" lon="15.142866494423503"><ele>307.0</ele><time>2026-04-06T12:50:24.999Z</time></trkpt><trkpt lat="37.90922458580521" lon="15.142788433279929"><ele>307.0</ele><time>2026-04-06T12:50:25.999Z</time></trkpt><trkpt lat="37.90932289600613" lon="15.142714598261607"><ele>307.0</ele><time>2026-04-06T12:50:26.999Z</time></trkpt><trkpt lat="37.90941634963195" lon="15.142643074652213"><ele>307.2</ele><time>2026-04-06T12:50:27.999Z</time></trkpt><trkpt lat="37.9095056184939" lon="15.142572724625545"><ele>307.4</ele><time>2026-04-06T12:50:28.999Z</time></trkpt><trkpt lat="37.909590308954066" lon="15.142503662433434"><ele>307.6</ele><time>2026-04-06T12:50:29.999Z</time></trkpt><trkpt lat="37.90967173332866" lon="15.142438883127888"><ele>307.8</ele><time>2026-04-06T12:50:30.999Z</time></trkpt><trkpt lat="37.90974946193001" lon="15.142376830803975"><ele>308.0</ele><time>2026-04-06T12:50:31.999Z</time></trkpt><trkpt lat="37.909814001244385" lon="15.142324921522683"><ele>310.33333333333337</ele><time>2026-04-06T12:50:32.999Z</time></trkpt><trkpt lat="37.909872597365656" lon="15.142282589639995"><ele>312.6666666666667</ele><time>2026-04-06T12:50:33.999Z</time></trkpt><trkpt lat="37.90994377779229" lon="15.142195361147396"><ele>315.0</ele><time>2026-04-06T12:50:35.999Z</time></trkpt><trkpt lat="37.91004348385937" lon="15.142209048630205"><ele>317.3333333333333</ele><time>2026-04-06T12:50:37.998Z</time></trkpt><trkpt lat="37.91011524477318" lon="15.142247343989741"><ele>319.66666666666663</ele><time>2026-04-06T12:50:39.998Z</time></trkpt><trkpt lat="37.910202389896625" lon="15.142260983752216"><ele>322.0</ele><time>2026-04-06T12:50:41.998Z</time></trkpt><trkpt lat="37.9102717030617" lon="15.142284597683288"><ele>322.0</ele><time>2026-04-06T12:50:43.998Z</time></trkpt><trkpt lat="37.91034852950088" lon="15.14229137512189"><ele>322.0</ele><time>2026-04-06T12:50:45.998Z</time></trkpt><trkpt lat="37.91041396667559" lon="15.142276816087074"><ele>322.0</ele><time>2026-04-06T12:50:47.998Z</time></trkpt><trkpt lat="37.91049347891474" lon="15.142245776350236"><ele>322.0</ele><time>2026-04-06T12:50:50.998Z</time></trkpt><trkpt lat="37.91055630956629" lon="15.142230148811738"><ele>322.0</ele><time>2026-04-06T12:50:52.998Z</time></trkpt><trkpt lat="37.91063244397825" lon="15.142236892086405"><ele>322.0</ele><time>2026-04-06T12:51:01.998Z</time></trkpt><trkpt lat="37.91069534471983" lon="15.14228474198807"><ele>322.0</ele><time>2026-04-06T12:51:04.998Z</time></trkpt><trkpt lat="37.910734599189276" lon="15.142373538610768"><ele>320.3333333333333</ele><time>2026-04-06T12:51:07.998Z</time></trkpt><trkpt lat="37.91078238086036" lon="15.142455074828588"><ele>318.66666666666663</ele><time>2026-04-06T12:51:10.999Z</time></trkpt><trkpt lat="37.910832112978916" lon="15.142533726184809"><ele>317.0</ele><time>2026-04-06T12:51:13.999Z</time></trkpt><trkpt lat="37.91089161410772" lon="15.14261948280567"><ele>315.3333333333333</ele><time>2026-04-06T12:51:16.999Z</time></trkpt><trkpt lat="37.91096143727818" lon="15.142741785424505"><ele>313.6666666666667</ele><time>2026-04-06T12:51:19.999Z</time></trkpt><trkpt lat="37.91102320162721" lon="15.142804968104413"><ele>312.0</ele><time>2026-04-06T12:51:21.999Z</time></trkpt><trkpt lat="37.91108343518954" lon="15.142863235248848"><ele>312.0</ele><time>2026-04-06T12:51:23.999Z</time></trkpt><trkpt lat="37.911140019253445" lon="15.142930046694172"><ele>312.0</ele><time>2026-04-06T12:51:26.999Z</time></trkpt><trkpt lat="37.91120035027834" lon="15.142999085615243"><ele>312.0</ele><time>2026-04-06T12:51:28.999Z</time></trkpt><trkpt lat="37.9112588074178" lon="15.143059113240724"><ele>312.0</ele><time>2026-04-06T12:51:31.999Z</time></trkpt><trkpt lat="37.91165195677915" lon="15.142659882323283"><ele>312.0</ele><time>2026-04-06T12:51:40.999Z</time></trkpt><trkpt lat="37.91172545527069" lon="15.142637345523054"><ele>312.0</ele><time>2026-04-06T12:51:42.999Z</time></trkpt><trkpt lat="37.911798203795385" lon="15.142615618149158"><ele>312.0</ele><time>2026-04-06T12:51:44.999Z</time></trkpt><trkpt lat="37.911869074436204" lon="15.142610347307413"><ele>312.0</ele><time>2026-04-06T12:51:46.999Z</time></trkpt><trkpt lat="37.91195266813234" lon="15.14264826870386"><ele>312.0</ele><time>2026-04-06T12:51:49.999Z</time></trkpt><trkpt lat="37.91189028219838" lon="15.142624555098235"><ele>312.0</ele><time>2026-04-06T12:53:01.998Z</time></trkpt><trkpt lat="37.911932480721454" lon="15.142563817388222"><ele>312.0</ele><time>2026-04-06T12:53:13.998Z</time></trkpt><trkpt lat="37.91200460516108" lon="15.142519217576318"><ele>312.8333333333333</ele><time>2026-04-06T12:53:26Z</time></trkpt><trkpt lat="37.91205846689453" lon="15.14246853938185"><ele>313.6666666666667</ele><time>2026-04-06T12:53:29Z</time></trkpt><trkpt lat="37.91213500813014" lon="15.142411790618892"><ele>314.5</ele><time>2026-04-06T12:53:33Z</time></trkpt><trkpt lat="37.91220194948531" lon="15.14236228595656"><ele>315.33333333333337</ele><time>2026-04-06T12:53:36Z</time></trkpt><trkpt lat="37.91227079687247" lon="15.142317429330065"><ele>316.1666666666667</ele><time>2026-04-06T12:53:39Z</time></trkpt><trkpt lat="37.91235379845263" lon="15.142315833745757"><ele>317.0</ele><time>2026-04-06T12:53:43Z</time></trkpt><trkpt lat="37.91242305245621" lon="15.14232794177484"><ele>317.6666666666667</ele><time>2026-04-06T12:53:47Z</time></trkpt><trkpt lat="37.91249731622462" lon="15.14230512024179"><ele>318.33333333333337</ele><time>2026-04-06T12:53:50.999Z</time></trkpt><trkpt lat="37.912572718817934" lon="15.14227330370295"><ele>319.0</ele><time>2026-04-06T12:53:54.999Z</time></trkpt><trkpt lat="37.912639383096916" lon="15.142259475231283"><ele>319.6666666666667</ele><time>2026-04-06T12:53:57.999Z</time></trkpt><trkpt lat="37.91270619926277" lon="15.142214155784131"><ele>320.3333333333333</ele><time>2026-04-06T12:54:00.999Z</time></trkpt><trkpt lat="37.91277284559455" lon="15.142165820357398"><ele>321.0</ele><time>2026-04-06T12:54:03.999Z</time></trkpt><trkpt lat="37.91283917365572" lon="15.142098122674517"><ele>321.0</ele><time>2026-04-06T12:54:06.999Z</time></trkpt><trkpt lat="37.91292561160678" lon="15.14207819935107"><ele>321.0</ele><time>2026-04-06T12:54:09.999Z</time></trkpt><trkpt lat="37.912997234473" lon="15.142074956076836"><ele>321.0</ele><time>2026-04-06T12:54:12.999Z</time></trkpt><trkpt lat="37.913067757599244" lon="15.142044059247175"><ele>321.0</ele><time>2026-04-06T12:54:15.999Z</time></trkpt><trkpt lat="37.9131431390834" lon="15.142021572313034"><ele>321.0</ele><time>2026-04-06T12:54:18.999Z</time></trkpt><trkpt lat="37.913207734353826" lon="15.14200057353742"><ele>321.0</ele><time>2026-04-06T12:54:22.999Z</time></trkpt><trkpt lat="37.91328073438148" lon="15.14195504365519"><ele>320.99999999999994</ele><time>2026-04-06T12:54:26.999Z</time></trkpt><trkpt lat="37.913350529977926" lon="15.141928159147536"><ele>321.0</ele><time>2026-04-06T12:54:30.999Z</time></trkpt><trkpt lat="37.913399190972534" lon="15.141872555110517"><ele>321.0</ele><time>2026-04-06T12:54:38.999Z</time></trkpt><trkpt lat="37.91345319902753" lon="15.141802126034454"><ele>321.0</ele><time>2026-04-06T12:54:42.999Z</time></trkpt><trkpt lat="37.91352593964825" lon="15.141758514851118"><ele>321.0</ele><time>2026-04-06T12:54:46.999Z</time></trkpt><trkpt lat="37.913587418495695" lon="15.141736959464225"><ele>320.99999999999994</ele><time>2026-04-06T12:54:49.999Z</time></trkpt><trkpt lat="37.913653657588256" lon="15.141728645780132"><ele>321.0</ele><time>2026-04-06T12:54:53.999Z</time></trkpt><trkpt lat="37.91371888395877" lon="15.141757956156733"><ele>320.99999999999994</ele><time>2026-04-06T12:55:07.999Z</time></trkpt><trkpt lat="37.91369810521898" lon="15.141842937921696"><ele>321.0</ele><time>2026-04-06T12:55:11.999Z</time></trkpt><trkpt lat="37.91364430505633" lon="15.141892342389202"><ele>321.0</ele><time>2026-04-06T12:55:14.999Z</time></trkpt><trkpt lat="37.91358413929456" lon="15.141925502518921"><ele>321.0</ele><time>2026-04-06T12:55:17.999Z</time></trkpt><trkpt lat="37.913527243787506" lon="15.141960432108558"><ele>321.0</ele><time>2026-04-06T12:55:20.999Z</time></trkpt><trkpt lat="37.91347035663824" lon="15.142002704956226"><ele>320.99999999999994</ele><time>2026-04-06T12:55:23.999Z</time></trkpt><trkpt lat="37.9134171529785" lon="15.142066619206302"><ele>321.0</ele><time>2026-04-06T12:55:27.999Z</time></trkpt><trkpt lat="37.913349380812235" lon="15.142119724769936"><ele>320.99999999999994</ele><time>2026-04-06T12:55:31.999Z</time></trkpt><trkpt lat="37.91327103332017" lon="15.14214499079791"><ele>321.0</ele><time>2026-04-06T12:55:35.999Z</time></trkpt><trkpt lat="37.91322569864609" lon="15.142216551766667"><ele>321.0</ele><time>2026-04-06T12:55:40Z</time></trkpt><trkpt lat="37.91316416453176" lon="15.142265111233007"><ele>321.0</ele><time>2026-04-06T12:55:44Z</time></trkpt><trkpt lat="37.91308457846939" lon="15.142266069299014"><ele>321.0</ele><time>2026-04-06T12:55:47Z</time></trkpt><trkpt lat="37.913036512354864" lon="15.142200319590401"><ele>320.99999999999994</ele><time>2026-04-06T12:55:50.999Z</time></trkpt><trkpt lat="37.91306415425635" lon="15.142119394230628"><ele>321.0</ele><time>2026-04-06T12:55:54.999Z</time></trkpt><trkpt lat="37.9130114231162" lon="15.142051134095919"><ele>320.99999999999994</ele><time>2026-04-06T12:55:59.999Z</time></trkpt><trkpt lat="37.91293413139249" lon="15.142079312783217"><ele>321.0</ele><time>2026-04-06T12:56:03.999Z</time></trkpt><trkpt lat="37.91286853006213" lon="15.142085109460456"><ele>321.0</ele><time>2026-04-06T12:56:06.999Z</time></trkpt><trkpt lat="37.91280309637816" lon="15.142100635187505"><ele>321.0</ele><time>2026-04-06T12:56:09.999Z</time></trkpt><trkpt lat="37.91273968432019" lon="15.142163000516776"><ele>321.0</ele><time>2026-04-06T12:56:12.999Z</time></trkpt><trkpt lat="37.91267265260536" lon="15.142207671957411"><ele>320.99999999999994</ele><time>2026-04-06T12:56:15.999Z</time></trkpt><trkpt lat="37.912603987836725" lon="15.14223918925781"><ele>321.0</ele><time>2026-04-06T12:56:18.999Z</time></trkpt><trkpt lat="37.912532472482354" lon="15.142270097113478"><ele>320.99999999999994</ele><time>2026-04-06T12:56:22.999Z</time></trkpt><trkpt lat="37.91246876157083" lon="15.14230189816985"><ele>321.0</ele><time>2026-04-06T12:56:26.999Z</time></trkpt><trkpt lat="37.91239726971475" lon="15.14232406074739"><ele>321.0</ele><time>2026-04-06T12:56:30.999Z</time></trkpt><trkpt lat="37.91232844793568" lon="15.14231493485272"><ele>321.0</ele><time>2026-04-06T12:56:34.999Z</time></trkpt><trkpt lat="37.91225348015338" lon="15.142325403401275"><ele>321.0</ele><time>2026-04-06T12:56:38.999Z</time></trkpt><trkpt lat="37.91217819594845" lon="15.142347340639663"><ele>320.99999999999994</ele><time>2026-04-06T12:56:42.999Z</time></trkpt><trkpt lat="37.912119632593885" lon="15.142389848245454"><ele>321.0</ele><time>2026-04-06T12:56:45.999Z</time></trkpt><trkpt lat="37.912061859399444" lon="15.142444312450065"><ele>320.4285714285714</ele><time>2026-04-06T12:56:48.999Z</time></trkpt><trkpt lat="37.912001124542876" lon="15.142485147939151"><ele>319.85714285714283</ele><time>2026-04-06T12:56:51.999Z</time></trkpt><trkpt lat="37.91193747729857" lon="15.142531862659137"><ele>319.2857142857143</ele><time>2026-04-06T12:56:54.999Z</time></trkpt><trkpt lat="37.911874276015844" lon="15.142567678553073"><ele>318.71428571428567</ele><time>2026-04-06T12:56:57.999Z</time></trkpt><trkpt lat="37.91181330677533" lon="15.142601815308439"><ele>318.1428571428571</ele><time>2026-04-06T12:57:00.999Z</time></trkpt><trkpt lat="37.91172901114688" lon="15.14261760037017"><ele>317.57142857142856</ele><time>2026-04-06T12:57:03.999Z</time></trkpt><trkpt lat="37.9116587765049" lon="15.142639867470846"><ele>317.0</ele><time>2026-04-06T12:57:05.999Z</time></trkpt><trkpt lat="37.91157865075879" lon="15.14264544286192"><ele>316.1666666666667</ele><time>2026-04-06T12:57:07.999Z</time></trkpt><trkpt lat="37.91149362306137" lon="15.1426271644714"><ele>315.33333333333337</ele><time>2026-04-06T12:57:09.999Z</time></trkpt><trkpt lat="37.91141915382705" lon="15.142606121100084"><ele>314.5</ele><time>2026-04-06T12:57:11.999Z</time></trkpt><trkpt lat="37.91135016428617" lon="15.142596952503494"><ele>313.6666666666667</ele><time>2026-04-06T12:57:13.999Z</time></trkpt><trkpt lat="37.91126294332062" lon="15.142588200223663"><ele>312.8333333333333</ele><time>2026-04-06T12:57:16.999Z</time></trkpt><trkpt lat="37.911173728997404" lon="15.142562859058456"><ele>312.0</ele><time>2026-04-06T12:57:19.999Z</time></trkpt><trkpt lat="37.911091180950365" lon="15.142531795657773"><ele>312.0</ele><time>2026-04-06T12:57:22.999Z</time></trkpt><trkpt lat="37.91100238683287" lon="15.142491338933235"><ele>312.0</ele><time>2026-04-06T12:57:25.999Z</time></trkpt><trkpt lat="37.910927844298634" lon="15.142461148682772"><ele>312.0</ele><time>2026-04-06T12:57:29Z</time></trkpt><trkpt lat="37.91086632246863" lon="15.142417112167063"><ele>312.0</ele><time>2026-04-06T12:57:31.999Z</time></trkpt><trkpt lat="37.91079891815965" lon="15.142383672536136"><ele>312.0</ele><time>2026-04-06T12:57:35Z</time></trkpt><trkpt lat="37.910741297990306" lon="15.142339880250134"><ele>312.0</ele><time>2026-04-06T12:57:38Z</time></trkpt><trkpt lat="37.910689513431414" lon="15.142284375079797"><ele>313.6666666666667</ele><time>2026-04-06T12:57:41Z</time></trkpt><trkpt lat="37.91062698335882" lon="15.142247434385563"><ele>315.3333333333333</ele><time>2026-04-06T12:57:44Z</time></trkpt><trkpt lat="37.910555964639045" lon="15.142241538051634"><ele>317.0</ele><time>2026-04-06T12:57:47Z</time></trkpt><trkpt lat="37.91048316177382" lon="15.142253950077912"><ele>318.66666666666663</ele><time>2026-04-06T12:57:49Z</time></trkpt><trkpt lat="37.910404740967465" lon="15.142270190121689"><ele>320.3333333333333</ele><time>2026-04-06T12:57:51Z</time></trkpt><trkpt lat="37.91031855076322" lon="15.142261143015425"><ele>322.0</ele><time>2026-04-06T12:57:53Z</time></trkpt><trkpt lat="37.910207234073965" lon="15.142252959565907"><ele>322.0</ele><time>2026-04-06T12:57:55Z</time></trkpt><trkpt lat="37.91010648664507" lon="15.142217537770485"><ele>322.0</ele><time>2026-04-06T12:57:57Z</time></trkpt><trkpt lat="37.91002998805625" lon="15.14219001968305"><ele>322.0</ele><time>2026-04-06T12:57:59Z</time></trkpt><trkpt lat="37.90994723511207" lon="15.142182828459417"><ele>322.0</ele><time>2026-04-06T12:58:48.999Z</time></trkpt><trkpt lat="37.909862162423686" lon="15.142240996926107"><ele>322.0</ele><time>2026-04-06T12:58:50.999Z</time></trkpt><trkpt lat="37.90979909140187" lon="15.142289233846897"><ele>322.0</ele><time>2026-04-06T12:58:51.999Z</time></trkpt><trkpt lat="37.90972536564133" lon="15.142340659616854"><ele>319.66666666666663</ele><time>2026-04-06T12:58:52.999Z</time></trkpt><trkpt lat="37.90964958225087" lon="15.142396283956955"><ele>317.3333333333333</ele><time>2026-04-06T12:58:53.999Z</time></trkpt><trkpt lat="37.90957630555425" lon="15.142451420891064"><ele>315.0</ele><time>2026-04-06T12:58:54.999Z</time></trkpt><trkpt lat="37.90950659402972" lon="15.142505879239684"><ele>312.6666666666667</ele><time>2026-04-06T12:58:55.999Z</time></trkpt><trkpt lat="37.90944020560495" lon="15.1425581257657"><ele>310.33333333333337</ele><time>2026-04-06T12:58:56.999Z</time></trkpt><trkpt lat="37.90938257047141" lon="15.142604944492437"><ele>308.0</ele><time>2026-04-06T12:58:57.999Z</time></trkpt><trkpt lat="37.9092816639816" lon="15.142682969057647"><ele>307.83333333333337</ele><time>2026-04-06T12:58:59.999Z</time></trkpt><trkpt lat="37.90922312684428" lon="15.14273353166309"><ele>307.6666666666667</ele><time>2026-04-06T12:59:00.999Z</time></trkpt><trkpt lat="37.90915510554393" lon="15.142785830815198"><ele>307.5</ele><time>2026-04-06T12:59:01.999Z</time></trkpt><trkpt lat="37.90908404539928" lon="15.142845909446113"><ele>307.3333333333333</ele><time>2026-04-06T12:59:02.999Z</time></trkpt><trkpt lat="37.9090054396233" lon="15.142912128082896"><ele>307.16666666666663</ele><time>2026-04-06T12:59:03.999Z</time></trkpt><trkpt lat="37.908919637073815" lon="15.142983032907884"><ele>307.0</ele><time>2026-04-06T12:59:04.999Z</time></trkpt><trkpt lat="37.9088250989816" lon="15.143054959904907"><ele>307.0</ele><time>2026-04-06T12:59:05.999Z</time></trkpt><trkpt lat="37.90872472189113" lon="15.143127672889984"><ele>307.0</ele><time>2026-04-06T12:59:06.999Z</time></trkpt><trkpt lat="37.90860456758851" lon="15.143169157846947"><ele>307.0</ele><time>2026-04-06T12:59:07.999Z</time></trkpt><trkpt lat="37.90849965623981" lon="15.143248133199881"><ele>307.0</ele><time>2026-04-06T12:59:08.999Z</time></trkpt><trkpt lat="37.90840429570976" lon="15.143319918870189"><ele>306.2</ele><time>2026-04-06T12:59:09.999Z</time></trkpt><trkpt lat="37.908314766231" lon="15.143387315000249"><ele>305.4</ele><time>2026-04-06T12:59:10.999Z</time></trkpt><trkpt lat="37.908230348821824" lon="15.143450261084816"><ele>304.6</ele><time>2026-04-06T12:59:11.999Z</time></trkpt><trkpt lat="37.90815151857731" lon="15.14350918992157"><ele>303.8</ele><time>2026-04-06T12:59:12.999Z</time></trkpt><trkpt lat="37.908078940996404" lon="15.143563444635673"><ele>303.0</ele><time>2026-04-06T12:59:13.999Z</time></trkpt><trkpt lat="37.90801206783618" lon="15.143613435062912"><ele>303.0</ele><time>2026-04-06T12:59:14.999Z</time></trkpt><trkpt lat="37.90795646648539" lon="15.143656391792142"><ele>303.0</ele><time>2026-04-06T12:59:15.999Z</time></trkpt><trkpt lat="37.90787586731734" lon="15.143718755294701"><ele>303.0</ele><time>2026-04-06T12:59:17.999Z</time></trkpt><trkpt lat="37.90780918299849" lon="15.14378851910486"><ele>303.0</ele><time>2026-04-06T13:00:20Z</time></trkpt><trkpt lat="37.9077392705134" lon="15.143849063321447"><ele>303.0</ele><time>2026-04-06T13:00:23Z</time></trkpt><trkpt lat="37.90771187027672" lon="15.143994612685391"><ele>303.0</ele><time>2026-04-06T13:00:25Z</time></trkpt><trkpt lat="37.90769748623109" lon="15.144104531630568"><ele>302.6</ele><time>2026-04-06T13:00:26Z</time></trkpt><trkpt lat="37.9076812403189" lon="15.144233127648208"><ele>302.20000000000005</ele><time>2026-04-06T13:00:27Z</time></trkpt><trkpt lat="37.90765671422176" lon="15.144340253788704"><ele>301.8</ele><time>2026-04-06T13:00:28Z</time></trkpt><trkpt lat="37.90761468672106" lon="15.144439677393876"><ele>301.40000000000003</ele><time>2026-04-06T13:00:29Z</time></trkpt><trkpt lat="37.90755634259228" lon="15.144524918204569"><ele>301.0</ele><time>2026-04-06T13:00:30Z</time></trkpt><trkpt lat="37.90750074684019" lon="15.144599527570419"><ele>300.5</ele><time>2026-04-06T13:00:31Z</time></trkpt><trkpt lat="37.90744343451695" lon="15.144668776760367"><ele>300.0</ele><time>2026-04-06T13:00:32Z</time></trkpt><trkpt lat="37.907376942318486" lon="15.144733614960291"><ele>299.5</ele><time>2026-04-06T13:00:33Z</time></trkpt><trkpt lat="37.90730316238028" lon="15.144796846702393"><ele>299.0</ele><time>2026-04-06T13:00:34Z</time></trkpt><trkpt lat="37.90722407231027" lon="15.144852684564434"><ele>298.5</ele><time>2026-04-06T13:00:35Z</time></trkpt><trkpt lat="37.9071398852791" lon="15.144873656607894"><ele>298.0</ele><time>2026-04-06T13:00:36Z</time></trkpt><trkpt lat="37.90706091797775" lon="15.144892229264158"><ele>298.0</ele><time>2026-04-06T13:00:37Z</time></trkpt><trkpt lat="37.906981490369695" lon="15.144910308850331"><ele>298.0</ele><time>2026-04-06T13:00:38Z</time></trkpt><trkpt lat="37.90690329433353" lon="15.144928108101672"><ele>298.0</ele><time>2026-04-06T13:00:39Z</time></trkpt><trkpt lat="37.906828325716205" lon="15.14494536610865"><ele>298.0</ele><time>2026-04-06T13:00:40Z</time></trkpt><trkpt lat="37.90675370405693" lon="15.144963958568555"><ele>298.0</ele><time>2026-04-06T13:00:41Z</time></trkpt><trkpt lat="37.90668313866588" lon="15.144981540383345"><ele>298.0</ele><time>2026-04-06T13:00:42Z</time></trkpt><trkpt lat="37.906616415407996" lon="15.145018287105984"><ele>298.1428571428571</ele><time>2026-04-06T13:00:43Z</time></trkpt><trkpt lat="37.906544844809616" lon="15.145025615404473"><ele>298.2857142857143</ele><time>2026-04-06T13:00:43.999Z</time></trkpt><trkpt lat="37.9064794223966" lon="15.145042783197809"><ele>298.42857142857144</ele><time>2026-04-06T13:00:44.999Z</time></trkpt><trkpt lat="37.90641466748188" lon="15.145058055081586"><ele>298.57142857142856</ele><time>2026-04-06T13:00:45.999Z</time></trkpt><trkpt lat="37.906348495351594" lon="15.145070678407055"><ele>298.7142857142857</ele><time>2026-04-06T13:00:46.999Z</time></trkpt><trkpt lat="37.90628225115096" lon="15.145082527962115"><ele>298.85714285714283</ele><time>2026-04-06T13:00:47.999Z</time></trkpt><trkpt lat="37.90621181895185" lon="15.145095099906683"><ele>299.0</ele><time>2026-04-06T13:00:48.999Z</time></trkpt><trkpt lat="37.90613603032927" lon="15.145112777868937"><ele>299.0</ele><time>2026-04-06T13:00:49.999Z</time></trkpt><trkpt lat="37.90605685705945" lon="15.145137904573648"><ele>299.0</ele><time>2026-04-06T13:00:50.999Z</time></trkpt><trkpt lat="37.905974900059206" lon="15.145154067758197"><ele>299.0</ele><time>2026-04-06T13:00:51.999Z</time></trkpt><trkpt lat="37.905892207915755" lon="15.145160881975137"><ele>299.0</ele><time>2026-04-06T13:00:52.999Z</time></trkpt><trkpt lat="37.90581392209929" lon="15.145160361796425"><ele>299.0</ele><time>2026-04-06T13:00:53.999Z</time></trkpt><trkpt lat="37.90574502690434" lon="15.1451458064636"><ele>299.0</ele><time>2026-04-06T13:00:54.999Z</time></trkpt><trkpt lat="37.90567739505397" lon="15.145117711074562"><ele>298.6666666666667</ele><time>2026-04-06T13:00:55.999Z</time></trkpt><trkpt lat="37.90560552012808" lon="15.14507265016419"><ele>298.33333333333337</ele><time>2026-04-06T13:00:56.999Z</time></trkpt><trkpt lat="37.905539821749265" lon="15.144999162408434"><ele>298.0</ele><time>2026-04-06T13:00:57.999Z</time></trkpt><trkpt lat="37.90546045249643" lon="15.144950408515392"><ele>297.6666666666667</ele><time>2026-04-06T13:00:58.999Z</time></trkpt><trkpt lat="37.90538772920031" lon="15.144884188442896"><ele>297.3333333333333</ele><time>2026-04-06T13:00:59.999Z</time></trkpt><trkpt lat="37.90531157325419" lon="15.144811431911432"><ele>297.0</ele><time>2026-04-06T13:01:00.999Z</time></trkpt><trkpt lat="37.90524057511456" lon="15.144744901158976"><ele>297.8</ele><time>2026-04-06T13:01:01.999Z</time></trkpt><trkpt lat="37.90517856630656" lon="15.144681618828681"><ele>298.6</ele><time>2026-04-06T13:01:02.999Z</time></trkpt><trkpt lat="37.90512411189763" lon="15.144635801664425"><ele>299.40000000000003</ele><time>2026-04-06T13:01:03.999Z</time></trkpt><trkpt lat="37.905027814581494" lon="15.144562373758896"><ele>300.2</ele><time>2026-04-06T13:01:05.999Z</time></trkpt><trkpt lat="37.90494144922931" lon="15.144512874892886"><ele>301.0</ele><time>2026-04-06T13:01:07.999Z</time></trkpt><trkpt lat="37.90483729214332" lon="15.144502567233271"><ele>299.16666666666663</ele><time>2026-04-06T13:01:09.999Z</time></trkpt><trkpt lat="37.90477907389276" lon="15.144545840502964"><ele>297.3333333333333</ele><time>2026-04-06T13:01:10.999Z</time></trkpt><trkpt lat="37.904726959175186" lon="15.144613521406947"><ele>295.5</ele><time>2026-04-06T13:01:11.999Z</time></trkpt><trkpt lat="37.90467549845481" lon="15.144697332718057"><ele>293.6666666666667</ele><time>2026-04-06T13:01:12.999Z</time></trkpt><trkpt lat="37.90462136820267" lon="15.144789740989442"><ele>291.83333333333337</ele><time>2026-04-06T13:01:13.999Z</time></trkpt><trkpt lat="37.90456862036258" lon="15.144886161738407"><ele>290.0</ele><time>2026-04-06T13:01:14.999Z</time></trkpt><trkpt lat="37.904519076588166" lon="15.144979712899232"><ele>289.33333333333337</ele><time>2026-04-06T13:01:15.999Z</time></trkpt><trkpt lat="37.904475164303996" lon="15.145070227285215"><ele>288.6666666666667</ele><time>2026-04-06T13:01:16.999Z</time></trkpt><trkpt lat="37.90444724714699" lon="15.145162950895418"><ele>288.0</ele><time>2026-04-06T13:01:17.999Z</time></trkpt><trkpt lat="37.90439941985979" lon="15.145230069776938"><ele>287.3333333333333</ele><time>2026-04-06T13:01:18.999Z</time></trkpt><trkpt lat="37.904340791734775" lon="15.14527697847602"><ele>286.66666666666663</ele><time>2026-04-06T13:01:19.999Z</time></trkpt><trkpt lat="37.904264298549464" lon="15.145297474870679"><ele>286.0</ele><time>2026-04-06T13:01:20.999Z</time></trkpt><trkpt lat="37.904171679943715" lon="15.145334995262408"><ele>285.5</ele><time>2026-04-06T13:01:21.999Z</time></trkpt><trkpt lat="37.90406988891411" lon="15.14537623146112"><ele>285.0</ele><time>2026-04-06T13:01:22.999Z</time></trkpt><trkpt lat="37.903958578743655" lon="15.145421500404348"><ele>284.5</ele><time>2026-04-06T13:01:23.999Z</time></trkpt><trkpt lat="37.90384167563503" lon="15.145470027467603"><ele>284.0</ele><time>2026-04-06T13:01:24.999Z</time></trkpt><trkpt lat="37.90372448858786" lon="15.145525794029801"><ele>284.0</ele><time>2026-04-06T13:01:25.999Z</time></trkpt><trkpt lat="37.90360636201997" lon="15.145587900776585"><ele>284.0</ele><time>2026-04-06T13:01:26.999Z</time></trkpt><trkpt lat="37.903492216805596" lon="15.145658000376478"><ele>284.0</ele><time>2026-04-06T13:01:27.999Z</time></trkpt><trkpt lat="37.90337911343775" lon="15.14573548253625"><ele>284.0</ele><time>2026-04-06T13:01:28.999Z</time></trkpt><trkpt lat="37.903269847736546" lon="15.145821679005959"><ele>282.75</ele><time>2026-04-06T13:01:29.999Z</time></trkpt><trkpt lat="37.90317204532547" lon="15.145930720104397"><ele>281.5</ele><time>2026-04-06T13:01:30.999Z</time></trkpt><trkpt lat="37.90305805142144" lon="15.14601261448543"><ele>280.25</ele><time>2026-04-06T13:01:31.999Z</time></trkpt><trkpt lat="37.90295354028242" lon="15.146111668702893"><ele>279.0</ele><time>2026-04-06T13:01:32.999Z</time></trkpt><trkpt lat="37.90284528755192" lon="15.146214269162122"><ele>279.0</ele><time>2026-04-06T13:01:33.999Z</time></trkpt><trkpt lat="37.9027494835534" lon="15.146305070903864"><ele>279.0</ele><time>2026-04-06T13:01:34.999Z</time></trkpt><trkpt lat="37.902650623740925" lon="15.146398768866378"><ele>279.0</ele><time>2026-04-06T13:01:35.999Z</time></trkpt><trkpt lat="37.902551132562394" lon="15.146491780273136"><ele>279.0</ele><time>2026-04-06T13:01:36.999Z</time></trkpt><trkpt lat="37.902451774712084" lon="15.146584137300561"><ele>278.75</ele><time>2026-04-06T13:01:37.999Z</time></trkpt><trkpt lat="37.90235120942239" lon="15.14667761676065"><ele>278.5</ele><time>2026-04-06T13:01:38.999Z</time></trkpt><trkpt lat="37.902249092646976" lon="15.146770081582089"><ele>278.25</ele><time>2026-04-06T13:01:39.999Z</time></trkpt><trkpt lat="37.902146224985835" lon="15.146863490162474"><ele>278.0</ele><time>2026-04-06T13:01:41Z</time></trkpt><trkpt lat="37.90204407464494" lon="15.146956577524792"><ele>278.0</ele><time>2026-04-06T13:01:42Z</time></trkpt><trkpt lat="37.901935120682445" lon="15.14705802274824"><ele>278.0</ele><time>2026-04-06T13:01:43Z</time></trkpt><trkpt lat="37.90182099075943" lon="15.147168195333812"><ele>278.0</ele><time>2026-04-06T13:01:44Z</time></trkpt><trkpt lat="37.901702929441605" lon="15.147288942319484"><ele>278.0</ele><time>2026-04-06T13:01:45Z</time></trkpt><trkpt lat="37.90159477761472" lon="15.147409055028355"><ele>277.0</ele><time>2026-04-06T13:01:46Z</time></trkpt><trkpt lat="37.90149974549215" lon="15.14753790352946"><ele>276.0</ele><time>2026-04-06T13:01:47Z</time></trkpt><trkpt lat="37.901410576303114" lon="15.147664545585604"><ele>275.0</ele><time>2026-04-06T13:01:48Z</time></trkpt><trkpt lat="37.90132774826808" lon="15.147790721070338"><ele>274.0</ele><time>2026-04-06T13:01:49Z</time></trkpt><trkpt lat="37.901248843597855" lon="15.147918644114132"><ele>274.0</ele><time>2026-04-06T13:01:50Z</time></trkpt><trkpt lat="37.90117498040797" lon="15.148055321266275"><ele>274.0</ele><time>2026-04-06T13:01:51Z</time></trkpt><trkpt lat="37.90111220593786" lon="15.14819169833307"><ele>274.0</ele><time>2026-04-06T13:01:52Z</time></trkpt><trkpt lat="37.901055050158625" lon="15.148324776528515"><ele>274.0</ele><time>2026-04-06T13:01:53Z</time></trkpt><trkpt lat="37.9009997786532" lon="15.148451499669598"><ele>274.2</ele><time>2026-04-06T13:01:54Z</time></trkpt><trkpt lat="37.900945882922905" lon="15.148575067991327"><ele>274.4</ele><time>2026-04-06T13:01:55Z</time></trkpt><trkpt lat="37.90089254427347" lon="15.148697359003089"><ele>274.6</ele><time>2026-04-06T13:01:56Z</time></trkpt><trkpt lat="37.90084111523677" lon="15.148815071728183"><ele>274.8</ele><time>2026-04-06T13:01:57Z</time></trkpt><trkpt lat="37.900807128932854" lon="15.148932624275309"><ele>275.0</ele><time>2026-04-06T13:01:58Z</time></trkpt><trkpt lat="37.900757711219995" lon="15.14903690060402"><ele>274.83333333333337</ele><time>2026-04-06T13:01:59Z</time></trkpt><trkpt lat="37.900708825301045" lon="15.149139213908574"><ele>274.6666666666667</ele><time>2026-04-06T13:02:00Z</time></trkpt><trkpt lat="37.90064954042128" lon="15.149220572739456"><ele>274.5</ele><time>2026-04-06T13:02:01Z</time></trkpt><trkpt lat="37.900598771184306" lon="15.149312112302205"><ele>274.3333333333333</ele><time>2026-04-06T13:02:02Z</time></trkpt><trkpt lat="37.90055332721313" lon="15.149394050161193"><ele>274.16666666666663</ele><time>2026-04-06T13:02:03Z</time></trkpt><trkpt lat="37.90051358854588" lon="15.149466819004909"><ele>274.0</ele><time>2026-04-06T13:02:04Z</time></trkpt><trkpt lat="37.900450791253036" lon="15.149589289329533"><ele>274.0</ele><time>2026-04-06T13:02:06Z</time></trkpt><trkpt lat="37.90041096518767" lon="15.149673359940484"><ele>274.0</ele><time>2026-04-06T13:02:08Z</time></trkpt><trkpt lat="37.90039046049728" lon="15.14975474530899"><ele>274.0</ele><time>2026-04-06T13:02:11Z</time></trkpt><trkpt lat="37.90034951320329" lon="15.149820209625855"><ele>274.0</ele><time>2026-04-06T13:02:19Z</time></trkpt><trkpt lat="37.90022584547136" lon="15.149792692647193"><ele>274.0</ele><time>2026-04-06T13:02:42.999Z</time></trkpt><trkpt lat="37.90017002413227" lon="15.149643604781646"><ele>274.0</ele><time>2026-04-06T13:02:44.999Z</time></trkpt><trkpt lat="37.90014427406094" lon="15.149541201502077"><ele>274.0</ele><time>2026-04-06T13:02:45.999Z</time></trkpt><trkpt lat="37.90010628348681" lon="15.149439865412916"><ele>274.0</ele><time>2026-04-06T13:02:46.999Z</time></trkpt><trkpt lat="37.90006892828567" lon="15.149327287701873"><ele>274.0</ele><time>2026-04-06T13:02:47.999Z</time></trkpt><trkpt lat="37.90002987442929" lon="15.149215355817987"><ele>274.0</ele><time>2026-04-06T13:02:48.999Z</time></trkpt><trkpt lat="37.89998631766586" lon="15.149102532242495"><ele>274.0</ele><time>2026-04-06T13:02:49.999Z</time></trkpt><trkpt lat="37.89994908114767" lon="15.14898569432716"><ele>274.0</ele><time>2026-04-06T13:02:50.999Z</time></trkpt><trkpt lat="37.89992496038104" lon="15.14885809078375"><ele>274.0</ele><time>2026-04-06T13:02:51.999Z</time></trkpt><trkpt lat="37.899901603666464" lon="15.148736841613115"><ele>274.0</ele><time>2026-04-06T13:02:52.999Z</time></trkpt><trkpt lat="37.8998789446196" lon="15.14861545372962"><ele>274.0</ele><time>2026-04-06T13:02:53.999Z</time></trkpt><trkpt lat="37.899853119453375" lon="15.148499224293484"><ele>274.0</ele><time>2026-04-06T13:02:54.999Z</time></trkpt><trkpt lat="37.899832580820856" lon="15.148393070367714"><ele>274.0</ele><time>2026-04-06T13:02:55.999Z</time></trkpt><trkpt lat="37.8998160908163" lon="15.148299559277666"><ele>274.0</ele><time>2026-04-06T13:02:56.999Z</time></trkpt><trkpt lat="37.89979836554149" lon="15.148216058774741"><ele>274.0</ele><time>2026-04-06T13:02:57.999Z</time></trkpt><trkpt lat="37.899743837426804" lon="15.14810426500122"><ele>274.0</ele><time>2026-04-06T13:02:59.999Z</time></trkpt><trkpt lat="37.89964278910844" lon="15.148054165680877"><ele>274.0</ele><time>2026-04-06T13:03:01.999Z</time></trkpt><trkpt lat="37.899571555055665" lon="15.148051812467152"><ele>274.4</ele><time>2026-04-06T13:03:02.999Z</time></trkpt><trkpt lat="37.89948351610819" lon="15.148037938330797"><ele>274.79999999999995</ele><time>2026-04-06T13:03:03.999Z</time></trkpt><trkpt lat="37.89939466079408" lon="15.148039384577942"><ele>275.20000000000005</ele><time>2026-04-06T13:03:04.999Z</time></trkpt><trkpt lat="37.899297521861534" lon="15.148041777340215"><ele>275.6</ele><time>2026-04-06T13:03:05.999Z</time></trkpt><trkpt lat="37.89920207126" lon="15.148061456300177"><ele>276.0</ele><time>2026-04-06T13:03:06.999Z</time></trkpt><trkpt lat="37.89910416298241" lon="15.148045908098801"><ele>276.1666666666667</ele><time>2026-04-06T13:03:07.999Z</time></trkpt><trkpt lat="37.89901530616371" lon="15.148064904164574"><ele>276.3333333333333</ele><time>2026-04-06T13:03:08.999Z</time></trkpt><trkpt lat="37.8989401971489" lon="15.148049863699548"><ele>276.5</ele><time>2026-04-06T13:03:09.999Z</time></trkpt><trkpt lat="37.89886713717843" lon="15.148042228369565"><ele>276.66666666666663</ele><time>2026-04-06T13:03:10.999Z</time></trkpt><trkpt lat="37.898769809177686" lon="15.147997202005152"><ele>276.8333333333333</ele><time>2026-04-06T13:03:12.999Z</time></trkpt><trkpt lat="37.89867238176115" lon="15.147961320032625"><ele>277.0</ele><time>2026-04-06T13:03:15.999Z</time></trkpt><trkpt lat="37.898598543188925" lon="15.147908120375616"><ele>277.0</ele><time>2026-04-06T13:03:17.999Z</time></trkpt><trkpt lat="37.898508603692775" lon="15.147831813656067"><ele>277.0</ele><time>2026-04-06T13:03:19.999Z</time></trkpt><trkpt lat="37.898449149095725" lon="15.147768591466852"><ele>277.0</ele><time>2026-04-06T13:03:21.999Z</time></trkpt><trkpt lat="37.89838518104567" lon="15.147725232762308"><ele>277.0</ele><time>2026-04-06T13:03:27.999Z</time></trkpt><trkpt lat="37.89831976654245" lon="15.147850116977642"><ele>277.0</ele><time>2026-04-06T13:03:28.999Z</time></trkpt><trkpt lat="37.898264811900255" lon="15.147943000623023"><ele>276.75</ele><time>2026-04-06T13:03:29.999Z</time></trkpt><trkpt lat="37.89822624748633" lon="15.148063001824585"><ele>276.5</ele><time>2026-04-06T13:03:30.999Z</time></trkpt><trkpt lat="37.898164012007115" lon="15.148180218358966"><ele>276.25</ele><time>2026-04-06T13:03:31.999Z</time></trkpt><trkpt lat="37.89809344253681" lon="15.148303561200372"><ele>276.0</ele><time>2026-04-06T13:03:32.999Z</time></trkpt><trkpt lat="37.89799934491547" lon="15.148414992246343"><ele>275.5</ele><time>2026-04-06T13:03:33.999Z</time></trkpt><trkpt lat="37.89791077906458" lon="15.148541624465208"><ele>275.0</ele><time>2026-04-06T13:03:34.999Z</time></trkpt><trkpt lat="37.897818581831345" lon="15.14866759739932"><ele>274.5</ele><time>2026-04-06T13:03:35.999Z</time></trkpt><trkpt lat="37.89772494152175" lon="15.14879515525911"><ele>274.0</ele><time>2026-04-06T13:03:36.999Z</time></trkpt><trkpt lat="37.89762864525121" lon="15.148924797466508"><ele>272.75</ele><time>2026-04-06T13:03:37.999Z</time></trkpt><trkpt lat="37.89753293188024" lon="15.149054198526018"><ele>271.5</ele><time>2026-04-06T13:03:38.999Z</time></trkpt><trkpt lat="37.89744036042951" lon="15.149179351822813"><ele>270.25</ele><time>2026-04-06T13:03:39.999Z</time></trkpt><trkpt lat="37.89734941334734" lon="15.149302309079221"><ele>269.0</ele><time>2026-04-06T13:03:40.999Z</time></trkpt><trkpt lat="37.89726426676773" lon="15.149426255456017"><ele>269.0</ele><time>2026-04-06T13:03:41.999Z</time></trkpt><trkpt lat="37.897184398840494" lon="15.149549839118674"><ele>269.0</ele><time>2026-04-06T13:03:42.999Z</time></trkpt><trkpt lat="37.897111590172116" lon="15.149675776069762"><ele>269.0</ele><time>2026-04-06T13:03:43.999Z</time></trkpt><trkpt lat="37.89704349144727" lon="15.14980338963654"><ele>269.0</ele><time>2026-04-06T13:03:44.999Z</time></trkpt><trkpt lat="37.89697705611005" lon="15.149939604067447"><ele>268.25</ele><time>2026-04-06T13:03:45.999Z</time></trkpt><trkpt lat="37.89691890268647" lon="15.150074985852738"><ele>267.5</ele><time>2026-04-06T13:03:47Z</time></trkpt><trkpt lat="37.89686216536755" lon="15.150219312158256"><ele>266.75</ele><time>2026-04-06T13:03:48Z</time></trkpt><trkpt lat="37.8968074191255" lon="15.150365822321454"><ele>266.0</ele><time>2026-04-06T13:03:49Z</time></trkpt><trkpt lat="37.896754350243235" lon="15.150507843449757"><ele>266.0</ele><time>2026-04-06T13:03:50Z</time></trkpt><trkpt lat="37.89669900709538" lon="15.150655951075247"><ele>266.0</ele><time>2026-04-06T13:03:51Z</time></trkpt><trkpt lat="37.8966414520179" lon="15.150809978103268"><ele>266.0</ele><time>2026-04-06T13:03:52Z</time></trkpt><trkpt lat="37.896585609123164" lon="15.150959423064377"><ele>266.0</ele><time>2026-04-06T13:03:53Z</time></trkpt><trkpt lat="37.896530408415806" lon="15.151107149412136"><ele>265.5</ele><time>2026-04-06T13:03:54Z</time></trkpt><trkpt lat="37.896472289868655" lon="15.151262600152256"><ele>265.0</ele><time>2026-04-06T13:03:55Z</time></trkpt><trkpt lat="37.896413990868425" lon="15.15141849978324"><ele>264.5</ele><time>2026-04-06T13:03:56Z</time></trkpt><trkpt lat="37.89635273119378" lon="15.15158236699839"><ele>264.0</ele><time>2026-04-06T13:03:57Z</time></trkpt><trkpt lat="37.896286507013535" lon="15.151759551187816"><ele>263.6666666666667</ele><time>2026-04-06T13:03:58Z</time></trkpt><trkpt lat="37.896219968430586" lon="15.151937576386047"><ele>263.33333333333337</ele><time>2026-04-06T13:03:59Z</time></trkpt><trkpt lat="37.89615311073118" lon="15.152116455456394"><ele>263.0</ele><time>2026-04-06T13:04:00Z</time></trkpt><trkpt lat="37.89608538189425" lon="15.152297665209762"><ele>263.0</ele><time>2026-04-06T13:04:01Z</time></trkpt><trkpt lat="37.89602484607644" lon="15.152459629992961"><ele>263.0</ele><time>2026-04-06T13:04:02Z</time></trkpt><trkpt lat="37.89596647231128" lon="15.152615810098197"><ele>263.0</ele><time>2026-04-06T13:04:03Z</time></trkpt><trkpt lat="37.89591086329458" lon="15.152764593060109"><ele>263.0</ele><time>2026-04-06T13:04:04Z</time></trkpt><trkpt lat="37.89585613271072" lon="15.15291102589266"><ele>262.0</ele><time>2026-04-06T13:04:05Z</time></trkpt><trkpt lat="37.89580195215679" lon="15.153055986864267"><ele>261.0</ele><time>2026-04-06T13:04:06Z</time></trkpt><trkpt lat="37.8957478154142" lon="15.153200830753823"><ele>260.0</ele><time>2026-04-06T13:04:07Z</time></trkpt><trkpt lat="37.89569327724998" lon="15.153339023736322"><ele>259.0</ele><time>2026-04-06T13:04:08Z</time></trkpt><trkpt lat="37.89563389260122" lon="15.153476732835196"><ele>258.75</ele><time>2026-04-06T13:04:09Z</time></trkpt><trkpt lat="37.89556747352853" lon="15.153616587556588"><ele>258.5</ele><time>2026-04-06T13:04:10Z</time></trkpt><trkpt lat="37.89550665832619" lon="15.153765578504267"><ele>258.25</ele><time>2026-04-06T13:04:11Z</time></trkpt><trkpt lat="37.89541181082871" lon="15.153888734184898"><ele>258.0</ele><time>2026-04-06T13:04:12Z</time></trkpt><trkpt lat="37.89532451669276" lon="15.154019839307246"><ele>257.75</ele><time>2026-04-06T13:04:13Z</time></trkpt><trkpt lat="37.895234659722966" lon="15.154150329429054"><ele>257.5</ele><time>2026-04-06T13:04:14Z</time></trkpt><trkpt lat="37.895144900931335" lon="15.154279837314629"><ele>257.25</ele><time>2026-04-06T13:04:15Z</time></trkpt><trkpt lat="37.89505441076808" lon="15.154410400436479"><ele>257.0</ele><time>2026-04-06T13:04:16Z</time></trkpt><trkpt lat="37.894966038254196" lon="15.154537908268884"><ele>257.0</ele><time>2026-04-06T13:04:17Z</time></trkpt><trkpt lat="37.89487443786704" lon="15.154670073293444"><ele>257.0</ele><time>2026-04-06T13:04:18Z</time></trkpt><trkpt lat="37.89478298606983" lon="15.154802023924772"><ele>257.0</ele><time>2026-04-06T13:04:19Z</time></trkpt><trkpt lat="37.89469488043327" lon="15.154928048465962"><ele>257.0</ele><time>2026-04-06T13:04:20Z</time></trkpt><trkpt lat="37.89460790885886" lon="15.15505231350252"><ele>257.25</ele><time>2026-04-06T13:04:21Z</time></trkpt><trkpt lat="37.89452198107577" lon="15.155175087197495"><ele>257.5</ele><time>2026-04-06T13:04:22Z</time></trkpt><trkpt lat="37.89443464540241" lon="15.155299872480725"><ele>257.75</ele><time>2026-04-06T13:04:23Z</time></trkpt><trkpt lat="37.89435053092263" lon="15.155420495131192"><ele>258.0</ele><time>2026-04-06T13:04:24Z</time></trkpt><trkpt lat="37.894267387169926" lon="15.1555400378865"><ele>257.75</ele><time>2026-04-06T13:04:25Z</time></trkpt><trkpt lat="37.89418761482067" lon="15.155654733258718"><ele>257.5</ele><time>2026-04-06T13:04:26Z</time></trkpt><trkpt lat="37.89411080395757" lon="15.155765645898128"><ele>257.25</ele><time>2026-04-06T13:04:27Z</time></trkpt><trkpt lat="37.894032707507264" lon="15.155878473945917"><ele>257.0</ele><time>2026-04-06T13:04:28Z</time></trkpt><trkpt lat="37.893957895852196" lon="15.155986556303324"><ele>256.8</ele><time>2026-04-06T13:04:29Z</time></trkpt><trkpt lat="37.89388411291768" lon="15.156093152480489"><ele>256.6</ele><time>2026-04-06T13:04:30Z</time></trkpt><trkpt lat="37.89380909257093" lon="15.156201536683062"><ele>256.40000000000003</ele><time>2026-04-06T13:04:31Z</time></trkpt><trkpt lat="37.89373623888182" lon="15.156307006439121"><ele>256.2</ele><time>2026-04-06T13:04:32Z</time></trkpt><trkpt lat="37.893663199824516" lon="15.156412706743787"><ele>256.0</ele><time>2026-04-06T13:04:33Z</time></trkpt><trkpt lat="37.893589566974974" lon="15.156519266395945"><ele>255.20000000000002</ele><time>2026-04-06T13:04:34Z</time></trkpt><trkpt lat="37.893516799565155" lon="15.156624573601489"><ele>254.40000000000003</ele><time>2026-04-06T13:04:35Z</time></trkpt><trkpt lat="37.8934446008686" lon="15.156728052982391"><ele>253.6</ele><time>2026-04-06T13:04:36Z</time></trkpt><trkpt lat="37.89337248683316" lon="15.156831329349624"><ele>252.8</ele><time>2026-04-06T13:04:37Z</time></trkpt><trkpt lat="37.89329943913996" lon="15.156935942855897"><ele>252.0</ele><time>2026-04-06T13:04:38Z</time></trkpt><trkpt lat="37.89322596754614" lon="15.15704116343717"><ele>251.2</ele><time>2026-04-06T13:04:39Z</time></trkpt><trkpt lat="37.893153567315785" lon="15.157149799618917"><ele>250.39999999999998</ele><time>2026-04-06T13:04:40Z</time></trkpt><trkpt lat="37.893087972634234" lon="15.157258915358106"><ele>249.60000000000002</ele><time>2026-04-06T13:04:41Z</time></trkpt><trkpt lat="37.89304185181877" lon="15.157387198795107"><ele>248.8</ele><time>2026-04-06T13:04:42Z</time></trkpt><trkpt lat="37.892973762630206" lon="15.157500444611806"><ele>248.0</ele><time>2026-04-06T13:04:43Z</time></trkpt><trkpt lat="37.89292844167498" lon="15.157632505500455"><ele>247.0</ele><time>2026-04-06T13:04:44Z</time></trkpt><trkpt lat="37.89289422915714" lon="15.157774130415246"><ele>246.0</ele><time>2026-04-06T13:04:45Z</time></trkpt><trkpt lat="37.89286646701912" lon="15.157927308479515"><ele>245.0</ele><time>2026-04-06T13:04:46Z</time></trkpt><trkpt lat="37.89284170847289" lon="15.158082824518312"><ele>244.0</ele><time>2026-04-06T13:04:47Z</time></trkpt><trkpt lat="37.892816520403585" lon="15.158241039442538"><ele>243.0</ele><time>2026-04-06T13:04:48Z</time></trkpt><trkpt lat="37.89279257555141" lon="15.158399388906076"><ele>242.0</ele><time>2026-04-06T13:04:49Z</time></trkpt><trkpt lat="37.89276802254345" lon="15.15855965883478"><ele>241.0</ele><time>2026-04-06T13:04:50Z</time></trkpt><trkpt lat="37.89274341760461" lon="15.158720267721266"><ele>240.0</ele><time>2026-04-06T13:04:51Z</time></trkpt><trkpt lat="37.8927182323787" lon="15.15888466445617"><ele>238.5</ele><time>2026-04-06T13:04:52Z</time></trkpt><trkpt lat="37.89269232189607" lon="15.15905379530525"><ele>237.0</ele><time>2026-04-06T13:04:53Z</time></trkpt><trkpt lat="37.89266808837433" lon="15.15921197973856"><ele>235.5</ele><time>2026-04-06T13:04:54Z</time></trkpt><trkpt lat="37.892645167264256" lon="15.15936159745496"><ele>234.0</ele><time>2026-04-06T13:04:55Z</time></trkpt><trkpt lat="37.89262345024009" lon="15.159503355385684"><ele>234.0</ele><time>2026-04-06T13:04:56Z</time></trkpt><trkpt lat="37.892601120773" lon="15.159649111185855"><ele>233.99999999999997</ele><time>2026-04-06T13:04:57Z</time></trkpt><trkpt lat="37.89258068042048" lon="15.159779879130758"><ele>233.99999999999997</ele><time>2026-04-06T13:04:58Z</time></trkpt><trkpt lat="37.89255995920597" lon="15.159912203048723"><ele>234.0</ele><time>2026-04-06T13:04:59Z</time></trkpt><trkpt lat="37.892540133524435" lon="15.160038808192311"><ele>234.0</ele><time>2026-04-06T13:04:59.999Z</time></trkpt><trkpt lat="37.892522037832826" lon="15.160155938002834"><ele>233.6</ele><time>2026-04-06T13:05:00.999Z</time></trkpt><trkpt lat="37.89250326774227" lon="15.16027785408873"><ele>233.2</ele><time>2026-04-06T13:05:01.999Z</time></trkpt><trkpt lat="37.8924859517545" lon="15.160389273522545"><ele>232.79999999999998</ele><time>2026-04-06T13:05:02.999Z</time></trkpt><trkpt lat="37.892468296854084" lon="15.160502977297563"><ele>232.39999999999998</ele><time>2026-04-06T13:05:03.999Z</time></trkpt><trkpt lat="37.89244998514029" lon="15.160621326130881"><ele>232.0</ele><time>2026-04-06T13:05:04.999Z</time></trkpt><trkpt lat="37.892431351683605" lon="15.160742032399599"><ele>232.0</ele><time>2026-04-06T13:05:05.999Z</time></trkpt><trkpt lat="37.89241332392684" lon="15.160858815087458"><ele>232.0</ele><time>2026-04-06T13:05:06.999Z</time></trkpt><trkpt lat="37.89239516686096" lon="15.160976435288502"><ele>232.0</ele><time>2026-04-06T13:05:07.999Z</time></trkpt><trkpt lat="37.892403985488336" lon="15.161098899759109"><ele>232.0</ele><time>2026-04-06T13:05:08.999Z</time></trkpt><trkpt lat="37.89238252594619" lon="15.161210762161254"><ele>232.0</ele><time>2026-04-06T13:05:09.999Z</time></trkpt><trkpt lat="37.89236588079827" lon="15.161307623508966"><ele>231.99999999999997</ele><time>2026-04-06T13:05:10.999Z</time></trkpt><trkpt lat="37.892354258740596" lon="15.1613914145531"><ele>232.0</ele><time>2026-04-06T13:05:11.999Z</time></trkpt><trkpt lat="37.89230677851065" lon="15.16154298376089"><ele>232.0</ele><time>2026-04-06T13:05:13.999Z</time></trkpt><trkpt lat="37.892293806156424" lon="15.161627261202593"><ele>232.0</ele><time>2026-04-06T13:05:14.999Z</time></trkpt><trkpt lat="37.89227980464167" lon="15.16171822471079"><ele>231.99999999999997</ele><time>2026-04-06T13:05:15.999Z</time></trkpt><trkpt lat="37.892265063270806" lon="15.161813994938734"><ele>232.0</ele><time>2026-04-06T13:05:16.999Z</time></trkpt><trkpt lat="37.8922498906756" lon="15.161912566632564"><ele>232.49999999999997</ele><time>2026-04-06T13:05:17.999Z</time></trkpt><trkpt lat="37.89223195740471" lon="15.16201377593339"><ele>233.0</ele><time>2026-04-06T13:05:18.999Z</time></trkpt><trkpt lat="37.89221233205613" lon="15.162119741227828"><ele>233.5</ele><time>2026-04-06T13:05:19.999Z</time></trkpt><trkpt lat="37.89218573557132" lon="15.162227805009406"><ele>234.0</ele><time>2026-04-06T13:05:20.999Z</time></trkpt><trkpt lat="37.892162755961046" lon="15.162336518013909"><ele>234.49999999999997</ele><time>2026-04-06T13:05:21.999Z</time></trkpt><trkpt lat="37.89211663281177" lon="15.162432589530072"><ele>235.0</ele><time>2026-04-06T13:05:22.999Z</time></trkpt><trkpt lat="37.892062717849555" lon="15.16251840908433"><ele>235.49999999999997</ele><time>2026-04-06T13:05:23.999Z</time></trkpt><trkpt lat="37.89200082561403" lon="15.162599526875681"><ele>236.0</ele><time>2026-04-06T13:05:24.999Z</time></trkpt><trkpt lat="37.89193505140877" lon="15.162667209737592"><ele>236.5</ele><time>2026-04-06T13:05:25.999Z</time></trkpt><trkpt lat="37.89184735351366" lon="15.16270403527202"><ele>237.0</ele><time>2026-04-06T13:05:26.999Z</time></trkpt><trkpt lat="37.89177153810119" lon="15.162756202410913"><ele>237.49999999999997</ele><time>2026-04-06T13:05:27.999Z</time></trkpt><trkpt lat="37.89169810219198" lon="15.162808612439708"><ele>238.0</ele><time>2026-04-06T13:05:28.999Z</time></trkpt><trkpt lat="37.891621565246446" lon="15.162852141204844"><ele>237.99999999999997</ele><time>2026-04-06T13:05:29.999Z</time></trkpt><trkpt lat="37.89154141977218" lon="15.162898844808774"><ele>238.0</ele><time>2026-04-06T13:05:30.999Z</time></trkpt><trkpt lat="37.89146362725222" lon="15.162944177211187"><ele>238.0</ele><time>2026-04-06T13:05:31.999Z</time></trkpt><trkpt lat="37.891383380467396" lon="15.162990939881325"><ele>238.0</ele><time>2026-04-06T13:05:32.999Z</time></trkpt><trkpt lat="37.8913053884262" lon="15.163036388552452"><ele>237.99999999999997</ele><time>2026-04-06T13:05:33.999Z</time></trkpt><trkpt lat="37.89122288184676" lon="15.163084468115324"><ele>238.0</ele><time>2026-04-06T13:05:34.999Z</time></trkpt><trkpt lat="37.89114346651502" lon="15.163130496068483"><ele>238.0</ele><time>2026-04-06T13:05:35.999Z</time></trkpt><trkpt lat="37.891060819005084" lon="15.163178412499722"><ele>238.0</ele><time>2026-04-06T13:05:36.999Z</time></trkpt><trkpt lat="37.89097582302651" lon="15.163227690446945"><ele>238.0</ele><time>2026-04-06T13:05:37.999Z</time></trkpt><trkpt lat="37.89088558626481" lon="15.163280200119706"><ele>238.0</ele><time>2026-04-06T13:05:38.999Z</time></trkpt><trkpt lat="37.89079759839883" lon="15.163331449038653"><ele>238.0</ele><time>2026-04-06T13:05:39.999Z</time></trkpt><trkpt lat="37.89070736529502" lon="15.163384005961413"><ele>238.0</ele><time>2026-04-06T13:05:40.999Z</time></trkpt><trkpt lat="37.89062212028376" lon="15.163433358918057"><ele>238.0</ele><time>2026-04-06T13:05:41.999Z</time></trkpt><trkpt lat="37.890537266728295" lon="15.16348252494179"><ele>238.0</ele><time>2026-04-06T13:05:42.999Z</time></trkpt><trkpt lat="37.89045136646198" lon="15.163532297413859"><ele>238.0</ele><time>2026-04-06T13:05:43.999Z</time></trkpt><trkpt lat="37.89036195884761" lon="15.16358410215046"><ele>238.0</ele><time>2026-04-06T13:05:44.999Z</time></trkpt><trkpt lat="37.890274776792076" lon="15.163634617313518"><ele>237.99999999999997</ele><time>2026-04-06T13:05:45.999Z</time></trkpt><trkpt lat="37.890190474446854" lon="15.163683463945816"><ele>238.0</ele><time>2026-04-06T13:05:46.999Z</time></trkpt><trkpt lat="37.8901063385475" lon="15.16373221410028"><ele>238.0</ele><time>2026-04-06T13:05:47.999Z</time></trkpt><trkpt lat="37.89002734261371" lon="15.163777986053724"><ele>238.0</ele><time>2026-04-06T13:05:48.999Z</time></trkpt><trkpt lat="37.88994568586338" lon="15.163825299764245"><ele>237.99999999999997</ele><time>2026-04-06T13:05:49.999Z</time></trkpt><trkpt lat="37.8898673459702" lon="15.163870691598667"><ele>238.0</ele><time>2026-04-06T13:05:50.999Z</time></trkpt><trkpt lat="37.88978432308832" lon="15.163918796874663"><ele>237.2</ele><time>2026-04-06T13:05:51.999Z</time></trkpt><trkpt lat="37.88970110124514" lon="15.16396701741835"><ele>236.4</ele><time>2026-04-06T13:05:53Z</time></trkpt><trkpt lat="37.88961950683288" lon="15.16403538969158"><ele>235.59999999999997</ele><time>2026-04-06T13:05:54Z</time></trkpt><trkpt lat="37.88953306304153" lon="15.164079444924106"><ele>234.79999999999998</ele><time>2026-04-06T13:05:55Z</time></trkpt><trkpt lat="37.889452778320994" lon="15.164126591387989"><ele>234.0</ele><time>2026-04-06T13:05:56Z</time></trkpt><trkpt lat="37.88936433999505" lon="15.164169926695456"><ele>234.0</ele><time>2026-04-06T13:05:57Z</time></trkpt><trkpt lat="37.88928258011327" lon="15.16423663547759"><ele>233.99999999999997</ele><time>2026-04-06T13:05:58Z</time></trkpt><trkpt lat="37.889207083740075" lon="15.164315210671717"><ele>233.99999999999997</ele><time>2026-04-06T13:05:59Z</time></trkpt><trkpt lat="37.88913620727765" lon="15.164405764973491"><ele>234.0</ele><time>2026-04-06T13:06:00Z</time></trkpt><trkpt lat="37.8890685406252" lon="15.164496425158113"><ele>234.0</ele><time>2026-04-06T13:06:01Z</time></trkpt><trkpt lat="37.8890024690881" lon="15.164588234076595"><ele>234.6</ele><time>2026-04-06T13:06:02Z</time></trkpt><trkpt lat="37.88893917568254" lon="15.164676182640179"><ele>235.2</ele><time>2026-04-06T13:06:03Z</time></trkpt><trkpt lat="37.88887804274371" lon="15.164761556356021"><ele>235.79999999999998</ele><time>2026-04-06T13:06:04Z</time></trkpt><trkpt lat="37.88882043631006" lon="15.16484347329752"><ele>236.39999999999998</ele><time>2026-04-06T13:06:05Z</time></trkpt><trkpt lat="37.8887611461056" lon="15.164927784530933"><ele>237.0</ele><time>2026-04-06T13:06:06Z</time></trkpt><trkpt lat="37.88870180800057" lon="15.165012164011728"><ele>237.0</ele><time>2026-04-06T13:06:07Z</time></trkpt><trkpt lat="37.888641683772825" lon="15.165097661211368"><ele>237.0</ele><time>2026-04-06T13:06:08Z</time></trkpt><trkpt lat="37.88858573899799" lon="15.16517721529208"><ele>237.0</ele><time>2026-04-06T13:06:09Z</time></trkpt><trkpt lat="37.888527952769934" lon="15.165259388456406"><ele>237.0</ele><time>2026-04-06T13:06:10Z</time></trkpt><trkpt lat="37.88847264462669" lon="15.16533726848659"><ele>237.0</ele><time>2026-04-06T13:06:11Z</time></trkpt><trkpt lat="37.8884457963797" lon="15.165434501565175"><ele>237.0</ele><time>2026-04-06T13:06:12Z</time></trkpt><trkpt lat="37.888395768174796" lon="15.165505699699954"><ele>236.33333333333334</ele><time>2026-04-06T13:06:13Z</time></trkpt><trkpt lat="37.88834897078342" lon="15.165568847327007"><ele>235.66666666666669</ele><time>2026-04-06T13:06:14Z</time></trkpt><trkpt lat="37.8883009674206" lon="15.165634886385027"><ele>235.0</ele><time>2026-04-06T13:06:15Z</time></trkpt><trkpt lat="37.88824125567126" lon="15.165673837721451"><ele>234.33333333333334</ele><time>2026-04-06T13:06:16Z</time></trkpt><trkpt lat="37.88817994306816" lon="15.165763284200196"><ele>233.66666666666669</ele><time>2026-04-06T13:06:18Z</time></trkpt><trkpt lat="37.88810963030457" lon="15.16586378121578"><ele>233.0</ele><time>2026-04-06T13:06:20Z</time></trkpt><trkpt lat="37.88805018162928" lon="15.16594939804134"><ele>233.0</ele><time>2026-04-06T13:06:21Z</time></trkpt><trkpt lat="37.88798674194211" lon="15.166040762654454"><ele>233.0</ele><time>2026-04-06T13:06:22Z</time></trkpt><trkpt lat="37.88791580059215" lon="15.166142930988169"><ele>233.0</ele><time>2026-04-06T13:06:23Z</time></trkpt><trkpt lat="37.8878395956613" lon="15.16625518175723"><ele>233.0</ele><time>2026-04-06T13:06:24Z</time></trkpt><trkpt lat="37.887759082832304" lon="15.166374005566187"><ele>233.0</ele><time>2026-04-06T13:06:25Z</time></trkpt><trkpt lat="37.887680172766565" lon="15.166490654407045"><ele>234.2</ele><time>2026-04-06T13:06:26Z</time></trkpt><trkpt lat="37.88760777800199" lon="15.166598045504651"><ele>235.4</ele><time>2026-04-06T13:06:27Z</time></trkpt><trkpt lat="37.887543220389226" lon="15.166693810949425"><ele>236.59999999999997</ele><time>2026-04-06T13:06:28Z</time></trkpt><trkpt lat="37.88747719881185" lon="15.16679143367894"><ele>237.79999999999998</ele><time>2026-04-06T13:06:29Z</time></trkpt><trkpt lat="37.88742756412854" lon="15.166894792073133"><ele>239.0</ele><time>2026-04-06T13:06:30Z</time></trkpt><trkpt lat="37.88736724600562" lon="15.166978353120557"><ele>238.00000000000003</ele><time>2026-04-06T13:06:31Z</time></trkpt><trkpt lat="37.88730731286114" lon="15.167056202844039"><ele>237.0</ele><time>2026-04-06T13:06:32Z</time></trkpt><trkpt lat="37.88724571854164" lon="15.1671363921573"><ele>236.0</ele><time>2026-04-06T13:06:33Z</time></trkpt><trkpt lat="37.88719465633252" lon="15.167214293068584"><ele>235.0</ele><time>2026-04-06T13:06:34Z</time></trkpt><trkpt lat="37.88713986436782" lon="15.1672877701638"><ele>234.00000000000003</ele><time>2026-04-06T13:06:35Z</time></trkpt><trkpt lat="37.88709424146267" lon="15.167362250922139"><ele>233.0</ele><time>2026-04-06T13:06:36Z</time></trkpt><trkpt lat="37.887045237701194" lon="15.167434967232248"><ele>233.0</ele><time>2026-04-06T13:06:37Z</time></trkpt><trkpt lat="37.88699357557267" lon="15.167505871768151"><ele>233.0</ele><time>2026-04-06T13:06:38Z</time></trkpt><trkpt lat="37.8869505066483" lon="15.167574129660462"><ele>233.0</ele><time>2026-04-06T13:06:39Z</time></trkpt><trkpt lat="37.88690358725837" lon="15.167638301039872"><ele>233.0</ele><time>2026-04-06T13:06:40Z</time></trkpt><trkpt lat="37.8868549075137" lon="15.167703833907746"><ele>233.0</ele><time>2026-04-06T13:06:41Z</time></trkpt><trkpt lat="37.8868060022026" lon="15.16777686783862"><ele>233.0</ele><time>2026-04-06T13:06:42Z</time></trkpt><trkpt lat="37.886756128325665" lon="15.167854519586728"><ele>233.0</ele><time>2026-04-06T13:06:43Z</time></trkpt><trkpt lat="37.886692638138946" lon="15.167918186878396"><ele>232.33333333333334</ele><time>2026-04-06T13:06:44Z</time></trkpt><trkpt lat="37.88663510288655" lon="15.168015742667446"><ele>231.66666666666669</ele><time>2026-04-06T13:06:45Z</time></trkpt><trkpt lat="37.88657018558007" lon="15.16807618722295"><ele>231.0</ele><time>2026-04-06T13:06:46Z</time></trkpt><trkpt lat="37.886510927442274" lon="15.168147965215123"><ele>230.33333333333331</ele><time>2026-04-06T13:06:47Z</time></trkpt><trkpt lat="37.88645859491842" lon="15.168227004371001"><ele>229.66666666666666</ele><time>2026-04-06T13:06:48Z</time></trkpt><trkpt lat="37.88640255973618" lon="15.168292786178466"><ele>229.0</ele><time>2026-04-06T13:06:49Z</time></trkpt><trkpt lat="37.88634453667579" lon="15.16835899693507"><ele>229.0</ele><time>2026-04-06T13:06:50Z</time></trkpt><trkpt lat="37.886289394548044" lon="15.1684266487277"><ele>228.99999999999997</ele><time>2026-04-06T13:06:51Z</time></trkpt><trkpt lat="37.886229079412246" lon="15.168501993626977"><ele>228.99999999999997</ele><time>2026-04-06T13:06:52Z</time></trkpt><trkpt lat="37.886160185086446" lon="15.168590254940186"><ele>229.0</ele><time>2026-04-06T13:06:53Z</time></trkpt><trkpt lat="37.88607882230192" lon="15.168687388431836"><ele>229.0</ele><time>2026-04-06T13:06:54Z</time></trkpt><trkpt lat="37.885990305700965" lon="15.168802446305559"><ele>228.25</ele><time>2026-04-06T13:06:55Z</time></trkpt><trkpt lat="37.88589154442896" lon="15.168931585128787"><ele>227.5</ele><time>2026-04-06T13:06:56Z</time></trkpt><trkpt lat="37.885782488171394" lon="15.169063564920888"><ele>226.75</ele><time>2026-04-06T13:06:57Z</time></trkpt><trkpt lat="37.88567004499772" lon="15.169201975831548"><ele>226.0</ele><time>2026-04-06T13:06:58Z</time></trkpt><trkpt lat="37.88554458177231" lon="15.169341060324244"><ele>226.0</ele><time>2026-04-06T13:06:59Z</time></trkpt><trkpt lat="37.88541661893172" lon="15.169500208883328"><ele>226.0</ele><time>2026-04-06T13:07:00Z</time></trkpt><trkpt lat="37.885303129085756" lon="15.16966992706906"><ele>226.0</ele><time>2026-04-06T13:07:01Z</time></trkpt><trkpt lat="37.885164403608826" lon="15.169822790525995"><ele>225.66666666666666</ele><time>2026-04-06T13:07:02Z</time></trkpt><trkpt lat="37.885037842234716" lon="15.16998764895745"><ele>225.33333333333331</ele><time>2026-04-06T13:07:03Z</time></trkpt><trkpt lat="37.884928422738696" lon="15.170145421082669"><ele>225.0</ele><time>2026-04-06T13:07:04Z</time></trkpt><trkpt lat="37.88481996317792" lon="15.170281406222529"><ele>225.0</ele><time>2026-04-06T13:07:05Z</time></trkpt><trkpt lat="37.884715029059855" lon="15.17041365786758"><ele>225.0</ele><time>2026-04-06T13:07:06Z</time></trkpt><trkpt lat="37.88461906000654" lon="15.170538019552184"><ele>225.0</ele><time>2026-04-06T13:07:07Z</time></trkpt><trkpt lat="37.88453345712581" lon="15.170655204569917"><ele>225.0</ele><time>2026-04-06T13:07:08Z</time></trkpt><trkpt lat="37.88445083230549" lon="15.170766679960982"><ele>224.8</ele><time>2026-04-06T13:07:09Z</time></trkpt><trkpt lat="37.88437372281763" lon="15.17086570743357"><ele>224.6</ele><time>2026-04-06T13:07:10Z</time></trkpt><trkpt lat="37.8842997534995" lon="15.170965515120601"><ele>224.39999999999998</ele><time>2026-04-06T13:07:11Z</time></trkpt><trkpt lat="37.884226239715176" lon="15.171061945108942"><ele>224.2</ele><time>2026-04-06T13:07:11.999Z</time></trkpt><trkpt lat="37.88415202305807" lon="15.171161205816905"><ele>224.0</ele><time>2026-04-06T13:07:12.999Z</time></trkpt><trkpt lat="37.884076505010505" lon="15.1712585636826"><ele>224.0</ele><time>2026-04-06T13:07:13.999Z</time></trkpt><trkpt lat="37.88399868510047" lon="15.171355582242002"><ele>224.0</ele><time>2026-04-06T13:07:14.999Z</time></trkpt><trkpt lat="37.88392057170151" lon="15.171458603620708"><ele>224.0</ele><time>2026-04-06T13:07:15.999Z</time></trkpt><trkpt lat="37.883838669617155" lon="15.171562165639141"><ele>224.0</ele><time>2026-04-06T13:07:16.999Z</time></trkpt><trkpt lat="37.88375060479526" lon="15.171663388899692"><ele>223.75</ele><time>2026-04-06T13:07:17.999Z</time></trkpt><trkpt lat="37.88365606409476" lon="15.171762851711588"><ele>223.5</ele><time>2026-04-06T13:07:18.999Z</time></trkpt><trkpt lat="37.88356037629183" lon="15.171863365877698"><ele>223.25</ele><time>2026-04-06T13:07:19.999Z</time></trkpt><trkpt lat="37.88346043791073" lon="15.171966726549726"><ele>223.0</ele><time>2026-04-06T13:07:20.999Z</time></trkpt><trkpt lat="37.88335946066718" lon="15.17207465926685"><ele>223.0</ele><time>2026-04-06T13:07:21.999Z</time></trkpt><trkpt lat="37.88326062925447" lon="15.172184853955295"><ele>223.0</ele><time>2026-04-06T13:07:22.999Z</time></trkpt><trkpt lat="37.88316145111018" lon="15.172297204264524"><ele>223.0</ele><time>2026-04-06T13:07:23.999Z</time></trkpt><trkpt lat="37.88306209173334" lon="15.172407941407691"><ele>223.0</ele><time>2026-04-06T13:07:24.999Z</time></trkpt><trkpt lat="37.88296409284098" lon="15.172519354102043"><ele>223.0</ele><time>2026-04-06T13:07:25.999Z</time></trkpt><trkpt lat="37.88286867321108" lon="15.172628636280312"><ele>223.0</ele><time>2026-04-06T13:07:26.999Z</time></trkpt><trkpt lat="37.88277229146966" lon="15.172737402569247"><ele>223.0</ele><time>2026-04-06T13:07:27.999Z</time></trkpt><trkpt lat="37.88267631357494" lon="15.172843933315399"><ele>223.0</ele><time>2026-04-06T13:07:28.999Z</time></trkpt><trkpt lat="37.88258455994986" lon="15.172946172353994"><ele>221.5</ele><time>2026-04-06T13:07:29.999Z</time></trkpt><trkpt lat="37.88249248437872" lon="15.173046993512223"><ele>220.0</ele><time>2026-04-06T13:07:30.999Z</time></trkpt><trkpt lat="37.88240215969691" lon="15.173145885337547"><ele>218.5</ele><time>2026-04-06T13:07:31.999Z</time></trkpt><trkpt lat="37.8823148617596" lon="15.173243460788342"><ele>217.0</ele><time>2026-04-06T13:07:32.999Z</time></trkpt><trkpt lat="37.88222773548033" lon="15.173339708607791"><ele>216.8</ele><time>2026-04-06T13:07:33.999Z</time></trkpt><trkpt lat="37.882145409715584" lon="15.173431471504571"><ele>216.6</ele><time>2026-04-06T13:07:34.999Z</time></trkpt><trkpt lat="37.88206769448691" lon="15.173521183125763"><ele>216.40000000000003</ele><time>2026-04-06T13:07:35.999Z</time></trkpt><trkpt lat="37.88199231501959" lon="15.173608445896505"><ele>216.20000000000002</ele><time>2026-04-06T13:07:36.999Z</time></trkpt><trkpt lat="37.88191784252829" lon="15.173692622767375"><ele>216.0</ele><time>2026-04-06T13:07:37.999Z</time></trkpt><trkpt lat="37.88184541313577" lon="15.173775315554687"><ele>216.0</ele><time>2026-04-06T13:07:38.999Z</time></trkpt><trkpt lat="37.881775002372336" lon="15.173854976290869"><ele>216.00000000000003</ele><time>2026-04-06T13:07:39.999Z</time></trkpt><trkpt lat="37.88170459160833" lon="15.173932682933435"><ele>216.00000000000003</ele><time>2026-04-06T13:07:40.999Z</time></trkpt><trkpt lat="37.8816363689354" lon="15.17400933188542"><ele>216.0</ele><time>2026-04-06T13:07:41.999Z</time></trkpt><trkpt lat="37.881568315772114" lon="15.17408020932089"><ele>216.0</ele><time>2026-04-06T13:07:42.999Z</time></trkpt><trkpt lat="37.88150206464899" lon="15.174149946943347"><ele>215.83333333333334</ele><time>2026-04-06T13:07:43.999Z</time></trkpt><trkpt lat="37.881436582888874" lon="15.174216828357046"><ele>215.66666666666669</ele><time>2026-04-06T13:07:44.999Z</time></trkpt><trkpt lat="37.88137211299256" lon="15.17428356748432"><ele>215.5</ele><time>2026-04-06T13:07:45.999Z</time></trkpt><trkpt lat="37.88130414685522" lon="15.174347180319911"><ele>215.33333333333334</ele><time>2026-04-06T13:07:46.999Z</time></trkpt><trkpt lat="37.881227468405946" lon="15.174399993504208"><ele>215.16666666666669</ele><time>2026-04-06T13:07:47.999Z</time></trkpt><trkpt lat="37.88114820105919" lon="15.174433452490916"><ele>215.0</ele><time>2026-04-06T13:07:48.999Z</time></trkpt><trkpt lat="37.88106582631991" lon="15.174450997372409"><ele>215.00000000000003</ele><time>2026-04-06T13:07:49.999Z</time></trkpt><trkpt lat="37.88098258717638" lon="15.174456415308217"><ele>215.0</ele><time>2026-04-06T13:07:50.999Z</time></trkpt><trkpt lat="37.880901686155156" lon="15.174450866730522"><ele>215.0</ele><time>2026-04-06T13:07:51.999Z</time></trkpt><trkpt lat="37.88082250615415" lon="15.174431593409412"><ele>215.0</ele><time>2026-04-06T13:07:52.999Z</time></trkpt><trkpt lat="37.88074968437199" lon="15.174407029193173"><ele>215.00000000000003</ele><time>2026-04-06T13:07:53.999Z</time></trkpt><trkpt lat="37.88068501900148" lon="15.174371537221761"><ele>215.0</ele><time>2026-04-06T13:07:54.999Z</time></trkpt><trkpt lat="37.88062302555016" lon="15.174340062432437"><ele>214.28571428571428</ele><time>2026-04-06T13:07:55.999Z</time></trkpt><trkpt lat="37.88055967323271" lon="15.174319179108108"><ele>213.57142857142858</ele><time>2026-04-06T13:07:56.999Z</time></trkpt><trkpt lat="37.88049134320618" lon="15.174322881319604"><ele>212.85714285714286</ele><time>2026-04-06T13:07:57.999Z</time></trkpt><trkpt lat="37.880425637740984" lon="15.174344728872926"><ele>212.14285714285714</ele><time>2026-04-06T13:07:59Z</time></trkpt><trkpt lat="37.88035601430756" lon="15.174367598175188"><ele>211.42857142857144</ele><time>2026-04-06T13:08:00Z</time></trkpt><trkpt lat="37.88030162962472" lon="15.174421059407209"><ele>210.71428571428572</ele><time>2026-04-06T13:08:01Z</time></trkpt><trkpt lat="37.8802644130468" lon="15.174485827993472"><ele>210.0</ele><time>2026-04-06T13:08:02Z</time></trkpt><trkpt lat="37.88022670813143" lon="15.17460001317126"><ele>210.0</ele><time>2026-04-06T13:08:04Z</time></trkpt><trkpt lat="37.88019356238672" lon="15.174689519257376"><ele>210.0</ele><time>2026-04-06T13:08:06Z</time></trkpt><trkpt lat="37.880157552889216" lon="15.174784835285287"><ele>210.0</ele><time>2026-04-06T13:08:08Z</time></trkpt><trkpt lat="37.88010552015609" lon="15.174911006783953"><ele>210.0</ele><time>2026-04-06T13:08:10Z</time></trkpt><trkpt lat="37.88007646441616" lon="15.174982757131543"><ele>210.0</ele><time>2026-04-06T13:08:11Z</time></trkpt><trkpt lat="37.880044798856055" lon="15.175062174043216"><ele>210.0</ele><time>2026-04-06T13:08:12Z</time></trkpt><trkpt lat="37.88001086013736" lon="15.1751464521839"><ele>208.5</ele><time>2026-04-06T13:08:13Z</time></trkpt><trkpt lat="37.879973081600326" lon="15.175232995002947"><ele>207.0</ele><time>2026-04-06T13:08:14Z</time></trkpt><trkpt lat="37.87993321467862" lon="15.17532392568674"><ele>205.5</ele><time>2026-04-06T13:08:15Z</time></trkpt><trkpt lat="37.87988836213909" lon="15.175415548154971"><ele>204.0</ele><time>2026-04-06T13:08:16Z</time></trkpt><trkpt lat="37.879835900700726" lon="15.17550589905589"><ele>202.5</ele><time>2026-04-06T13:08:17Z</time></trkpt><trkpt lat="37.8797741834578" lon="15.175591675173504"><ele>201.0</ele><time>2026-04-06T13:08:18Z</time></trkpt><trkpt lat="37.87970421338969" lon="15.175669419681773"><ele>201.83333333333334</ele><time>2026-04-06T13:08:19Z</time></trkpt><trkpt lat="37.87962852377569" lon="15.175733209922061"><ele>202.66666666666669</ele><time>2026-04-06T13:08:20Z</time></trkpt><trkpt lat="37.879557179706225" lon="15.175785944975996"><ele>203.5</ele><time>2026-04-06T13:08:21Z</time></trkpt><trkpt lat="37.87948661840335" lon="15.175827565091641"><ele>204.33333333333334</ele><time>2026-04-06T13:08:22Z</time></trkpt><trkpt lat="37.879423139879414" lon="15.17586634413808"><ele>205.16666666666669</ele><time>2026-04-06T13:08:23Z</time></trkpt><trkpt lat="37.879362209114205" lon="15.175905034386208"><ele>206.0</ele><time>2026-04-06T13:08:24Z</time></trkpt><trkpt lat="37.87929192839762" lon="15.17594447037732"><ele>205.16666666666669</ele><time>2026-04-06T13:08:25Z</time></trkpt><trkpt lat="37.879222045661855" lon="15.17598778044089"><ele>204.33333333333334</ele><time>2026-04-06T13:08:26Z</time></trkpt><trkpt lat="37.87914489832873" lon="15.17603690420944"><ele>203.5</ele><time>2026-04-06T13:08:27Z</time></trkpt><trkpt lat="37.87906457760156" lon="15.176088653311595"><ele>202.66666666666669</ele><time>2026-04-06T13:08:28Z</time></trkpt><trkpt lat="37.87897717237914" lon="15.176141396067703"><ele>201.83333333333334</ele><time>2026-04-06T13:08:29Z</time></trkpt><trkpt lat="37.87889069908069" lon="15.176199258951135"><ele>201.0</ele><time>2026-04-06T13:08:30Z</time></trkpt><trkpt lat="37.878802506104215" lon="15.17625135632465"><ele>201.0</ele><time>2026-04-06T13:08:31Z</time></trkpt><trkpt lat="37.87871465795575" lon="15.176308195378667"><ele>201.0</ele><time>2026-04-06T13:08:32Z</time></trkpt><trkpt lat="37.87862130093939" lon="15.17636406519643"><ele>201.0</ele><time>2026-04-06T13:08:33Z</time></trkpt><trkpt lat="37.87852801536942" lon="15.176418747878456"><ele>201.0</ele><time>2026-04-06T13:08:34Z</time></trkpt><trkpt lat="37.878434121760996" lon="15.176477199695249"><ele>201.0</ele><time>2026-04-06T13:08:35Z</time></trkpt><trkpt lat="37.8783355276089" lon="15.176536903187928"><ele>199.5</ele><time>2026-04-06T13:08:36Z</time></trkpt><trkpt lat="37.878236686617555" lon="15.176596568294391"><ele>198.0</ele><time>2026-04-06T13:08:37Z</time></trkpt><trkpt lat="37.87813345174957" lon="15.176659659467193"><ele>196.5</ele><time>2026-04-06T13:08:38Z</time></trkpt><trkpt lat="37.87802896645564" lon="15.176722503499986"><ele>195.0</ele><time>2026-04-06T13:08:39Z</time></trkpt><trkpt lat="37.87792752493189" lon="15.176790082947488"><ele>195.0</ele><time>2026-04-06T13:08:40Z</time></trkpt><trkpt lat="37.87782878331791" lon="15.176852128884825"><ele>195.0</ele><time>2026-04-06T13:08:41Z</time></trkpt><trkpt lat="37.87773462413924" lon="15.176915783237423"><ele>195.0</ele><time>2026-04-06T13:08:42Z</time></trkpt><trkpt lat="37.87764061250114" lon="15.176977679672103"><ele>195.0</ele><time>2026-04-06T13:08:43Z</time></trkpt><trkpt lat="37.87754359041663" lon="15.177039406182306"><ele>195.0</ele><time>2026-04-06T13:08:44Z</time></trkpt><trkpt lat="37.87744711805297" lon="15.177106614099841"><ele>194.0</ele><time>2026-04-06T13:08:45Z</time></trkpt><trkpt lat="37.87735431554412" lon="15.177180786549037"><ele>193.0</ele><time>2026-04-06T13:08:46Z</time></trkpt><trkpt lat="37.877267122599534" lon="15.177266724444584"><ele>192.0</ele><time>2026-04-06T13:08:47Z</time></trkpt><trkpt lat="37.8771830782923" lon="15.177363408530649"><ele>191.0</ele><time>2026-04-06T13:08:48Z</time></trkpt><trkpt lat="37.877108354093096" lon="15.177465787360909"><ele>190.0</ele><time>2026-04-06T13:08:49Z</time></trkpt><trkpt lat="37.87702913556423" lon="15.17757336971659"><ele>189.5</ele><time>2026-04-06T13:08:50Z</time></trkpt><trkpt lat="37.87695345697719" lon="15.177685472163677"><ele>189.0</ele><time>2026-04-06T13:08:51Z</time></trkpt><trkpt lat="37.87687761628254" lon="15.177796396805618"><ele>188.5</ele><time>2026-04-06T13:08:52Z</time></trkpt><trkpt lat="37.87680405406678" lon="15.17791207991881"><ele>188.0</ele><time>2026-04-06T13:08:53Z</time></trkpt><trkpt lat="37.8767177314627" lon="15.17801000780936"><ele>187.0</ele><time>2026-04-06T13:08:54Z</time></trkpt><trkpt lat="37.876642685701455" lon="15.17811919984113"><ele>186.0</ele><time>2026-04-06T13:08:55Z</time></trkpt><trkpt lat="37.876570846951566" lon="15.178224883041572"><ele>185.0</ele><time>2026-04-06T13:08:56Z</time></trkpt><trkpt lat="37.87650213320426" lon="15.178326535781629"><ele>184.0</ele><time>2026-04-06T13:08:57Z</time></trkpt><trkpt lat="37.876440203484975" lon="15.178426899158485"><ele>183.0</ele><time>2026-04-06T13:08:58Z</time></trkpt><trkpt lat="37.87638369675065" lon="15.178524037419331"><ele>182.4</ele><time>2026-04-06T13:08:59Z</time></trkpt><trkpt lat="37.87633755653828" lon="15.178629904116663"><ele>181.8</ele><time>2026-04-06T13:09:00Z</time></trkpt><trkpt lat="37.87630405132128" lon="15.178737047987552"><ele>181.2</ele><time>2026-04-06T13:09:01Z</time></trkpt><trkpt lat="37.876280204206516" lon="15.178856814403018"><ele>180.6</ele><time>2026-04-06T13:09:02Z</time></trkpt><trkpt lat="37.87626470957596" lon="15.178982654986404"><ele>180.0</ele><time>2026-04-06T13:09:03Z</time></trkpt><trkpt lat="37.876261298942026" lon="15.179108660633524"><ele>179.6</ele><time>2026-04-06T13:09:04Z</time></trkpt><trkpt lat="37.876270268321775" lon="15.17924087594724"><ele>179.2</ele><time>2026-04-06T13:09:05Z</time></trkpt><trkpt lat="37.876305859241384" lon="15.179366862498894"><ele>178.8</ele><time>2026-04-06T13:09:06Z</time></trkpt><trkpt lat="37.87633482986045" lon="15.179493982927989"><ele>178.4</ele><time>2026-04-06T13:09:07Z</time></trkpt><trkpt lat="37.87635636661916" lon="15.17962631614385"><ele>178.0</ele><time>2026-04-06T13:09:08Z</time></trkpt><trkpt lat="37.87639503993826" lon="15.179751103426362"><ele>177.60000000000002</ele><time>2026-04-06T13:09:09Z</time></trkpt><trkpt lat="37.87644194301117" lon="15.179869704096921"><ele>177.20000000000002</ele><time>2026-04-06T13:09:10Z</time></trkpt><trkpt lat="37.87647127880004" lon="15.180001638069472"><ele>176.8</ele><time>2026-04-06T13:09:11Z</time></trkpt><trkpt lat="37.87649967483468" lon="15.180139447933762"><ele>176.4</ele><time>2026-04-06T13:09:12Z</time></trkpt><trkpt lat="37.876525439581066" lon="15.180280100931519"><ele>176.0</ele><time>2026-04-06T13:09:13Z</time></trkpt><trkpt lat="37.87654493779354" lon="15.180425403186565"><ele>176.0</ele><time>2026-04-06T13:09:14Z</time></trkpt><trkpt lat="37.876559037437275" lon="15.180570322599468"><ele>176.0</ele><time>2026-04-06T13:09:15Z</time></trkpt><trkpt lat="37.876563149087055" lon="15.180711959408134"><ele>176.0</ele><time>2026-04-06T13:09:16Z</time></trkpt><trkpt lat="37.876558830553215" lon="15.180850414998476"><ele>176.0</ele><time>2026-04-06T13:09:17Z</time></trkpt><trkpt lat="37.87655028294179" lon="15.18098176691521"><ele>176.0</ele><time>2026-04-06T13:09:18Z</time></trkpt><trkpt lat="37.87653623698862" lon="15.181108613717377"><ele>175.8</ele><time>2026-04-06T13:09:19Z</time></trkpt><trkpt lat="37.87651918572692" lon="15.181231124434808"><ele>175.60000000000002</ele><time>2026-04-06T13:09:20Z</time></trkpt><trkpt lat="37.8764970830386" lon="15.181349516722339"><ele>175.4</ele><time>2026-04-06T13:09:20.999Z</time></trkpt><trkpt lat="37.87647260029155" lon="15.181461169289465"><ele>175.2</ele><time>2026-04-06T13:09:21.999Z</time></trkpt><trkpt lat="37.87644475021627" lon="15.181571639296338"><ele>175.0</ele><time>2026-04-06T13:09:22.999Z</time></trkpt><trkpt lat="37.87641231966108" lon="15.181679997630384"><ele>175.4</ele><time>2026-04-06T13:09:23.999Z</time></trkpt><trkpt lat="37.87637596208522" lon="15.181782252625782"><ele>175.8</ele><time>2026-04-06T13:09:24.999Z</time></trkpt><trkpt lat="37.8763351236729" lon="15.1818838217531"><ele>176.2</ele><time>2026-04-06T13:09:25.999Z</time></trkpt><trkpt lat="37.8762899190111" lon="15.181988959014143"><ele>176.6</ele><time>2026-04-06T13:09:26.999Z</time></trkpt><trkpt lat="37.87623684250725" lon="15.182087787811348"><ele>177.0</ele><time>2026-04-06T13:09:27.999Z</time></trkpt><trkpt lat="37.87617942499791" lon="15.182182376602796"><ele>177.0</ele><time>2026-04-06T13:09:28.999Z</time></trkpt><trkpt lat="37.87612131379979" lon="15.182273459895415"><ele>177.0</ele><time>2026-04-06T13:09:29.999Z</time></trkpt><trkpt lat="37.87606153936834" lon="15.182362839963037"><ele>177.0</ele><time>2026-04-06T13:09:30.999Z</time></trkpt><trkpt lat="37.87599364963977" lon="15.182438219576778"><ele>177.0</ele><time>2026-04-06T13:09:31.999Z</time></trkpt><trkpt lat="37.87593302597663" lon="15.182521939997043"><ele>177.0</ele><time>2026-04-06T13:09:32.999Z</time></trkpt><trkpt lat="37.87587522159645" lon="15.182608654647481"><ele>176.6</ele><time>2026-04-06T13:09:33.999Z</time></trkpt><trkpt lat="37.87582321418042" lon="15.182701357703051"><ele>176.2</ele><time>2026-04-06T13:09:34.999Z</time></trkpt><trkpt lat="37.87577911424016" lon="15.18280225040918"><ele>175.8</ele><time>2026-04-06T13:09:35.999Z</time></trkpt><trkpt lat="37.87574057508206" lon="15.182909440715695"><ele>175.4</ele><time>2026-04-06T13:09:36.999Z</time></trkpt><trkpt lat="37.87571104990911" lon="15.183019039932566"><ele>175.0</ele><time>2026-04-06T13:09:37.999Z</time></trkpt><trkpt lat="37.87568842879488" lon="15.183133260540869"><ele>174.4</ele><time>2026-04-06T13:09:38.999Z</time></trkpt><trkpt lat="37.87567642202077" lon="15.1832503024276"><ele>173.8</ele><time>2026-04-06T13:09:39.999Z</time></trkpt><trkpt lat="37.8756721820565" lon="15.183375229422571"><ele>173.2</ele><time>2026-04-06T13:09:40.999Z</time></trkpt><trkpt lat="37.8756783661607" lon="15.18349850484299"><ele>172.6</ele><time>2026-04-06T13:09:41.999Z</time></trkpt><trkpt lat="37.87569195493076" lon="15.183629442007904"><ele>172.0</ele><time>2026-04-06T13:09:42.999Z</time></trkpt><trkpt lat="37.87571942820131" lon="15.183762177586258"><ele>172.0</ele><time>2026-04-06T13:09:43.999Z</time></trkpt><trkpt lat="37.8757579445527" lon="15.183896078416304"><ele>172.0</ele><time>2026-04-06T13:09:44.999Z</time></trkpt><trkpt lat="37.875809555305764" lon="15.184031061956484"><ele>172.0</ele><time>2026-04-06T13:09:45.999Z</time></trkpt><trkpt lat="37.87586775013602" lon="15.18416372140113"><ele>172.0</ele><time>2026-04-06T13:09:46.999Z</time></trkpt><trkpt lat="37.875932294699325" lon="15.184298354830203"><ele>175.0</ele><time>2026-04-06T13:09:47.999Z</time></trkpt><trkpt lat="37.87600076877452" lon="15.184434052584878"><ele>178.0</ele><time>2026-04-06T13:09:48.999Z</time></trkpt><trkpt lat="37.8760708504635" lon="15.184569868486385"><ele>181.0</ele><time>2026-04-06T13:09:49.999Z</time></trkpt><trkpt lat="37.87613562782915" lon="15.184705057679496"><ele>184.0</ele><time>2026-04-06T13:09:50.999Z</time></trkpt><trkpt lat="37.876202359092694" lon="15.18484096878245"><ele>182.5</ele><time>2026-04-06T13:09:51.999Z</time></trkpt><trkpt lat="37.876267367565056" lon="15.184975765658484"><ele>181.0</ele><time>2026-04-06T13:09:52.999Z</time></trkpt><trkpt lat="37.87633395839118" lon="15.185105941932218"><ele>179.5</ele><time>2026-04-06T13:09:53.999Z</time></trkpt><trkpt lat="37.876397364917885" lon="15.185234060627971"><ele>178.0</ele><time>2026-04-06T13:09:54.999Z</time></trkpt><trkpt lat="37.87646101053891" lon="15.18535881314788"><ele>178.0</ele><time>2026-04-06T13:09:55.999Z</time></trkpt><trkpt lat="37.87652273573681" lon="15.185485425888992"><ele>178.0</ele><time>2026-04-06T13:09:56.999Z</time></trkpt><trkpt lat="37.87658481855937" lon="15.185607270049472"><ele>178.0</ele><time>2026-04-06T13:09:57.999Z</time></trkpt><trkpt lat="37.87664594580262" lon="15.185727889245227"><ele>178.0</ele><time>2026-04-06T13:09:58.999Z</time></trkpt><trkpt lat="37.876709468313116" lon="15.185844812312808"><ele>178.75</ele><time>2026-04-06T13:09:59.999Z</time></trkpt><trkpt lat="37.87678080521665" lon="15.185956253608001"><ele>179.5</ele><time>2026-04-06T13:10:00.999Z</time></trkpt><trkpt lat="37.876859846677284" lon="15.18605998925863"><ele>180.25</ele><time>2026-04-06T13:10:01.999Z</time></trkpt><trkpt lat="37.87694396837236" lon="15.186160994232301"><ele>181.0</ele><time>2026-04-06T13:10:02.999Z</time></trkpt><trkpt lat="37.87704113100043" lon="15.186250233460942"><ele>181.0</ele><time>2026-04-06T13:10:03.999Z</time></trkpt><trkpt lat="37.877143817825136" lon="15.186338262745643"><ele>181.0</ele><time>2026-04-06T13:10:05Z</time></trkpt><trkpt lat="37.87725122255046" lon="15.186415656985398"><ele>181.0</ele><time>2026-04-06T13:10:06Z</time></trkpt><trkpt lat="37.87736440129025" lon="15.18648490959676"><ele>181.0</ele><time>2026-04-06T13:10:07Z</time></trkpt><trkpt lat="37.87747679556317" lon="15.18654645846551"><ele>177.75</ele><time>2026-04-06T13:10:08Z</time></trkpt><trkpt lat="37.8775874870383" lon="15.186603145492047"><ele>174.5</ele><time>2026-04-06T13:10:09Z</time></trkpt><trkpt lat="37.8776959540203" lon="15.186658827987142"><ele>171.25</ele><time>2026-04-06T13:10:10Z</time></trkpt><trkpt lat="37.87779869976931" lon="15.186717949189783"><ele>168.0</ele><time>2026-04-06T13:10:11Z</time></trkpt><trkpt lat="37.87789685403092" lon="15.186779182310898"><ele>168.0</ele><time>2026-04-06T13:10:12Z</time></trkpt><trkpt lat="37.87798787989337" lon="15.186847480937729"><ele>168.0</ele><time>2026-04-06T13:10:13Z</time></trkpt><trkpt lat="37.87806769647205" lon="15.186926394276247"><ele>168.0</ele><time>2026-04-06T13:10:14Z</time></trkpt><trkpt lat="37.87813619916308" lon="15.187016670627894"><ele>168.0</ele><time>2026-04-06T13:10:15Z</time></trkpt><trkpt lat="37.87819328367" lon="15.187119214711116"><ele>168.0</ele><time>2026-04-06T13:10:16Z</time></trkpt><trkpt lat="37.87823572645164" lon="15.187234304123084"><ele>165.0</ele><time>2026-04-06T13:10:17Z</time></trkpt><trkpt lat="37.878262037400674" lon="15.187358372137698"><ele>162.0</ele><time>2026-04-06T13:10:18Z</time></trkpt><trkpt lat="37.87825572521934" lon="15.187491277655733"><ele>159.0</ele><time>2026-04-06T13:10:19Z</time></trkpt><trkpt lat="37.87825858900491" lon="15.187619077236151"><ele>156.0</ele><time>2026-04-06T13:10:20Z</time></trkpt><trkpt lat="37.87826308307282" lon="15.187748585495626"><ele>153.0</ele><time>2026-04-06T13:10:21Z</time></trkpt><trkpt lat="37.878267489621955" lon="15.187875571654592"><ele>153.0</ele><time>2026-04-06T13:10:22Z</time></trkpt><trkpt lat="37.87827177005584" lon="15.187998923216686"><ele>153.0</ele><time>2026-04-06T13:10:23Z</time></trkpt><trkpt lat="37.8782749240876" lon="15.188117034028933"><ele>153.0</ele><time>2026-04-06T13:10:24Z</time></trkpt><trkpt lat="37.878277006069325" lon="15.188232901680635"><ele>153.0</ele><time>2026-04-06T13:10:25Z</time></trkpt><trkpt lat="37.87828688442972" lon="15.188344849586459"><ele>153.0</ele><time>2026-04-06T13:10:26Z</time></trkpt><trkpt lat="37.878268142069786" lon="15.188453074015387"><ele>152.8</ele><time>2026-04-06T13:10:27Z</time></trkpt><trkpt lat="37.87823969002235" lon="15.188556783223069"><ele>152.60000000000002</ele><time>2026-04-06T13:10:28Z</time></trkpt><trkpt lat="37.8782014121311" lon="15.188658433201658"><ele>152.39999999999998</ele><time>2026-04-06T13:10:29Z</time></trkpt><trkpt lat="37.87815165531381" lon="15.188758972229747"><ele>152.2</ele><time>2026-04-06T13:10:30Z</time></trkpt><trkpt lat="37.8780932595123" lon="15.18885585718734"><ele>152.0</ele><time>2026-04-06T13:10:31Z</time></trkpt><trkpt lat="37.87802203703786" lon="15.188944647655221"><ele>155.0</ele><time>2026-04-06T13:10:32Z</time></trkpt><trkpt lat="37.877945591347014" lon="15.189031712467806"><ele>158.0</ele><time>2026-04-06T13:10:33Z</time></trkpt><trkpt lat="37.877863029509214" lon="15.189113017482457"><ele>161.0</ele><time>2026-04-06T13:10:34Z</time></trkpt><trkpt lat="37.877772232007146" lon="15.189181720667111"><ele>164.0</ele><time>2026-04-06T13:10:35Z</time></trkpt><trkpt lat="37.87769204639547" lon="15.189259355148351"><ele>167.0</ele><time>2026-04-06T13:10:36Z</time></trkpt><trkpt lat="37.877617638495835" lon="15.189336785634538"><ele>164.0</ele><time>2026-04-06T13:10:37Z</time></trkpt><trkpt lat="37.877542370422724" lon="15.189410669712519"><ele>161.0</ele><time>2026-04-06T13:10:38Z</time></trkpt><trkpt lat="37.8774655024927" lon="15.18948461202857"><ele>158.0</ele><time>2026-04-06T13:10:39Z</time></trkpt><trkpt lat="37.877387731475906" lon="15.189557429824188"><ele>155.0</ele><time>2026-04-06T13:10:40Z</time></trkpt><trkpt lat="37.87730654242433" lon="15.18963145351861"><ele>152.0</ele><time>2026-04-06T13:10:41Z</time></trkpt><trkpt lat="37.87722419945248" lon="15.189705987494"><ele>152.0</ele><time>2026-04-06T13:10:42Z</time></trkpt><trkpt lat="37.87713746173008" lon="15.189780751974878"><ele>152.0</ele><time>2026-04-06T13:10:43Z</time></trkpt><trkpt lat="37.87704564531926" lon="15.189853217130581"><ele>152.0</ele><time>2026-04-06T13:10:44Z</time></trkpt><trkpt lat="37.87694834017754" lon="15.189925816546433"><ele>152.0</ele><time>2026-04-06T13:10:45Z</time></trkpt><trkpt lat="37.87684519300307" lon="15.189997619214962"><ele>152.0</ele><time>2026-04-06T13:10:46Z</time></trkpt><trkpt lat="37.876740660328075" lon="15.190070088553401"><ele>151.5</ele><time>2026-04-06T13:10:47Z</time></trkpt><trkpt lat="37.876632654705816" lon="15.190144972459908"><ele>151.0</ele><time>2026-04-06T13:10:48Z</time></trkpt><trkpt lat="37.8765208004556" lon="15.19021700449945"><ele>150.5</ele><time>2026-04-06T13:10:49Z</time></trkpt><trkpt lat="37.8764115086652" lon="15.190292002717536"><ele>150.0</ele><time>2026-04-06T13:10:50Z</time></trkpt><trkpt lat="37.87629941030327" lon="15.190366261183765"><ele>150.0</ele><time>2026-04-06T13:10:51Z</time></trkpt><trkpt lat="37.87618257658682" lon="15.19042731145579"><ele>150.0</ele><time>2026-04-06T13:10:52Z</time></trkpt><trkpt lat="37.876071964520314" lon="15.19050012770099"><ele>150.0</ele><time>2026-04-06T13:10:53Z</time></trkpt><trkpt lat="37.87596344375597" lon="15.190570581060792"><ele>150.0</ele><time>2026-04-06T13:10:54Z</time></trkpt><trkpt lat="37.87585762783288" lon="15.190640428374628"><ele>149.0</ele><time>2026-04-06T13:10:55Z</time></trkpt><trkpt lat="37.875749227828386" lon="15.19071185077791"><ele>148.0</ele><time>2026-04-06T13:10:56Z</time></trkpt><trkpt lat="37.87564003753598" lon="15.190780848945254"><ele>147.0</ele><time>2026-04-06T13:10:57Z</time></trkpt><trkpt lat="37.875527773911706" lon="15.190852325170681"><ele>146.0</ele><time>2026-04-06T13:10:58Z</time></trkpt><trkpt lat="37.87541355245217" lon="15.190922601667715"><ele>146.0</ele><time>2026-04-06T13:10:59Z</time></trkpt><trkpt lat="37.875299047367434" lon="15.190991675446236"><ele>146.0</ele><time>2026-04-06T13:11:00Z</time></trkpt><trkpt lat="37.87518327100423" lon="15.19105786635017"><ele>146.0</ele><time>2026-04-06T13:11:01Z</time></trkpt><trkpt lat="37.875066819004324" lon="15.19112249283251"><ele>146.0</ele><time>2026-04-06T13:11:02Z</time></trkpt><trkpt lat="37.8749496859286" lon="15.191182148386213"><ele>143.75</ele><time>2026-04-06T13:11:03Z</time></trkpt><trkpt lat="37.87483237236569" lon="15.191242131583017"><ele>141.5</ele><time>2026-04-06T13:11:04Z</time></trkpt><trkpt lat="37.87471258070839" lon="15.191298864281581"><ele>139.25</ele><time>2026-04-06T13:11:05Z</time></trkpt><trkpt lat="37.8745900212996" lon="15.191353792458328"><ele>137.0</ele><time>2026-04-06T13:11:06Z</time></trkpt><trkpt lat="37.87446502281325" lon="15.191408526373726"><ele>137.0</ele><time>2026-04-06T13:11:07Z</time></trkpt><trkpt lat="37.87433798216905" lon="15.191461456973151"><ele>137.0</ele><time>2026-04-06T13:11:08Z</time></trkpt><trkpt lat="37.87420863293488" lon="15.191514659669041"><ele>137.0</ele><time>2026-04-06T13:11:09Z</time></trkpt><trkpt lat="37.8740792458833" lon="15.191562466271444"><ele>137.0</ele><time>2026-04-06T13:11:10Z</time></trkpt><trkpt lat="37.873952663761685" lon="15.191612616478555"><ele>136.5</ele><time>2026-04-06T13:11:11Z</time></trkpt><trkpt lat="37.873824595487" lon="15.191658868831045"><ele>136.0</ele><time>2026-04-06T13:11:12Z</time></trkpt><trkpt lat="37.873698778149546" lon="15.191706611732954"><ele>135.5</ele><time>2026-04-06T13:11:13Z</time></trkpt><trkpt lat="37.87357283034757" lon="15.19175174511551"><ele>135.0</ele><time>2026-04-06T13:11:14Z</time></trkpt><trkpt lat="37.87345059584281" lon="15.191793834579565"><ele>133.5</ele><time>2026-04-06T13:11:15Z</time></trkpt><trkpt lat="37.87333163090655" lon="15.191831841206715"><ele>132.0</ele><time>2026-04-06T13:11:16Z</time></trkpt><trkpt lat="37.87321536659489" lon="15.191867881556336"><ele>130.5</ele><time>2026-04-06T13:11:17Z</time></trkpt><trkpt lat="37.873104058692455" lon="15.19190383131508"><ele>129.0</ele><time>2026-04-06T13:11:18Z</time></trkpt><trkpt lat="37.87299363664633" lon="15.191941089601034"><ele>129.0</ele><time>2026-04-06T13:11:19Z</time></trkpt><trkpt lat="37.87288309926783" lon="15.191978878476789"><ele>129.0</ele><time>2026-04-06T13:11:20Z</time></trkpt><trkpt lat="37.872775680727834" lon="15.19201064205727"><ele>129.0</ele><time>2026-04-06T13:11:21Z</time></trkpt><trkpt lat="37.87267198179831" lon="15.192046824055893"><ele>129.0</ele><time>2026-04-06T13:11:22Z</time></trkpt><trkpt lat="37.87257657801263" lon="15.192078920995701"><ele>129.0</ele><time>2026-04-06T13:11:23Z</time></trkpt><trkpt lat="37.872485999245974" lon="15.192108958590198"><ele>129.0</ele><time>2026-04-06T13:11:24Z</time></trkpt><trkpt lat="37.87239944624536" lon="15.1921390804831"><ele>129.0</ele><time>2026-04-06T13:11:25Z</time></trkpt><trkpt lat="37.87231353176797" lon="15.19216770469948"><ele>129.0</ele><time>2026-04-06T13:11:26Z</time></trkpt><trkpt lat="37.87222356569818" lon="15.192200090179341"><ele>129.0</ele><time>2026-04-06T13:11:27Z</time></trkpt><trkpt lat="37.8721283264172" lon="15.192234814190407"><ele>129.0</ele><time>2026-04-06T13:11:28Z</time></trkpt><trkpt lat="37.8720281421129" lon="15.192270056964237"><ele>129.0</ele><time>2026-04-06T13:11:29Z</time></trkpt><trkpt lat="37.87192316295717" lon="15.19230180541866"><ele>129.0</ele><time>2026-04-06T13:11:30Z</time></trkpt><trkpt lat="37.8718147113737" lon="15.192330455433627"><ele>129.0</ele><time>2026-04-06T13:11:31Z</time></trkpt><trkpt lat="37.87171004111636" lon="15.192352570047994"><ele>129.0</ele><time>2026-04-06T13:11:32Z</time></trkpt><trkpt lat="37.87161026440027" lon="15.192374519464988"><ele>129.0</ele><time>2026-04-06T13:11:33Z</time></trkpt><trkpt lat="37.87151993101714" lon="15.192398595510593"><ele>129.33333333333334</ele><time>2026-04-06T13:11:34Z</time></trkpt><trkpt lat="37.87143574340732" lon="15.192422885916073"><ele>129.66666666666666</ele><time>2026-04-06T13:11:34.999Z</time></trkpt><trkpt lat="37.87135580708762" lon="15.192448538342534"><ele>130.0</ele><time>2026-04-06T13:11:35.999Z</time></trkpt><trkpt lat="37.871274080880646" lon="15.19247441059832"><ele>130.33333333333331</ele><time>2026-04-06T13:11:36.999Z</time></trkpt><trkpt lat="37.87118837800113" lon="15.19249805352463"><ele>130.66666666666666</ele><time>2026-04-06T13:11:37.999Z</time></trkpt><trkpt lat="37.87110320102031" lon="15.192524351638136"><ele>131.0</ele><time>2026-04-06T13:11:38.999Z</time></trkpt><trkpt lat="37.87102065453104" lon="15.192553873942744"><ele>130.6</ele><time>2026-04-06T13:11:39.999Z</time></trkpt><trkpt lat="37.8709287746303" lon="15.192588969390902"><ele>130.2</ele><time>2026-04-06T13:11:40.999Z</time></trkpt><trkpt lat="37.87083119737174" lon="15.19263486605445"><ele>129.8</ele><time>2026-04-06T13:11:41.999Z</time></trkpt><trkpt lat="37.87073003514962" lon="15.1926956730363"><ele>129.4</ele><time>2026-04-06T13:11:42.999Z</time></trkpt><trkpt lat="37.87062681788913" lon="15.192769872310512"><ele>129.0</ele><time>2026-04-06T13:11:43.999Z</time></trkpt><trkpt lat="37.8705199770643" lon="15.19285810692625"><ele>129.0</ele><time>2026-04-06T13:11:44.999Z</time></trkpt><trkpt lat="37.87041117879351" lon="15.19295489027825"><ele>129.0</ele><time>2026-04-06T13:11:45.999Z</time></trkpt><trkpt lat="37.87030294775314" lon="15.193054549929153"><ele>129.0</ele><time>2026-04-06T13:11:46.999Z</time></trkpt><trkpt lat="37.8701963779215" lon="15.193154603176474"><ele>129.0</ele><time>2026-04-06T13:11:47.999Z</time></trkpt><trkpt lat="37.870091268455425" lon="15.193250925196969"><ele>127.75</ele><time>2026-04-06T13:11:48.999Z</time></trkpt><trkpt lat="37.86999073140438" lon="15.19334508204829"><ele>126.5</ele><time>2026-04-06T13:11:49.999Z</time></trkpt><trkpt lat="37.869891767712296" lon="15.193436986080489"><ele>125.25</ele><time>2026-04-06T13:11:50.999Z</time></trkpt><trkpt lat="37.86979269421511" lon="15.193525785238485"><ele>124.0</ele><time>2026-04-06T13:11:51.999Z</time></trkpt><trkpt lat="37.86969304595221" lon="15.193616974146614"><ele>124.0</ele><time>2026-04-06T13:11:52.999Z</time></trkpt><trkpt lat="37.869594949733234" lon="15.193706321809929"><ele>124.0</ele><time>2026-04-06T13:11:53.999Z</time></trkpt><trkpt lat="37.86949584797867" lon="15.193800167288659"><ele>124.0</ele><time>2026-04-06T13:11:54.999Z</time></trkpt><trkpt lat="37.86939733017229" lon="15.193896819515215"><ele>124.0</ele><time>2026-04-06T13:11:55.999Z</time></trkpt><trkpt lat="37.86929828323585" lon="15.19399958353342"><ele>122.75</ele><time>2026-04-06T13:11:56.999Z</time></trkpt><trkpt lat="37.86920141570114" lon="15.194109163770033"><ele>121.5</ele><time>2026-04-06T13:11:57.999Z</time></trkpt><trkpt lat="37.86910847080641" lon="15.194230754061248"><ele>120.25</ele><time>2026-04-06T13:11:58.999Z</time></trkpt><trkpt lat="37.86901751352874" lon="15.194358791606371"><ele>119.0</ele><time>2026-04-06T13:11:59.999Z</time></trkpt><trkpt lat="37.86892838078062" lon="15.194493265829799"><ele>119.0</ele><time>2026-04-06T13:12:00.999Z</time></trkpt><trkpt lat="37.86884026532426" lon="15.194630929869637"><ele>119.0</ele><time>2026-04-06T13:12:01.999Z</time></trkpt><trkpt lat="37.86875265855579" lon="15.194776294150227"><ele>119.0</ele><time>2026-04-06T13:12:02.999Z</time></trkpt><trkpt lat="37.86866289236271" lon="15.194926505405032"><ele>119.0</ele><time>2026-04-06T13:12:03.999Z</time></trkpt><trkpt lat="37.86857461456191" lon="15.195077436680393"><ele>119.5</ele><time>2026-04-06T13:12:04.999Z</time></trkpt><trkpt lat="37.86848942879225" lon="15.195221857647512"><ele>120.0</ele><time>2026-04-06T13:12:05.999Z</time></trkpt><trkpt lat="37.86840320935385" lon="15.195368730318265"><ele>120.5</ele><time>2026-04-06T13:12:06.999Z</time></trkpt><trkpt lat="37.86831787586971" lon="15.19550820544767"><ele>121.0</ele><time>2026-04-06T13:12:07.999Z</time></trkpt><trkpt lat="37.86823738510093" lon="15.195649680944419"><ele>119.75</ele><time>2026-04-06T13:12:08.999Z</time></trkpt><trkpt lat="37.868154764232514" lon="15.195785356417773"><ele>118.5</ele><time>2026-04-06T13:12:09.999Z</time></trkpt><trkpt lat="37.868073403479926" lon="15.195919178837713"><ele>117.25</ele><time>2026-04-06T13:12:11Z</time></trkpt><trkpt lat="37.86799477691459" lon="15.196054883797148"><ele>116.0</ele><time>2026-04-06T13:12:12Z</time></trkpt><trkpt lat="37.86791411372266" lon="15.196190008732055"><ele>116.0</ele><time>2026-04-06T13:12:13Z</time></trkpt><trkpt lat="37.86783286082474" lon="15.196322264905486"><ele>116.0</ele><time>2026-04-06T13:12:14Z</time></trkpt><trkpt lat="37.86775059500179" lon="15.196452956549114"><ele>116.0</ele><time>2026-04-06T13:12:15Z</time></trkpt><trkpt lat="37.86766993372343" lon="15.19658142078903"><ele>116.0</ele><time>2026-04-06T13:12:16Z</time></trkpt><trkpt lat="37.86758817424509" lon="15.196710011011092"><ele>115.25</ele><time>2026-04-06T13:12:17Z</time></trkpt><trkpt lat="37.867511153446614" lon="15.196838037712416"><ele>114.5</ele><time>2026-04-06T13:12:18Z</time></trkpt><trkpt lat="37.86743427743085" lon="15.196968873314272"><ele>113.75</ele><time>2026-04-06T13:12:19Z</time></trkpt><trkpt lat="37.86735905834828" lon="15.197085923560962"><ele>113.0</ele><time>2026-04-06T13:12:20Z</time></trkpt><trkpt lat="37.86729105717049" lon="15.197200866984252"><ele>113.0</ele><time>2026-04-06T13:12:21Z</time></trkpt><trkpt lat="37.86722599301086" lon="15.19731485297841"><ele>113.00000000000001</ele><time>2026-04-06T13:12:22Z</time></trkpt><trkpt lat="37.86716682105185" lon="15.197432371033864"><ele>113.00000000000001</ele><time>2026-04-06T13:12:23Z</time></trkpt><trkpt lat="37.8671185121861" lon="15.197552545404982"><ele>113.0</ele><time>2026-04-06T13:12:24Z</time></trkpt><trkpt lat="37.86708121167203" lon="15.19767866867259"><ele>113.0</ele><time>2026-04-06T13:12:25Z</time></trkpt><trkpt lat="37.86706020752642" lon="15.19780897841221"><ele>113.80000000000001</ele><time>2026-04-06T13:12:26Z</time></trkpt><trkpt lat="37.8670526397243" lon="15.197944269435787"><ele>114.60000000000001</ele><time>2026-04-06T13:12:27Z</time></trkpt><trkpt lat="37.867064911773625" lon="15.198077414210898"><ele>115.39999999999999</ele><time>2026-04-06T13:12:28Z</time></trkpt><trkpt lat="37.867084980315504" lon="15.198208402838004"><ele>116.19999999999999</ele><time>2026-04-06T13:12:29Z</time></trkpt><trkpt lat="37.86711478291341" lon="15.198335559028772"><ele>117.0</ele><time>2026-04-06T13:12:30Z</time></trkpt><trkpt lat="37.86715851341564" lon="15.198452622252669"><ele>117.0</ele><time>2026-04-06T13:12:31Z</time></trkpt><trkpt lat="37.86722269784365" lon="15.19855597055559"><ele>116.99999999999999</ele><time>2026-04-06T13:12:32Z</time></trkpt><trkpt lat="37.867302358868514" lon="15.198645430125739"><ele>116.99999999999999</ele><time>2026-04-06T13:12:33Z</time></trkpt><trkpt lat="37.86739621311417" lon="15.198723007120764"><ele>117.0</ele><time>2026-04-06T13:12:34Z</time></trkpt><trkpt lat="37.86749657757301" lon="15.198790959947589"><ele>117.0</ele><time>2026-04-06T13:12:35Z</time></trkpt><trkpt lat="37.86760371318628" lon="15.198859868676728"><ele>116.5</ele><time>2026-04-06T13:12:36Z</time></trkpt><trkpt lat="37.86771673949157" lon="15.198932710893974"><ele>116.0</ele><time>2026-04-06T13:12:37Z</time></trkpt><trkpt lat="37.86783064561071" lon="15.199005706423941"><ele>115.5</ele><time>2026-04-06T13:12:38Z</time></trkpt><trkpt lat="37.86793827491413" lon="15.199075256364637"><ele>115.0</ele><time>2026-04-06T13:12:39Z</time></trkpt><trkpt lat="37.868034101804675" lon="15.199141399822965"><ele>115.0</ele><time>2026-04-06T13:12:40Z</time></trkpt><trkpt lat="37.86813064764018" lon="15.199207063035727"><ele>115.0</ele><time>2026-04-06T13:12:41Z</time></trkpt><trkpt lat="37.86822557024848" lon="15.199278690967537"><ele>115.0</ele><time>2026-04-06T13:12:42Z</time></trkpt><trkpt lat="37.868312785400065" lon="15.199351720802696"><ele>115.0</ele><time>2026-04-06T13:12:43Z</time></trkpt><trkpt lat="37.868393259971576" lon="15.199432876016997"><ele>115.0</ele><time>2026-04-06T13:12:44Z</time></trkpt><trkpt lat="37.86846156697455" lon="15.199517266358752"><ele>116.0</ele><time>2026-04-06T13:12:45Z</time></trkpt><trkpt lat="37.86852015849549" lon="15.199605794303233"><ele>117.0</ele><time>2026-04-06T13:12:46Z</time></trkpt><trkpt lat="37.86857017904309" lon="15.199697168448772"><ele>118.0</ele><time>2026-04-06T13:12:47Z</time></trkpt><trkpt lat="37.86861363381095" lon="15.19979563002541"><ele>119.0</ele><time>2026-04-06T13:12:48Z</time></trkpt><trkpt lat="37.868649624820804" lon="15.199904915123252"><ele>120.0</ele><time>2026-04-06T13:12:49Z</time></trkpt><trkpt lat="37.86867723831743" lon="15.200017603050947"><ele>120.0</ele><time>2026-04-06T13:12:50Z</time></trkpt><trkpt lat="37.868695881686826" lon="15.200138492904415"><ele>120.0</ele><time>2026-04-06T13:12:51Z</time></trkpt><trkpt lat="37.8687052022877" lon="15.200263472979127"><ele>120.0</ele><time>2026-04-06T13:12:52Z</time></trkpt><trkpt lat="37.86870472229538" lon="15.200391051248706"><ele>120.0</ele><time>2026-04-06T13:12:53Z</time></trkpt><trkpt lat="37.86869304137608" lon="15.200524725043758"><ele>120.0</ele><time>2026-04-06T13:12:54Z</time></trkpt><trkpt lat="37.86866864322441" lon="15.200658829972088"><ele>119.5</ele><time>2026-04-06T13:12:55Z</time></trkpt><trkpt lat="37.868630811397225" lon="15.200792421726053"><ele>119.0</ele><time>2026-04-06T13:12:56Z</time></trkpt><trkpt lat="37.86857883050866" lon="15.200921329166757"><ele>118.5</ele><time>2026-04-06T13:12:57Z</time></trkpt><trkpt lat="37.86851596988992" lon="15.201041001112026"><ele>118.0</ele><time>2026-04-06T13:12:58Z</time></trkpt><trkpt lat="37.868441673042476" lon="15.201152225660694"><ele>118.0</ele><time>2026-04-06T13:12:59Z</time></trkpt><trkpt lat="37.86836051114741" lon="15.201259990886156"><ele>118.0</ele><time>2026-04-06T13:13:00Z</time></trkpt><trkpt lat="37.86827969986968" lon="15.201362046988049"><ele>118.0</ele><time>2026-04-06T13:13:01Z</time></trkpt><trkpt lat="37.86820223642459" lon="15.201466567814187"><ele>118.0</ele><time>2026-04-06T13:13:02Z</time></trkpt><trkpt lat="37.868135233202366" lon="15.201579900250836"><ele>122.25</ele><time>2026-04-06T13:13:03Z</time></trkpt><trkpt lat="37.86807950298336" lon="15.201700814301555"><ele>126.5</ele><time>2026-04-06T13:13:04Z</time></trkpt><trkpt lat="37.86803313338593" lon="15.201829498912483"><ele>130.75</ele><time>2026-04-06T13:13:05Z</time></trkpt><trkpt lat="37.86799935662375" lon="15.201966131029652"><ele>135.0</ele><time>2026-04-06T13:13:06Z</time></trkpt><trkpt lat="37.8679786637301" lon="15.202109417649503"><ele>135.0</ele><time>2026-04-06T13:13:07Z</time></trkpt><trkpt lat="37.86796562010295" lon="15.202259284125667"><ele>135.0</ele><time>2026-04-06T13:13:08Z</time></trkpt><trkpt lat="37.86795666446733" lon="15.202411260713522"><ele>135.0</ele><time>2026-04-06T13:13:09Z</time></trkpt><trkpt lat="37.867952719844936" lon="15.202560312663268"><ele>135.0</ele><time>2026-04-06T13:13:10Z</time></trkpt><trkpt lat="37.86795102485561" lon="15.202705400593393"><ele>136.8</ele><time>2026-04-06T13:13:11Z</time></trkpt><trkpt lat="37.86795123599348" lon="15.202840570829308"><ele>138.6</ele><time>2026-04-06T13:13:12Z</time></trkpt><trkpt lat="37.86795361658527" lon="15.202968358286391"><ele>140.4</ele><time>2026-04-06T13:13:13Z</time></trkpt><trkpt lat="37.86796392770453" lon="15.203088143149387"><ele>142.2</ele><time>2026-04-06T13:13:14Z</time></trkpt><trkpt lat="37.86798604601101" lon="15.203207386904383"><ele>144.0</ele><time>2026-04-06T13:13:15Z</time></trkpt><trkpt lat="37.868024643261265" lon="15.203324840887584"><ele>144.0</ele><time>2026-04-06T13:13:16Z</time></trkpt><trkpt lat="37.86807876707464" lon="15.203439637295777"><ele>144.0</ele><time>2026-04-06T13:13:17Z</time></trkpt><trkpt lat="37.868143845618704" lon="15.20354650977227"><ele>144.0</ele><time>2026-04-06T13:13:18Z</time></trkpt><trkpt lat="37.86821271191041" lon="15.203644738186744"><ele>144.0</ele><time>2026-04-06T13:13:19Z</time></trkpt><trkpt lat="37.86828594528452" lon="15.203737375639717"><ele>144.0</ele><time>2026-04-06T13:13:20Z</time></trkpt><trkpt lat="37.868352573244984" lon="15.203829777564748"><ele>144.0</ele><time>2026-04-06T13:13:21Z</time></trkpt><trkpt lat="37.86841980930828" lon="15.203920609795519"><ele>144.0</ele><time>2026-04-06T13:13:22Z</time></trkpt><trkpt lat="37.8684846930577" lon="15.204005067792037"><ele>144.0</ele><time>2026-04-06T13:13:23Z</time></trkpt><trkpt lat="37.868551364037984" lon="15.20408443762597"><ele>144.0</ele><time>2026-04-06T13:13:24Z</time></trkpt><trkpt lat="37.868627648178716" lon="15.20415762489223"><ele>144.0</ele><time>2026-04-06T13:13:25Z</time></trkpt><trkpt lat="37.86871678742242" lon="15.204209481855145"><ele>143.0</ele><time>2026-04-06T13:13:26Z</time></trkpt><trkpt lat="37.86880940478579" lon="15.204241359198841"><ele>142.0</ele><time>2026-04-06T13:13:27Z</time></trkpt><trkpt lat="37.86891022094147" lon="15.20424776004693"><ele>141.0</ele><time>2026-04-06T13:13:28Z</time></trkpt><trkpt lat="37.869011706050514" lon="15.204231223329067"><ele>140.0</ele><time>2026-04-06T13:13:29Z</time></trkpt><trkpt lat="37.86911560376553" lon="15.204190529374548"><ele>139.0</ele><time>2026-04-06T13:13:30Z</time></trkpt><trkpt lat="37.86921741348588" lon="15.204128252386926"><ele>140.75</ele><time>2026-04-06T13:13:31Z</time></trkpt><trkpt lat="37.869322109409254" lon="15.204057096991686"><ele>142.5</ele><time>2026-04-06T13:13:32Z</time></trkpt><trkpt lat="37.869426021580416" lon="15.20399265681313"><ele>144.25</ele><time>2026-04-06T13:13:33Z</time></trkpt><trkpt lat="37.869534660649336" lon="15.203939262671705"><ele>146.0</ele><time>2026-04-06T13:13:34Z</time></trkpt><trkpt lat="37.86963592581794" lon="15.20389708244238"><ele>148.2</ele><time>2026-04-06T13:13:35Z</time></trkpt><trkpt lat="37.86973659200978" lon="15.20386504715922"><ele>150.39999999999998</ele><time>2026-04-06T13:13:36Z</time></trkpt><trkpt lat="37.869841411267295" lon="15.203843796669384"><ele>152.6</ele><time>2026-04-06T13:13:36.999Z</time></trkpt><trkpt lat="37.86994685900529" lon="15.203832626509572"><ele>154.79999999999998</ele><time>2026-04-06T13:13:37.999Z</time></trkpt><trkpt lat="37.870053221608245" lon="15.203833617016446"><ele>157.0</ele><time>2026-04-06T13:13:38.999Z</time></trkpt><trkpt lat="37.87016261400234" lon="15.203837375073634"><ele>157.0</ele><time>2026-04-06T13:13:39.999Z</time></trkpt><trkpt lat="37.87027163793452" lon="15.20384716431828"><ele>157.0</ele><time>2026-04-06T13:13:40.999Z</time></trkpt><trkpt lat="37.87038086620686" lon="15.203858552574403"><ele>157.0</ele><time>2026-04-06T13:13:41.999Z</time></trkpt><trkpt lat="37.87049067735379" lon="15.203872181374786"><ele>157.0</ele><time>2026-04-06T13:13:42.999Z</time></trkpt><trkpt lat="37.87059831498539" lon="15.203884063563262"><ele>157.0</ele><time>2026-04-06T13:13:43.999Z</time></trkpt><trkpt lat="37.870702258124076" lon="15.203897869391962"><ele>157.0</ele><time>2026-04-06T13:13:44.999Z</time></trkpt><trkpt lat="37.870798075327464" lon="15.2039068111419"><ele>157.0</ele><time>2026-04-06T13:13:45.999Z</time></trkpt><trkpt lat="37.87089122005387" lon="15.203918777334328"><ele>157.0</ele><time>2026-04-06T13:13:46.999Z</time></trkpt><trkpt lat="37.870984189742614" lon="15.203929950612824"><ele>157.0</ele><time>2026-04-06T13:13:47.999Z</time></trkpt><trkpt lat="37.87106509125672" lon="15.203942136012211"><ele>157.0</ele><time>2026-04-06T13:13:48.999Z</time></trkpt><trkpt lat="37.87113067008618" lon="15.203951800020407"><ele>157.0</ele><time>2026-04-06T13:13:49.999Z</time></trkpt><trkpt lat="37.87122893467238" lon="15.203969586993564"><ele>157.16666666666669</ele><time>2026-04-06T13:13:51.999Z</time></trkpt><trkpt lat="37.87131649912003" lon="15.203987822972389"><ele>157.33333333333334</ele><time>2026-04-06T13:13:53.999Z</time></trkpt><trkpt lat="37.87138682332143" lon="15.203997836080646"><ele>157.5</ele><time>2026-04-06T13:13:54.999Z</time></trkpt><trkpt lat="37.871467558175375" lon="15.203998585140521"><ele>157.66666666666666</ele><time>2026-04-06T13:13:55.999Z</time></trkpt><trkpt lat="37.8715558149692" lon="15.204011547743182"><ele>157.83333333333331</ele><time>2026-04-06T13:13:56.999Z</time></trkpt><trkpt lat="37.871646073015704" lon="15.204036830281517"><ele>158.0</ele><time>2026-04-06T13:13:57.999Z</time></trkpt><trkpt lat="37.871732223835586" lon="15.204086228776848"><ele>159.4</ele><time>2026-04-06T13:13:58.999Z</time></trkpt><trkpt lat="37.871807757565165" lon="15.204159522089972"><ele>160.8</ele><time>2026-04-06T13:13:59.999Z</time></trkpt><trkpt lat="37.87187392480671" lon="15.204249534517004"><ele>162.2</ele><time>2026-04-06T13:14:00.999Z</time></trkpt><trkpt lat="37.87192360728727" lon="15.204352529420037"><ele>163.6</ele><time>2026-04-06T13:14:01.999Z</time></trkpt><trkpt lat="37.87195537034091" lon="15.204464654369652"><ele>165.0</ele><time>2026-04-06T13:14:02.999Z</time></trkpt><trkpt lat="37.871972797358616" lon="15.204583934653792"><ele>165.0</ele><time>2026-04-06T13:14:03.999Z</time></trkpt><trkpt lat="37.87197637954029" lon="15.2047054951239"><ele>165.0</ele><time>2026-04-06T13:14:04.999Z</time></trkpt><trkpt lat="37.87196545746152" lon="15.20483034562855"><ele>165.0</ele><time>2026-04-06T13:14:05.999Z</time></trkpt><trkpt lat="37.87195009534676" lon="15.204958326768917"><ele>165.0</ele><time>2026-04-06T13:14:06.999Z</time></trkpt><trkpt lat="37.871929991370116" lon="15.20508880380302"><ele>165.0</ele><time>2026-04-06T13:14:07.999Z</time></trkpt><trkpt lat="37.87189397168703" lon="15.205208653722051"><ele>165.0</ele><time>2026-04-06T13:14:08.999Z</time></trkpt><trkpt lat="37.87187586463933" lon="15.205311814508592"><ele>165.0</ele><time>2026-04-06T13:14:09.999Z</time></trkpt><trkpt lat="37.87186110861778" lon="15.205403810054316"><ele>165.0</ele><time>2026-04-06T13:14:10.999Z</time></trkpt><trkpt lat="37.871851936011055" lon="15.205484312008272"><ele>165.0</ele><time>2026-04-06T13:14:11.999Z</time></trkpt><trkpt lat="37.871828507714575" lon="15.205599971636587"><ele>165.0</ele><time>2026-04-06T13:14:13.999Z</time></trkpt><trkpt lat="37.87182310125686" lon="15.205695963395975"><ele>165.0</ele><time>2026-04-06T13:14:17Z</time></trkpt><trkpt lat="37.87196143387032" lon="15.20569280318173"><ele>165.0</ele><time>2026-04-06T13:14:18Z</time></trkpt><trkpt lat="37.872055092340716" lon="15.205680323599896"><ele>165.0</ele><time>2026-04-06T13:14:20Z</time></trkpt><trkpt lat="37.87217520200654" lon="15.205625919490492"><ele>165.0</ele><time>2026-04-06T13:14:22Z</time></trkpt><trkpt lat="37.872231614816634" lon="15.205577786355327"><ele>165.0</ele><time>2026-04-06T13:14:23Z</time></trkpt><trkpt lat="37.872268365604484" lon="15.205486676178298"><ele>165.0</ele><time>2026-04-06T13:14:24Z</time></trkpt><trkpt lat="37.872295575921534" lon="15.205388686340607"><ele>165.4</ele><time>2026-04-06T13:14:25Z</time></trkpt><trkpt lat="37.87232995942927" lon="15.205304883101743"><ele>165.8</ele><time>2026-04-06T13:14:26Z</time></trkpt><trkpt lat="37.872373227330485" lon="15.20524483478616"><ele>166.2</ele><time>2026-04-06T13:14:27Z</time></trkpt><trkpt lat="37.87248419918673" lon="15.205192614825759"><ele>166.6</ele><time>2026-04-06T13:14:29Z</time></trkpt><trkpt lat="37.872615905693884" lon="15.205222375416199"><ele>167.0</ele><time>2026-04-06T13:14:31Z</time></trkpt><trkpt lat="37.8726910200391" lon="15.205253228208997"><ele>171.2</ele><time>2026-04-06T13:14:32Z</time></trkpt><trkpt lat="37.87277419919154" lon="15.205283997732684"><ele>175.39999999999998</ele><time>2026-04-06T13:14:33Z</time></trkpt><trkpt lat="37.87286394672702" lon="15.205315001548556"><ele>179.60000000000002</ele><time>2026-04-06T13:14:34Z</time></trkpt><trkpt lat="37.87295827919799" lon="15.205348448519736"><ele>183.8</ele><time>2026-04-06T13:14:35Z</time></trkpt><trkpt lat="37.87305827441864" lon="15.205392827166747"><ele>188.0</ele><time>2026-04-06T13:14:36Z</time></trkpt><trkpt lat="37.873160169095776" lon="15.205433054169474"><ele>188.0</ele><time>2026-04-06T13:14:37Z</time></trkpt><trkpt lat="37.87326041768216" lon="15.205474719593955"><ele>188.0</ele><time>2026-04-06T13:14:38Z</time></trkpt><trkpt lat="37.87335865697117" lon="15.205522895951457"><ele>188.0</ele><time>2026-04-06T13:14:39Z</time></trkpt><trkpt lat="37.87345248156694" lon="15.205576286386112"><ele>188.0</ele><time>2026-04-06T13:14:40Z</time></trkpt><trkpt lat="37.87354354761578" lon="15.205628657411491"><ele>188.0</ele><time>2026-04-06T13:14:41Z</time></trkpt><trkpt lat="37.873631937643985" lon="15.205682564557707"><ele>189.0</ele><time>2026-04-06T13:14:42Z</time></trkpt><trkpt lat="37.87371859399482" lon="15.205730498378937"><ele>190.0</ele><time>2026-04-06T13:14:43Z</time></trkpt><trkpt lat="37.87380819710663" lon="15.205775399175984"><ele>191.0</ele><time>2026-04-06T13:14:44Z</time></trkpt><trkpt lat="37.87389590037929" lon="15.205810490592778"><ele>192.0</ele><time>2026-04-06T13:14:45Z</time></trkpt><trkpt lat="37.87398159021736" lon="15.205844681767658"><ele>193.0</ele><time>2026-04-06T13:14:46Z</time></trkpt><trkpt lat="37.87406100641431" lon="15.205870371180543"><ele>192.99999999999997</ele><time>2026-04-06T13:14:47Z</time></trkpt><trkpt lat="37.874169683417016" lon="15.205878355550531"><ele>193.0</ele><time>2026-04-06T13:14:49Z</time></trkpt><trkpt lat="37.87422984121075" lon="15.205924223191559"><ele>193.0</ele><time>2026-04-06T13:17:18Z</time></trkpt><trkpt lat="37.874301116766816" lon="15.205998493211695"><ele>193.0</ele><time>2026-04-06T13:17:21Z</time></trkpt><trkpt lat="37.874331030722246" lon="15.206070066171256"><ele>192.99999999999997</ele><time>2026-04-06T13:17:23Z</time></trkpt><trkpt lat="37.874388814107355" lon="15.206102651383805"><ele>193.0</ele><time>2026-04-06T13:17:25Z</time></trkpt><trkpt lat="37.87446088680684" lon="15.206107398467672"><ele>196.0</ele><time>2026-04-06T13:17:27Z</time></trkpt><trkpt lat="37.87453080116732" lon="15.206077532760357"><ele>199.0</ele><time>2026-04-06T13:17:28.999Z</time></trkpt><trkpt lat="37.874417799495376" lon="15.20610907486232"><ele>202.0</ele><time>2026-04-06T13:17:36.999Z</time></trkpt><trkpt lat="37.87444809914228" lon="15.205807650015199"><ele>205.0</ele><time>2026-04-06T13:17:37.999Z</time></trkpt><trkpt lat="37.87435859594783" lon="15.205751363303746"><ele>204.99999999999997</ele><time>2026-04-06T13:17:38.999Z</time></trkpt><trkpt lat="37.87428396178019" lon="15.205706657864436"><ele>205.0</ele><time>2026-04-06T13:17:39.999Z</time></trkpt><trkpt lat="37.87420584183917" lon="15.205658510186653"><ele>205.0</ele><time>2026-04-06T13:17:40.999Z</time></trkpt><trkpt lat="37.874141764740905" lon="15.20561281703658"><ele>205.0</ele><time>2026-04-06T13:17:41.999Z</time></trkpt><trkpt lat="37.87406229013219" lon="15.205551959926334"><ele>204.99999999999997</ele><time>2026-04-06T13:17:42.999Z</time></trkpt><trkpt lat="37.87401825126119" lon="15.205492629585851"><ele>205.0</ele><time>2026-04-06T13:17:43.999Z</time></trkpt><trkpt lat="37.87398007937255" lon="15.205426181538837"><ele>199.33333333333331</ele><time>2026-04-06T13:17:44.999Z</time></trkpt><trkpt lat="37.87391539238436" lon="15.205348618681372"><ele>193.66666666666666</ele><time>2026-04-06T13:17:45.999Z</time></trkpt><trkpt lat="37.8738535872703" lon="15.205274511285849"><ele>188.0</ele><time>2026-04-06T13:17:46.999Z</time></trkpt><trkpt lat="37.873420480484384" lon="15.205530919089652"><ele>188.0</ele><time>2026-04-06T13:17:48.999Z</time></trkpt><trkpt lat="37.87333882480684" lon="15.205482759439434"><ele>188.0</ele><time>2026-04-06T13:17:49.999Z</time></trkpt><trkpt lat="37.87325562789994" lon="15.205442622986673"><ele>188.0</ele><time>2026-04-06T13:17:50.999Z</time></trkpt><trkpt lat="37.87318000460176" lon="15.20538710014525"><ele>188.0</ele><time>2026-04-06T13:17:51.999Z</time></trkpt><trkpt lat="37.87309933813663" lon="15.205355058925974"><ele>188.0</ele><time>2026-04-06T13:17:52.999Z</time></trkpt><trkpt lat="37.873018586800285" lon="15.205338869673957"><ele>188.0</ele><time>2026-04-06T13:17:53.999Z</time></trkpt><trkpt lat="37.8729429045503" lon="15.205313155301182"><ele>188.0</ele><time>2026-04-06T13:17:54.999Z</time></trkpt><trkpt lat="37.872874391327535" lon="15.205284413193775"><ele>188.0</ele><time>2026-04-06T13:17:55.999Z</time></trkpt><trkpt lat="37.872805926819446" lon="15.205255987689036"><ele>188.0</ele><time>2026-04-06T13:17:56.999Z</time></trkpt><trkpt lat="37.87274235017609" lon="15.205231274723584"><ele>188.0</ele><time>2026-04-06T13:17:57.999Z</time></trkpt><trkpt lat="37.872678972183806" lon="15.20520816678262"><ele>188.0</ele><time>2026-04-06T13:17:58.999Z</time></trkpt><trkpt lat="37.87256121822146" lon="15.205164163516828"><ele>188.0</ele><time>2026-04-06T13:18:00.999Z</time></trkpt><trkpt lat="37.872445507364866" lon="15.205127532468305"><ele>183.8</ele><time>2026-04-06T13:18:02.999Z</time></trkpt><trkpt lat="37.87233396917042" lon="15.205181148286067"><ele>179.60000000000002</ele><time>2026-04-06T13:18:04.999Z</time></trkpt><trkpt lat="37.87225987675615" lon="15.205310954739536"><ele>175.39999999999998</ele><time>2026-04-06T13:18:06.999Z</time></trkpt><trkpt lat="37.87222284530769" lon="15.205442220126544"><ele>171.2</ele><time>2026-04-06T13:18:08.999Z</time></trkpt><trkpt lat="37.872184504620634" lon="15.205526961931922"><ele>167.0</ele><time>2026-04-06T13:18:10.999Z</time></trkpt><trkpt lat="37.87213230146053" lon="15.205600941995101"><ele>167.0</ele><time>2026-04-06T13:18:12.999Z</time></trkpt><trkpt lat="37.872056703265265" lon="15.205607168156346"><ele>167.0</ele><time>2026-04-06T13:18:15.999Z</time></trkpt><trkpt lat="37.87198949784982" lon="15.205594890012925"><ele>167.0</ele><time>2026-04-06T13:18:20.999Z</time></trkpt><trkpt lat="37.87192463871697" lon="15.205601780206662"><ele>167.0</ele><time>2026-04-06T13:18:24.999Z</time></trkpt><trkpt lat="37.871847187106134" lon="15.205669806652123"><ele>167.0</ele><time>2026-04-06T13:18:33Z</time></trkpt><trkpt lat="37.871804199771354" lon="15.205747745118892"><ele>167.0</ele><time>2026-04-06T13:18:34Z</time></trkpt><trkpt lat="37.87178707011103" lon="15.20585205251212"><ele>166.39999999999998</ele><time>2026-04-06T13:18:35Z</time></trkpt><trkpt lat="37.87176799777912" lon="15.205969125392533"><ele>165.79999999999998</ele><time>2026-04-06T13:18:36Z</time></trkpt><trkpt lat="37.87174685915739" lon="15.206098412847917"><ele>165.2</ele><time>2026-04-06T13:18:37Z</time></trkpt><trkpt lat="37.871723789753965" lon="15.206238973029592"><ele>164.6</ele><time>2026-04-06T13:18:38Z</time></trkpt><trkpt lat="37.871700046766115" lon="15.206383637155213"><ele>164.0</ele><time>2026-04-06T13:18:39Z</time></trkpt><trkpt lat="37.871675504805545" lon="15.20653252700554"><ele>164.0</ele><time>2026-04-06T13:18:40Z</time></trkpt><trkpt lat="37.87164911119191" lon="15.206689754244776"><ele>164.0</ele><time>2026-04-06T13:18:41Z</time></trkpt><trkpt lat="37.87162196628407" lon="15.20685392035604"><ele>164.0</ele><time>2026-04-06T13:18:42Z</time></trkpt><trkpt lat="37.87159392376172" lon="15.207022290753414"><ele>164.0</ele><time>2026-04-06T13:18:43Z</time></trkpt><trkpt lat="37.871565669129915" lon="15.207191977463184"><ele>163.25</ele><time>2026-04-06T13:18:44Z</time></trkpt><trkpt lat="37.87153659010026" lon="15.207366703657415"><ele>162.5</ele><time>2026-04-06T13:18:45Z</time></trkpt><trkpt lat="37.871506939533596" lon="15.20754486397516"><ele>161.75</ele><time>2026-04-06T13:18:46Z</time></trkpt><trkpt lat="37.871476925023565" lon="15.20772521112106"><ele>161.0</ele><time>2026-04-06T13:18:47Z</time></trkpt><trkpt lat="37.87144695698409" lon="15.207906186924728"><ele>161.0</ele><time>2026-04-06T13:18:48Z</time></trkpt><trkpt lat="37.8714174478497" lon="15.208085602416412"><ele>161.0</ele><time>2026-04-06T13:18:49Z</time></trkpt><trkpt lat="37.871387767103094" lon="15.208266061367322"><ele>161.0</ele><time>2026-04-06T13:18:50Z</time></trkpt><trkpt lat="37.87135851700473" lon="15.208443903096187"><ele>161.0</ele><time>2026-04-06T13:18:51Z</time></trkpt><trkpt lat="37.87132938577119" lon="15.208620648026091"><ele>161.25</ele><time>2026-04-06T13:18:52Z</time></trkpt><trkpt lat="37.871300779263535" lon="15.208794251271277"><ele>161.5</ele><time>2026-04-06T13:18:53Z</time></trkpt><trkpt lat="37.87127257327798" lon="15.208965423760821"><ele>161.75</ele><time>2026-04-06T13:18:54Z</time></trkpt><trkpt lat="37.871244905351745" lon="15.209133331022482"><ele>162.0</ele><time>2026-04-06T13:18:55Z</time></trkpt><trkpt lat="37.87121818061012" lon="15.209295514541271"><ele>163.5</ele><time>2026-04-06T13:18:56Z</time></trkpt><trkpt lat="37.87119176288112" lon="15.209455834831378"><ele>165.0</ele><time>2026-04-06T13:18:57Z</time></trkpt><trkpt lat="37.87116598743394" lon="15.209612400842449"><ele>166.5</ele><time>2026-04-06T13:18:58Z</time></trkpt><trkpt lat="37.87114027726538" lon="15.209768570386075"><ele>168.0</ele><time>2026-04-06T13:18:59Z</time></trkpt><trkpt lat="37.87111446259266" lon="15.20992537467447"><ele>168.75</ele><time>2026-04-06T13:19:00Z</time></trkpt><trkpt lat="37.87108836362731" lon="15.210083907877703"><ele>169.5</ele><time>2026-04-06T13:19:01Z</time></trkpt><trkpt lat="37.87106229582736" lon="15.210240667175242"><ele>170.25</ele><time>2026-04-06T13:19:02Z</time></trkpt><trkpt lat="37.87106914699882" lon="15.210406850412621"><ele>171.0</ele><time>2026-04-06T13:19:03Z</time></trkpt><trkpt lat="37.87104173241802" lon="15.210563273171406"><ele>172.0</ele><time>2026-04-06T13:19:04Z</time></trkpt><trkpt lat="37.8710169181354" lon="15.210720912303316"><ele>173.0</ele><time>2026-04-06T13:19:05Z</time></trkpt><trkpt lat="37.87099047497904" lon="15.210879553106924"><ele>174.0</ele><time>2026-04-06T13:19:06Z</time></trkpt><trkpt lat="37.87093365502552" lon="15.211032467207161"><ele>175.0</ele><time>2026-04-06T13:19:07Z</time></trkpt><trkpt lat="37.870907399870674" lon="15.211193059044025"><ele>168.75</ele><time>2026-04-06T13:19:08Z</time></trkpt><trkpt lat="37.87088137006566" lon="15.21135249528177"><ele>162.5</ele><time>2026-04-06T13:19:09Z</time></trkpt><trkpt lat="37.8708553636879" lon="15.211509968599326"><ele>156.25</ele><time>2026-04-06T13:19:10Z</time></trkpt><trkpt lat="37.87083002566953" lon="15.211664071447872"><ele>150.0</ele><time>2026-04-06T13:19:11Z</time></trkpt><trkpt lat="37.87080560983024" lon="15.211812565555208"><ele>150.0</ele><time>2026-04-06T13:19:12Z</time></trkpt><trkpt lat="37.8707818832147" lon="15.211956867925048"><ele>150.0</ele><time>2026-04-06T13:19:13Z</time></trkpt><trkpt lat="37.87076010867332" lon="15.212089297988069"><ele>150.0</ele><time>2026-04-06T13:19:14Z</time></trkpt><trkpt lat="37.87074634903203" lon="15.212215346775277"><ele>150.0</ele><time>2026-04-06T13:19:15Z</time></trkpt><trkpt lat="37.870754134745496" lon="15.212339231738195"><ele>150.0</ele><time>2026-04-06T13:19:16Z</time></trkpt><trkpt lat="37.870827838095295" lon="15.212434133165134"><ele>149.83333333333334</ele><time>2026-04-06T13:19:17Z</time></trkpt><trkpt lat="37.87087369290271" lon="15.21251885390332"><ele>149.66666666666666</ele><time>2026-04-06T13:19:18Z</time></trkpt><trkpt lat="37.870935487213686" lon="15.212593531603984"><ele>149.5</ele><time>2026-04-06T13:19:19Z</time></trkpt><trkpt lat="37.87100641136421" lon="15.212661250760744"><ele>149.33333333333331</ele><time>2026-04-06T13:19:20Z</time></trkpt><trkpt lat="37.87107630205305" lon="15.212732915044052"><ele>149.16666666666666</ele><time>2026-04-06T13:19:21Z</time></trkpt><trkpt lat="37.87114096316807" lon="15.21281342317741"><ele>149.0</ele><time>2026-04-06T13:19:22Z</time></trkpt><trkpt lat="37.871200403920525" lon="15.212902132577955"><ele>150.83333333333331</ele><time>2026-04-06T13:19:23Z</time></trkpt><trkpt lat="37.871254059084144" lon="15.212993570350946"><ele>152.66666666666666</ele><time>2026-04-06T13:19:24Z</time></trkpt><trkpt lat="37.8712742793186" lon="15.21310352184094"><ele>154.5</ele><time>2026-04-06T13:19:25Z</time></trkpt><trkpt lat="37.871298290429436" lon="15.213201340045226"><ele>156.33333333333334</ele><time>2026-04-06T13:19:26Z</time></trkpt><trkpt lat="37.871315921307506" lon="15.213296778696902"><ele>158.16666666666669</ele><time>2026-04-06T13:19:27Z</time></trkpt><trkpt lat="37.87133171860557" lon="15.213387546783038"><ele>160.0</ele><time>2026-04-06T13:19:28Z</time></trkpt><trkpt lat="37.87135957220945" lon="15.213470964485891"><ele>160.0</ele><time>2026-04-06T13:19:29Z</time></trkpt><trkpt lat="37.871418819225454" lon="15.21353754714674"><ele>160.0</ele><time>2026-04-06T13:19:30Z</time></trkpt><trkpt lat="37.871498189029985" lon="15.213558329804313"><ele>160.0</ele><time>2026-04-06T13:19:31Z</time></trkpt><trkpt lat="37.87157636776777" lon="15.213580264995821"><ele>160.0</ele><time>2026-04-06T13:19:32Z</time></trkpt><trkpt lat="37.871660668079436" lon="15.21359536111241"><ele>160.0</ele><time>2026-04-06T13:19:33Z</time></trkpt><trkpt lat="37.87174769825816" lon="15.213604667963304"><ele>160.0</ele><time>2026-04-06T13:19:34Z</time></trkpt><trkpt lat="37.871833492490126" lon="15.213612850627626"><ele>158.0</ele><time>2026-04-06T13:19:35Z</time></trkpt><trkpt lat="37.871911965525946" lon="15.21362667158506"><ele>156.0</ele><time>2026-04-06T13:19:36Z</time></trkpt><trkpt lat="37.871978181184694" lon="15.213655174661492"><ele>154.0</ele><time>2026-04-06T13:19:37Z</time></trkpt><trkpt lat="37.87206861003077" lon="15.21374414264054"><ele>152.0</ele><time>2026-04-06T13:19:39Z</time></trkpt><trkpt lat="37.87206364494609" lon="15.213889448001032"><ele>150.0</ele><time>2026-04-06T13:19:41Z</time></trkpt><trkpt lat="37.87201302827833" lon="15.214033555977162"><ele>150.0</ele><time>2026-04-06T13:19:42.999Z</time></trkpt><trkpt lat="37.87198117183731" lon="15.214123827929473"><ele>150.0</ele><time>2026-04-06T13:19:43.999Z</time></trkpt><trkpt lat="37.87194670949866" lon="15.214223187047402"><ele>150.0</ele><time>2026-04-06T13:19:44.999Z</time></trkpt><trkpt lat="37.871912583987545" lon="15.214325426433243"><ele>150.0</ele><time>2026-04-06T13:19:45.999Z</time></trkpt><trkpt lat="37.87187848236832" lon="15.21443468659391"><ele>150.0</ele><time>2026-04-06T13:19:46.999Z</time></trkpt><trkpt lat="37.871841017205085" lon="15.214546175653172"><ele>150.0</ele><time>2026-04-06T13:19:47.999Z</time></trkpt><trkpt lat="37.8718009487387" lon="15.214662920019654"><ele>149.4</ele><time>2026-04-06T13:19:48.999Z</time></trkpt><trkpt lat="37.87175977736051" lon="15.214782878113011"><ele>148.8</ele><time>2026-04-06T13:19:49.999Z</time></trkpt><trkpt lat="37.87171968696828" lon="15.214907704767498"><ele>148.2</ele><time>2026-04-06T13:19:50.999Z</time></trkpt><trkpt lat="37.87167922195378" lon="15.215030801835693"><ele>147.6</ele><time>2026-04-06T13:19:51.999Z</time></trkpt><trkpt lat="37.87163716045286" lon="15.215152259808402"><ele>147.0</ele><time>2026-04-06T13:19:52.999Z</time></trkpt><trkpt lat="37.87159612056228" lon="15.215270767814046"><ele>147.0</ele><time>2026-04-06T13:19:53.999Z</time></trkpt><trkpt lat="37.87155643695637" lon="15.215390763914442"><ele>147.0</ele><time>2026-04-06T13:19:54.999Z</time></trkpt><trkpt lat="37.87151779390173" lon="15.215510112256583"><ele>147.0</ele><time>2026-04-06T13:19:55.999Z</time></trkpt><trkpt lat="37.871478707872846" lon="15.215630253483864"><ele>147.0</ele><time>2026-04-06T13:19:56.999Z</time></trkpt><trkpt lat="37.87143842023846" lon="15.21574970475434"><ele>147.0</ele><time>2026-04-06T13:19:57.999Z</time></trkpt><trkpt lat="37.871396649466384" lon="15.215864777428008"><ele>148.5</ele><time>2026-04-06T13:19:58.999Z</time></trkpt><trkpt lat="37.87136013674535" lon="15.21597730837537"><ele>150.0</ele><time>2026-04-06T13:19:59.999Z</time></trkpt><trkpt lat="37.871327100459794" lon="15.216080057454827"><ele>151.5</ele><time>2026-04-06T13:20:00.999Z</time></trkpt><trkpt lat="37.871291458548264" lon="15.21617156667747"><ele>153.0</ele><time>2026-04-06T13:20:01.999Z</time></trkpt><trkpt lat="37.871250023790296" lon="15.216254657648175"><ele>154.5</ele><time>2026-04-06T13:20:02.999Z</time></trkpt><trkpt lat="37.871188706168155" lon="15.216332685346261"><ele>156.0</ele><time>2026-04-06T13:20:03.999Z</time></trkpt><trkpt lat="37.87111644883629" lon="15.216393612030123"><ele>156.0</ele><time>2026-04-06T13:20:04.999Z</time></trkpt><trkpt lat="37.87103302886834" lon="15.216447182293393"><ele>156.0</ele><time>2026-04-06T13:20:05.999Z</time></trkpt><trkpt lat="37.87094495831427" lon="15.216496105634043"><ele>156.0</ele><time>2026-04-06T13:20:06.999Z</time></trkpt><trkpt lat="37.87085307450832" lon="15.216546420364232"><ele>156.0</ele><time>2026-04-06T13:20:07.999Z</time></trkpt><trkpt lat="37.87076197108947" lon="15.216600093420652"><ele>156.0</ele><time>2026-04-06T13:20:08.999Z</time></trkpt><trkpt lat="37.870676705798346" lon="15.216655286171951"><ele>155.66666666666666</ele><time>2026-04-06T13:20:09.999Z</time></trkpt><trkpt lat="37.87059431112162" lon="15.216708621911428"><ele>155.33333333333334</ele><time>2026-04-06T13:20:10.999Z</time></trkpt><trkpt lat="37.87051696735414" lon="15.216759177931786"><ele>155.0</ele><time>2026-04-06T13:20:11.999Z</time></trkpt><trkpt lat="37.87043875041688" lon="15.216802540745766"><ele>154.66666666666669</ele><time>2026-04-06T13:20:12.999Z</time></trkpt><trkpt lat="37.870362853739174" lon="15.216837375482246"><ele>154.33333333333334</ele><time>2026-04-06T13:20:13.999Z</time></trkpt><trkpt lat="37.870292302710446" lon="15.216881856847207"><ele>154.0</ele><time>2026-04-06T13:20:14.999Z</time></trkpt><trkpt lat="37.87021606913117" lon="15.216876939896615"><ele>154.0</ele><time>2026-04-06T13:20:15.999Z</time></trkpt><trkpt lat="37.87014163655285" lon="15.216899128159168"><ele>154.0</ele><time>2026-04-06T13:20:16.999Z</time></trkpt><trkpt lat="37.87007746486132" lon="15.216934994650824"><ele>154.0</ele><time>2026-04-06T13:20:17.999Z</time></trkpt><trkpt lat="37.87002315574333" lon="15.217010700569295"><ele>154.0</ele><time>2026-04-06T13:20:18.999Z</time></trkpt><trkpt lat="37.86998754565971" lon="15.217094964702893"><ele>154.0</ele><time>2026-04-06T13:20:19.999Z</time></trkpt><trkpt lat="37.86996040772772" lon="15.217188375945815"><ele>154.0</ele><time>2026-04-06T13:20:20.999Z</time></trkpt><trkpt lat="37.86992563408653" lon="15.217281143026964"><ele>155.0</ele><time>2026-04-06T13:20:21.999Z</time></trkpt><trkpt lat="37.869887087113405" lon="15.217370070853377"><ele>156.0</ele><time>2026-04-06T13:20:22.999Z</time></trkpt><trkpt lat="37.86983356929896" lon="15.217454568792764"><ele>157.0</ele><time>2026-04-06T13:20:23.999Z</time></trkpt><trkpt lat="37.86977188212725" lon="15.2175349663054"><ele>158.0</ele><time>2026-04-06T13:20:24.999Z</time></trkpt><trkpt lat="37.86970687198193" lon="15.217606569379887"><ele>159.0</ele><time>2026-04-06T13:20:25.999Z</time></trkpt><trkpt lat="37.869642180871395" lon="15.217676811349962"><ele>160.0</ele><time>2026-04-06T13:20:26.999Z</time></trkpt><trkpt lat="37.86958213072558" lon="15.217742014255046"><ele>160.0</ele><time>2026-04-06T13:20:27.999Z</time></trkpt><trkpt lat="37.86952920777694" lon="15.217798341401261"><ele>160.0</ele><time>2026-04-06T13:20:28.999Z</time></trkpt><trkpt lat="37.86944443814095" lon="15.217897524631244"><ele>160.0</ele><time>2026-04-06T13:20:30.999Z</time></trkpt><trkpt lat="37.869355606596564" lon="15.217985262713736"><ele>160.0</ele><time>2026-04-06T13:20:32.999Z</time></trkpt><trkpt lat="37.86926038978227" lon="15.218062117061702"><ele>160.0</ele><time>2026-04-06T13:20:35Z</time></trkpt><trkpt lat="37.86915078915047" lon="15.218130013273882"><ele>160.16666666666669</ele><time>2026-04-06T13:20:37Z</time></trkpt><trkpt lat="37.86909087247786" lon="15.218156845187487"><ele>160.33333333333334</ele><time>2026-04-06T13:20:38Z</time></trkpt><trkpt lat="37.86898215048196" lon="15.218141012645965"><ele>160.5</ele><time>2026-04-06T13:20:40Z</time></trkpt><trkpt lat="37.868907337056626" lon="15.218019141054654"><ele>160.66666666666666</ele><time>2026-04-06T13:20:42Z</time></trkpt><trkpt lat="37.86887512048306" lon="15.217948392822843"><ele>160.83333333333331</ele><time>2026-04-06T13:20:43Z</time></trkpt><trkpt lat="37.86883846210998" lon="15.217876601168188"><ele>161.0</ele><time>2026-04-06T13:20:44Z</time></trkpt><trkpt lat="37.868791931341974" lon="15.21781096254707"><ele>160.42857142857142</ele><time>2026-04-06T13:20:45Z</time></trkpt><trkpt lat="37.86873945276644" lon="15.2177565940845"><ele>159.85714285714286</ele><time>2026-04-06T13:20:46Z</time></trkpt><trkpt lat="37.86868056411846" lon="15.21771099699655"><ele>159.28571428571428</ele><time>2026-04-06T13:20:47Z</time></trkpt><trkpt lat="37.86862017876212" lon="15.217666645851846"><ele>158.71428571428572</ele><time>2026-04-06T13:20:48Z</time></trkpt><trkpt lat="37.8685579667375" lon="15.217628495351047"><ele>158.14285714285714</ele><time>2026-04-06T13:20:49Z</time></trkpt><trkpt lat="37.86848832173018" lon="15.217602678267456"><ele>157.57142857142856</ele><time>2026-04-06T13:20:50Z</time></trkpt><trkpt lat="37.868413575214646" lon="15.217578107575273"><ele>157.0</ele><time>2026-04-06T13:20:51Z</time></trkpt><trkpt lat="37.86833947387861" lon="15.217553322204035"><ele>157.0</ele><time>2026-04-06T13:20:52Z</time></trkpt><trkpt lat="37.8682643616753" lon="15.217527085227792"><ele>157.0</ele><time>2026-04-06T13:20:53Z</time></trkpt><trkpt lat="37.86818601288887" lon="15.217498232218855"><ele>157.0</ele><time>2026-04-06T13:20:54Z</time></trkpt><trkpt lat="37.8681055292403" lon="15.21747002447763"><ele>157.0</ele><time>2026-04-06T13:20:55Z</time></trkpt><trkpt lat="37.86802043465721" lon="15.217443548748003"><ele>157.0</ele><time>2026-04-06T13:20:56Z</time></trkpt><trkpt lat="37.867934883251785" lon="15.217416394918969"><ele>157.0</ele><time>2026-04-06T13:20:57Z</time></trkpt><trkpt lat="37.867844540386734" lon="15.217392635317292"><ele>157.0</ele><time>2026-04-06T13:20:58Z</time></trkpt><trkpt lat="37.86775010203849" lon="15.217365015855004"><ele>157.0</ele><time>2026-04-06T13:20:59Z</time></trkpt><trkpt lat="37.86766140775247" lon="15.217339044674402"><ele>157.0</ele><time>2026-04-06T13:21:00Z</time></trkpt><trkpt lat="37.86757948152131" lon="15.217310205481764"><ele>157.0</ele><time>2026-04-06T13:21:01Z</time></trkpt><trkpt lat="37.867506989515505" lon="15.217286530366092"><ele>157.0</ele><time>2026-04-06T13:21:02Z</time></trkpt><trkpt lat="37.867441419203764" lon="15.217258801775158"><ele>157.0</ele><time>2026-04-06T13:21:03Z</time></trkpt><trkpt lat="37.86738198136252" lon="15.217222049406205"><ele>153.5</ele><time>2026-04-06T13:21:04Z</time></trkpt><trkpt lat="37.86727653297976" lon="15.21715324297276"><ele>150.0</ele><time>2026-04-06T13:21:06Z</time></trkpt><trkpt lat="37.867161442155435" lon="15.21710310865664"><ele>146.5</ele><time>2026-04-06T13:21:08Z</time></trkpt><trkpt lat="37.86709742546405" lon="15.217096176723976"><ele>143.0</ele><time>2026-04-06T13:21:09Z</time></trkpt><trkpt lat="37.867033793788806" lon="15.217087064480962"><ele>139.5</ele><time>2026-04-06T13:21:10Z</time></trkpt><trkpt lat="37.8669720666272" lon="15.217110792282513"><ele>136.0</ele><time>2026-04-06T13:21:11Z</time></trkpt><trkpt lat="37.866911445117644" lon="15.217154401593774"><ele>135.99999999999997</ele><time>2026-04-06T13:21:12Z</time></trkpt><trkpt lat="37.86685100674522" lon="15.217199889130558"><ele>136.0</ele><time>2026-04-06T13:21:13Z</time></trkpt><trkpt lat="37.866790168410475" lon="15.217246875202168"><ele>136.0</ele><time>2026-04-06T13:21:14Z</time></trkpt><trkpt lat="37.866728347751476" lon="15.21729582094368"><ele>136.0</ele><time>2026-04-06T13:21:15Z</time></trkpt><trkpt lat="37.86667333955733" lon="15.21736173504997"><ele>136.0</ele><time>2026-04-06T13:21:16Z</time></trkpt><trkpt lat="37.86660705690725" lon="15.2174075940176"><ele>135.99999999999997</ele><time>2026-04-06T13:21:17Z</time></trkpt><trkpt lat="37.86653005878458" lon="15.217433337386929"><ele>136.0</ele><time>2026-04-06T13:21:18Z</time></trkpt><trkpt lat="37.866459980982754" lon="15.21747602017077"><ele>136.16666666666669</ele><time>2026-04-06T13:21:19Z</time></trkpt><trkpt lat="37.86638890318055" lon="15.217518391200842"><ele>136.33333333333334</ele><time>2026-04-06T13:21:20Z</time></trkpt><trkpt lat="37.866317217177375" lon="15.217559721599372"><ele>136.5</ele><time>2026-04-06T13:21:21Z</time></trkpt><trkpt lat="37.86624261361359" lon="15.217602523589132"><ele>136.66666666666666</ele><time>2026-04-06T13:21:22Z</time></trkpt><trkpt lat="37.86616728059675" lon="15.217645169942179"><ele>136.83333333333331</ele><time>2026-04-06T13:21:23Z</time></trkpt><trkpt lat="37.86610297426833" lon="15.217681205399062"><ele>137.0</ele><time>2026-04-06T13:21:24Z</time></trkpt><trkpt lat="37.86604391526933" lon="15.217733560252846"><ele>137.0</ele><time>2026-04-06T13:21:25Z</time></trkpt><trkpt lat="37.86598074888438" lon="15.217754480414957"><ele>137.0</ele><time>2026-04-06T13:21:26Z</time></trkpt><trkpt lat="37.865872182766275" lon="15.217803381821058"><ele>137.0</ele><time>2026-04-06T13:21:28Z</time></trkpt><trkpt lat="37.865764973632686" lon="15.217861884009249"><ele>137.0</ele><time>2026-04-06T13:21:30Z</time></trkpt><trkpt lat="37.865632373531774" lon="15.217914041494389"><ele>137.0</ele><time>2026-04-06T13:21:32Z</time></trkpt><trkpt lat="37.86556828881004" lon="15.217920235720133"><ele>135.16666666666666</ele><time>2026-04-06T13:21:33Z</time></trkpt><trkpt lat="37.865502277415814" lon="15.217911022454711"><ele>133.33333333333331</ele><time>2026-04-06T13:21:34Z</time></trkpt><trkpt lat="37.86543815123733" lon="15.21789641372526"><ele>131.5</ele><time>2026-04-06T13:21:35Z</time></trkpt><trkpt lat="37.865365573962954" lon="15.217868066911905"><ele>129.66666666666666</ele><time>2026-04-06T13:21:36Z</time></trkpt><trkpt lat="37.86529080070601" lon="15.21782683559349"><ele>127.83333333333333</ele><time>2026-04-06T13:21:37Z</time></trkpt><trkpt lat="37.86521235657381" lon="15.21777232325986"><ele>126.0</ele><time>2026-04-06T13:21:38Z</time></trkpt><trkpt lat="37.86513374578931" lon="15.217719112703177"><ele>124.5</ele><time>2026-04-06T13:21:39Z</time></trkpt><trkpt lat="37.86505214307378" lon="15.217676548508472"><ele>123.0</ele><time>2026-04-06T13:21:40Z</time></trkpt><trkpt lat="37.8649732546458" lon="15.217648099182739"><ele>121.5</ele><time>2026-04-06T13:21:41Z</time></trkpt><trkpt lat="37.86488900029846" lon="15.217635964082284"><ele>120.0</ele><time>2026-04-06T13:21:42Z</time></trkpt><trkpt lat="37.86480838664092" lon="15.217637042860375"><ele>118.5</ele><time>2026-04-06T13:21:43Z</time></trkpt><trkpt lat="37.86472899519298" lon="15.217633142240352"><ele>117.0</ele><time>2026-04-06T13:21:44Z</time></trkpt><trkpt lat="37.86464975303116" lon="15.217620500265177"><ele>117.0</ele><time>2026-04-06T13:21:45Z</time></trkpt><trkpt lat="37.86456615987542" lon="15.217602184212048"><ele>117.0</ele><time>2026-04-06T13:21:46Z</time></trkpt><trkpt lat="37.864484017103074" lon="15.217571143600628"><ele>117.0</ele><time>2026-04-06T13:21:47Z</time></trkpt><trkpt lat="37.864405955239114" lon="15.217525227336372"><ele>117.0</ele><time>2026-04-06T13:21:48Z</time></trkpt><trkpt lat="37.864337014601496" lon="15.217466037294987"><ele>117.0</ele><time>2026-04-06T13:21:49Z</time></trkpt><trkpt lat="37.86426698567839" lon="15.217395657928718"><ele>117.0</ele><time>2026-04-06T13:21:50Z</time></trkpt><trkpt lat="37.86419721418944" lon="15.217319840469807"><ele>115.6</ele><time>2026-04-06T13:21:51Z</time></trkpt><trkpt lat="37.864125843315236" lon="15.217242587063948"><ele>114.19999999999999</ele><time>2026-04-06T13:21:52Z</time></trkpt><trkpt lat="37.86405698663015" lon="15.217158955398695"><ele>112.8</ele><time>2026-04-06T13:21:53Z</time></trkpt><trkpt lat="37.86399026301283" lon="15.217080113126933"><ele>111.4</ele><time>2026-04-06T13:21:54Z</time></trkpt><trkpt lat="37.86391727272522" lon="15.217001394351403"><ele>110.0</ele><time>2026-04-06T13:21:55Z</time></trkpt><trkpt lat="37.863846727321636" lon="15.21694030745037"><ele>109.99999999999999</ele><time>2026-04-06T13:21:56Z</time></trkpt><trkpt lat="37.86376841824412" lon="15.216891076629299"><ele>110.0</ele><time>2026-04-06T13:21:57Z</time></trkpt><trkpt lat="37.863694378416604" lon="15.216861339870219"><ele>110.0</ele><time>2026-04-06T13:21:58Z</time></trkpt><trkpt lat="37.8636208780264" lon="15.216848732749918"><ele>110.0</ele><time>2026-04-06T13:21:59Z</time></trkpt><trkpt lat="37.86354739359752" lon="15.216856764001218"><ele>109.99999999999999</ele><time>2026-04-06T13:22:00Z</time></trkpt><trkpt lat="37.86347565649161" lon="15.216880104051572"><ele>110.0</ele><time>2026-04-06T13:22:01Z</time></trkpt><trkpt lat="37.86340684326103" lon="15.21693043949317"><ele>110.2</ele><time>2026-04-06T13:22:02Z</time></trkpt><trkpt lat="37.863339597270034" lon="15.216988989072975"><ele>110.4</ele><time>2026-04-06T13:22:03Z</time></trkpt><trkpt lat="37.863276378989994" lon="15.21705981153805"><ele>110.6</ele><time>2026-04-06T13:22:04Z</time></trkpt><trkpt lat="37.863212806900464" lon="15.217146265136199"><ele>110.8</ele><time>2026-04-06T13:22:05Z</time></trkpt><trkpt lat="37.86315143754158" lon="15.21723512115726"><ele>111.0</ele><time>2026-04-06T13:22:06Z</time></trkpt><trkpt lat="37.8630842503417" lon="15.217328885624768"><ele>111.0</ele><time>2026-04-06T13:22:07Z</time></trkpt><trkpt lat="37.86301817758183" lon="15.217428024697382"><ele>111.0</ele><time>2026-04-06T13:22:08Z</time></trkpt><trkpt lat="37.86294475463069" lon="15.217527136149794"><ele>111.0</ele><time>2026-04-06T13:22:09Z</time></trkpt><trkpt lat="37.862878094858615" lon="15.217628259586029"><ele>111.0</ele><time>2026-04-06T13:22:10Z</time></trkpt><trkpt lat="37.86281282706708" lon="15.217732426586197"><ele>111.0</ele><time>2026-04-06T13:22:11Z</time></trkpt><trkpt lat="37.86274846417611" lon="15.217831014984235"><ele>111.0</ele><time>2026-04-06T13:22:11.999Z</time></trkpt><trkpt lat="37.862686391291994" lon="15.217927511383866"><ele>111.0</ele><time>2026-04-06T13:22:12.999Z</time></trkpt><trkpt lat="37.862626415770144" lon="15.218017224064635"><ele>111.0</ele><time>2026-04-06T13:22:13.999Z</time></trkpt><trkpt lat="37.862570937835294" lon="15.218112611846427"><ele>111.0</ele><time>2026-04-06T13:22:14.999Z</time></trkpt><trkpt lat="37.862515010786545" lon="15.218200594733506"><ele>111.0</ele><time>2026-04-06T13:22:15.999Z</time></trkpt><trkpt lat="37.86246204712149" lon="15.218285817300583"><ele>111.33333333333333</ele><time>2026-04-06T13:22:16.999Z</time></trkpt><trkpt lat="37.86240829994821" lon="15.218369013944981"><ele>111.66666666666666</ele><time>2026-04-06T13:22:17.999Z</time></trkpt><trkpt lat="37.86235308505742" lon="15.218454432687844"><ele>112.0</ele><time>2026-04-06T13:22:18.999Z</time></trkpt><trkpt lat="37.8623002178861" lon="15.21854023686059"><ele>112.33333333333333</ele><time>2026-04-06T13:22:19.999Z</time></trkpt><trkpt lat="37.86224612315419" lon="15.218633293181142"><ele>112.66666666666666</ele><time>2026-04-06T13:22:20.999Z</time></trkpt><trkpt lat="37.86219050389172" lon="15.218729006472417"><ele>113.0</ele><time>2026-04-06T13:22:21.999Z</time></trkpt><trkpt lat="37.86212870874408" lon="15.218815922672034"><ele>113.0</ele><time>2026-04-06T13:22:22.999Z</time></trkpt><trkpt lat="37.86206316185685" lon="15.218908706607374"><ele>113.00000000000001</ele><time>2026-04-06T13:22:23.999Z</time></trkpt><trkpt lat="37.862002561694176" lon="15.21900824346351"><ele>113.00000000000001</ele><time>2026-04-06T13:22:24.999Z</time></trkpt><trkpt lat="37.86193718220913" lon="15.219106405468954"><ele>113.0</ele><time>2026-04-06T13:22:25.999Z</time></trkpt><trkpt lat="37.86187298900012" lon="15.2192062817938"><ele>113.0</ele><time>2026-04-06T13:22:26.999Z</time></trkpt><trkpt lat="37.86180319115431" lon="15.219301386638241"><ele>112.0</ele><time>2026-04-06T13:22:27.999Z</time></trkpt><trkpt lat="37.86172954678665" lon="15.219392583531258"><ele>111.00000000000001</ele><time>2026-04-06T13:22:28.999Z</time></trkpt><trkpt lat="37.861654809652954" lon="15.21947378139407"><ele>110.00000000000001</ele><time>2026-04-06T13:22:29.999Z</time></trkpt><trkpt lat="37.861576884566496" lon="15.21955046993558"><ele>109.0</ele><time>2026-04-06T13:22:30.999Z</time></trkpt><trkpt lat="37.861497253809716" lon="15.219628369693236"><ele>108.0</ele><time>2026-04-06T13:22:31.999Z</time></trkpt><trkpt lat="37.861413579578745" lon="15.219705822199652"><ele>108.0</ele><time>2026-04-06T13:22:32.999Z</time></trkpt><trkpt lat="37.86132786883805" lon="15.219781754922304"><ele>108.00000000000001</ele><time>2026-04-06T13:22:33.999Z</time></trkpt><trkpt lat="37.86123861945598" lon="15.219856947067443"><ele>108.00000000000001</ele><time>2026-04-06T13:22:34.999Z</time></trkpt><trkpt lat="37.86114685907058" lon="15.219929044475274"><ele>108.0</ele><time>2026-04-06T13:22:35.999Z</time></trkpt><trkpt lat="37.86105611388216" lon="15.21999234438895"><ele>108.0</ele><time>2026-04-06T13:22:36.999Z</time></trkpt><trkpt lat="37.860965714271934" lon="15.220048466183231"><ele>107.80000000000001</ele><time>2026-04-06T13:22:37.999Z</time></trkpt><trkpt lat="37.86087992249689" lon="15.220104611685736"><ele>107.60000000000001</ele><time>2026-04-06T13:22:38.999Z</time></trkpt><trkpt lat="37.8607902911525" lon="15.220154492058539"><ele>107.39999999999999</ele><time>2026-04-06T13:22:39.999Z</time></trkpt><trkpt lat="37.860698800768475" lon="15.220202171909927"><ele>107.19999999999999</ele><time>2026-04-06T13:22:41Z</time></trkpt><trkpt lat="37.860603944613864" lon="15.220253414384473"><ele>107.0</ele><time>2026-04-06T13:22:42Z</time></trkpt><trkpt lat="37.86050691062396" lon="15.220304225958982"><ele>107.0</ele><time>2026-04-06T13:22:43Z</time></trkpt><trkpt lat="37.86040816994932" lon="15.220355732738085"><ele>106.99999999999999</ele><time>2026-04-06T13:22:44Z</time></trkpt><trkpt lat="37.860307812963924" lon="15.220413114709974"><ele>106.99999999999999</ele><time>2026-04-06T13:22:45Z</time></trkpt><trkpt lat="37.86021063910783" lon="15.22046710401624"><ele>107.0</ele><time>2026-04-06T13:22:46Z</time></trkpt><trkpt lat="37.860119652452106" lon="15.220521758700487"><ele>107.0</ele><time>2026-04-06T13:22:47Z</time></trkpt><trkpt lat="37.860037376813956" lon="15.220579025611414"><ele>106.83333333333333</ele><time>2026-04-06T13:22:48Z</time></trkpt><trkpt lat="37.859958495125326" lon="15.220644344847898"><ele>106.66666666666666</ele><time>2026-04-06T13:22:49Z</time></trkpt><trkpt lat="37.85988330522618" lon="15.220711805140748"><ele>106.5</ele><time>2026-04-06T13:22:50Z</time></trkpt><trkpt lat="37.85981382166627" lon="15.220780129632345"><ele>106.33333333333334</ele><time>2026-04-06T13:22:51Z</time></trkpt><trkpt lat="37.859745023361626" lon="15.22084632915853"><ele>106.16666666666667</ele><time>2026-04-06T13:22:52Z</time></trkpt><trkpt lat="37.859676536365505" lon="15.220914594539444"><ele>106.0</ele><time>2026-04-06T13:22:53Z</time></trkpt><trkpt lat="37.85961311348528" lon="15.220988469157215"><ele>106.00000000000001</ele><time>2026-04-06T13:22:54Z</time></trkpt><trkpt lat="37.85954727915683" lon="15.221073833138663"><ele>106.0</ele><time>2026-04-06T13:22:55Z</time></trkpt><trkpt lat="37.85949466614883" lon="15.221163272360394"><ele>106.0</ele><time>2026-04-06T13:22:56Z</time></trkpt><trkpt lat="37.85943954290617" lon="15.221251686669014"><ele>106.0</ele><time>2026-04-06T13:22:57Z</time></trkpt><trkpt lat="37.859390701874716" lon="15.221333138274439"><ele>106.00000000000001</ele><time>2026-04-06T13:22:58Z</time></trkpt><trkpt lat="37.85934657408969" lon="15.221408660696547"><ele>106.0</ele><time>2026-04-06T13:22:59Z</time></trkpt><trkpt lat="37.859293061443296" lon="15.221470938839849"><ele>105.66666666666667</ele><time>2026-04-06T13:23:00Z</time></trkpt><trkpt lat="37.8592319180036" lon="15.221527166663218"><ele>105.33333333333334</ele><time>2026-04-06T13:23:01Z</time></trkpt><trkpt lat="37.859163640092596" lon="15.221565981592706"><ele>105.0</ele><time>2026-04-06T13:23:02Z</time></trkpt><trkpt lat="37.85909286040596" lon="15.221594295502973"><ele>104.66666666666666</ele><time>2026-04-06T13:23:03Z</time></trkpt><trkpt lat="37.859017870791625" lon="15.221609650044421"><ele>104.33333333333333</ele><time>2026-04-06T13:23:04Z</time></trkpt><trkpt lat="37.858953340346545" lon="15.221619591127839"><ele>104.0</ele><time>2026-04-06T13:23:05Z</time></trkpt><trkpt lat="37.85883385222003" lon="15.22164546593065"><ele>103.99999999999999</ele><time>2026-04-06T13:23:07Z</time></trkpt><trkpt lat="37.8587254256301" lon="15.221664847673466"><ele>104.0</ele><time>2026-04-06T13:23:09Z</time></trkpt><trkpt lat="37.858652641679356" lon="15.2216770245785"><ele>104.0</ele><time>2026-04-06T13:23:10Z</time></trkpt><trkpt lat="37.85857716947249" lon="15.221684763534045"><ele>104.0</ele><time>2026-04-06T13:23:11Z</time></trkpt><trkpt lat="37.858497370116154" lon="15.221694754159563"><ele>103.99999999999999</ele><time>2026-04-06T13:23:12Z</time></trkpt><trkpt lat="37.85841813122376" lon="15.221707269137378"><ele>104.0</ele><time>2026-04-06T13:23:13Z</time></trkpt><trkpt lat="37.85834943369133" lon="15.221715793379863"><ele>103.0</ele><time>2026-04-06T13:23:14Z</time></trkpt><trkpt lat="37.85828452144305" lon="15.22172657033669"><ele>102.0</ele><time>2026-04-06T13:23:15Z</time></trkpt><trkpt lat="37.858177719470106" lon="15.22174185458027"><ele>101.0</ele><time>2026-04-06T13:23:17Z</time></trkpt><trkpt lat="37.858080426343804" lon="15.221755380432096"><ele>100.0</ele><time>2026-04-06T13:23:19Z</time></trkpt><trkpt lat="37.85798479550419" lon="15.221768158021538"><ele>99.0</ele><time>2026-04-06T13:23:21Z</time></trkpt><trkpt lat="37.857899459117924" lon="15.2217742933369"><ele>99.0</ele><time>2026-04-06T13:23:23Z</time></trkpt><trkpt lat="37.857818621282924" lon="15.221774152987347"><ele>99.0</ele><time>2026-04-06T13:23:25Z</time></trkpt><trkpt lat="37.857741030600565" lon="15.221804133634759"><ele>99.0</ele><time>2026-04-06T13:23:27Z</time></trkpt><trkpt lat="37.85771990759728" lon="15.221885655650482"><ele>99.0</ele><time>2026-04-06T13:23:29Z</time></trkpt><trkpt lat="37.85773743928534" lon="15.222000961656759"><ele>99.0</ele><time>2026-04-06T13:23:31Z</time></trkpt><trkpt lat="37.85773791567947" lon="15.222085702122612"><ele>99.0</ele><time>2026-04-06T13:23:32Z</time></trkpt><trkpt lat="37.857711114575125" lon="15.22217918705617"><ele>99.0</ele><time>2026-04-06T13:23:33Z</time></trkpt><trkpt lat="37.857721133379115" lon="15.222261531370306"><ele>99.0</ele><time>2026-04-06T13:23:34Z</time></trkpt><trkpt lat="37.85774817103048" lon="15.222371579217143"><ele>99.0</ele><time>2026-04-06T13:23:36Z</time></trkpt><trkpt lat="37.857761147567935" lon="15.22245312107503"><ele>99.0</ele><time>2026-04-06T13:23:39Z</time></trkpt><trkpt lat="37.85783864229167" lon="15.222448139196768"><ele>99.0</ele><time>2026-04-06T13:23:40Z</time></trkpt><trkpt lat="37.857961316371636" lon="15.22241116082333"><ele>99.0</ele><time>2026-04-06T13:23:42Z</time></trkpt><trkpt lat="37.85804703139263" lon="15.22237535691421"><ele>99.0</ele><time>2026-04-06T13:23:43Z</time></trkpt><trkpt lat="37.85814475624646" lon="15.222340274829435"><ele>99.0</ele><time>2026-04-06T13:23:44Z</time></trkpt><trkpt lat="37.8582493177939" lon="15.222296809682046"><ele>99.0</ele><time>2026-04-06T13:23:45Z</time></trkpt><trkpt lat="37.858366173270305" lon="15.222251639473708"><ele>99.0</ele><time>2026-04-06T13:23:46Z</time></trkpt><trkpt lat="37.858493592539304" lon="15.222200979481165"><ele>100.25</ele><time>2026-04-06T13:23:47Z</time></trkpt><trkpt lat="37.8586293231719" lon="15.222144509990269"><ele>101.5</ele><time>2026-04-06T13:23:48Z</time></trkpt><trkpt lat="37.85876579404225" lon="15.222080649349168"><ele>102.75</ele><time>2026-04-06T13:23:49Z</time></trkpt><trkpt lat="37.85890809138952" lon="15.222018301345791"><ele>104.0</ele><time>2026-04-06T13:23:50Z</time></trkpt><trkpt lat="37.85905135985415" lon="15.221963448097735"><ele>104.0</ele><time>2026-04-06T13:23:51Z</time></trkpt><trkpt lat="37.859201754786525" lon="15.221913283910071"><ele>104.0</ele><time>2026-04-06T13:23:52Z</time></trkpt><trkpt lat="37.8593460301823" lon="15.221858544214582"><ele>104.0</ele><time>2026-04-06T13:23:53Z</time></trkpt><trkpt lat="37.85947983329046" lon="15.221809255025152"><ele>104.0</ele><time>2026-04-06T13:23:54Z</time></trkpt><trkpt lat="37.859602731014355" lon="15.221766145020638"><ele>104.4</ele><time>2026-04-06T13:23:55Z</time></trkpt><trkpt lat="37.85971731629749" lon="15.221726747159554"><ele>104.80000000000001</ele><time>2026-04-06T13:23:56Z</time></trkpt><trkpt lat="37.85981955593062" lon="15.221682603642178"><ele>105.19999999999999</ele><time>2026-04-06T13:23:57Z</time></trkpt><trkpt lat="37.85990418806446" lon="15.221611559244481"><ele>105.6</ele><time>2026-04-06T13:23:58Z</time></trkpt><trkpt lat="37.85997839162181" lon="15.22153573827727"><ele>106.0</ele><time>2026-04-06T13:23:59Z</time></trkpt><trkpt lat="37.86004464914212" lon="15.221425934777994"><ele>106.0</ele><time>2026-04-06T13:24:00Z</time></trkpt><trkpt lat="37.86010268642553" lon="15.221330515473587"><ele>106.0</ele><time>2026-04-06T13:24:01Z</time></trkpt><trkpt lat="37.86016294206423" lon="15.221232572790873"><ele>106.0</ele><time>2026-04-06T13:24:02Z</time></trkpt><trkpt lat="37.86023178432577" lon="15.2211365177037"><ele>106.0</ele><time>2026-04-06T13:24:03Z</time></trkpt><trkpt lat="37.86030374090696" lon="15.221044124635526"><ele>106.0</ele><time>2026-04-06T13:24:04Z</time></trkpt><trkpt lat="37.86037908124689" lon="15.220961325861118"><ele>106.19999999999999</ele><time>2026-04-06T13:24:05Z</time></trkpt><trkpt lat="37.86046574310791" lon="15.220891474734007"><ele>106.39999999999999</ele><time>2026-04-06T13:24:06Z</time></trkpt><trkpt lat="37.86055754450688" lon="15.220827928674137"><ele>106.6</ele><time>2026-04-06T13:24:07Z</time></trkpt><trkpt lat="37.860654366855" lon="15.220773185242948"><ele>106.8</ele><time>2026-04-06T13:24:08Z</time></trkpt><trkpt lat="37.86074707596859" lon="15.220707081389905"><ele>107.0</ele><time>2026-04-06T13:24:09Z</time></trkpt><trkpt lat="37.86085009816077" lon="15.220644162355237"><ele>108.25</ele><time>2026-04-06T13:24:10Z</time></trkpt><trkpt lat="37.86095231390653" lon="15.2205809168183"><ele>109.5</ele><time>2026-04-06T13:24:11Z</time></trkpt><trkpt lat="37.86106206670375" lon="15.220522362996354"><ele>110.75</ele><time>2026-04-06T13:24:12Z</time></trkpt><trkpt lat="37.86116161350229" lon="15.220457886179762"><ele>112.0</ele><time>2026-04-06T13:24:13Z</time></trkpt><trkpt lat="37.861269053171945" lon="15.220396375388642"><ele>112.0</ele><time>2026-04-06T13:24:14Z</time></trkpt><trkpt lat="37.86137119296684" lon="15.220328103030822"><ele>112.0</ele><time>2026-04-06T13:24:15Z</time></trkpt><trkpt lat="37.86148196852689" lon="15.220260899675544"><ele>112.0</ele><time>2026-04-06T13:24:16Z</time></trkpt><trkpt lat="37.86159014678836" lon="15.220200523327891"><ele>112.0</ele><time>2026-04-06T13:24:17Z</time></trkpt><trkpt lat="37.86169309470076" lon="15.220128375520842"><ele>112.6</ele><time>2026-04-06T13:24:18Z</time></trkpt><trkpt lat="37.86179161496834" lon="15.220068607819968"><ele>113.19999999999999</ele><time>2026-04-06T13:24:19Z</time></trkpt><trkpt lat="37.861883251614444" lon="15.220014956733143"><ele>113.8</ele><time>2026-04-06T13:24:20Z</time></trkpt><trkpt lat="37.86197758541059" lon="15.219956081521508"><ele>114.4</ele><time>2026-04-06T13:24:21Z</time></trkpt><trkpt lat="37.862068060677835" lon="15.21989430077462"><ele>115.0</ele><time>2026-04-06T13:24:22Z</time></trkpt><trkpt lat="37.86216176170302" lon="15.219831297259534"><ele>114.66666666666667</ele><time>2026-04-06T13:24:23Z</time></trkpt><trkpt lat="37.86224354296567" lon="15.219769126057253"><ele>114.33333333333334</ele><time>2026-04-06T13:24:24Z</time></trkpt><trkpt lat="37.86231402522796" lon="15.219716005287365"><ele>114.0</ele><time>2026-04-06T13:24:25Z</time></trkpt><trkpt lat="37.86237923700249" lon="15.21966909132882"><ele>113.66666666666666</ele><time>2026-04-06T13:24:26Z</time></trkpt><trkpt lat="37.86243625571951" lon="15.219625156398005"><ele>113.33333333333333</ele><time>2026-04-06T13:24:27Z</time></trkpt><trkpt lat="37.86253472951406" lon="15.21954738247699"><ele>113.0</ele><time>2026-04-06T13:24:29Z</time></trkpt><trkpt lat="37.86262185834293" lon="15.219438654334681"><ele>113.42857142857143</ele><time>2026-04-06T13:24:31Z</time></trkpt><trkpt lat="37.862668445390796" lon="15.219378722923576"><ele>113.85714285714286</ele><time>2026-04-06T13:24:32Z</time></trkpt><trkpt lat="37.86271553848765" lon="15.219320173443508"><ele>114.28571428571429</ele><time>2026-04-06T13:24:33Z</time></trkpt><trkpt lat="37.86277038566053" lon="15.219257771781061"><ele>114.71428571428572</ele><time>2026-04-06T13:24:34Z</time></trkpt><trkpt lat="37.86283076438613" lon="15.219188570740068"><ele>115.14285714285714</ele><time>2026-04-06T13:24:35Z</time></trkpt><trkpt lat="37.86288756328008" lon="15.219119648620287"><ele>115.57142857142858</ele><time>2026-04-06T13:24:36Z</time></trkpt><trkpt lat="37.86293788812429" lon="15.219056574189677"><ele>116.00000000000001</ele><time>2026-04-06T13:24:37Z</time></trkpt><trkpt lat="37.86303165835063" lon="15.21896629243484"><ele>115.99999999999999</ele><time>2026-04-06T13:24:39Z</time></trkpt><trkpt lat="37.86314729078633" lon="15.218962790755603"><ele>116.0</ele><time>2026-04-06T13:24:41Z</time></trkpt><trkpt lat="37.86320635226352" lon="15.218993315159508"><ele>116.0</ele><time>2026-04-06T13:24:41.999Z</time></trkpt><trkpt lat="37.86326729432506" lon="15.219046017113554"><ele>116.0</ele><time>2026-04-06T13:24:42.999Z</time></trkpt><trkpt lat="37.863324926069595" lon="15.219116119547271"><ele>115.99999999999999</ele><time>2026-04-06T13:24:43.999Z</time></trkpt><trkpt lat="37.863387764872485" lon="15.219197491779957"><ele>116.0</ele><time>2026-04-06T13:24:44.999Z</time></trkpt><trkpt lat="37.86344763184799" lon="15.21928043925887"><ele>117.71428571428572</ele><time>2026-04-06T13:24:45.999Z</time></trkpt><trkpt lat="37.86350202829635" lon="15.219351674968681"><ele>119.42857142857143</ele><time>2026-04-06T13:24:47Z</time></trkpt><trkpt lat="37.863506047540625" lon="15.21944421080295"><ele>121.14285714285714</ele><time>2026-04-06T13:24:48Z</time></trkpt><trkpt lat="37.86355094500438" lon="15.219517853024469"><ele>122.85714285714286</ele><time>2026-04-06T13:24:51Z</time></trkpt><trkpt lat="37.863565253038786" lon="15.219605173307974"><ele>124.57142857142856</ele><time>2026-04-06T13:24:55Z</time></trkpt><trkpt lat="37.86357214893137" lon="15.219684836919228"><ele>126.28571428571428</ele><time>2026-04-06T13:24:59Z</time></trkpt><trkpt lat="37.86356401865844" lon="15.21978390874325"><ele>128.0</ele><time>2026-04-06T13:25:03Z</time></trkpt><trkpt lat="37.863536239995724" lon="15.219859506972009"><ele>126.60000000000001</ele><time>2026-04-06T13:25:05Z</time></trkpt><trkpt lat="37.863477255215386" lon="15.219959796803026"><ele>125.20000000000002</ele><time>2026-04-06T13:25:07Z</time></trkpt><trkpt lat="37.86338812985653" lon="15.220073282305366"><ele>123.8</ele><time>2026-04-06T13:25:09Z</time></trkpt><trkpt lat="37.86333188030497" lon="15.220135034025217"><ele>122.4</ele><time>2026-04-06T13:25:10Z</time></trkpt><trkpt lat="37.86326970872013" lon="15.220196468763469"><ele>121.0</ele><time>2026-04-06T13:25:11Z</time></trkpt><trkpt lat="37.863206150240224" lon="15.220258609541021"><ele>121.00000000000001</ele><time>2026-04-06T13:25:12Z</time></trkpt><trkpt lat="37.863143712302865" lon="15.220319654478631"><ele>121.0</ele><time>2026-04-06T13:25:13Z</time></trkpt><trkpt lat="37.86308024725989" lon="15.220381703622849"><ele>121.0</ele><time>2026-04-06T13:25:14Z</time></trkpt><trkpt lat="37.863014628622935" lon="15.220445858381229"><ele>121.0</ele><time>2026-04-06T13:25:15Z</time></trkpt><trkpt lat="37.862950220364205" lon="15.220508829860208"><ele>121.00000000000001</ele><time>2026-04-06T13:25:16Z</time></trkpt><trkpt lat="37.86288688522876" lon="15.220572117416486"><ele>121.0</ele><time>2026-04-06T13:25:17Z</time></trkpt><trkpt lat="37.86283230911278" lon="15.220647840164538"><ele>121.71428571428571</ele><time>2026-04-06T13:25:18Z</time></trkpt><trkpt lat="37.862763973083" lon="15.220700688249606"><ele>122.42857142857142</ele><time>2026-04-06T13:25:19Z</time></trkpt><trkpt lat="37.86270357068393" lon="15.220757982585615"><ele>123.14285714285714</ele><time>2026-04-06T13:25:20Z</time></trkpt><trkpt lat="37.86264730107156" lon="15.220816628469523"><ele>123.85714285714286</ele><time>2026-04-06T13:25:21Z</time></trkpt><trkpt lat="37.86259417811812" lon="15.220869765749265"><ele>124.57142857142857</ele><time>2026-04-06T13:25:22Z</time></trkpt><trkpt lat="37.86254199104079" lon="15.220927410422043"><ele>125.28571428571428</ele><time>2026-04-06T13:25:23Z</time></trkpt><trkpt lat="37.86248933460269" lon="15.220980354660458"><ele>126.0</ele><time>2026-04-06T13:25:24Z</time></trkpt><trkpt lat="37.86243589902052" lon="15.221035135266758"><ele>126.0</ele><time>2026-04-06T13:25:25Z</time></trkpt><trkpt lat="37.86237913790801" lon="15.221085278907175"><ele>126.0</ele><time>2026-04-06T13:25:26Z</time></trkpt><trkpt lat="37.86232044458284" lon="15.221123412278299"><ele>126.0</ele><time>2026-04-06T13:25:27Z</time></trkpt><trkpt lat="37.862208839941694" lon="15.221145084452047"><ele>126.0</ele><time>2026-04-06T13:25:29Z</time></trkpt><trkpt lat="37.86209408347274" lon="15.22112130856808"><ele>126.0</ele><time>2026-04-06T13:25:31Z</time></trkpt><trkpt lat="37.861981655792555" lon="15.221110198204427"><ele>126.0</ele><time>2026-04-06T13:25:33Z</time></trkpt><trkpt lat="37.86189714803187" lon="15.221139166978396"><ele>126.0</ele><time>2026-04-06T13:25:35Z</time></trkpt><trkpt lat="37.86196701138064" lon="15.221135819666875"><ele>126.0</ele><time>2026-04-06T13:25:45Z</time></trkpt><trkpt lat="37.86206385465653" lon="15.221134060685785"><ele>126.0</ele><time>2026-04-06T13:25:47Z</time></trkpt><trkpt lat="37.86211472145773" lon="15.221186776071171"><ele>126.0</ele><time>2026-04-06T13:25:48Z</time></trkpt><trkpt lat="37.86222373653806" lon="15.221191477632448"><ele>126.0</ele><time>2026-04-06T13:25:50Z</time></trkpt><trkpt lat="37.8623419617874" lon="15.221167797876635"><ele>126.0</ele><time>2026-04-06T13:25:52Z</time></trkpt><trkpt lat="37.86240054136834" lon="15.22113396490575"><ele>126.0</ele><time>2026-04-06T13:25:53Z</time></trkpt><trkpt lat="37.8624588103947" lon="15.221087004312418"><ele>126.0</ele><time>2026-04-06T13:25:54Z</time></trkpt><trkpt lat="37.86251126401244" lon="15.221032558163973"><ele>126.0</ele><time>2026-04-06T13:25:55Z</time></trkpt><trkpt lat="37.86256406701361" lon="15.22096685667409"><ele>126.0</ele><time>2026-04-06T13:25:56Z</time></trkpt><trkpt lat="37.86262972274339" lon="15.220899000019509"><ele>126.0</ele><time>2026-04-06T13:25:57Z</time></trkpt><trkpt lat="37.86269519618904" lon="15.22083329093972"><ele>126.0</ele><time>2026-04-06T13:25:58Z</time></trkpt><trkpt lat="37.862757046586836" lon="15.220760608335354"><ele>125.16666666666667</ele><time>2026-04-06T13:25:59Z</time></trkpt><trkpt lat="37.862819947340746" lon="15.220692679664127"><ele>124.33333333333334</ele><time>2026-04-06T13:26:00Z</time></trkpt><trkpt lat="37.862889048111064" lon="15.220625411980064"><ele>123.5</ele><time>2026-04-06T13:26:01Z</time></trkpt><trkpt lat="37.86295903383756" lon="15.220552497924984"><ele>122.66666666666667</ele><time>2026-04-06T13:26:02Z</time></trkpt><trkpt lat="37.86303338081178" lon="15.220475279623614"><ele>121.83333333333334</ele><time>2026-04-06T13:26:03Z</time></trkpt><trkpt lat="37.86310441502321" lon="15.220399898207877"><ele>121.0</ele><time>2026-04-06T13:26:04Z</time></trkpt><trkpt lat="37.86317648345633" lon="15.220338642447869"><ele>121.00000000000001</ele><time>2026-04-06T13:26:05Z</time></trkpt><trkpt lat="37.86324747897968" lon="15.22026904577846"><ele>121.0</ele><time>2026-04-06T13:26:06Z</time></trkpt><trkpt lat="37.863319466594554" lon="15.220203124543069"><ele>121.0</ele><time>2026-04-06T13:26:07Z</time></trkpt><trkpt lat="37.8633862496825" lon="15.220134963401282"><ele>121.0</ele><time>2026-04-06T13:26:08Z</time></trkpt><trkpt lat="37.86344378435768" lon="15.220063753465881"><ele>121.00000000000001</ele><time>2026-04-06T13:26:09Z</time></trkpt><trkpt lat="37.86350023807254" lon="15.219991989137847"><ele>121.0</ele><time>2026-04-06T13:26:10Z</time></trkpt><trkpt lat="37.86354855884141" lon="15.219924244373475"><ele>122.16666666666667</ele><time>2026-04-06T13:26:11Z</time></trkpt><trkpt lat="37.8635831835359" lon="15.219855778375733"><ele>123.33333333333334</ele><time>2026-04-06T13:26:12Z</time></trkpt><trkpt lat="37.86361491276221" lon="15.2197142884057"><ele>124.5</ele><time>2026-04-06T13:26:14Z</time></trkpt><trkpt lat="37.86360277917415" lon="15.219565732876912"><ele>125.66666666666666</ele><time>2026-04-06T13:26:16Z</time></trkpt><trkpt lat="37.863577906634184" lon="15.219487381258912"><ele>126.83333333333333</ele><time>2026-04-06T13:26:17Z</time></trkpt><trkpt lat="37.86353323762333" lon="15.21940183461127"><ele>128.0</ele><time>2026-04-06T13:26:18Z</time></trkpt><trkpt lat="37.86347698099074" lon="15.219314032821167"><ele>126.16666666666666</ele><time>2026-04-06T13:26:19Z</time></trkpt><trkpt lat="37.86342304540428" lon="15.219230505285372"><ele>124.33333333333333</ele><time>2026-04-06T13:26:20Z</time></trkpt><trkpt lat="37.863370288646315" lon="15.219157506338918"><ele>122.5</ele><time>2026-04-06T13:26:21Z</time></trkpt><trkpt lat="37.86332107594545" lon="15.219084910220657"><ele>120.66666666666666</ele><time>2026-04-06T13:26:22Z</time></trkpt><trkpt lat="37.86327800941273" lon="15.219016353928993"><ele>118.83333333333333</ele><time>2026-04-06T13:26:23Z</time></trkpt><trkpt lat="37.863243857342816" lon="15.21894827115046"><ele>117.0</ele><time>2026-04-06T13:26:24Z</time></trkpt><trkpt lat="37.86320861413701" lon="15.21882315154047"><ele>116.8</ele><time>2026-04-06T13:26:26Z</time></trkpt><trkpt lat="37.8632206608994" lon="15.218716119072468"><ele>116.6</ele><time>2026-04-06T13:26:29Z</time></trkpt><trkpt lat="37.86330545622364" lon="15.218594466080825"><ele>116.39999999999999</ele><time>2026-04-06T13:26:31Z</time></trkpt><trkpt lat="37.86336357328737" lon="15.218524217207069"><ele>116.19999999999999</ele><time>2026-04-06T13:26:32Z</time></trkpt><trkpt lat="37.863432043477154" lon="15.21844482051442"><ele>116.0</ele><time>2026-04-06T13:26:33Z</time></trkpt><trkpt lat="37.86350391120949" lon="15.218359243276762"><ele>115.6</ele><time>2026-04-06T13:26:34Z</time></trkpt><trkpt lat="37.863580276219295" lon="15.218267320700628"><ele>115.19999999999999</ele><time>2026-04-06T13:26:35Z</time></trkpt><trkpt lat="37.86366694491421" lon="15.21817106290326"><ele>114.80000000000001</ele><time>2026-04-06T13:26:36Z</time></trkpt><trkpt lat="37.863751800076244" lon="15.218075867855006"><ele>114.4</ele><time>2026-04-06T13:26:37Z</time></trkpt><trkpt lat="37.86382894031549" lon="15.217984917791677"><ele>114.0</ele><time>2026-04-06T13:26:38Z</time></trkpt><trkpt lat="37.863907066416076" lon="15.217904923939649"><ele>114.0</ele><time>2026-04-06T13:26:39Z</time></trkpt><trkpt lat="37.86398681993238" lon="15.21784632917697"><ele>114.0</ele><time>2026-04-06T13:26:39.999Z</time></trkpt><trkpt lat="37.86407638181748" lon="15.217813492912052"><ele>114.0</ele><time>2026-04-06T13:26:40.999Z</time></trkpt><trkpt lat="37.86416700829462" lon="15.2178014443254"><ele>114.0</ele><time>2026-04-06T13:26:41.999Z</time></trkpt><trkpt lat="37.86425905995035" lon="15.217813543319897"><ele>114.0</ele><time>2026-04-06T13:26:42.999Z</time></trkpt><trkpt lat="37.86434970858406" lon="15.217851689405814"><ele>114.5</ele><time>2026-04-06T13:26:43.999Z</time></trkpt><trkpt lat="37.86443099863299" lon="15.217913794198765"><ele>115.0</ele><time>2026-04-06T13:26:44.999Z</time></trkpt><trkpt lat="37.86450705559517" lon="15.217984221651012"><ele>115.5</ele><time>2026-04-06T13:26:45.999Z</time></trkpt><trkpt lat="37.86457361272471" lon="15.218059491001066"><ele>116.0</ele><time>2026-04-06T13:26:46.999Z</time></trkpt><trkpt lat="37.86463681084528" lon="15.2181282092736"><ele>116.5</ele><time>2026-04-06T13:26:47.999Z</time></trkpt><trkpt lat="37.864696316545334" lon="15.218190469794905"><ele>117.0</ele><time>2026-04-06T13:26:48.999Z</time></trkpt><trkpt lat="37.86475065768119" lon="15.218246049644387"><ele>119.0</ele><time>2026-04-06T13:26:49.999Z</time></trkpt><trkpt lat="37.8648491898853" lon="15.218320621610026"><ele>120.99999999999999</ele><time>2026-04-06T13:26:51.999Z</time></trkpt><trkpt lat="37.864966883057" lon="15.218333495695726"><ele>122.99999999999999</ele><time>2026-04-06T13:26:54Z</time></trkpt><trkpt lat="37.86503197793173" lon="15.218308944085754"><ele>125.0</ele><time>2026-04-06T13:26:55Z</time></trkpt><trkpt lat="37.86509717319363" lon="15.218258920175316"><ele>127.0</ele><time>2026-04-06T13:26:56Z</time></trkpt><trkpt lat="37.865167315771444" lon="15.218196676756836"><ele>126.83333333333334</ele><time>2026-04-06T13:26:57Z</time></trkpt><trkpt lat="37.86523856616411" lon="15.218132060933232"><ele>126.66666666666667</ele><time>2026-04-06T13:26:58Z</time></trkpt><trkpt lat="37.86531340062253" lon="15.218077644810277"><ele>126.5</ele><time>2026-04-06T13:26:59Z</time></trkpt><trkpt lat="37.86539017938604" lon="15.218036957784664"><ele>126.33333333333334</ele><time>2026-04-06T13:27:00Z</time></trkpt><trkpt lat="37.86546586597821" lon="15.217999473213185"><ele>126.16666666666667</ele><time>2026-04-06T13:27:01Z</time></trkpt><trkpt lat="37.865533000422204" lon="15.217965836372214"><ele>126.0</ele><time>2026-04-06T13:27:02Z</time></trkpt><trkpt lat="37.86562205747249" lon="15.217940316536026"><ele>126.0</ele><time>2026-04-06T13:27:04Z</time></trkpt><trkpt lat="37.865573525363146" lon="15.218004582032075"><ele>126.0</ele><time>2026-04-06T13:27:08Z</time></trkpt><trkpt lat="37.8649571084939" lon="15.218629611933364"><ele>126.25</ele><time>2026-04-06T13:27:35Z</time></trkpt><trkpt lat="37.8648981681807" lon="15.218697382819762"><ele>126.5</ele><time>2026-04-06T13:27:37Z</time></trkpt><trkpt lat="37.86484675569428" lon="15.218745268679681"><ele>126.75</ele><time>2026-04-06T13:27:45Z</time></trkpt><trkpt lat="37.86472244792974" lon="15.21872426667621"><ele>127.0</ele><time>2026-04-06T13:27:58Z</time></trkpt><trkpt lat="37.864576517982485" lon="15.218891213985186"><ele>128.66666666666669</ele><time>2026-04-06T13:28:10Z</time></trkpt><trkpt lat="37.864542179901576" lon="15.218986063271387"><ele>130.33333333333334</ele><time>2026-04-06T13:28:13Z</time></trkpt><trkpt lat="37.864574852558036" lon="15.219056640700575"><ele>132.0</ele><time>2026-04-06T13:28:15Z</time></trkpt><trkpt lat="37.86450873295836" lon="15.219100468788438"><ele>133.66666666666666</ele><time>2026-04-06T13:28:17Z</time></trkpt><trkpt lat="37.86446874369322" lon="15.219173147113112"><ele>135.33333333333331</ele><time>2026-04-06T13:28:19Z</time></trkpt><trkpt lat="37.864379047099504" lon="15.219217949743003"><ele>137.0</ele><time>2026-04-06T13:28:21Z</time></trkpt><trkpt lat="37.86431398258454" lon="15.21928476256655"><ele>135.71428571428572</ele><time>2026-04-06T13:28:23Z</time></trkpt><trkpt lat="37.86426345287079" lon="15.219357003391785"><ele>134.42857142857144</ele><time>2026-04-06T13:28:25Z</time></trkpt><trkpt lat="37.86421055895043" lon="15.219406092298964"><ele>133.14285714285714</ele><time>2026-04-06T13:28:27Z</time></trkpt><trkpt lat="37.864158197389564" lon="15.21946046466568"><ele>131.85714285714286</ele><time>2026-04-06T13:28:29Z</time></trkpt><trkpt lat="37.864103324438055" lon="15.219520211728405"><ele>130.57142857142856</ele><time>2026-04-06T13:28:31Z</time></trkpt><trkpt lat="37.86404635902262" lon="15.219582091778358"><ele>129.28571428571428</ele><time>2026-04-06T13:28:33Z</time></trkpt><trkpt lat="37.8639922413751" lon="15.219647767487544"><ele>128.0</ele><time>2026-04-06T13:28:35Z</time></trkpt><trkpt lat="37.863929806276396" lon="15.219714032950638"><ele>128.0</ele><time>2026-04-06T13:28:37Z</time></trkpt><trkpt lat="37.86385900263309" lon="15.219791167364113"><ele>128.0</ele><time>2026-04-06T13:28:39Z</time></trkpt><trkpt lat="37.86377444599166" lon="15.2198768756352"><ele>128.0</ele><time>2026-04-06T13:28:40.999Z</time></trkpt><trkpt lat="37.86369054840711" lon="15.219964493150062"><ele>128.0</ele><time>2026-04-06T13:28:42.999Z</time></trkpt><trkpt lat="37.86361213317511" lon="15.220060823851869"><ele>128.0</ele><time>2026-04-06T13:28:44.999Z</time></trkpt><trkpt lat="37.863532482046395" lon="15.220157971652965"><ele>126.60000000000001</ele><time>2026-04-06T13:28:46.999Z</time></trkpt><trkpt lat="37.86344300832528" lon="15.220262262792296"><ele>125.20000000000002</ele><time>2026-04-06T13:28:48.999Z</time></trkpt><trkpt lat="37.86334904825983" lon="15.220362177745022"><ele>123.8</ele><time>2026-04-06T13:28:50.999Z</time></trkpt><trkpt lat="37.86329429626331" lon="15.220406455610858"><ele>122.4</ele><time>2026-04-06T13:28:51.999Z</time></trkpt><trkpt lat="37.86320288812906" lon="15.220515215690698"><ele>121.0</ele><time>2026-04-06T13:28:53.999Z</time></trkpt><trkpt lat="37.863155600210895" lon="15.220572691673485"><ele>123.83333333333334</ele><time>2026-04-06T13:28:54.999Z</time></trkpt><trkpt lat="37.86307307467332" lon="15.220665788960682"><ele>126.66666666666667</ele><time>2026-04-06T13:28:56.999Z</time></trkpt><trkpt lat="37.863006501253665" lon="15.220751270823417"><ele>129.5</ele><time>2026-04-06T13:28:59.001Z</time></trkpt><trkpt lat="37.86293679249528" lon="15.220817205033756"><ele>132.33333333333334</ele><time>2026-04-06T13:29:01.001Z</time></trkpt><trkpt lat="37.86288177928171" lon="15.220879460839067"><ele>135.16666666666666</ele><time>2026-04-06T13:29:03.001Z</time></trkpt><trkpt lat="37.86283108177498" lon="15.220937012184095"><ele>138.0</ele><time>2026-04-06T13:29:05Z</time></trkpt><trkpt lat="37.86287748848899" lon="15.220880549509461"><ele>138.0</ele><time>2026-04-06T13:29:26Z</time></trkpt><trkpt lat="37.86293077150997" lon="15.220811101534572"><ele>138.0</ele><time>2026-04-06T13:29:32Z</time></trkpt><trkpt lat="37.862972004113836" lon="15.220749628887072"><ele>138.0</ele><time>2026-04-06T13:29:36Z</time></trkpt><trkpt lat="37.863053803106254" lon="15.220679553563594"><ele>138.0</ele><time>2026-04-06T13:29:44Z</time></trkpt><trkpt lat="37.86313835091458" lon="15.220582920014044"><ele>138.0</ele><time>2026-04-06T13:29:46Z</time></trkpt><trkpt lat="37.863190387462716" lon="15.220530127919947"><ele>138.0</ele><time>2026-04-06T13:29:47Z</time></trkpt><trkpt lat="37.86324256184258" lon="15.22047184522629"><ele>138.66666666666666</ele><time>2026-04-06T13:29:48Z</time></trkpt><trkpt lat="37.8633008609813" lon="15.220413961256948"><ele>139.33333333333334</ele><time>2026-04-06T13:29:49Z</time></trkpt><trkpt lat="37.86336060058223" lon="15.220353969923442"><ele>140.0</ele><time>2026-04-06T13:29:50Z</time></trkpt><trkpt lat="37.86342224465874" lon="15.220292919637703"><ele>140.66666666666669</ele><time>2026-04-06T13:29:51Z</time></trkpt><trkpt lat="37.8634830540014" lon="15.220226549276674"><ele>141.33333333333334</ele><time>2026-04-06T13:29:52Z</time></trkpt><trkpt lat="37.86354076120599" lon="15.220156530188365"><ele>142.0</ele><time>2026-04-06T13:29:53Z</time></trkpt><trkpt lat="37.8635977310046" lon="15.220084622070434"><ele>142.0</ele><time>2026-04-06T13:29:54Z</time></trkpt><trkpt lat="37.863657211834614" lon="15.220018020693239"><ele>142.0</ele><time>2026-04-06T13:29:55Z</time></trkpt><trkpt lat="37.86371687446153" lon="15.21995189889181"><ele>142.0</ele><time>2026-04-06T13:29:56Z</time></trkpt><trkpt lat="37.863777714961955" lon="15.21988586307919"><ele>142.0</ele><time>2026-04-06T13:29:57Z</time></trkpt><trkpt lat="37.86383810325934" lon="15.219821001791335"><ele>142.0</ele><time>2026-04-06T13:29:58Z</time></trkpt><trkpt lat="37.86389592464634" lon="15.21975960032572"><ele>142.0</ele><time>2026-04-06T13:29:59Z</time></trkpt><trkpt lat="37.86395083227533" lon="15.219700499172808"><ele>141.0</ele><time>2026-04-06T13:30:00Z</time></trkpt><trkpt lat="37.86400522160119" lon="15.219644639686098"><ele>140.0</ele><time>2026-04-06T13:30:01Z</time></trkpt><trkpt lat="37.86409356969096" lon="15.219551016503981"><ele>139.0</ele><time>2026-04-06T13:30:03Z</time></trkpt><trkpt lat="37.8641660768003" lon="15.219475517382273"><ele>138.0</ele><time>2026-04-06T13:30:05Z</time></trkpt><trkpt lat="37.86423611343594" lon="15.21940003713681"><ele>137.0</ele><time>2026-04-06T13:30:07Z</time></trkpt><trkpt lat="37.86428955091069" lon="15.219323208078178"><ele>137.0</ele><time>2026-04-06T13:30:08Z</time></trkpt><trkpt lat="37.8643506994704" lon="15.219260625674279"><ele>137.0</ele><time>2026-04-06T13:30:09Z</time></trkpt><trkpt lat="37.8644487975718" lon="15.219157412655804"><ele>137.0</ele><time>2026-04-06T13:30:11Z</time></trkpt><trkpt lat="37.86449945344713" lon="15.219104306690705"><ele>137.0</ele><time>2026-04-06T13:30:12Z</time></trkpt><trkpt lat="37.86455156336031" lon="15.219050249956975"><ele>137.0</ele><time>2026-04-06T13:30:13Z</time></trkpt><trkpt lat="37.864602880086565" lon="15.218992519466644"><ele>137.0</ele><time>2026-04-06T13:30:14Z</time></trkpt><trkpt lat="37.86466361279646" lon="15.218842312295573"><ele>134.5</ele><time>2026-04-06T13:30:16Z</time></trkpt><trkpt lat="37.864737210765114" lon="15.218765400769646"><ele>132.0</ele><time>2026-04-06T13:30:18Z</time></trkpt><trkpt lat="37.864783142497394" lon="15.218702656923792"><ele>129.5</ele><time>2026-04-06T13:30:25Z</time></trkpt><trkpt lat="37.86482283419722" lon="15.218626070336333"><ele>127.0</ele><time>2026-04-06T13:30:29Z</time></trkpt><trkpt lat="37.864939930566955" lon="15.218379019239311"><ele>127.0</ele><time>2026-04-06T13:30:34.999Z</time></trkpt><trkpt lat="37.86504230240322" lon="15.218324232113982"><ele>126.99999999999999</ele><time>2026-04-06T13:30:36.999Z</time></trkpt><trkpt lat="37.86510777617956" lon="15.218268317219222"><ele>126.99999999999999</ele><time>2026-04-06T13:30:37.999Z</time></trkpt><trkpt lat="37.86516900699574" lon="15.218215766857034"><ele>127.0</ele><time>2026-04-06T13:30:38.999Z</time></trkpt><trkpt lat="37.865254645880405" lon="15.21813991279537"><ele>127.0</ele><time>2026-04-06T13:30:40.999Z</time></trkpt><trkpt lat="37.86536570398102" lon="15.218245305732541"><ele>126.8</ele><time>2026-04-06T13:30:41.999Z</time></trkpt><trkpt lat="37.86544554165021" lon="15.218191344353272"><ele>126.6</ele><time>2026-04-06T13:30:43.999Z</time></trkpt><trkpt lat="37.86553232278874" lon="15.21800953757939"><ele>126.39999999999999</ele><time>2026-04-06T13:30:45.999Z</time></trkpt><trkpt lat="37.865599729702495" lon="15.217982325799092"><ele>126.19999999999999</ele><time>2026-04-06T13:30:47.999Z</time></trkpt><trkpt lat="37.865560496734275" lon="15.217899112843162"><ele>126.0</ele><time>2026-04-06T13:30:59.999Z</time></trkpt><trkpt lat="37.865477409263015" lon="15.21788624433989"><ele>126.0</ele><time>2026-04-06T13:31:00.999Z</time></trkpt><trkpt lat="37.865395284468946" lon="15.217856578671267"><ele>126.0</ele><time>2026-04-06T13:31:01.999Z</time></trkpt><trkpt lat="37.86532691694643" lon="15.217823982988817"><ele>126.0</ele><time>2026-04-06T13:31:02.999Z</time></trkpt><trkpt lat="37.8652553737835" lon="15.217787600652937"><ele>126.0</ele><time>2026-04-06T13:31:03.999Z</time></trkpt><trkpt lat="37.86518443677467" lon="15.217742889711285"><ele>126.0</ele><time>2026-04-06T13:31:05Z</time></trkpt><trkpt lat="37.86511181138536" lon="15.217692897092563"><ele>126.0</ele><time>2026-04-06T13:31:06Z</time></trkpt><trkpt lat="37.86503432109757" lon="15.217654269927442"><ele>124.5</ele><time>2026-04-06T13:31:07Z</time></trkpt><trkpt lat="37.86495503377713" lon="15.217628894530538"><ele>123.0</ele><time>2026-04-06T13:31:08Z</time></trkpt><trkpt lat="37.8648728428263" lon="15.217615316425114"><ele>121.5</ele><time>2026-04-06T13:31:09Z</time></trkpt><trkpt lat="37.86478816123373" lon="15.217615882942658"><ele>120.0</ele><time>2026-04-06T13:31:10Z</time></trkpt><trkpt lat="37.8647037392587" lon="15.217613985659757"><ele>118.5</ele><time>2026-04-06T13:31:11Z</time></trkpt><trkpt lat="37.86461927696161" lon="15.217599380992665"><ele>117.0</ele><time>2026-04-06T13:31:12Z</time></trkpt><trkpt lat="37.8645353004161" lon="15.217578378922902"><ele>117.0</ele><time>2026-04-06T13:31:13Z</time></trkpt><trkpt lat="37.864452949579416" lon="15.217541114298697"><ele>116.99999999999999</ele><time>2026-04-06T13:31:14Z</time></trkpt><trkpt lat="37.864375213668986" lon="15.21748472534452"><ele>116.99999999999999</ele><time>2026-04-06T13:31:15Z</time></trkpt><trkpt lat="37.86430170205368" lon="15.217413302924676"><ele>117.0</ele><time>2026-04-06T13:31:16Z</time></trkpt><trkpt lat="37.864233516571666" lon="15.217336547404535"><ele>117.0</ele><time>2026-04-06T13:31:17Z</time></trkpt><trkpt lat="37.864161657269875" lon="15.217260694062032"><ele>115.6</ele><time>2026-04-06T13:31:18Z</time></trkpt><trkpt lat="37.86409091787706" lon="15.217179448019937"><ele>114.19999999999999</ele><time>2026-04-06T13:31:19Z</time></trkpt><trkpt lat="37.86402048476883" lon="15.217100969204608"><ele>112.8</ele><time>2026-04-06T13:31:20Z</time></trkpt><trkpt lat="37.86395352074449" lon="15.217025074242068"><ele>111.4</ele><time>2026-04-06T13:31:21Z</time></trkpt><trkpt lat="37.8638825226696" lon="15.216955289551436"><ele>110.0</ele><time>2026-04-06T13:31:22Z</time></trkpt><trkpt lat="37.8638096963396" lon="15.216903987587164"><ele>109.99999999999999</ele><time>2026-04-06T13:31:23Z</time></trkpt><trkpt lat="37.86373700775435" lon="15.216869928366753"><ele>110.0</ele><time>2026-04-06T13:31:24Z</time></trkpt><trkpt lat="37.863665681953215" lon="15.216852067581259"><ele>110.0</ele><time>2026-04-06T13:31:25Z</time></trkpt><trkpt lat="37.86359105209535" lon="15.21686596343301"><ele>110.0</ele><time>2026-04-06T13:31:26Z</time></trkpt><trkpt lat="37.86352233411603" lon="15.216880759293819"><ele>110.0</ele><time>2026-04-06T13:31:27Z</time></trkpt><trkpt lat="37.86345876868131" lon="15.216914672235841"><ele>109.99999999999999</ele><time>2026-04-06T13:31:28Z</time></trkpt><trkpt lat="37.86339260540623" lon="15.216961269969051"><ele>110.0</ele><time>2026-04-06T13:31:29Z</time></trkpt><trkpt lat="37.863324294653935" lon="15.217026114945298"><ele>110.2</ele><time>2026-04-06T13:31:30Z</time></trkpt><trkpt lat="37.86325791268173" lon="15.217099929723492"><ele>110.4</ele><time>2026-04-06T13:31:31Z</time></trkpt><trkpt lat="37.863193422434584" lon="15.217190082537222"><ele>110.6</ele><time>2026-04-06T13:31:32Z</time></trkpt><trkpt lat="37.863129264510455" lon="15.217294431588106"><ele>110.8</ele><time>2026-04-06T13:31:33Z</time></trkpt><trkpt lat="37.863063852089674" lon="15.217402686451132"><ele>111.0</ele><time>2026-04-06T13:31:34Z</time></trkpt><trkpt lat="37.862993315639784" lon="15.21750912588517"><ele>111.0</ele><time>2026-04-06T13:31:35Z</time></trkpt><trkpt lat="37.862917659519624" lon="15.21761822465863"><ele>111.0</ele><time>2026-04-06T13:31:36Z</time></trkpt><trkpt lat="37.86284149059056" lon="15.217734076437267"><ele>111.0</ele><time>2026-04-06T13:31:37Z</time></trkpt><trkpt lat="37.862766401536085" lon="15.217853476339545"><ele>111.0</ele><time>2026-04-06T13:31:38Z</time></trkpt><trkpt lat="37.862685325667314" lon="15.217965237677465"><ele>111.5</ele><time>2026-04-06T13:31:39Z</time></trkpt><trkpt lat="37.862608937886456" lon="15.218082748322928"><ele>112.0</ele><time>2026-04-06T13:31:40Z</time></trkpt><trkpt lat="37.86253268348684" lon="15.218200965826867"><ele>112.5</ele><time>2026-04-06T13:31:41Z</time></trkpt><trkpt lat="37.86245972411525" lon="15.218324526315923"><ele>113.0</ele><time>2026-04-06T13:31:42Z</time></trkpt><trkpt lat="37.86238207396027" lon="15.218441820772654"><ele>113.0</ele><time>2026-04-06T13:31:43Z</time></trkpt><trkpt lat="37.862307814051654" lon="15.218562987241558"><ele>113.0</ele><time>2026-04-06T13:31:44Z</time></trkpt><trkpt lat="37.8622302112089" lon="15.2186814233265"><ele>113.0</ele><time>2026-04-06T13:31:45Z</time></trkpt><trkpt lat="37.86215444187353" lon="15.218800911381859"><ele>113.0</ele><time>2026-04-06T13:31:46Z</time></trkpt><trkpt lat="37.862077835453626" lon="15.218915227321556"><ele>113.0</ele><time>2026-04-06T13:31:47Z</time></trkpt><trkpt lat="37.862006897425985" lon="15.219029160413"><ele>113.00000000000001</ele><time>2026-04-06T13:31:48Z</time></trkpt><trkpt lat="37.86193881861256" lon="15.219138773829357"><ele>113.00000000000001</ele><time>2026-04-06T13:31:49Z</time></trkpt><trkpt lat="37.86186831314296" lon="15.219235753102174"><ele>113.0</ele><time>2026-04-06T13:31:50Z</time></trkpt><trkpt lat="37.8617950495708" lon="15.219330799582155"><ele>113.0</ele><time>2026-04-06T13:31:51Z</time></trkpt><trkpt lat="37.86172012943066" lon="15.2194213766791"><ele>112.0</ele><time>2026-04-06T13:31:52Z</time></trkpt><trkpt lat="37.86164171647752" lon="15.219499617534138"><ele>111.00000000000001</ele><time>2026-04-06T13:31:53Z</time></trkpt><trkpt lat="37.861565743519414" lon="15.219569222158311"><ele>110.00000000000001</ele><time>2026-04-06T13:31:54Z</time></trkpt><trkpt lat="37.86148902651395" lon="15.219638530020097"><ele>109.0</ele><time>2026-04-06T13:31:55Z</time></trkpt><trkpt lat="37.86141821292948" lon="15.219710077866266"><ele>108.0</ele><time>2026-04-06T13:31:56Z</time></trkpt><trkpt lat="37.86135011192584" lon="15.219780384941934"><ele>107.83333333333333</ele><time>2026-04-06T13:31:57Z</time></trkpt><trkpt lat="37.86127840694495" lon="15.219844325769953"><ele>107.66666666666666</ele><time>2026-04-06T13:31:58Z</time></trkpt><trkpt lat="37.86120550993084" lon="15.219904791979559"><ele>107.5</ele><time>2026-04-06T13:31:59Z</time></trkpt><trkpt lat="37.86113437968302" lon="15.219958317453736"><ele>107.33333333333333</ele><time>2026-04-06T13:32:00Z</time></trkpt><trkpt lat="37.86106109271332" lon="15.220009044977745"><ele>107.16666666666666</ele><time>2026-04-06T13:32:01Z</time></trkpt><trkpt lat="37.860989153475174" lon="15.220056785985154"><ele>107.0</ele><time>2026-04-06T13:32:02Z</time></trkpt><trkpt lat="37.86091830240159" lon="15.220103117541932"><ele>107.0</ele><time>2026-04-06T13:32:03Z</time></trkpt><trkpt lat="37.8608455194771" lon="15.220144318220248"><ele>106.99999999999999</ele><time>2026-04-06T13:32:04Z</time></trkpt><trkpt lat="37.86077258168568" lon="15.220187044746803"><ele>106.99999999999999</ele><time>2026-04-06T13:32:05Z</time></trkpt><trkpt lat="37.860689566275425" lon="15.220229428602961"><ele>107.0</ele><time>2026-04-06T13:32:06Z</time></trkpt><trkpt lat="37.86059784452621" lon="15.220274724036441"><ele>107.0</ele><time>2026-04-06T13:32:07Z</time></trkpt><trkpt lat="37.86049876071676" lon="15.220325987922225"><ele>107.0</ele><time>2026-04-06T13:32:08Z</time></trkpt><trkpt lat="37.860395669139194" lon="15.22038565484932"><ele>106.99999999999999</ele><time>2026-04-06T13:32:09Z</time></trkpt><trkpt lat="37.86028843395426" lon="15.220441418687724"><ele>106.99999999999999</ele><time>2026-04-06T13:32:10Z</time></trkpt><trkpt lat="37.86018893562937" lon="15.220502018861898"><ele>107.0</ele><time>2026-04-06T13:32:11Z</time></trkpt><trkpt lat="37.86009517472366" lon="15.220563375393812"><ele>107.0</ele><time>2026-04-06T13:32:12Z</time></trkpt><trkpt lat="37.8600039604629" lon="15.220626443597904"><ele>106.8</ele><time>2026-04-06T13:32:13Z</time></trkpt><trkpt lat="37.85991939921916" lon="15.22070079355337"><ele>106.6</ele><time>2026-04-06T13:32:14Z</time></trkpt><trkpt lat="37.859841288742125" lon="15.220778814889767"><ele>106.39999999999999</ele><time>2026-04-06T13:32:15Z</time></trkpt><trkpt lat="37.859760365365744" lon="15.22084951228276"><ele>106.19999999999999</ele><time>2026-04-06T13:32:16Z</time></trkpt><trkpt lat="37.85968662480142" lon="15.220927454503967"><ele>106.0</ele><time>2026-04-06T13:32:17Z</time></trkpt><trkpt lat="37.85961118173516" lon="15.221007705265038"><ele>106.0</ele><time>2026-04-06T13:32:18Z</time></trkpt><trkpt lat="37.859547801350836" lon="15.221102190012537"><ele>106.0</ele><time>2026-04-06T13:32:19Z</time></trkpt><trkpt lat="37.859489153257975" lon="15.22120193489727"><ele>106.0</ele><time>2026-04-06T13:32:20Z</time></trkpt><trkpt lat="37.8594383782363" lon="15.221296987100096"><ele>106.0</ele><time>2026-04-06T13:32:20.999Z</time></trkpt><trkpt lat="37.8593887991338" lon="15.221385258961297"><ele>106.0</ele><time>2026-04-06T13:32:21.999Z</time></trkpt><trkpt lat="37.859337947750305" lon="15.221461317910002"><ele>105.66666666666667</ele><time>2026-04-06T13:32:22.999Z</time></trkpt><trkpt lat="37.85928269098933" lon="15.22152736856173"><ele>105.33333333333334</ele><time>2026-04-06T13:32:23.999Z</time></trkpt><trkpt lat="37.8592155324628" lon="15.221581138083609"><ele>105.0</ele><time>2026-04-06T13:32:24.999Z</time></trkpt><trkpt lat="37.859143026164936" lon="15.221610529341312"><ele>104.66666666666666</ele><time>2026-04-06T13:32:25.999Z</time></trkpt><trkpt lat="37.85906176531662" lon="15.221636856260153"><ele>104.33333333333333</ele><time>2026-04-06T13:32:26.999Z</time></trkpt><trkpt lat="37.858983167479465" lon="15.221643982567718"><ele>104.0</ele><time>2026-04-06T13:32:27.999Z</time></trkpt><trkpt lat="37.85891661682302" lon="15.22165327283655"><ele>104.0</ele><time>2026-04-06T13:32:28.999Z</time></trkpt><trkpt lat="37.85880319230408" lon="15.221660116469407"><ele>104.0</ele><time>2026-04-06T13:32:30.999Z</time></trkpt><trkpt lat="37.85865833099879" lon="15.221676733279875"><ele>104.0</ele><time>2026-04-06T13:32:32.999Z</time></trkpt><trkpt lat="37.85856426906238" lon="15.221689091215469"><ele>104.0</ele><time>2026-04-06T13:32:33.999Z</time></trkpt><trkpt lat="37.858475776879814" lon="15.221705168410647"><ele>104.0</ele><time>2026-04-06T13:32:34.999Z</time></trkpt><trkpt lat="37.85839661728078" lon="15.221711660095167"><ele>103.0</ele><time>2026-04-06T13:32:35.999Z</time></trkpt><trkpt lat="37.85832397972956" lon="15.221723707434055"><ele>102.0</ele><time>2026-04-06T13:32:36.999Z</time></trkpt><trkpt lat="37.858257347637284" lon="15.221735165650454"><ele>101.0</ele><time>2026-04-06T13:32:37.999Z</time></trkpt><trkpt lat="37.85814933625131" lon="15.221753626213998"><ele>100.0</ele><time>2026-04-06T13:32:39.999Z</time></trkpt><trkpt lat="37.858042120048104" lon="15.221768369187062"><ele>99.0</ele><time>2026-04-06T13:32:41.999Z</time></trkpt><trkpt lat="37.857947223101" lon="15.221775974333767"><ele>99.0</ele><time>2026-04-06T13:32:43.999Z</time></trkpt><trkpt lat="37.85782401045497" lon="15.221798476570287"><ele>99.0</ele><time>2026-04-06T13:32:45.999Z</time></trkpt><trkpt lat="37.857733106608066" lon="15.221712584590135"><ele>99.0</ele><time>2026-04-06T13:32:47.999Z</time></trkpt><trkpt lat="37.857771826393886" lon="15.221567975365515"><ele>99.0</ele><time>2026-04-06T13:32:48.999Z</time></trkpt><trkpt lat="37.85779256590633" lon="15.221409420408525"><ele>98.4</ele><time>2026-04-06T13:32:50.999Z</time></trkpt><trkpt lat="37.85779778682936" lon="15.221282063149658"><ele>97.80000000000001</ele><time>2026-04-06T13:32:51.999Z</time></trkpt><trkpt lat="37.857801586134144" lon="15.221150261251855"><ele>97.19999999999999</ele><time>2026-04-06T13:32:52.999Z</time></trkpt><trkpt lat="37.85779885259292" lon="15.221015162098913"><ele>96.6</ele><time>2026-04-06T13:32:53.999Z</time></trkpt><trkpt lat="37.8578021674618" lon="15.220888439303032"><ele>96.0</ele><time>2026-04-06T13:32:54.999Z</time></trkpt><trkpt lat="37.857804010556464" lon="15.220772043880373"><ele>96.0</ele><time>2026-04-06T13:32:55.999Z</time></trkpt><trkpt lat="37.85779271954833" lon="15.22066501509634"><ele>96.0</ele><time>2026-04-06T13:32:56.999Z</time></trkpt><trkpt lat="37.85776925842243" lon="15.22056761632615"><ele>96.0</ele><time>2026-04-06T13:32:57.999Z</time></trkpt><trkpt lat="37.85773226619355" lon="15.220476483836032"><ele>96.0</ele><time>2026-04-06T13:32:58.999Z</time></trkpt><trkpt lat="37.857686887379906" lon="15.220388044070248"><ele>96.0</ele><time>2026-04-06T13:32:59.999Z</time></trkpt><trkpt lat="37.85762607898869" lon="15.22031316533003"><ele>96.0</ele><time>2026-04-06T13:33:00.999Z</time></trkpt><trkpt lat="37.85755762270916" lon="15.220250378928922"><ele>95.0</ele><time>2026-04-06T13:33:01.999Z</time></trkpt><trkpt lat="37.8574754469702" lon="15.22019065088962"><ele>94.0</ele><time>2026-04-06T13:33:02.999Z</time></trkpt><trkpt lat="37.857379434064974" lon="15.220144689313615"><ele>93.0</ele><time>2026-04-06T13:33:03.999Z</time></trkpt><trkpt lat="37.857271150746826" lon="15.2201097479709"><ele>92.0</ele><time>2026-04-06T13:33:04.999Z</time></trkpt><trkpt lat="37.85715444245484" lon="15.220074293582357"><ele>91.0</ele><time>2026-04-06T13:33:05.999Z</time></trkpt><trkpt lat="37.85703365884064" lon="15.220038297666779"><ele>91.0</ele><time>2026-04-06T13:33:06.999Z</time></trkpt><trkpt lat="37.85691017010665" lon="15.219995785320185"><ele>91.0</ele><time>2026-04-06T13:33:07.999Z</time></trkpt><trkpt lat="37.856784961750726" lon="15.219926959779407"><ele>91.0</ele><time>2026-04-06T13:33:08.999Z</time></trkpt><trkpt lat="37.85665323215852" lon="15.219875225664266"><ele>91.0</ele><time>2026-04-06T13:33:09.999Z</time></trkpt><trkpt lat="37.856516853819734" lon="15.219824879830243"><ele>90.0</ele><time>2026-04-06T13:33:11.001Z</time></trkpt><trkpt lat="37.856381829713314" lon="15.219775558354899"><ele>89.0</ele><time>2026-04-06T13:33:12.001Z</time></trkpt><trkpt lat="37.85624885717152" lon="15.219726945764528"><ele>88.0</ele><time>2026-04-06T13:33:13.001Z</time></trkpt><trkpt lat="37.85611457270154" lon="15.219676171233804"><ele>87.0</ele><time>2026-04-06T13:33:14.001Z</time></trkpt><trkpt lat="37.85597904284834" lon="15.219623519672941"><ele>86.0</ele><time>2026-04-06T13:33:15.001Z</time></trkpt><trkpt lat="37.85584585046068" lon="15.219570908127753"><ele>85.0</ele><time>2026-04-06T13:33:16.001Z</time></trkpt><trkpt lat="37.85571393720437" lon="15.219518801852592"><ele>84.0</ele><time>2026-04-06T13:33:17.001Z</time></trkpt><trkpt lat="37.85558357291208" lon="15.219467307425521"><ele>83.0</ele><time>2026-04-06T13:33:18.001Z</time></trkpt><trkpt lat="37.85544925267086" lon="15.21943540777939"><ele>83.0</ele><time>2026-04-06T13:33:19.001Z</time></trkpt><trkpt lat="37.85532130960165" lon="15.219387078920148"><ele>83.0</ele><time>2026-04-06T13:33:20.001Z</time></trkpt><trkpt lat="37.855198207525376" lon="15.219335430949654"><ele>83.0</ele><time>2026-04-06T13:33:21.001Z</time></trkpt><trkpt lat="37.855075741256194" lon="15.219285205209673"><ele>83.0</ele><time>2026-04-06T13:33:22.001Z</time></trkpt><trkpt lat="37.85495492860625" lon="15.219232331484472"><ele>82.5</ele><time>2026-04-06T13:33:23.001Z</time></trkpt><trkpt lat="37.85483733878471" lon="15.219175976445076"><ele>82.0</ele><time>2026-04-06T13:33:24.001Z</time></trkpt><trkpt lat="37.85472452538217" lon="15.219116194270393"><ele>81.5</ele><time>2026-04-06T13:33:25.001Z</time></trkpt><trkpt lat="37.85461365301082" lon="15.219041830378282"><ele>81.0</ele><time>2026-04-06T13:33:26.001Z</time></trkpt><trkpt lat="37.85450304938089" lon="15.218959541776652"><ele>81.0</ele><time>2026-04-06T13:33:27.001Z</time></trkpt><trkpt lat="37.85439776420792" lon="15.218867248000008"><ele>81.0</ele><time>2026-04-06T13:33:28.001Z</time></trkpt><trkpt lat="37.85428930410806" lon="15.218771333343044"><ele>81.0</ele><time>2026-04-06T13:33:29.001Z</time></trkpt><trkpt lat="37.854179803492556" lon="15.218672255865167"><ele>81.0</ele><time>2026-04-06T13:33:30.001Z</time></trkpt><trkpt lat="37.854070367177236" lon="15.21856683506212"><ele>79.75</ele><time>2026-04-06T13:33:31.001Z</time></trkpt><trkpt lat="37.853963759167314" lon="15.218456300926256"><ele>78.5</ele><time>2026-04-06T13:33:32.001Z</time></trkpt><trkpt lat="37.85385392492246" lon="15.218347515380303"><ele>77.25</ele><time>2026-04-06T13:33:33Z</time></trkpt><trkpt lat="37.853745296485215" lon="15.218237792648917"><ele>76.0</ele><time>2026-04-06T13:33:34Z</time></trkpt><trkpt lat="37.853636575028" lon="15.218123877403425"><ele>76.0</ele><time>2026-04-06T13:33:35Z</time></trkpt><trkpt lat="37.85352798364121" lon="15.218008673030125"><ele>76.0</ele><time>2026-04-06T13:33:36Z</time></trkpt><trkpt lat="37.85341949572087" lon="15.217894295463518"><ele>76.0</ele><time>2026-04-06T13:33:37Z</time></trkpt><trkpt lat="37.853313444160314" lon="15.217782666926727"><ele>76.0</ele><time>2026-04-06T13:33:38Z</time></trkpt><trkpt lat="37.8532081780435" lon="15.217672723779746"><ele>75.5</ele><time>2026-04-06T13:33:39Z</time></trkpt><trkpt lat="37.85310705723308" lon="15.217562820988935"><ele>75.0</ele><time>2026-04-06T13:33:40Z</time></trkpt><trkpt lat="37.85300625142952" lon="15.217462585971798"><ele>74.5</ele><time>2026-04-06T13:33:41Z</time></trkpt><trkpt lat="37.852907462746685" lon="15.217363834570122"><ele>74.0</ele><time>2026-04-06T13:33:42Z</time></trkpt><trkpt lat="37.852810465925664" lon="15.21726853613297"><ele>73.75</ele><time>2026-04-06T13:33:43Z</time></trkpt><trkpt lat="37.85271712972808" lon="15.217176736421857"><ele>73.5</ele><time>2026-04-06T13:33:44Z</time></trkpt><trkpt lat="37.852627383436925" lon="15.21708882957903"><ele>73.25</ele><time>2026-04-06T13:33:45Z</time></trkpt><trkpt lat="37.85254037669632" lon="15.2170022146849"><ele>73.0</ele><time>2026-04-06T13:33:46Z</time></trkpt><trkpt lat="37.85245779526538" lon="15.216914515626152"><ele>73.0</ele><time>2026-04-06T13:33:47Z</time></trkpt><trkpt lat="37.85237536127113" lon="15.216833351656124"><ele>73.0</ele><time>2026-04-06T13:33:48Z</time></trkpt><trkpt lat="37.85229432894818" lon="15.216763237767308"><ele>73.0</ele><time>2026-04-06T13:33:49Z</time></trkpt><trkpt lat="37.85221482539854" lon="15.216700442057833"><ele>73.0</ele><time>2026-04-06T13:33:50Z</time></trkpt><trkpt lat="37.852133336727384" lon="15.216653766250854"><ele>73.0</ele><time>2026-04-06T13:33:51Z</time></trkpt><trkpt lat="37.852046323224606" lon="15.216629549734426"><ele>73.0</ele><time>2026-04-06T13:33:52Z</time></trkpt><trkpt lat="37.851956472657456" lon="15.216617426154677"><ele>73.0</ele><time>2026-04-06T13:33:53Z</time></trkpt><trkpt lat="37.851861582551244" lon="15.216627568617703"><ele>73.0</ele><time>2026-04-06T13:33:54Z</time></trkpt><trkpt lat="37.8517630620199" lon="15.21665512528304"><ele>73.0</ele><time>2026-04-06T13:33:55Z</time></trkpt><trkpt lat="37.85166342390476" lon="15.216698226706033"><ele>73.0</ele><time>2026-04-06T13:33:56Z</time></trkpt><trkpt lat="37.8515599107801" lon="15.216743664574347"><ele>73.6</ele><time>2026-04-06T13:33:57Z</time></trkpt><trkpt lat="37.85145398275565" lon="15.216794431770882"><ele>74.19999999999999</ele><time>2026-04-06T13:33:58Z</time></trkpt><trkpt lat="37.851349337106" lon="15.216846577067404"><ele>74.8</ele><time>2026-04-06T13:33:59Z</time></trkpt><trkpt lat="37.85124543069231" lon="15.216892133754257"><ele>75.39999999999999</ele><time>2026-04-06T13:34:00Z</time></trkpt><trkpt lat="37.85114323347857" lon="15.216939991491222"><ele>76.0</ele><time>2026-04-06T13:34:01Z</time></trkpt><trkpt lat="37.85104724639312" lon="15.216983159241046"><ele>76.0</ele><time>2026-04-06T13:34:02Z</time></trkpt><trkpt lat="37.85095952726924" lon="15.217020459701915"><ele>76.0</ele><time>2026-04-06T13:34:03Z</time></trkpt><trkpt lat="37.850877318039984" lon="15.21704309661038"><ele>76.0</ele><time>2026-04-06T13:34:04Z</time></trkpt><trkpt lat="37.85079524864306" lon="15.217044728264339"><ele>76.0</ele><time>2026-04-06T13:34:05Z</time></trkpt><trkpt lat="37.85071100248238" lon="15.217024770895314"><ele>76.0</ele><time>2026-04-06T13:34:06Z</time></trkpt><trkpt lat="37.85062632118606" lon="15.216986894965622"><ele>76.0</ele><time>2026-04-06T13:34:07Z</time></trkpt><trkpt lat="37.85053717073566" lon="15.216933623761241"><ele>76.75</ele><time>2026-04-06T13:34:08Z</time></trkpt><trkpt lat="37.85044709728731" lon="15.216859906497117"><ele>77.5</ele><time>2026-04-06T13:34:09Z</time></trkpt><trkpt lat="37.85035725353338" lon="15.216776349034943"><ele>78.25</ele><time>2026-04-06T13:34:10Z</time></trkpt><trkpt lat="37.850264924151375" lon="15.21668850888512"><ele>79.0</ele><time>2026-04-06T13:34:11Z</time></trkpt><trkpt lat="37.85017159353535" lon="15.2166005342231"><ele>79.6</ele><time>2026-04-06T13:34:12Z</time></trkpt><trkpt lat="37.85008191309023" lon="15.21651352275303"><ele>80.2</ele><time>2026-04-06T13:34:13Z</time></trkpt><trkpt lat="37.849995056856464" lon="15.216427262630194"><ele>80.8</ele><time>2026-04-06T13:34:14Z</time></trkpt><trkpt lat="37.84991875917452" lon="15.216339887558615"><ele>81.39999999999999</ele><time>2026-04-06T13:34:15Z</time></trkpt><trkpt lat="37.849857940419064" lon="15.216246938707183"><ele>82.0</ele><time>2026-04-06T13:34:16Z</time></trkpt><trkpt lat="37.84981393922008" lon="15.21614795402782"><ele>83.19999999999999</ele><time>2026-04-06T13:34:17Z</time></trkpt><trkpt lat="37.84978410460871" lon="15.21604039141647"><ele>84.4</ele><time>2026-04-06T13:34:18Z</time></trkpt><trkpt lat="37.849768005831756" lon="15.215922680484622"><ele>85.6</ele><time>2026-04-06T13:34:19Z</time></trkpt><trkpt lat="37.849756938172035" lon="15.21580078552872"><ele>86.80000000000001</ele><time>2026-04-06T13:34:20Z</time></trkpt><trkpt lat="37.84974520336237" lon="15.215667611455428"><ele>88.0</ele><time>2026-04-06T13:34:21Z</time></trkpt><trkpt lat="37.849722702703204" lon="15.21553271684154"><ele>88.75</ele><time>2026-04-06T13:34:22Z</time></trkpt><trkpt lat="37.84969105047174" lon="15.21539686539333"><ele>89.5</ele><time>2026-04-06T13:34:23Z</time></trkpt><trkpt lat="37.84964858589722" lon="15.215259944750775"><ele>90.25</ele><time>2026-04-06T13:34:24Z</time></trkpt><trkpt lat="37.84959485175491" lon="15.21512135875929"><ele>91.0</ele><time>2026-04-06T13:34:25Z</time></trkpt><trkpt lat="37.849537308632975" lon="15.214981213049802"><ele>91.0</ele><time>2026-04-06T13:34:26Z</time></trkpt><trkpt lat="37.84947883550466" lon="15.214841192551235"><ele>91.0</ele><time>2026-04-06T13:34:27Z</time></trkpt><trkpt lat="37.84942159387441" lon="15.214706051155856"><ele>91.0</ele><time>2026-04-06T13:34:28Z</time></trkpt><trkpt lat="37.84936676386461" lon="15.214571089319032"><ele>91.0</ele><time>2026-04-06T13:34:29Z</time></trkpt><trkpt lat="37.84931276366822" lon="15.214444966123157"><ele>91.6</ele><time>2026-04-06T13:34:30Z</time></trkpt><trkpt lat="37.84925968060833" lon="15.214325501441259"><ele>92.19999999999999</ele><time>2026-04-06T13:34:31Z</time></trkpt><trkpt lat="37.84920195397109" lon="15.214214961588379"><ele>92.80000000000001</ele><time>2026-04-06T13:34:32Z</time></trkpt><trkpt lat="37.849136056116734" lon="15.214113841155072"><ele>93.4</ele><time>2026-04-06T13:34:33Z</time></trkpt><trkpt lat="37.84906076932637" lon="15.2140185410626"><ele>94.0</ele><time>2026-04-06T13:34:34Z</time></trkpt><trkpt lat="37.848990101582665" lon="15.213925173562414"><ele>94.66666666666666</ele><time>2026-04-06T13:34:35Z</time></trkpt><trkpt lat="37.84892245262883" lon="15.213840907433378"><ele>95.33333333333333</ele><time>2026-04-06T13:34:36Z</time></trkpt><trkpt lat="37.84887050324666" lon="15.213769926227194"><ele>96.0</ele><time>2026-04-06T13:34:37Z</time></trkpt><trkpt lat="37.84879524752866" lon="15.2136735324789"><ele>96.66666666666666</ele><time>2026-04-06T13:34:39Z</time></trkpt><trkpt lat="37.84874128448126" lon="15.213620660719187"><ele>97.33333333333333</ele><time>2026-04-06T13:34:42Z</time></trkpt><trkpt lat="37.848645408435644" lon="15.21365456000784"><ele>98.0</ele><time>2026-04-06T13:34:44Z</time></trkpt><trkpt lat="37.84859019348036" lon="15.213716034502164"><ele>98.0</ele><time>2026-04-06T13:34:44.999Z</time></trkpt><trkpt lat="37.84853098648689" lon="15.213792877560575"><ele>98.0</ele><time>2026-04-06T13:34:45.999Z</time></trkpt><trkpt lat="37.84846362732313" lon="15.213880755689347"><ele>98.0</ele><time>2026-04-06T13:34:46.999Z</time></trkpt><trkpt lat="37.84839013437838" lon="15.213973327621279"><ele>98.0</ele><time>2026-04-06T13:34:47.999Z</time></trkpt><trkpt lat="37.848309942787715" lon="15.214070871830152"><ele>98.0</ele><time>2026-04-06T13:34:48.999Z</time></trkpt><trkpt lat="37.8482248576007" lon="15.214176271522083"><ele>99.0</ele><time>2026-04-06T13:34:49.999Z</time></trkpt><trkpt lat="37.84813868306352" lon="15.214285042765603"><ele>100.0</ele><time>2026-04-06T13:34:50.999Z</time></trkpt><trkpt lat="37.84804892809993" lon="15.214398311688882"><ele>101.0</ele><time>2026-04-06T13:34:51.999Z</time></trkpt><trkpt lat="37.847957608843025" lon="15.214516471853733"><ele>102.0</ele><time>2026-04-06T13:34:52.999Z</time></trkpt><trkpt lat="37.84786516438998" lon="15.214625242581812"><ele>102.0</ele><time>2026-04-06T13:34:53.999Z</time></trkpt><trkpt lat="37.84776832229484" lon="15.21473398919822"><ele>102.0</ele><time>2026-04-06T13:34:54.999Z</time></trkpt><trkpt lat="37.84766905731059" lon="15.214837456740842"><ele>102.0</ele><time>2026-04-06T13:34:55.999Z</time></trkpt><trkpt lat="37.84756865012498" lon="15.214933111702795"><ele>102.0</ele><time>2026-04-06T13:34:56.999Z</time></trkpt><trkpt lat="37.84746957498338" lon="15.215019088983832"><ele>101.0</ele><time>2026-04-06T13:34:57.999Z</time></trkpt><trkpt lat="37.847378329560584" lon="15.215097499817782"><ele>100.0</ele><time>2026-04-06T13:34:58.999Z</time></trkpt><trkpt lat="37.84728734037658" lon="15.215163082455422"><ele>99.0</ele><time>2026-04-06T13:34:59.999Z</time></trkpt><trkpt lat="37.847197445210035" lon="15.215206814932603"><ele>98.0</ele><time>2026-04-06T13:35:00.999Z</time></trkpt><trkpt lat="37.84711084307036" lon="15.215231043456368"><ele>97.0</ele><time>2026-04-06T13:35:01.999Z</time></trkpt><trkpt lat="37.847029834826" lon="15.215235447129881"><ele>97.0</ele><time>2026-04-06T13:35:02.999Z</time></trkpt><trkpt lat="37.846948845514916" lon="15.215216924855602"><ele>97.0</ele><time>2026-04-06T13:35:03.999Z</time></trkpt><trkpt lat="37.84686896918594" lon="15.215175585840381"><ele>97.0</ele><time>2026-04-06T13:35:04.999Z</time></trkpt><trkpt lat="37.84677886329525" lon="15.215128832402941"><ele>97.0</ele><time>2026-04-06T13:35:05.999Z</time></trkpt><trkpt lat="37.846681425165016" lon="15.215074217519863"><ele>97.0</ele><time>2026-04-06T13:35:06.999Z</time></trkpt><trkpt lat="37.84657922703653" lon="15.215017594538686"><ele>96.0</ele><time>2026-04-06T13:35:07.999Z</time></trkpt><trkpt lat="37.84647309651029" lon="15.214959870587313"><ele>95.0</ele><time>2026-04-06T13:35:08.999Z</time></trkpt><trkpt lat="37.84636813430549" lon="15.214898990196875"><ele>94.0</ele><time>2026-04-06T13:35:09.999Z</time></trkpt><trkpt lat="37.84625760370854" lon="15.214835883466568"><ele>93.0</ele><time>2026-04-06T13:35:10.999Z</time></trkpt><trkpt lat="37.84614591137745" lon="15.214777830397276"><ele>93.75</ele><time>2026-04-06T13:35:11.999Z</time></trkpt><trkpt lat="37.84603419730732" lon="15.214719067172402"><ele>94.5</ele><time>2026-04-06T13:35:12.999Z</time></trkpt><trkpt lat="37.84592167952194" lon="15.214665053805303"><ele>95.25</ele><time>2026-04-06T13:35:13.999Z</time></trkpt><trkpt lat="37.845815415856464" lon="15.214606089414731"><ele>96.0</ele><time>2026-04-06T13:35:14.999Z</time></trkpt><trkpt lat="37.84570457843192" lon="15.214561889248694"><ele>96.0</ele><time>2026-04-06T13:35:15.999Z</time></trkpt><trkpt lat="37.84559151653022" lon="15.2145315832113"><ele>96.0</ele><time>2026-04-06T13:35:17.001Z</time></trkpt><trkpt lat="37.84548109760966" lon="15.21451252923454"><ele>96.0</ele><time>2026-04-06T13:35:18.001Z</time></trkpt><trkpt lat="37.84536714273456" lon="15.214506296857488"><ele>96.0</ele><time>2026-04-06T13:35:19.001Z</time></trkpt><trkpt lat="37.84525209068738" lon="15.214507319235361"><ele>96.0</ele><time>2026-04-06T13:35:20.001Z</time></trkpt><trkpt lat="37.845132858716006" lon="15.214514907203544"><ele>96.0</ele><time>2026-04-06T13:35:21.001Z</time></trkpt><trkpt lat="37.845012059176305" lon="15.214523436782812"><ele>96.0</ele><time>2026-04-06T13:35:22.001Z</time></trkpt><trkpt lat="37.84488719254129" lon="15.214532002399057"><ele>96.0</ele><time>2026-04-06T13:35:23.001Z</time></trkpt><trkpt lat="37.844759021833575" lon="15.214541228007619"><ele>95.75</ele><time>2026-04-06T13:35:24.001Z</time></trkpt><trkpt lat="37.844627169348804" lon="15.214550278136542"><ele>95.5</ele><time>2026-04-06T13:35:25.001Z</time></trkpt><trkpt lat="37.84449530539804" lon="15.214560011793672"><ele>95.25</ele><time>2026-04-06T13:35:26.001Z</time></trkpt><trkpt lat="37.844361445042324" lon="15.214571577921486"><ele>95.0</ele><time>2026-04-06T13:35:27.001Z</time></trkpt><trkpt lat="37.84422969036768" lon="15.21457974452325"><ele>95.0</ele><time>2026-04-06T13:35:28.001Z</time></trkpt><trkpt lat="37.84410476890849" lon="15.214589805927604"><ele>95.0</ele><time>2026-04-06T13:35:29.001Z</time></trkpt><trkpt lat="37.84398734252388" lon="15.214597467289671"><ele>95.0</ele><time>2026-04-06T13:35:30.001Z</time></trkpt><trkpt lat="37.84387116501464" lon="15.21460660741731"><ele>95.0</ele><time>2026-04-06T13:35:31.001Z</time></trkpt><trkpt lat="37.84375995910273" lon="15.214613698272753"><ele>95.0</ele><time>2026-04-06T13:35:32.001Z</time></trkpt><trkpt lat="37.843651690719156" lon="15.21462281581092"><ele>95.0</ele><time>2026-04-06T13:35:33.001Z</time></trkpt><trkpt lat="37.84354428118957" lon="15.214633616448397"><ele>95.0</ele><time>2026-04-06T13:35:34.001Z</time></trkpt><trkpt lat="37.84343777598163" lon="15.214657896846864"><ele>95.0</ele><time>2026-04-06T13:35:35.001Z</time></trkpt><trkpt lat="37.84333506689703" lon="15.21468715008411"><ele>95.0</ele><time>2026-04-06T13:35:36.001Z</time></trkpt><trkpt lat="37.84323237968201" lon="15.214730192005751"><ele>96.0</ele><time>2026-04-06T13:35:37.001Z</time></trkpt><trkpt lat="37.84313729299201" lon="15.21479144410887"><ele>97.0</ele><time>2026-04-06T13:35:38.001Z</time></trkpt><trkpt lat="37.843047188445546" lon="15.214867042124224"><ele>98.0</ele><time>2026-04-06T13:35:39.001Z</time></trkpt><trkpt lat="37.84296865168502" lon="15.21495335363869"><ele>99.0</ele><time>2026-04-06T13:35:40.001Z</time></trkpt><trkpt lat="37.84288006980887" lon="15.215022210302491"><ele>100.0</ele><time>2026-04-06T13:35:41.001Z</time></trkpt><trkpt lat="37.84280228797335" lon="15.21510207038583"><ele>98.0</ele><time>2026-04-06T13:35:42.001Z</time></trkpt><trkpt lat="37.84272762822359" lon="15.215177707108756"><ele>96.0</ele><time>2026-04-06T13:35:43.001Z</time></trkpt><trkpt lat="37.842652816334876" lon="15.215252629943354"><ele>94.0</ele><time>2026-04-06T13:35:44Z</time></trkpt><trkpt lat="37.84257923071305" lon="15.215326324675136"><ele>92.0</ele><time>2026-04-06T13:35:45Z</time></trkpt><trkpt lat="37.84250499538923" lon="15.215401891644984"><ele>90.0</ele><time>2026-04-06T13:35:46Z</time></trkpt><trkpt lat="37.842431452214285" lon="15.215484385319158"><ele>90.0</ele><time>2026-04-06T13:35:47Z</time></trkpt><trkpt lat="37.842363972043856" lon="15.215584820225317"><ele>90.0</ele><time>2026-04-06T13:35:48Z</time></trkpt><trkpt lat="37.84231492962927" lon="15.21571071089188"><ele>90.0</ele><time>2026-04-06T13:35:49Z</time></trkpt><trkpt lat="37.842276439393224" lon="15.215835014001472"><ele>90.0</ele><time>2026-04-06T13:35:50Z</time></trkpt><trkpt lat="37.8422573369794" lon="15.215971209053901"><ele>90.0</ele><time>2026-04-06T13:35:51Z</time></trkpt><trkpt lat="37.84221121859672" lon="15.216101997597761"><ele>89.2</ele><time>2026-04-06T13:35:52Z</time></trkpt><trkpt lat="37.84217587850622" lon="15.216235512890659"><ele>88.4</ele><time>2026-04-06T13:35:53Z</time></trkpt><trkpt lat="37.84214287690177" lon="15.216367470502714"><ele>87.6</ele><time>2026-04-06T13:35:54Z</time></trkpt><trkpt lat="37.84210893958511" lon="15.216489930276486"><ele>86.8</ele><time>2026-04-06T13:35:55Z</time></trkpt><trkpt lat="37.84207377308032" lon="15.216598544819204"><ele>86.0</ele><time>2026-04-06T13:35:56Z</time></trkpt><trkpt lat="37.84202917125779" lon="15.216698996591907"><ele>85.4</ele><time>2026-04-06T13:35:57Z</time></trkpt><trkpt lat="37.84197272534146" lon="15.216799414098153"><ele>84.8</ele><time>2026-04-06T13:35:58Z</time></trkpt><trkpt lat="37.84191453487551" lon="15.216892396528465"><ele>84.2</ele><time>2026-04-06T13:35:59Z</time></trkpt><trkpt lat="37.841845987250366" lon="15.216987801381013"><ele>83.60000000000001</ele><time>2026-04-06T13:36:00Z</time></trkpt><trkpt lat="37.84177122121028" lon="15.217087219700987"><ele>83.0</ele><time>2026-04-06T13:36:01Z</time></trkpt><trkpt lat="37.84169078100516" lon="15.217193049623061"><ele>84.75</ele><time>2026-04-06T13:36:02Z</time></trkpt><trkpt lat="37.84160646021777" lon="15.217301380498474"><ele>86.5</ele><time>2026-04-06T13:36:03Z</time></trkpt><trkpt lat="37.84152375926003" lon="15.217413687033078"><ele>88.25</ele><time>2026-04-06T13:36:04Z</time></trkpt><trkpt lat="37.841440595385684" lon="15.21752880908368"><ele>90.0</ele><time>2026-04-06T13:36:05Z</time></trkpt><trkpt lat="37.84135876044234" lon="15.21764404054368"><ele>90.0</ele><time>2026-04-06T13:36:06Z</time></trkpt><trkpt lat="37.841277235323645" lon="15.217758553538571"><ele>90.0</ele><time>2026-04-06T13:36:07Z</time></trkpt><trkpt lat="37.84119669840004" lon="15.217877842547805"><ele>90.0</ele><time>2026-04-06T13:36:08Z</time></trkpt><trkpt lat="37.841118252929654" lon="15.217999560581413"><ele>90.0</ele><time>2026-04-06T13:36:09Z</time></trkpt><trkpt lat="37.84104375112495" lon="15.218121990350562"><ele>88.25</ele><time>2026-04-06T13:36:10Z</time></trkpt><trkpt lat="37.84096701773954" lon="15.218244906355535"><ele>86.5</ele><time>2026-04-06T13:36:11Z</time></trkpt><trkpt lat="37.840885443553496" lon="15.218363781626756"><ele>84.75</ele><time>2026-04-06T13:36:12Z</time></trkpt><trkpt lat="37.84079730803363" lon="15.218481593090791"><ele>83.0</ele><time>2026-04-06T13:36:13Z</time></trkpt><trkpt lat="37.840701003074514" lon="15.218596214985958"><ele>83.5</ele><time>2026-04-06T13:36:14Z</time></trkpt><trkpt lat="37.84060756792778" lon="15.21871517893409"><ele>84.0</ele><time>2026-04-06T13:36:15Z</time></trkpt><trkpt lat="37.84050856273335" lon="15.218843115875186"><ele>84.5</ele><time>2026-04-06T13:36:16Z</time></trkpt><trkpt lat="37.84040579571406" lon="15.21896590679831"><ele>85.0</ele><time>2026-04-06T13:36:17Z</time></trkpt><trkpt lat="37.84030191261562" lon="15.219089938955557"><ele>85.0</ele><time>2026-04-06T13:36:18Z</time></trkpt><trkpt lat="37.840197555267686" lon="15.219213488104609"><ele>85.0</ele><time>2026-04-06T13:36:19Z</time></trkpt><trkpt lat="37.84009142460949" lon="15.219338305715766"><ele>85.0</ele><time>2026-04-06T13:36:20Z</time></trkpt><trkpt lat="37.839990676574324" lon="15.219463199458598"><ele>85.0</ele><time>2026-04-06T13:36:21Z</time></trkpt><trkpt lat="37.83989467197515" lon="15.21958403727211"><ele>84.25</ele><time>2026-04-06T13:36:22Z</time></trkpt><trkpt lat="37.83980135131325" lon="15.21968821915607"><ele>83.5</ele><time>2026-04-06T13:36:23Z</time></trkpt><trkpt lat="37.83970976113868" lon="15.219811412408054"><ele>82.75</ele><time>2026-04-06T13:36:24Z</time></trkpt><trkpt lat="37.83963701945285" lon="15.219936205644032"><ele>82.0</ele><time>2026-04-06T13:36:25Z</time></trkpt><trkpt lat="37.839573418817444" lon="15.220061085518891"><ele>82.0</ele><time>2026-04-06T13:36:26Z</time></trkpt><trkpt lat="37.83950937393916" lon="15.220189851320892"><ele>82.0</ele><time>2026-04-06T13:36:27Z</time></trkpt><trkpt lat="37.83943989169701" lon="15.220317185144813"><ele>82.0</ele><time>2026-04-06T13:36:28Z</time></trkpt><trkpt lat="37.83937635006411" lon="15.220454998017914"><ele>82.0</ele><time>2026-04-06T13:36:29Z</time></trkpt><trkpt lat="37.839312820872884" lon="15.22059177377008"><ele>81.0</ele><time>2026-04-06T13:36:30Z</time></trkpt><trkpt lat="37.83924733445091" lon="15.220729319780308"><ele>80.0</ele><time>2026-04-06T13:36:31Z</time></trkpt><trkpt lat="37.839180965886236" lon="15.2208687185749"><ele>79.0</ele><time>2026-04-06T13:36:32Z</time></trkpt><trkpt lat="37.83911332734717" lon="15.221011620630568"><ele>78.0</ele><time>2026-04-06T13:36:32.999Z</time></trkpt><trkpt lat="37.83904476052123" lon="15.221147436802887"><ele>78.0</ele><time>2026-04-06T13:36:33.999Z</time></trkpt><trkpt lat="37.83896458455081" lon="15.221278155225269"><ele>78.0</ele><time>2026-04-06T13:36:34.999Z</time></trkpt><trkpt lat="37.83890559669369" lon="15.221424712637358"><ele>78.0</ele><time>2026-04-06T13:36:35.999Z</time></trkpt><trkpt lat="37.8388180379367" lon="15.22154289470563"><ele>78.0</ele><time>2026-04-06T13:36:36.999Z</time></trkpt><trkpt lat="37.838736644697946" lon="15.221667505114187"><ele>78.0</ele><time>2026-04-06T13:36:37.999Z</time></trkpt><trkpt lat="37.838666052125475" lon="15.221793348412985"><ele>78.0</ele><time>2026-04-06T13:36:38.999Z</time></trkpt><trkpt lat="37.83858329853682" lon="15.221913008407999"><ele>78.0</ele><time>2026-04-06T13:36:39.999Z</time></trkpt><trkpt lat="37.83851865018638" lon="15.222044509859183"><ele>78.0</ele><time>2026-04-06T13:36:40.999Z</time></trkpt><trkpt lat="37.838444235441536" lon="15.222167539074697"><ele>78.0</ele><time>2026-04-06T13:36:41.999Z</time></trkpt><trkpt lat="37.83836919368822" lon="15.222282273867824"><ele>78.0</ele><time>2026-04-06T13:36:42.999Z</time></trkpt><trkpt lat="37.83829018868635" lon="15.222394548777272"><ele>78.0</ele><time>2026-04-06T13:36:43.999Z</time></trkpt><trkpt lat="37.83821031023582" lon="15.222503906125008"><ele>78.0</ele><time>2026-04-06T13:36:44.999Z</time></trkpt><trkpt lat="37.83813392577452" lon="15.222608158900963"><ele>77.2</ele><time>2026-04-06T13:36:45.999Z</time></trkpt><trkpt lat="37.83805882929352" lon="15.22270826806163"><ele>76.4</ele><time>2026-04-06T13:36:46.999Z</time></trkpt><trkpt lat="37.83798001235779" lon="15.222801766275238"><ele>75.60000000000001</ele><time>2026-04-06T13:36:47.999Z</time></trkpt><trkpt lat="37.83790109999435" lon="15.222894950268966"><ele>74.8</ele><time>2026-04-06T13:36:48.999Z</time></trkpt><trkpt lat="37.83780544074721" lon="15.222959566383025"><ele>74.0</ele><time>2026-04-06T13:36:49.999Z</time></trkpt><trkpt lat="37.83770679153268" lon="15.223018970453202"><ele>73.8</ele><time>2026-04-06T13:36:50.999Z</time></trkpt><trkpt lat="37.83760842700003" lon="15.223075874435878"><ele>73.60000000000001</ele><time>2026-04-06T13:36:51.999Z</time></trkpt><trkpt lat="37.83751342534129" lon="15.223127598552379"><ele>73.4</ele><time>2026-04-06T13:36:52.999Z</time></trkpt><trkpt lat="37.837427781809836" lon="15.22317361246515"><ele>73.2</ele><time>2026-04-06T13:36:53.999Z</time></trkpt><trkpt lat="37.83734791045569" lon="15.223218853061395"><ele>73.0</ele><time>2026-04-06T13:36:54.999Z</time></trkpt><trkpt lat="37.83728258004111" lon="15.223284082168327"><ele>73.0</ele><time>2026-04-06T13:36:55.999Z</time></trkpt><trkpt lat="37.837217060751215" lon="15.22334372908788"><ele>73.0</ele><time>2026-04-06T13:36:56.999Z</time></trkpt><trkpt lat="37.83716436435981" lon="15.223427459141245"><ele>73.0</ele><time>2026-04-06T13:36:57.999Z</time></trkpt><trkpt lat="37.83712570085891" lon="15.22352754049128"><ele>73.0</ele><time>2026-04-06T13:36:58.999Z</time></trkpt><trkpt lat="37.83709556301259" lon="15.22363174997313"><ele>73.0</ele><time>2026-04-06T13:36:59.999Z</time></trkpt><trkpt lat="37.83707042350788" lon="15.223737135245823"><ele>73.0</ele><time>2026-04-06T13:37:00.999Z</time></trkpt><trkpt lat="37.837044639609125" lon="15.223841737594904"><ele>73.0</ele><time>2026-04-06T13:37:01.999Z</time></trkpt><trkpt lat="37.83701787361358" lon="15.223955725588313"><ele>73.0</ele><time>2026-04-06T13:37:02.999Z</time></trkpt><trkpt lat="37.83699131127922" lon="15.224072366338186"><ele>73.0</ele><time>2026-04-06T13:37:03.999Z</time></trkpt><trkpt lat="37.83696055517203" lon="15.224188270601402"><ele>73.0</ele><time>2026-04-06T13:37:04.999Z</time></trkpt><trkpt lat="37.83692266212789" lon="15.224303996846418"><ele>73.0</ele><time>2026-04-06T13:37:05.999Z</time></trkpt><trkpt lat="37.83687637901637" lon="15.224416460810348"><ele>72.0</ele><time>2026-04-06T13:37:06.999Z</time></trkpt><trkpt lat="37.83682094133821" lon="15.224526213595716"><ele>71.0</ele><time>2026-04-06T13:37:07.999Z</time></trkpt><trkpt lat="37.836757027027765" lon="15.224640065811414"><ele>70.0</ele><time>2026-04-06T13:37:08.999Z</time></trkpt><trkpt lat="37.83669093842373" lon="15.224756008493184"><ele>69.0</ele><time>2026-04-06T13:37:09.999Z</time></trkpt><trkpt lat="37.83662473519978" lon="15.224872639789567"><ele>68.0</ele><time>2026-04-06T13:37:10.999Z</time></trkpt><trkpt lat="37.83656014317658" lon="15.22498643260254"><ele>67.66666666666667</ele><time>2026-04-06T13:37:11.999Z</time></trkpt><trkpt lat="37.83650220750739" lon="15.225097283261329"><ele>67.33333333333334</ele><time>2026-04-06T13:37:12.999Z</time></trkpt><trkpt lat="37.83645464256843" lon="15.225201597306212"><ele>67.0</ele><time>2026-04-06T13:37:13.999Z</time></trkpt><trkpt lat="37.83642069236748" lon="15.225301620574843"><ele>66.66666666666667</ele><time>2026-04-06T13:37:14.999Z</time></trkpt><trkpt lat="37.83639160736054" lon="15.2253906317194"><ele>66.33333333333333</ele><time>2026-04-06T13:37:15.999Z</time></trkpt><trkpt lat="37.83635768296826" lon="15.225461246953042"><ele>66.0</ele><time>2026-04-06T13:37:16.999Z</time></trkpt><trkpt lat="37.83626965206962" lon="15.22556721569528"><ele>66.0</ele><time>2026-04-06T13:37:18.999Z</time></trkpt><trkpt lat="37.83620401629882" lon="15.225585602926026"><ele>66.0</ele><time>2026-04-06T13:37:19.999Z</time></trkpt><trkpt lat="37.836134063953054" lon="15.22556926325608"><ele>66.0</ele><time>2026-04-06T13:37:20.999Z</time></trkpt><trkpt lat="37.836067972110875" lon="15.225536255991857"><ele>66.0</ele><time>2026-04-06T13:37:21.999Z</time></trkpt><trkpt lat="37.83599696524993" lon="15.225503536823688"><ele>66.0</ele><time>2026-04-06T13:37:23.001Z</time></trkpt><trkpt lat="37.83591443328674" lon="15.225464975451583"><ele>66.0</ele><time>2026-04-06T13:37:24.001Z</time></trkpt><trkpt lat="37.83582184527404" lon="15.22543942162279"><ele>66.2</ele><time>2026-04-06T13:37:25.001Z</time></trkpt><trkpt lat="37.8357184174343" lon="15.225429052408609"><ele>66.39999999999999</ele><time>2026-04-06T13:37:26.001Z</time></trkpt><trkpt lat="37.83560879194552" lon="15.22542877392286"><ele>66.6</ele><time>2026-04-06T13:37:27.001Z</time></trkpt><trkpt lat="37.835493831261076" lon="15.225426493872618"><ele>66.8</ele><time>2026-04-06T13:37:28.001Z</time></trkpt><trkpt lat="37.83537564502546" lon="15.225419083066544"><ele>67.0</ele><time>2026-04-06T13:37:29.001Z</time></trkpt><trkpt lat="37.835255787190626" lon="15.22540725730218"><ele>66.5</ele><time>2026-04-06T13:37:30.001Z</time></trkpt><trkpt lat="37.835135781936664" lon="15.225398059003542"><ele>66.0</ele><time>2026-04-06T13:37:31.001Z</time></trkpt><trkpt lat="37.83501415337882" lon="15.225391010170878"><ele>65.5</ele><time>2026-04-06T13:37:32.001Z</time></trkpt><trkpt lat="37.83489547727133" lon="15.225376487717485"><ele>65.0</ele><time>2026-04-06T13:37:33.001Z</time></trkpt><trkpt lat="37.83477555197687" lon="15.225363159445084"><ele>65.0</ele><time>2026-04-06T13:37:34.001Z</time></trkpt><trkpt lat="37.83465803699962" lon="15.225338322229675"><ele>65.0</ele><time>2026-04-06T13:37:35.001Z</time></trkpt><trkpt lat="37.83454173206582" lon="15.225314289909294"><ele>65.0</ele><time>2026-04-06T13:37:36.001Z</time></trkpt><trkpt lat="37.83442404149184" lon="15.225287724485616"><ele>65.0</ele><time>2026-04-06T13:37:37.001Z</time></trkpt><trkpt lat="37.83430762093179" lon="15.225256194353301"><ele>65.25</ele><time>2026-04-06T13:37:38.001Z</time></trkpt><trkpt lat="37.8341893251347" lon="15.225234853505743"><ele>65.5</ele><time>2026-04-06T13:37:39.001Z</time></trkpt><trkpt lat="37.834071391598265" lon="15.225203861690993"><ele>65.75</ele><time>2026-04-06T13:37:40.001Z</time></trkpt><trkpt lat="37.833949691765106" lon="15.225183343183735"><ele>66.0</ele><time>2026-04-06T13:37:41.001Z</time></trkpt><trkpt lat="37.8338286509068" lon="15.225160908902767"><ele>66.0</ele><time>2026-04-06T13:37:42.001Z</time></trkpt><trkpt lat="37.83370722448803" lon="15.225143991355656"><ele>66.0</ele><time>2026-04-06T13:37:43.001Z</time></trkpt><trkpt lat="37.83358668742037" lon="15.225126504349031"><ele>66.0</ele><time>2026-04-06T13:37:44.001Z</time></trkpt><trkpt lat="37.833464192048595" lon="15.225109852595619"><ele>66.0</ele><time>2026-04-06T13:37:45.001Z</time></trkpt><trkpt lat="37.833345763675865" lon="15.225101398482764"><ele>66.25</ele><time>2026-04-06T13:37:46.001Z</time></trkpt><trkpt lat="37.833229304479794" lon="15.225108240326898"><ele>66.5</ele><time>2026-04-06T13:37:47Z</time></trkpt><trkpt lat="37.833115305347576" lon="15.225118453575735"><ele>66.75</ele><time>2026-04-06T13:37:48Z</time></trkpt><trkpt lat="37.83300266957705" lon="15.225130281875268"><ele>67.0</ele><time>2026-04-06T13:37:49Z</time></trkpt><trkpt lat="37.83289069234235" lon="15.225147889215226"><ele>67.0</ele><time>2026-04-06T13:37:50Z</time></trkpt><trkpt lat="37.832781756855205" lon="15.225158518244346"><ele>67.0</ele><time>2026-04-06T13:37:51Z</time></trkpt><trkpt lat="37.83267792054318" lon="15.225171805278272"><ele>67.0</ele><time>2026-04-06T13:37:52Z</time></trkpt><trkpt lat="37.8325763511674" lon="15.225185840140005"><ele>67.0</ele><time>2026-04-06T13:37:53Z</time></trkpt><trkpt lat="37.83247727544243" lon="15.225189760139367"><ele>67.0</ele><time>2026-04-06T13:37:54Z</time></trkpt><trkpt lat="37.83237968063922" lon="15.225188985533102"><ele>67.5</ele><time>2026-04-06T13:37:55Z</time></trkpt><trkpt lat="37.832286272851476" lon="15.225188672531424"><ele>68.0</ele><time>2026-04-06T13:37:56Z</time></trkpt><trkpt lat="37.83219418740535" lon="15.225186804593106"><ele>68.5</ele><time>2026-04-06T13:37:57Z</time></trkpt><trkpt lat="37.832109556817684" lon="15.225184560534139"><ele>69.0</ele><time>2026-04-06T13:37:58Z</time></trkpt><trkpt lat="37.83203153560069" lon="15.225187823620224"><ele>69.5</ele><time>2026-04-06T13:37:59Z</time></trkpt><trkpt lat="37.83196150732483" lon="15.225201868602605"><ele>70.0</ele><time>2026-04-06T13:38:00Z</time></trkpt><trkpt lat="37.83189320569272" lon="15.225231884221355"><ele>70.0</ele><time>2026-04-06T13:38:01Z</time></trkpt><trkpt lat="37.83182564865416" lon="15.225277033150453"><ele>70.0</ele><time>2026-04-06T13:38:02Z</time></trkpt><trkpt lat="37.83176174577153" lon="15.225331433022395"><ele>70.0</ele><time>2026-04-06T13:38:03Z</time></trkpt><trkpt lat="37.831697129145425" lon="15.225395854280634"><ele>70.0</ele><time>2026-04-06T13:38:04Z</time></trkpt><trkpt lat="37.8316341710376" lon="15.22546739469577"><ele>70.0</ele><time>2026-04-06T13:38:05Z</time></trkpt><trkpt lat="37.83157342048276" lon="15.225550440969403"><ele>70.0</ele><time>2026-04-06T13:38:06Z</time></trkpt><trkpt lat="37.831517647587205" lon="15.225643442243356"><ele>69.4</ele><time>2026-04-06T13:38:07Z</time></trkpt><trkpt lat="37.831467191428786" lon="15.225737957426153"><ele>68.8</ele><time>2026-04-06T13:38:08Z</time></trkpt><trkpt lat="37.83141958286717" lon="15.225839500306929"><ele>68.2</ele><time>2026-04-06T13:38:09Z</time></trkpt><trkpt lat="37.831376058671054" lon="15.225944256454879"><ele>67.6</ele><time>2026-04-06T13:38:10Z</time></trkpt><trkpt lat="37.831334798459245" lon="15.226055875968772"><ele>67.0</ele><time>2026-04-06T13:38:11Z</time></trkpt><trkpt lat="37.83129260686005" lon="15.226168221548095"><ele>67.0</ele><time>2026-04-06T13:38:12Z</time></trkpt><trkpt lat="37.83124868811003" lon="15.226281560832664"><ele>67.0</ele><time>2026-04-06T13:38:13Z</time></trkpt><trkpt lat="37.831204087207354" lon="15.226393563788617"><ele>67.0</ele><time>2026-04-06T13:38:14Z</time></trkpt><trkpt lat="37.83116032521363" lon="15.22650464682309"><ele>67.0</ele><time>2026-04-06T13:38:15Z</time></trkpt><trkpt lat="37.83111431262055" lon="15.226616657562289"><ele>67.0</ele><time>2026-04-06T13:38:16Z</time></trkpt><trkpt lat="37.83106957477065" lon="15.226724470643665"><ele>66.83333333333333</ele><time>2026-04-06T13:38:17Z</time></trkpt><trkpt lat="37.83102990446417" lon="15.226828035831423"><ele>66.66666666666666</ele><time>2026-04-06T13:38:18Z</time></trkpt><trkpt lat="37.830990729474955" lon="15.226932094934233"><ele>66.5</ele><time>2026-04-06T13:38:19Z</time></trkpt><trkpt lat="37.83095628804545" lon="15.22703323555967"><ele>66.33333333333333</ele><time>2026-04-06T13:38:20Z</time></trkpt><trkpt lat="37.83092484044703" lon="15.22713413170866"><ele>66.16666666666667</ele><time>2026-04-06T13:38:21Z</time></trkpt><trkpt lat="37.83090504460873" lon="15.227228210029427"><ele>66.0</ele><time>2026-04-06T13:38:22Z</time></trkpt><trkpt lat="37.830884595579384" lon="15.227324171347584"><ele>65.16666666666667</ele><time>2026-04-06T13:38:23Z</time></trkpt><trkpt lat="37.83086605043212" lon="15.227416471309814"><ele>64.33333333333333</ele><time>2026-04-06T13:38:24Z</time></trkpt><trkpt lat="37.830847528620325" lon="15.227510415701866"><ele>63.5</ele><time>2026-04-06T13:38:25Z</time></trkpt><trkpt lat="37.830832141590385" lon="15.22760319334976"><ele>62.666666666666664</ele><time>2026-04-06T13:38:26Z</time></trkpt><trkpt lat="37.83082277508535" lon="15.22769725566609"><ele>61.83333333333333</ele><time>2026-04-06T13:38:27Z</time></trkpt><trkpt lat="37.83082034277219" lon="15.227795979796516"><ele>61.0</ele><time>2026-04-06T13:38:28Z</time></trkpt><trkpt lat="37.83081810545365" lon="15.227897275989607"><ele>60.99999999999999</ele><time>2026-04-06T13:38:29Z</time></trkpt><trkpt lat="37.83080639697189" lon="15.227997729349422"><ele>61.0</ele><time>2026-04-06T13:38:30Z</time></trkpt><trkpt lat="37.830781277829594" lon="15.228099246020854"><ele>61.0</ele><time>2026-04-06T13:38:30.999Z</time></trkpt><trkpt lat="37.83074556615501" lon="15.228201700543499"><ele>61.0</ele><time>2026-04-06T13:38:31.999Z</time></trkpt><trkpt lat="37.83070934402315" lon="15.22830962392959"><ele>60.99999999999999</ele><time>2026-04-06T13:38:32.999Z</time></trkpt><trkpt lat="37.83067051194786" lon="15.22842085451883"><ele>61.0</ele><time>2026-04-06T13:38:33.999Z</time></trkpt><trkpt lat="37.8306311510991" lon="15.228533778162646"><ele>60.166666666666664</ele><time>2026-04-06T13:38:34.999Z</time></trkpt><trkpt lat="37.830593339223356" lon="15.228643758554108"><ele>59.33333333333333</ele><time>2026-04-06T13:38:35.999Z</time></trkpt><trkpt lat="37.830553808347645" lon="15.22875076769098"><ele>58.5</ele><time>2026-04-06T13:38:36.999Z</time></trkpt><trkpt lat="37.830505416284154" lon="15.22884522684031"><ele>57.66666666666667</ele><time>2026-04-06T13:38:37.999Z</time></trkpt><trkpt lat="37.83047037266562" lon="15.228943682283877"><ele>56.833333333333336</ele><time>2026-04-06T13:38:38.999Z</time></trkpt><trkpt lat="37.8304410275011" lon="15.229036759223563"><ele>56.0</ele><time>2026-04-06T13:38:39.999Z</time></trkpt><trkpt lat="37.8304143969894" lon="15.229127642111806"><ele>54.857142857142854</ele><time>2026-04-06T13:38:40.999Z</time></trkpt><trkpt lat="37.830393104621734" lon="15.22921647824097"><ele>53.714285714285715</ele><time>2026-04-06T13:38:41.999Z</time></trkpt><trkpt lat="37.83037146527606" lon="15.22930635409552"><ele>52.57142857142857</ele><time>2026-04-06T13:38:42.999Z</time></trkpt><trkpt lat="37.83034598250302" lon="15.229392007733138"><ele>51.42857142857143</ele><time>2026-04-06T13:38:43.999Z</time></trkpt><trkpt lat="37.83031767694682" lon="15.22947410447336"><ele>50.285714285714285</ele><time>2026-04-06T13:38:44.999Z</time></trkpt><trkpt lat="37.830288159393966" lon="15.229556468147651"><ele>49.14285714285714</ele><time>2026-04-06T13:38:45.999Z</time></trkpt><trkpt lat="37.83026047869172" lon="15.229636712651528"><ele>48.0</ele><time>2026-04-06T13:38:46.999Z</time></trkpt><trkpt lat="37.83023631711694" lon="15.229718166856"><ele>47.99999999999999</ele><time>2026-04-06T13:38:47.999Z</time></trkpt><trkpt lat="37.83021247442787" lon="15.229799349527184"><ele>48.0</ele><time>2026-04-06T13:38:48.999Z</time></trkpt><trkpt lat="37.83018949274721" lon="15.229880323688548"><ele>48.0</ele><time>2026-04-06T13:38:49.999Z</time></trkpt><trkpt lat="37.8301578392196" lon="15.229952436332146"><ele>48.0</ele><time>2026-04-06T13:38:50.999Z</time></trkpt><trkpt lat="37.83011712824876" lon="15.230025354383768"><ele>48.0</ele><time>2026-04-06T13:38:51.999Z</time></trkpt><trkpt lat="37.83006768655441" lon="15.23009999715758"><ele>47.99999999999999</ele><time>2026-04-06T13:38:52.999Z</time></trkpt><trkpt lat="37.83001421805222" lon="15.230180228673005"><ele>48.0</ele><time>2026-04-06T13:38:53.999Z</time></trkpt><trkpt lat="37.82996885205404" lon="15.23027168182509"><ele>47.8</ele><time>2026-04-06T13:38:54.999Z</time></trkpt><trkpt lat="37.829929649092605" lon="15.230377811642244"><ele>47.599999999999994</ele><time>2026-04-06T13:38:55.999Z</time></trkpt><trkpt lat="37.829902832232655" lon="15.230489903054497"><ele>47.400000000000006</ele><time>2026-04-06T13:38:56.999Z</time></trkpt><trkpt lat="37.82988003433337" lon="15.23060922491747"><ele>47.2</ele><time>2026-04-06T13:38:57.999Z</time></trkpt><trkpt lat="37.82985836422424" lon="15.230724289248405"><ele>47.0</ele><time>2026-04-06T13:38:58.999Z</time></trkpt><trkpt lat="37.82983333453657" lon="15.23083519381968"><ele>47.0</ele><time>2026-04-06T13:38:59.999Z</time></trkpt><trkpt lat="37.829813993239966" lon="15.230936428757376"><ele>47.0</ele><time>2026-04-06T13:39:00.999Z</time></trkpt><trkpt lat="37.82978851582971" lon="15.231035701146887"><ele>47.0</ele><time>2026-04-06T13:39:01.999Z</time></trkpt><trkpt lat="37.82974605910158" lon="15.231118226124524"><ele>47.0</ele><time>2026-04-06T13:39:02.999Z</time></trkpt><trkpt lat="37.82971775813123" lon="15.231201100970338"><ele>47.0</ele><time>2026-04-06T13:39:03.999Z</time></trkpt><trkpt lat="37.829686653233466" lon="15.231283006561444"><ele>47.0</ele><time>2026-04-06T13:39:04.999Z</time></trkpt><trkpt lat="37.82965438318881" lon="15.231359922959648"><ele>47.0</ele><time>2026-04-06T13:39:05.999Z</time></trkpt><trkpt lat="37.82961463246622" lon="15.23144760890103"><ele>47.0</ele><time>2026-04-06T13:39:06.999Z</time></trkpt><trkpt lat="37.829575381579595" lon="15.23156530561197"><ele>47.0</ele><time>2026-04-06T13:39:07.999Z</time></trkpt><trkpt lat="37.82953404109995" lon="15.231651376823626"><ele>47.0</ele><time>2026-04-06T13:39:08.999Z</time></trkpt><trkpt lat="37.82949306441357" lon="15.231733490124247"><ele>47.0</ele><time>2026-04-06T13:39:09.999Z</time></trkpt><trkpt lat="37.829451976651846" lon="15.23181648344713"><ele>47.0</ele><time>2026-04-06T13:39:10.999Z</time></trkpt><trkpt lat="37.829410453256266" lon="15.231897966740519"><ele>46.714285714285715</ele><time>2026-04-06T13:39:11.999Z</time></trkpt><trkpt lat="37.82936253932302" lon="15.231975469717678"><ele>46.42857142857143</ele><time>2026-04-06T13:39:12.999Z</time></trkpt><trkpt lat="37.8293118664624" lon="15.232046396623915"><ele>46.14285714285714</ele><time>2026-04-06T13:39:13.999Z</time></trkpt><trkpt lat="37.82925948971257" lon="15.232116286933568"><ele>45.85714285714286</ele><time>2026-04-06T13:39:14.999Z</time></trkpt><trkpt lat="37.82920780765496" lon="15.232181067827534"><ele>45.57142857142858</ele><time>2026-04-06T13:39:15.999Z</time></trkpt><trkpt lat="37.82916094020721" lon="15.232245752223555"><ele>45.285714285714285</ele><time>2026-04-06T13:39:16.999Z</time></trkpt><trkpt lat="37.829115383303574" lon="15.232304926036603"><ele>45.0</ele><time>2026-04-06T13:39:17.999Z</time></trkpt><trkpt lat="37.82907179950974" lon="15.232364385892817"><ele>45.0</ele><time>2026-04-06T13:39:18.999Z</time></trkpt><trkpt lat="37.82902374973328" lon="15.232418179163629"><ele>45.0</ele><time>2026-04-06T13:39:19.999Z</time></trkpt><trkpt lat="37.82893290656499" lon="15.232499112970801"><ele>45.0</ele><time>2026-04-06T13:39:21.999Z</time></trkpt><trkpt lat="37.82883486108278" lon="15.232541288144176"><ele>45.0</ele><time>2026-04-06T13:39:23.999Z</time></trkpt><trkpt lat="37.828726844796385" lon="15.232533204142182"><ele>45.0</ele><time>2026-04-06T13:39:25.998Z</time></trkpt><trkpt lat="37.8286027856835" lon="15.232484283421"><ele>45.0</ele><time>2026-04-06T13:39:27.998Z</time></trkpt><trkpt lat="37.82853423849345" lon="15.232442554479059"><ele>45.0</ele><time>2026-04-06T13:39:29.001Z</time></trkpt><trkpt lat="37.82846032573749" lon="15.232392001203324"><ele>45.0</ele><time>2026-04-06T13:39:30.001Z</time></trkpt><trkpt lat="37.82838309792046" lon="15.232337438425674"><ele>45.0</ele><time>2026-04-06T13:39:31.001Z</time></trkpt><trkpt lat="37.82830567042445" lon="15.23227938975587"><ele>45.0</ele><time>2026-04-06T13:39:32.001Z</time></trkpt><trkpt lat="37.828225021628484" lon="15.232215958540296"><ele>45.0</ele><time>2026-04-06T13:39:33.001Z</time></trkpt><trkpt lat="37.82814682009275" lon="15.232147646480605"><ele>48.8</ele><time>2026-04-06T13:39:34.001Z</time></trkpt><trkpt lat="37.828074974469054" lon="15.232077336866134"><ele>52.6</ele><time>2026-04-06T13:39:35.001Z</time></trkpt><trkpt lat="37.82800235771017" lon="15.232001545612686"><ele>56.400000000000006</ele><time>2026-04-06T13:39:36.001Z</time></trkpt><trkpt lat="37.82793535635965" lon="15.231922545607635"><ele>60.2</ele><time>2026-04-06T13:39:37.001Z</time></trkpt><trkpt lat="37.82787143473381" lon="15.231841610077055"><ele>64.0</ele><time>2026-04-06T13:39:38.001Z</time></trkpt><trkpt lat="37.827811781591734" lon="15.231761145673076"><ele>63.99999999999999</ele><time>2026-04-06T13:39:39.001Z</time></trkpt><trkpt lat="37.82775630442043" lon="15.23168243755575"><ele>64.0</ele><time>2026-04-06T13:39:40.001Z</time></trkpt><trkpt lat="37.827706334288926" lon="15.23159615464875"><ele>64.0</ele><time>2026-04-06T13:39:41.001Z</time></trkpt><trkpt lat="37.82766392490045" lon="15.231505945523661"><ele>64.0</ele><time>2026-04-06T13:39:42.001Z</time></trkpt><trkpt lat="37.8276204488724" lon="15.23141460401928"><ele>63.99999999999999</ele><time>2026-04-06T13:39:43.001Z</time></trkpt><trkpt lat="37.82757252704978" lon="15.231328236276658"><ele>64.0</ele><time>2026-04-06T13:39:44.001Z</time></trkpt><trkpt lat="37.82752112378663" lon="15.231246711862223"><ele>64.14285714285714</ele><time>2026-04-06T13:39:45.001Z</time></trkpt><trkpt lat="37.82746855442841" lon="15.231165272973286"><ele>64.28571428571428</ele><time>2026-04-06T13:39:46Z</time></trkpt><trkpt lat="37.82741971901743" lon="15.231088202877446"><ele>64.42857142857143</ele><time>2026-04-06T13:39:47Z</time></trkpt><trkpt lat="37.82737554677826" lon="15.231010391115397"><ele>64.57142857142857</ele><time>2026-04-06T13:39:48Z</time></trkpt><trkpt lat="37.8273347640182" lon="15.230935151503848"><ele>64.71428571428572</ele><time>2026-04-06T13:39:49Z</time></trkpt><trkpt lat="37.82729895336246" lon="15.230863404384042"><ele>64.85714285714286</ele><time>2026-04-06T13:39:50Z</time></trkpt><trkpt lat="37.827262637820326" lon="15.230796002591022"><ele>65.0</ele><time>2026-04-06T13:39:51Z</time></trkpt><trkpt lat="37.82722786082878" lon="15.230728292206827"><ele>65.00000000000001</ele><time>2026-04-06T13:39:52Z</time></trkpt><trkpt lat="37.82719045949864" lon="15.230657324817983"><ele>65.0</ele><time>2026-04-06T13:39:53Z</time></trkpt><trkpt lat="37.82715188370747" lon="15.230578343993779"><ele>65.0</ele><time>2026-04-06T13:39:54Z</time></trkpt><trkpt lat="37.827115916077325" lon="15.23049553256547"><ele>65.0</ele><time>2026-04-06T13:39:55Z</time></trkpt><trkpt lat="37.8270862028951" lon="15.230417280033068"><ele>65.0</ele><time>2026-04-06T13:39:56Z</time></trkpt><trkpt lat="37.827048771159554" lon="15.230343180550664"><ele>65.00000000000001</ele><time>2026-04-06T13:39:57Z</time></trkpt><trkpt lat="37.827003572011634" lon="15.230280596260254"><ele>65.0</ele><time>2026-04-06T13:39:58Z</time></trkpt><trkpt lat="37.826948374114124" lon="15.230221318117918"><ele>65.0</ele><time>2026-04-06T13:39:59Z</time></trkpt><trkpt lat="37.826890546412926" lon="15.230169490977753"><ele>65.0</ele><time>2026-04-06T13:40:00Z</time></trkpt><trkpt lat="37.82682752298775" lon="15.230124418762898"><ele>65.0</ele><time>2026-04-06T13:40:01Z</time></trkpt><trkpt lat="37.82676129656396" lon="15.230085673859104"><ele>65.0</ele><time>2026-04-06T13:40:02Z</time></trkpt><trkpt lat="37.82668770932762" lon="15.230049790696569"><ele>65.0</ele><time>2026-04-06T13:40:03Z</time></trkpt><trkpt lat="37.826610296689026" lon="15.230022544827836"><ele>65.0</ele><time>2026-04-06T13:40:04Z</time></trkpt><trkpt lat="37.82653042931987" lon="15.229995813169495"><ele>65.00000000000001</ele><time>2026-04-06T13:40:05Z</time></trkpt><trkpt lat="37.826455376367214" lon="15.229971690246684"><ele>65.0</ele><time>2026-04-06T13:40:06Z</time></trkpt><trkpt lat="37.826381498729035" lon="15.229946067748948"><ele>65.0</ele><time>2026-04-06T13:40:07Z</time></trkpt><trkpt lat="37.826312101183035" lon="15.22991665248985"><ele>65.0</ele><time>2026-04-06T13:40:08Z</time></trkpt><trkpt lat="37.82625001143496" lon="15.229878447508653"><ele>65.0</ele><time>2026-04-06T13:40:09Z</time></trkpt><trkpt lat="37.82618661330937" lon="15.229842633873313"><ele>65.00000000000001</ele><time>2026-04-06T13:40:10Z</time></trkpt><trkpt lat="37.82612510291624" lon="15.22980728273953"><ele>65.0</ele><time>2026-04-06T13:40:11Z</time></trkpt><trkpt lat="37.82606597638616" lon="15.229767460368356"><ele>68.2</ele><time>2026-04-06T13:40:12Z</time></trkpt><trkpt lat="37.826009033253804" lon="15.229730304856925"><ele>71.4</ele><time>2026-04-06T13:40:13Z</time></trkpt><trkpt lat="37.82594945400864" lon="15.229692828106975"><ele>74.6</ele><time>2026-04-06T13:40:14Z</time></trkpt><trkpt lat="37.825840973528116" lon="15.229625471616302"><ele>77.8</ele><time>2026-04-06T13:40:16Z</time></trkpt><trkpt lat="37.8257406444221" lon="15.229560211324431"><ele>81.0</ele><time>2026-04-06T13:40:18Z</time></trkpt><trkpt lat="37.82563996195479" lon="15.229483869371569"><ele>81.0</ele><time>2026-04-06T13:40:20Z</time></trkpt><trkpt lat="37.82555523600979" lon="15.229378750579109"><ele>81.0</ele><time>2026-04-06T13:40:22Z</time></trkpt><trkpt lat="37.82546825738669" lon="15.229289299920755"><ele>81.0</ele><time>2026-04-06T13:40:23.999Z</time></trkpt><trkpt lat="37.82538157258099" lon="15.229192343939394"><ele>81.0</ele><time>2026-04-06T13:40:25.999Z</time></trkpt><trkpt lat="37.82530089200433" lon="15.229089983433143"><ele>81.0</ele><time>2026-04-06T13:40:27.999Z</time></trkpt><trkpt lat="37.82523534444864" lon="15.228999423705996"><ele>81.0</ele><time>2026-04-06T13:40:29.999Z</time></trkpt><trkpt lat="37.82517697594264" lon="15.228923291498086"><ele>81.0</ele><time>2026-04-06T13:40:31.999Z</time></trkpt><trkpt lat="37.825143713638134" lon="15.2288532816726"><ele>81.0</ele><time>2026-04-06T13:40:33.999Z</time></trkpt><trkpt lat="37.8251089046215" lon="15.228768735487018"><ele>81.0</ele><time>2026-04-06T13:40:51.999Z</time></trkpt><trkpt lat="37.825072051289695" lon="15.228677971634758"><ele>81.0</ele><time>2026-04-06T13:40:54.999Z</time></trkpt><trkpt lat="37.8250101372483" lon="15.228570572426369"><ele>78.8</ele><time>2026-04-06T13:40:56.999Z</time></trkpt><trkpt lat="37.8249664290073" lon="15.228501504376847"><ele>76.6</ele><time>2026-04-06T13:40:57.999Z</time></trkpt><trkpt lat="37.82487077958307" lon="15.228465046177108"><ele>74.4</ele><time>2026-04-06T13:40:58.999Z</time></trkpt><trkpt lat="37.824814354540266" lon="15.228400163241368"><ele>72.2</ele><time>2026-04-06T13:40:59.999Z</time></trkpt><trkpt lat="37.82472325149387" lon="15.228319442851982"><ele>70.0</ele><time>2026-04-06T13:41:00.999Z</time></trkpt><trkpt lat="37.82462660853504" lon="15.22825438647735"><ele>70.0</ele><time>2026-04-06T13:41:01.999Z</time></trkpt><trkpt lat="37.824523834462276" lon="15.228196948925191"><ele>70.0</ele><time>2026-04-06T13:41:02.999Z</time></trkpt><trkpt lat="37.82441889064006" lon="15.228152825484297"><ele>70.0</ele><time>2026-04-06T13:41:03.999Z</time></trkpt><trkpt lat="37.82430673622002" lon="15.22812291249258"><ele>70.0</ele><time>2026-04-06T13:41:04.999Z</time></trkpt><trkpt lat="37.82419872145776" lon="15.228074571162644"><ele>72.2</ele><time>2026-04-06T13:41:05.999Z</time></trkpt><trkpt lat="37.82409553881246" lon="15.228017162371613"><ele>74.4</ele><time>2026-04-06T13:41:06.999Z</time></trkpt><trkpt lat="37.82400039653511" lon="15.227969003384407"><ele>76.6</ele><time>2026-04-06T13:41:07.999Z</time></trkpt><trkpt lat="37.823909535592826" lon="15.227925678655376"><ele>78.8</ele><time>2026-04-06T13:41:08.999Z</time></trkpt><trkpt lat="37.82382000457594" lon="15.227897657341376"><ele>81.0</ele><time>2026-04-06T13:41:09.999Z</time></trkpt><trkpt lat="37.823732176400966" lon="15.227884643263373"><ele>81.0</ele><time>2026-04-06T13:41:10.999Z</time></trkpt><trkpt lat="37.823645838179296" lon="15.227864131749422"><ele>81.0</ele><time>2026-04-06T13:41:11.998Z</time></trkpt><trkpt lat="37.8235653261526" lon="15.227822614812604"><ele>81.0</ele><time>2026-04-06T13:41:12.998Z</time></trkpt><trkpt lat="37.82348464205925" lon="15.227811360077013"><ele>81.0</ele><time>2026-04-06T13:41:13.998Z</time></trkpt><trkpt lat="37.823407555347124" lon="15.227802308469457"><ele>81.0</ele><time>2026-04-06T13:41:14.998Z</time></trkpt><trkpt lat="37.823344667432856" lon="15.22777747533922"><ele>81.0</ele><time>2026-04-06T13:41:15.998Z</time></trkpt><trkpt lat="37.823263314551845" lon="15.22779522111611"><ele>79.83333333333333</ele><time>2026-04-06T13:41:16.998Z</time></trkpt><trkpt lat="37.823180792065706" lon="15.227796139094359"><ele>78.66666666666667</ele><time>2026-04-06T13:41:17.998Z</time></trkpt><trkpt lat="37.82310390205039" lon="15.227815247740706"><ele>77.5</ele><time>2026-04-06T13:41:18.998Z</time></trkpt><trkpt lat="37.823028482120755" lon="15.22784796372247"><ele>76.33333333333334</ele><time>2026-04-06T13:41:19.998Z</time></trkpt><trkpt lat="37.82294117297032" lon="15.227802813757572"><ele>75.16666666666667</ele><time>2026-04-06T13:41:20.998Z</time></trkpt><trkpt lat="37.82286328178639" lon="15.227761394875076"><ele>74.0</ele><time>2026-04-06T13:41:21.998Z</time></trkpt><trkpt lat="37.822789595475186" lon="15.227720439283658"><ele>74.0</ele><time>2026-04-06T13:41:22.998Z</time></trkpt><trkpt lat="37.82272874534931" lon="15.227688122441348"><ele>74.0</ele><time>2026-04-06T13:41:23.998Z</time></trkpt><trkpt lat="37.822635115708685" lon="15.227629326761914"><ele>74.0</ele><time>2026-04-06T13:41:25.998Z</time></trkpt><trkpt lat="37.82256815912752" lon="15.227615260249031"><ele>74.0</ele><time>2026-04-06T13:41:27.998Z</time></trkpt><trkpt lat="37.82250885099691" lon="15.227584836915213"><ele>74.0</ele><time>2026-04-06T13:41:29.998Z</time></trkpt><trkpt lat="37.82241446869458" lon="15.227567787813717"><ele>74.0</ele><time>2026-04-06T13:41:31.998Z</time></trkpt><trkpt lat="37.82235002355337" lon="15.227540277405227"><ele>72.8</ele><time>2026-04-06T13:41:32.998Z</time></trkpt><trkpt lat="37.822265628791705" lon="15.2274984226463"><ele>71.60000000000001</ele><time>2026-04-06T13:41:33.998Z</time></trkpt><trkpt lat="37.82217120876982" lon="15.227472574215946"><ele>70.4</ele><time>2026-04-06T13:41:35Z</time></trkpt><trkpt lat="37.8220655527877" lon="15.227456376298855"><ele>69.2</ele><time>2026-04-06T13:41:36Z</time></trkpt><trkpt lat="37.82195199348036" lon="15.227455706418715"><ele>68.0</ele><time>2026-04-06T13:41:37Z</time></trkpt><trkpt lat="37.82184108517929" lon="15.227440023681858"><ele>67.8</ele><time>2026-04-06T13:41:38Z</time></trkpt><trkpt lat="37.82172831658628" lon="15.227435174810882"><ele>67.6</ele><time>2026-04-06T13:41:39Z</time></trkpt><trkpt lat="37.82161990743231" lon="15.227429793724875"><ele>67.4</ele><time>2026-04-06T13:41:40Z</time></trkpt><trkpt lat="37.821507723249674" lon="15.227433117096687"><ele>67.2</ele><time>2026-04-06T13:41:41Z</time></trkpt><trkpt lat="37.82140566523909" lon="15.227413739607334"><ele>67.0</ele><time>2026-04-06T13:41:42Z</time></trkpt><trkpt lat="37.8212995539025" lon="15.227405636384836"><ele>67.0</ele><time>2026-04-06T13:41:43Z</time></trkpt><trkpt lat="37.821194514550605" lon="15.227380796250348"><ele>67.0</ele><time>2026-04-06T13:41:44Z</time></trkpt><trkpt lat="37.821088514968004" lon="15.227374006486578"><ele>67.0</ele><time>2026-04-06T13:41:45Z</time></trkpt><trkpt lat="37.82097909902284" lon="15.227382145088038"><ele>67.0</ele><time>2026-04-06T13:41:46Z</time></trkpt><trkpt lat="37.82086629173092" lon="15.22737239637096"><ele>67.0</ele><time>2026-04-06T13:41:47Z</time></trkpt><trkpt lat="37.82074664068294" lon="15.227345179295067"><ele>66.5</ele><time>2026-04-06T13:41:48Z</time></trkpt><trkpt lat="37.820625945825775" lon="15.227350699790316"><ele>66.0</ele><time>2026-04-06T13:41:49Z</time></trkpt><trkpt lat="37.820504499994655" lon="15.227313068879162"><ele>65.5</ele><time>2026-04-06T13:41:50Z</time></trkpt><trkpt lat="37.82036869944596" lon="15.227269653554014"><ele>65.0</ele><time>2026-04-06T13:41:51Z</time></trkpt><trkpt lat="37.82022176570511" lon="15.227220246997964"><ele>65.0</ele><time>2026-04-06T13:41:52Z</time></trkpt><trkpt lat="37.820081747018875" lon="15.227167704884565"><ele>65.0</ele><time>2026-04-06T13:41:53Z</time></trkpt><trkpt lat="37.81995051861069" lon="15.227106925167654"><ele>65.0</ele><time>2026-04-06T13:41:54Z</time></trkpt><trkpt lat="37.8198148975381" lon="15.227065861968098"><ele>65.0</ele><time>2026-04-06T13:41:55Z</time></trkpt><trkpt lat="37.81968514489914" lon="15.226998367171921"><ele>65.0</ele><time>2026-04-06T13:41:56Z</time></trkpt><trkpt lat="37.81955440347312" lon="15.226948293759115"><ele>65.0</ele><time>2026-04-06T13:41:57Z</time></trkpt><trkpt lat="37.81942750715785" lon="15.22690420147183"><ele>65.0</ele><time>2026-04-06T13:41:58Z</time></trkpt><trkpt lat="37.81931473574876" lon="15.22684613374165"><ele>65.0</ele><time>2026-04-06T13:41:59Z</time></trkpt><trkpt lat="37.81922236295274" lon="15.226776304447036"><ele>64.16666666666667</ele><time>2026-04-06T13:42:00Z</time></trkpt><trkpt lat="37.81912580955151" lon="15.226729648082616"><ele>63.333333333333336</ele><time>2026-04-06T13:42:01Z</time></trkpt><trkpt lat="37.81903977980178" lon="15.226682297967493"><ele>62.5</ele><time>2026-04-06T13:42:02Z</time></trkpt><trkpt lat="37.81895911108455" lon="15.226645925947786"><ele>61.66666666666667</ele><time>2026-04-06T13:42:03Z</time></trkpt><trkpt lat="37.81888579506089" lon="15.226611654141527"><ele>60.833333333333336</ele><time>2026-04-06T13:42:04Z</time></trkpt><trkpt lat="37.818820051984176" lon="15.22657109798765"><ele>60.0</ele><time>2026-04-06T13:42:05Z</time></trkpt><trkpt lat="37.81875393173682" lon="15.226538078782276"><ele>60.0</ele><time>2026-04-06T13:42:06Z</time></trkpt><trkpt lat="37.81869741057164" lon="15.226501960196652"><ele>60.0</ele><time>2026-04-06T13:42:07Z</time></trkpt><trkpt lat="37.818601996495914" lon="15.226431372277721"><ele>60.0</ele><time>2026-04-06T13:42:09Z</time></trkpt><trkpt lat="37.81849029772916" lon="15.226360695302674"><ele>60.0</ele><time>2026-04-06T13:42:11Z</time></trkpt><trkpt lat="37.818428433560726" lon="15.226321967623687"><ele>60.0</ele><time>2026-04-06T13:42:12Z</time></trkpt><trkpt lat="37.81835706636381" lon="15.226293244563461"><ele>60.0</ele><time>2026-04-06T13:42:13Z</time></trkpt><trkpt lat="37.8182854378726" lon="15.226253119341587"><ele>61.4</ele><time>2026-04-06T13:42:14Z</time></trkpt><trkpt lat="37.8182066288489" lon="15.226212762708268"><ele>62.8</ele><time>2026-04-06T13:42:15Z</time></trkpt><trkpt lat="37.81812120636135" lon="15.226169504759746"><ele>64.2</ele><time>2026-04-06T13:42:16Z</time></trkpt><trkpt lat="37.81801945084518" lon="15.2261326069228"><ele>65.6</ele><time>2026-04-06T13:42:17Z</time></trkpt><trkpt lat="37.81791069869105" lon="15.226100722145633"><ele>67.0</ele><time>2026-04-06T13:42:18Z</time></trkpt><trkpt lat="37.81779171138804" lon="15.226071959087992"><ele>67.0</ele><time>2026-04-06T13:42:19Z</time></trkpt><trkpt lat="37.81767470198482" lon="15.226047508661273"><ele>67.0</ele><time>2026-04-06T13:42:20Z</time></trkpt><trkpt lat="37.81755545936359" lon="15.226040002247025"><ele>67.0</ele><time>2026-04-06T13:42:21Z</time></trkpt><trkpt lat="37.81743921699022" lon="15.22600442780245"><ele>67.0</ele><time>2026-04-06T13:42:22Z</time></trkpt><trkpt lat="37.81732674191343" lon="15.22596369037522"><ele>67.25</ele><time>2026-04-06T13:42:23Z</time></trkpt><trkpt lat="37.8172147190073" lon="15.225922651484257"><ele>67.5</ele><time>2026-04-06T13:42:23.999Z</time></trkpt><trkpt lat="37.81710158338748" lon="15.225874841709528"><ele>67.75</ele><time>2026-04-06T13:42:24.999Z</time></trkpt><trkpt lat="37.81698992310173" lon="15.225835928340638"><ele>68.0</ele><time>2026-04-06T13:42:25.999Z</time></trkpt><trkpt lat="37.81688192634406" lon="15.22578195903187"><ele>65.25</ele><time>2026-04-06T13:42:26.999Z</time></trkpt><trkpt lat="37.816776242494136" lon="15.225738191371367"><ele>62.5</ele><time>2026-04-06T13:42:27.999Z</time></trkpt><trkpt lat="37.816667350574704" lon="15.225695773669258"><ele>59.75</ele><time>2026-04-06T13:42:28.999Z</time></trkpt><trkpt lat="37.81654785640548" lon="15.22567569034286"><ele>57.0</ele><time>2026-04-06T13:42:29.999Z</time></trkpt><trkpt lat="37.8164226499438" lon="15.225646659150204"><ele>58.0</ele><time>2026-04-06T13:42:30.999Z</time></trkpt><trkpt lat="37.81629670001776" lon="15.225625095383515"><ele>59.0</ele><time>2026-04-06T13:42:31.999Z</time></trkpt><trkpt lat="37.81616546541068" lon="15.225602278394831"><ele>60.0</ele><time>2026-04-06T13:42:32.999Z</time></trkpt><trkpt lat="37.816039786599745" lon="15.225582137353166"><ele>61.0</ele><time>2026-04-06T13:42:33.999Z</time></trkpt><trkpt lat="37.815920407848694" lon="15.225565858980787"><ele>61.0</ele><time>2026-04-06T13:42:34.999Z</time></trkpt><trkpt lat="37.81579860560528" lon="15.225564428125518"><ele>61.0</ele><time>2026-04-06T13:42:35.999Z</time></trkpt><trkpt lat="37.815685692642084" lon="15.225585125628921"><ele>61.0</ele><time>2026-04-06T13:42:36.999Z</time></trkpt><trkpt lat="37.8155769326971" lon="15.225616428651943"><ele>61.0</ele><time>2026-04-06T13:42:37.999Z</time></trkpt><trkpt lat="37.81546580718398" lon="15.225655986800444"><ele>60.199999999999996</ele><time>2026-04-06T13:42:38.999Z</time></trkpt><trkpt lat="37.81535410403059" lon="15.225691838345368"><ele>59.39999999999999</ele><time>2026-04-06T13:42:39.999Z</time></trkpt><trkpt lat="37.815245600163614" lon="15.225713163216902"><ele>58.6</ele><time>2026-04-06T13:42:40.999Z</time></trkpt><trkpt lat="37.81513734076871" lon="15.225716714156011"><ele>57.8</ele><time>2026-04-06T13:42:41.999Z</time></trkpt><trkpt lat="37.815028723632764" lon="15.22571414042398"><ele>57.0</ele><time>2026-04-06T13:42:42.999Z</time></trkpt><trkpt lat="37.814921712208374" lon="15.225698738720688"><ele>56.0</ele><time>2026-04-06T13:42:43.999Z</time></trkpt><trkpt lat="37.81481164495107" lon="15.225667360666582"><ele>55.0</ele><time>2026-04-06T13:42:44.999Z</time></trkpt><trkpt lat="37.81470745857929" lon="15.2256105201492"><ele>54.0</ele><time>2026-04-06T13:42:45.999Z</time></trkpt><trkpt lat="37.814600674906444" lon="15.225555821946559"><ele>53.0</ele><time>2026-04-06T13:42:46.999Z</time></trkpt><trkpt lat="37.81449556724778" lon="15.225501264198487"><ele>53.2</ele><time>2026-04-06T13:42:47.999Z</time></trkpt><trkpt lat="37.81439244727039" lon="15.225429964539643"><ele>53.4</ele><time>2026-04-06T13:42:48.999Z</time></trkpt><trkpt lat="37.8142945802463" lon="15.225346962823926"><ele>53.60000000000001</ele><time>2026-04-06T13:42:49.999Z</time></trkpt><trkpt lat="37.814208067392585" lon="15.22525988189595"><ele>53.800000000000004</ele><time>2026-04-06T13:42:50.999Z</time></trkpt><trkpt lat="37.81413662857533" lon="15.225172407692277"><ele>54.0</ele><time>2026-04-06T13:42:51.999Z</time></trkpt><trkpt lat="37.81407210425465" lon="15.225088384533057"><ele>54.0</ele><time>2026-04-06T13:42:52.999Z</time></trkpt><trkpt lat="37.81401063598231" lon="15.225013736023675"><ele>54.0</ele><time>2026-04-06T13:42:53.999Z</time></trkpt><trkpt lat="37.81395274319174" lon="15.224943235405627"><ele>54.0</ele><time>2026-04-06T13:42:54.999Z</time></trkpt><trkpt lat="37.81389500412002" lon="15.224900608716007"><ele>54.0</ele><time>2026-04-06T13:42:55.999Z</time></trkpt><trkpt lat="37.81378532166815" lon="15.224850987840489"><ele>54.0</ele><time>2026-04-06T13:42:57.999Z</time></trkpt><trkpt lat="37.81369261194336" lon="15.224824842780771"><ele>54.0</ele><time>2026-04-06T13:42:59.999Z</time></trkpt><trkpt lat="37.81357653030205" lon="15.22489581660234"><ele>54.0</ele><time>2026-04-06T13:43:01.999Z</time></trkpt><trkpt lat="37.81351518090367" lon="15.224953958716783"><ele>54.00000000000001</ele><time>2026-04-06T13:43:02.999Z</time></trkpt><trkpt lat="37.81343994836577" lon="15.225026073061708"><ele>54.00000000000001</ele><time>2026-04-06T13:43:03.999Z</time></trkpt><trkpt lat="37.813356070630476" lon="15.22510811287591"><ele>54.0</ele><time>2026-04-06T13:43:04.999Z</time></trkpt><trkpt lat="37.81327072958886" lon="15.22519219981958"><ele>54.0</ele><time>2026-04-06T13:43:05.999Z</time></trkpt><trkpt lat="37.81318617750202" lon="15.225275509303717"><ele>53.2</ele><time>2026-04-06T13:43:06.999Z</time></trkpt><trkpt lat="37.813105209385306" lon="15.225354611793769"><ele>52.400000000000006</ele><time>2026-04-06T13:43:07.999Z</time></trkpt><trkpt lat="37.813010729847996" lon="15.225432557215319"><ele>51.6</ele><time>2026-04-06T13:43:08.999Z</time></trkpt><trkpt lat="37.812919808805056" lon="15.225456801855207"><ele>50.8</ele><time>2026-04-06T13:43:09.999Z</time></trkpt><trkpt lat="37.81281629368055" lon="15.225460485847771"><ele>50.0</ele><time>2026-04-06T13:43:10.998Z</time></trkpt><trkpt lat="37.81270956061319" lon="15.22545161397399"><ele>49.8</ele><time>2026-04-06T13:43:11.998Z</time></trkpt><trkpt lat="37.812605289402335" lon="15.225448115449877"><ele>49.6</ele><time>2026-04-06T13:43:12.998Z</time></trkpt><trkpt lat="37.81250261258351" lon="15.225459832828648"><ele>49.400000000000006</ele><time>2026-04-06T13:43:13.998Z</time></trkpt><trkpt lat="37.81240300604783" lon="15.22546251834474"><ele>49.2</ele><time>2026-04-06T13:43:14.998Z</time></trkpt><trkpt lat="37.81230730990155" lon="15.225495373977338"><ele>49.0</ele><time>2026-04-06T13:43:15.998Z</time></trkpt><trkpt lat="37.8122060634043" lon="15.225558012025012"><ele>49.0</ele><time>2026-04-06T13:43:16.998Z</time></trkpt><trkpt lat="37.81210004458563" lon="15.225624838719941"><ele>49.0</ele><time>2026-04-06T13:43:17.998Z</time></trkpt><trkpt lat="37.81198605688577" lon="15.225703630512466"><ele>49.0</ele><time>2026-04-06T13:43:18.998Z</time></trkpt><trkpt lat="37.811868179079575" lon="15.225788433257824"><ele>49.0</ele><time>2026-04-06T13:43:19.998Z</time></trkpt><trkpt lat="37.81174751594903" lon="15.225874435449407"><ele>48.5</ele><time>2026-04-06T13:43:20.998Z</time></trkpt><trkpt lat="37.81162608470532" lon="15.225960985055865"><ele>48.0</ele><time>2026-04-06T13:43:21.998Z</time></trkpt><trkpt lat="37.811503944789706" lon="15.22604803979387"><ele>47.5</ele><time>2026-04-06T13:43:22.998Z</time></trkpt><trkpt lat="37.81138242132621" lon="15.226134655143197"><ele>47.0</ele><time>2026-04-06T13:43:23.998Z</time></trkpt><trkpt lat="37.81125943353512" lon="15.226222314210165"><ele>47.0</ele><time>2026-04-06T13:43:24.998Z</time></trkpt><trkpt lat="37.81113988567702" lon="15.22630707925808"><ele>47.0</ele><time>2026-04-06T13:43:25.998Z</time></trkpt><trkpt lat="37.81102164472707" lon="15.226390716099823"><ele>47.0</ele><time>2026-04-06T13:43:26.998Z</time></trkpt><trkpt lat="37.810905875409226" lon="15.22647260458139"><ele>47.0</ele><time>2026-04-06T13:43:27.998Z</time></trkpt><trkpt lat="37.81079001628922" lon="15.226554557475612"><ele>46.25</ele><time>2026-04-06T13:43:28.998Z</time></trkpt><trkpt lat="37.81067664723281" lon="15.226636300745986"><ele>45.5</ele><time>2026-04-06T13:43:29.998Z</time></trkpt><trkpt lat="37.81056503380623" lon="15.226716345189445"><ele>44.75</ele><time>2026-04-06T13:43:30.998Z</time></trkpt><trkpt lat="37.81045731121783" lon="15.226793599281342"><ele>44.0</ele><time>2026-04-06T13:43:31.998Z</time></trkpt><trkpt lat="37.81035159628168" lon="15.226867687337547"><ele>44.0</ele><time>2026-04-06T13:43:32.998Z</time></trkpt><trkpt lat="37.81024981517071" lon="15.226935424242917"><ele>44.0</ele><time>2026-04-06T13:43:33.998Z</time></trkpt><trkpt lat="37.810152701942485" lon="15.22701044086594"><ele>44.0</ele><time>2026-04-06T13:43:34.998Z</time></trkpt><trkpt lat="37.81004742800014" lon="15.227049668585508"><ele>44.0</ele><time>2026-04-06T13:43:35.998Z</time></trkpt><trkpt lat="37.80994265571242" lon="15.227083952621125"><ele>44.0</ele><time>2026-04-06T13:43:36.998Z</time></trkpt><trkpt lat="37.809837535006544" lon="15.227113223764496"><ele>44.2</ele><time>2026-04-06T13:43:37.998Z</time></trkpt><trkpt lat="37.80973128800008" lon="15.22713653813621"><ele>44.400000000000006</ele><time>2026-04-06T13:43:38.998Z</time></trkpt><trkpt lat="37.809624147100166" lon="15.227159801141942"><ele>44.6</ele><time>2026-04-06T13:43:39.998Z</time></trkpt><trkpt lat="37.809516819298466" lon="15.227180450339052"><ele>44.8</ele><time>2026-04-06T13:43:41Z</time></trkpt><trkpt lat="37.80941608124296" lon="15.227212023189864"><ele>45.0</ele><time>2026-04-06T13:43:42Z</time></trkpt><trkpt lat="37.80931346093846" lon="15.227236904986215"><ele>44.4</ele><time>2026-04-06T13:43:43Z</time></trkpt><trkpt lat="37.80921325682322" lon="15.227265395527006"><ele>43.8</ele><time>2026-04-06T13:43:44Z</time></trkpt><trkpt lat="37.80910616016721" lon="15.227290859660478"><ele>43.2</ele><time>2026-04-06T13:43:45Z</time></trkpt><trkpt lat="37.80899582981706" lon="15.227310520574092"><ele>42.6</ele><time>2026-04-06T13:43:46Z</time></trkpt><trkpt lat="37.808884801897605" lon="15.227336679751462"><ele>42.0</ele><time>2026-04-06T13:43:47Z</time></trkpt><trkpt lat="37.80876955768948" lon="15.22735732429927"><ele>42.0</ele><time>2026-04-06T13:43:48Z</time></trkpt><trkpt lat="37.808648827422715" lon="15.227376539467391"><ele>42.0</ele><time>2026-04-06T13:43:49Z</time></trkpt><trkpt lat="37.8085281750334" lon="15.227390922555408"><ele>42.0</ele><time>2026-04-06T13:43:50Z</time></trkpt><trkpt lat="37.8084096311216" lon="15.227409319619392"><ele>42.0</ele><time>2026-04-06T13:43:51Z</time></trkpt><trkpt lat="37.80829748240628" lon="15.227427574917632"><ele>42.400000000000006</ele><time>2026-04-06T13:43:52Z</time></trkpt><trkpt lat="37.80819742593126" lon="15.227444817275243"><ele>42.800000000000004</ele><time>2026-04-06T13:43:53Z</time></trkpt><trkpt lat="37.808101787763405" lon="15.227464297432622"><ele>43.2</ele><time>2026-04-06T13:43:54Z</time></trkpt><trkpt lat="37.808016959627025" lon="15.227482659995903"><ele>43.6</ele><time>2026-04-06T13:43:55Z</time></trkpt><trkpt lat="37.8079466297548" lon="15.227498896685711"><ele>44.0</ele><time>2026-04-06T13:43:56Z</time></trkpt><trkpt lat="37.80783314233039" lon="15.227517761221103"><ele>44.0</ele><time>2026-04-06T13:43:58Z</time></trkpt><trkpt lat="37.80775068159562" lon="15.227535939696514"><ele>44.0</ele><time>2026-04-06T13:44:00Z</time></trkpt><trkpt lat="37.8076551708773" lon="15.227494524911283"><ele>44.0</ele><time>2026-04-06T13:44:02Z</time></trkpt><trkpt lat="37.80759344942308" lon="15.227435510311018"><ele>44.0</ele><time>2026-04-06T13:44:03Z</time></trkpt><trkpt lat="37.80751573065834" lon="15.227366179153996"><ele>44.0</ele><time>2026-04-06T13:44:04Z</time></trkpt><trkpt lat="37.8074244093715" lon="15.227297217915945"><ele>44.5</ele><time>2026-04-06T13:44:05Z</time></trkpt><trkpt lat="37.80732315804419" lon="15.227236791309242"><ele>45.0</ele><time>2026-04-06T13:44:06Z</time></trkpt><trkpt lat="37.80721123291543" lon="15.227180590032047"><ele>45.5</ele><time>2026-04-06T13:44:07Z</time></trkpt><trkpt lat="37.807094580582636" lon="15.227124959623287"><ele>46.0</ele><time>2026-04-06T13:44:08Z</time></trkpt><trkpt lat="37.80697672530394" lon="15.227078831008306"><ele>46.0</ele><time>2026-04-06T13:44:09Z</time></trkpt><trkpt lat="37.8068736080106" lon="15.227038672591453"><ele>46.0</ele><time>2026-04-06T13:44:10Z</time></trkpt><trkpt lat="37.80677667554726" lon="15.227003329182786"><ele>46.0</ele><time>2026-04-06T13:44:11Z</time></trkpt><trkpt lat="37.80669182544733" lon="15.226967023445651"><ele>46.0</ele><time>2026-04-06T13:44:12Z</time></trkpt><trkpt lat="37.80661996306612" lon="15.226915437980102"><ele>46.0</ele><time>2026-04-06T13:44:13Z</time></trkpt><trkpt lat="37.806557071588415" lon="15.226847748738926"><ele>46.4</ele><time>2026-04-06T13:44:14Z</time></trkpt><trkpt lat="37.80651554763067" lon="15.226753739390292"><ele>46.8</ele><time>2026-04-06T13:44:15Z</time></trkpt><trkpt lat="37.80648250251467" lon="15.226640864792762"><ele>47.199999999999996</ele><time>2026-04-06T13:44:16Z</time></trkpt><trkpt lat="37.80645295527026" lon="15.226514135204749"><ele>47.599999999999994</ele><time>2026-04-06T13:44:17Z</time></trkpt><trkpt lat="37.80642493263394" lon="15.22638069054813"><ele>48.0</ele><time>2026-04-06T13:44:18Z</time></trkpt><trkpt lat="37.806400162739784" lon="15.226236379714956"><ele>48.0</ele><time>2026-04-06T13:44:19Z</time></trkpt><trkpt lat="37.80637372036859" lon="15.226084851841666"><ele>48.0</ele><time>2026-04-06T13:44:20Z</time></trkpt><trkpt lat="37.80634629327378" lon="15.225927089500146"><ele>48.0</ele><time>2026-04-06T13:44:21Z</time></trkpt><trkpt lat="37.80632566707785" lon="15.225761876098183"><ele>48.0</ele><time>2026-04-06T13:44:22Z</time></trkpt><trkpt lat="37.80631391509358" lon="15.225593999506437"><ele>49.25</ele><time>2026-04-06T13:44:23Z</time></trkpt><trkpt lat="37.80631056150931" lon="15.225421854362734"><ele>50.5</ele><time>2026-04-06T13:44:23.999Z</time></trkpt><trkpt lat="37.80630880139908" lon="15.225250645848087"><ele>51.75</ele><time>2026-04-06T13:44:24.999Z</time></trkpt><trkpt lat="37.80630890517427" lon="15.225078162925024"><ele>53.0</ele><time>2026-04-06T13:44:25.999Z</time></trkpt><trkpt lat="37.806303508842554" lon="15.22490586980606"><ele>53.5</ele><time>2026-04-06T13:44:26.999Z</time></trkpt><trkpt lat="37.80629456162989" lon="15.224738277026514"><ele>54.0</ele><time>2026-04-06T13:44:27.999Z</time></trkpt><trkpt lat="37.806276138687046" lon="15.224572061999291"><ele>54.5</ele><time>2026-04-06T13:44:28.999Z</time></trkpt><trkpt lat="37.80624763510744" lon="15.224410878391428"><ele>55.0</ele><time>2026-04-06T13:44:29.999Z</time></trkpt><trkpt lat="37.80621294813128" lon="15.224253300328963"><ele>55.0</ele><time>2026-04-06T13:44:30.999Z</time></trkpt><trkpt lat="37.80617498923695" lon="15.224099346149611"><ele>55.0</ele><time>2026-04-06T13:44:31.999Z</time></trkpt><trkpt lat="37.80613516840578" lon="15.223954723686667"><ele>55.0</ele><time>2026-04-06T13:44:32.999Z</time></trkpt><trkpt lat="37.806091736982616" lon="15.223811042464366"><ele>55.0</ele><time>2026-04-06T13:44:33.999Z</time></trkpt><trkpt lat="37.806046563077544" lon="15.223672763305935"><ele>55.2</ele><time>2026-04-06T13:44:34.999Z</time></trkpt><trkpt lat="37.806005228436916" lon="15.223538388067208"><ele>55.4</ele><time>2026-04-06T13:44:35.999Z</time></trkpt><trkpt lat="37.805973879834205" lon="15.223408252988667"><ele>55.599999999999994</ele><time>2026-04-06T13:44:36.999Z</time></trkpt><trkpt lat="37.80595215333521" lon="15.223279357466334"><ele>55.8</ele><time>2026-04-06T13:44:37.999Z</time></trkpt><trkpt lat="37.80597824449152" lon="15.223154435883192"><ele>56.0</ele><time>2026-04-06T13:44:38.999Z</time></trkpt><trkpt lat="37.805995874638405" lon="15.223032810093112"><ele>56.199999999999996</ele><time>2026-04-06T13:44:39.999Z</time></trkpt><trkpt lat="37.80600727704925" lon="15.222902284945736"><ele>56.39999999999999</ele><time>2026-04-06T13:44:40.999Z</time></trkpt><trkpt lat="37.806019741286086" lon="15.222767157092523"><ele>56.6</ele><time>2026-04-06T13:44:41.999Z</time></trkpt><trkpt lat="37.806037951648335" lon="15.222618669955766"><ele>56.8</ele><time>2026-04-06T13:44:42.999Z</time></trkpt><trkpt lat="37.80605630697871" lon="15.22247419658644"><ele>57.0</ele><time>2026-04-06T13:44:43.999Z</time></trkpt><trkpt lat="37.80607741868761" lon="15.222324506914141"><ele>57.25</ele><time>2026-04-06T13:44:44.999Z</time></trkpt><trkpt lat="37.80610373871068" lon="15.222174250193003"><ele>57.5</ele><time>2026-04-06T13:44:45.999Z</time></trkpt><trkpt lat="37.80612457997892" lon="15.222023252339424"><ele>57.75</ele><time>2026-04-06T13:44:46.999Z</time></trkpt><trkpt lat="37.80614605857579" lon="15.221873833412355"><ele>58.0</ele><time>2026-04-06T13:44:47.999Z</time></trkpt><trkpt lat="37.80616783173962" lon="15.22172705629825"><ele>58.0</ele><time>2026-04-06T13:44:48.999Z</time></trkpt><trkpt lat="37.806199678117395" lon="15.22158712367699"><ele>58.0</ele><time>2026-04-06T13:44:49.999Z</time></trkpt><trkpt lat="37.806219954801186" lon="15.221451705887949"><ele>58.0</ele><time>2026-04-06T13:44:50.999Z</time></trkpt><trkpt lat="37.806239643008695" lon="15.221320026068053"><ele>58.0</ele><time>2026-04-06T13:44:51.999Z</time></trkpt><trkpt lat="37.80625858742581" lon="15.221194013011903"><ele>58.0</ele><time>2026-04-06T13:44:52.999Z</time></trkpt><trkpt lat="37.80626867511065" lon="15.221071324631277"><ele>57.99999999999999</ele><time>2026-04-06T13:44:53.999Z</time></trkpt><trkpt lat="37.80627698675904" lon="15.22095728765012"><ele>58.0</ele><time>2026-04-06T13:44:54.999Z</time></trkpt><trkpt lat="37.80627958500202" lon="15.220853482788776"><ele>58.0</ele><time>2026-04-06T13:44:55.999Z</time></trkpt><trkpt lat="37.80625831273025" lon="15.220765835741258"><ele>58.0</ele><time>2026-04-06T13:44:56.999Z</time></trkpt><trkpt lat="37.80622473376954" lon="15.220690276204756"><ele>57.99999999999999</ele><time>2026-04-06T13:44:57.999Z</time></trkpt><trkpt lat="37.80617671698052" lon="15.220623167017159"><ele>58.0</ele><time>2026-04-06T13:44:58.999Z</time></trkpt><trkpt lat="37.806120973091204" lon="15.220561853498165"><ele>57.99999999999999</ele><time>2026-04-06T13:44:59.999Z</time></trkpt><trkpt lat="37.806068106122964" lon="15.220493336083498"><ele>58.0</ele><time>2026-04-06T13:45:00.999Z</time></trkpt><trkpt lat="37.80600826120946" lon="15.2204211205664"><ele>58.0</ele><time>2026-04-06T13:45:01.999Z</time></trkpt><trkpt lat="37.80594950155723" lon="15.2203444972545"><ele>58.0</ele><time>2026-04-06T13:45:02.999Z</time></trkpt><trkpt lat="37.80589229519818" lon="15.220265699986095"><ele>57.99999999999999</ele><time>2026-04-06T13:45:03.999Z</time></trkpt><trkpt lat="37.80583428148038" lon="15.22018214657416"><ele>58.0</ele><time>2026-04-06T13:45:04.999Z</time></trkpt><trkpt lat="37.805767015077336" lon="15.220106570077691"><ele>58.0</ele><time>2026-04-06T13:45:05.999Z</time></trkpt><trkpt lat="37.80569538525934" lon="15.220022928041127"><ele>58.0</ele><time>2026-04-06T13:45:06.999Z</time></trkpt><trkpt lat="37.8056213092131" lon="15.219932070546019"><ele>58.0</ele><time>2026-04-06T13:45:07.999Z</time></trkpt><trkpt lat="37.805544235883566" lon="15.219832657584968"><ele>58.0</ele><time>2026-04-06T13:45:08.998Z</time></trkpt><trkpt lat="37.805459531013945" lon="15.219725341826404"><ele>58.0</ele><time>2026-04-06T13:45:09.998Z</time></trkpt><trkpt lat="37.805380833647135" lon="15.219608600898555"><ele>58.5</ele><time>2026-04-06T13:45:10.998Z</time></trkpt><trkpt lat="37.805301951258286" lon="15.219483471160025"><ele>59.0</ele><time>2026-04-06T13:45:11.998Z</time></trkpt><trkpt lat="37.80522532382477" lon="15.219351125206812"><ele>59.5</ele><time>2026-04-06T13:45:12.998Z</time></trkpt><trkpt lat="37.805147754015486" lon="15.219212847561367"><ele>60.0</ele><time>2026-04-06T13:45:13.998Z</time></trkpt><trkpt lat="37.80506966627526" lon="15.219070393521065"><ele>60.25</ele><time>2026-04-06T13:45:14.998Z</time></trkpt><trkpt lat="37.804992461347325" lon="15.218923544595315"><ele>60.5</ele><time>2026-04-06T13:45:15.998Z</time></trkpt><trkpt lat="37.804915863614845" lon="15.218773712644465"><ele>60.75</ele><time>2026-04-06T13:45:16.998Z</time></trkpt><trkpt lat="37.80484073118818" lon="15.218626737782508"><ele>61.0</ele><time>2026-04-06T13:45:17.998Z</time></trkpt><trkpt lat="37.80476585405733" lon="15.21847704438258"><ele>61.0</ele><time>2026-04-06T13:45:18.998Z</time></trkpt><trkpt lat="37.80468876858825" lon="15.21833268698663"><ele>61.0</ele><time>2026-04-06T13:45:19.998Z</time></trkpt><trkpt lat="37.80461232560475" lon="15.218188343815884"><ele>61.0</ele><time>2026-04-06T13:45:20.998Z</time></trkpt><trkpt lat="37.80453883051854" lon="15.218045499882441"><ele>61.0</ele><time>2026-04-06T13:45:21.998Z</time></trkpt><trkpt lat="37.804466791664076" lon="15.217901658304504"><ele>61.5</ele><time>2026-04-06T13:45:22.998Z</time></trkpt><trkpt lat="37.804386621126994" lon="15.217760855757154"><ele>62.0</ele><time>2026-04-06T13:45:23.998Z</time></trkpt><trkpt lat="37.80429840942173" lon="15.217621522060087"><ele>62.5</ele><time>2026-04-06T13:45:24.998Z</time></trkpt><trkpt lat="37.80420094483405" lon="15.217493818847252"><ele>63.0</ele><time>2026-04-06T13:45:25.998Z</time></trkpt><trkpt lat="37.80409898705964" lon="15.217369772206904"><ele>64.25</ele><time>2026-04-06T13:45:26.998Z</time></trkpt><trkpt lat="37.80399639870023" lon="15.217247954330027"><ele>65.5</ele><time>2026-04-06T13:45:27.998Z</time></trkpt><trkpt lat="37.80389127739336" lon="15.217128307441374"><ele>66.75</ele><time>2026-04-06T13:45:28.998Z</time></trkpt><trkpt lat="37.80378834452834" lon="15.217011217830919"><ele>68.0</ele><time>2026-04-06T13:45:29.998Z</time></trkpt><trkpt lat="37.8036830808746" lon="15.216893068353667"><ele>68.0</ele><time>2026-04-06T13:45:30.998Z</time></trkpt><trkpt lat="37.80357776419699" lon="15.21677165554424"><ele>68.0</ele><time>2026-04-06T13:45:31.998Z</time></trkpt><trkpt lat="37.80347720693739" lon="15.216651494587284"><ele>68.0</ele><time>2026-04-06T13:45:32.998Z</time></trkpt><trkpt lat="37.80337634720698" lon="15.21653447696911"><ele>68.0</ele><time>2026-04-06T13:45:33.998Z</time></trkpt><trkpt lat="37.803275440531074" lon="15.216419069536485"><ele>65.0</ele><time>2026-04-06T13:45:34.998Z</time></trkpt><trkpt lat="37.80317684877971" lon="15.21630258983605"><ele>62.0</ele><time>2026-04-06T13:45:35.998Z</time></trkpt><trkpt lat="37.80307621464896" lon="15.216185657989055"><ele>59.0</ele><time>2026-04-06T13:45:36.998Z</time></trkpt><trkpt lat="37.802975851387934" lon="15.216070559019009"><ele>56.0</ele><time>2026-04-06T13:45:37.998Z</time></trkpt><trkpt lat="37.802875938905984" lon="15.215953847426894"><ele>56.0</ele><time>2026-04-06T13:45:38.998Z</time></trkpt><trkpt lat="37.80277285380618" lon="15.215835668368266"><ele>56.0</ele><time>2026-04-06T13:45:39.998Z</time></trkpt><trkpt lat="37.80266975265488" lon="15.215712157429524"><ele>56.0</ele><time>2026-04-06T13:45:40.998Z</time></trkpt><trkpt lat="37.80256631420746" lon="15.215586577122547"><ele>56.0</ele><time>2026-04-06T13:45:41.998Z</time></trkpt><trkpt lat="37.802464256175014" lon="15.215455673934665"><ele>57.0</ele><time>2026-04-06T13:45:42.998Z</time></trkpt><trkpt lat="37.80236531924052" lon="15.215322050497072"><ele>58.0</ele><time>2026-04-06T13:45:43.998Z</time></trkpt><trkpt lat="37.802272306675334" lon="15.215182436095812"><ele>59.0</ele><time>2026-04-06T13:45:44.998Z</time></trkpt><trkpt lat="37.80218394942034" lon="15.215045330329385"><ele>60.0</ele><time>2026-04-06T13:45:45.998Z</time></trkpt><trkpt lat="37.802097696175224" lon="15.214902898621231"><ele>59.5</ele><time>2026-04-06T13:45:47Z</time></trkpt><trkpt lat="37.8020130270042" lon="15.214756018567954"><ele>59.0</ele><time>2026-04-06T13:45:48Z</time></trkpt><trkpt lat="37.801931280186416" lon="15.21460737896796"><ele>58.5</ele><time>2026-04-06T13:45:49Z</time></trkpt><trkpt lat="37.80184947251539" lon="15.214459127671415"><ele>58.0</ele><time>2026-04-06T13:45:50Z</time></trkpt><trkpt lat="37.80176910430296" lon="15.214310838826771"><ele>59.5</ele><time>2026-04-06T13:45:51Z</time></trkpt><trkpt lat="37.801685825308255" lon="15.214167925898165"><ele>61.0</ele><time>2026-04-06T13:45:52Z</time></trkpt><trkpt lat="37.80159992363417" lon="15.214030687690839"><ele>62.5</ele><time>2026-04-06T13:45:53Z</time></trkpt><trkpt lat="37.801505548103" lon="15.213897547194026"><ele>64.0</ele><time>2026-04-06T13:45:54Z</time></trkpt><trkpt lat="37.801411187918944" lon="15.213767398064855"><ele>64.0</ele><time>2026-04-06T13:45:55Z</time></trkpt><trkpt lat="37.80130891229304" lon="15.213645729374601"><ele>64.0</ele><time>2026-04-06T13:45:56Z</time></trkpt><trkpt lat="37.80120288906851" lon="15.213532149000443"><ele>64.0</ele><time>2026-04-06T13:45:57Z</time></trkpt><trkpt lat="37.80109181499582" lon="15.21342380952626"><ele>64.0</ele><time>2026-04-06T13:45:58Z</time></trkpt><trkpt lat="37.80097568377236" lon="15.213324697639148"><ele>66.25</ele><time>2026-04-06T13:45:59Z</time></trkpt><trkpt lat="37.800858320710056" lon="15.213229906719134"><ele>68.5</ele><time>2026-04-06T13:46:00Z</time></trkpt><trkpt lat="37.80074258139836" lon="15.213142136025672"><ele>70.75</ele><time>2026-04-06T13:46:01Z</time></trkpt><trkpt lat="37.8006376678419" lon="15.213061477117316"><ele>73.0</ele><time>2026-04-06T13:46:02Z</time></trkpt><trkpt lat="37.800542140114864" lon="15.212987910471623"><ele>73.0</ele><time>2026-04-06T13:46:03Z</time></trkpt><trkpt lat="37.8004535276539" lon="15.212917145808833"><ele>73.0</ele><time>2026-04-06T13:46:04Z</time></trkpt><trkpt lat="37.80037258007103" lon="15.212857879470567"><ele>73.0</ele><time>2026-04-06T13:46:05Z</time></trkpt><trkpt lat="37.8003005114598" lon="15.212808111082095"><ele>73.0</ele><time>2026-04-06T13:46:06Z</time></trkpt><trkpt lat="37.800245239943706" lon="15.21275636768252"><ele>73.0</ele><time>2026-04-06T13:46:07Z</time></trkpt><trkpt lat="37.80016016567554" lon="15.212689762913252"><ele>73.0</ele><time>2026-04-06T13:46:09Z</time></trkpt><trkpt lat="37.80007855060377" lon="15.212777652464066"><ele>72.83333333333333</ele><time>2026-04-06T13:46:10Z</time></trkpt><trkpt lat="37.80003063312317" lon="15.212865995163659"><ele>72.66666666666666</ele><time>2026-04-06T13:46:12Z</time></trkpt><trkpt lat="37.800021956597824" lon="15.213004897219598"><ele>72.5</ele><time>2026-04-06T13:46:14Z</time></trkpt><trkpt lat="37.8000314532468" lon="15.213087005332136"><ele>72.33333333333333</ele><time>2026-04-06T13:46:15Z</time></trkpt><trkpt lat="37.80001470092657" lon="15.21317962289331"><ele>72.16666666666667</ele><time>2026-04-06T13:46:16Z</time></trkpt><trkpt lat="37.799984944123935" lon="15.213278841005044"><ele>72.0</ele><time>2026-04-06T13:46:17Z</time></trkpt><trkpt lat="37.79994311574567" lon="15.213379777295657"><ele>72.6</ele><time>2026-04-06T13:46:18Z</time></trkpt><trkpt lat="37.79987914264141" lon="15.213472004556014"><ele>73.2</ele><time>2026-04-06T13:46:19Z</time></trkpt><trkpt lat="37.79982030879862" lon="15.213572668225556"><ele>73.8</ele><time>2026-04-06T13:46:20Z</time></trkpt><trkpt lat="37.799759406505714" lon="15.213677360110085"><ele>74.4</ele><time>2026-04-06T13:46:21Z</time></trkpt><trkpt lat="37.7996986555263" lon="15.213786291933866"><ele>75.0</ele><time>2026-04-06T13:46:22Z</time></trkpt><trkpt lat="37.79963943721948" lon="15.213894627301373"><ele>76.0</ele><time>2026-04-06T13:46:23Z</time></trkpt><trkpt lat="37.79957729785559" lon="15.214008306445058"><ele>77.0</ele><time>2026-04-06T13:46:23.999Z</time></trkpt><trkpt lat="37.79951569503811" lon="15.214121003071975"><ele>78.0</ele><time>2026-04-06T13:46:24.999Z</time></trkpt><trkpt lat="37.799449579921095" lon="15.214241486554204"><ele>79.0</ele><time>2026-04-06T13:46:25.999Z</time></trkpt><trkpt lat="37.799381387656176" lon="15.214364541279268"><ele>78.8</ele><time>2026-04-06T13:46:26.999Z</time></trkpt><trkpt lat="37.79931241626762" lon="15.214486855424253"><ele>78.60000000000001</ele><time>2026-04-06T13:46:27.999Z</time></trkpt><trkpt lat="37.79924396408719" lon="15.21460824880979"><ele>78.4</ele><time>2026-04-06T13:46:28.999Z</time></trkpt><trkpt lat="37.799181122547104" lon="15.214719692340983"><ele>78.2</ele><time>2026-04-06T13:46:29.999Z</time></trkpt><trkpt lat="37.79912442743004" lon="15.21482023573024"><ele>78.0</ele><time>2026-04-06T13:46:30.999Z</time></trkpt><trkpt lat="37.799075299906185" lon="15.214907358569622"><ele>78.0</ele><time>2026-04-06T13:46:31.999Z</time></trkpt><trkpt lat="37.79903096179036" lon="15.214985987932202"><ele>78.0</ele><time>2026-04-06T13:46:32.999Z</time></trkpt><trkpt lat="37.79899412131955" lon="15.215051320153963"><ele>78.0</ele><time>2026-04-06T13:46:33.999Z</time></trkpt><trkpt lat="37.79894211670446" lon="15.2151460376374"><ele>78.0</ele><time>2026-04-06T13:46:35.999Z</time></trkpt><trkpt lat="37.7987916294905" lon="15.215061394122992"><ele>78.0</ele><time>2026-04-06T13:46:39.999Z</time></trkpt><trkpt lat="37.79872231211534" lon="15.215001008762968"><ele>78.0</ele><time>2026-04-06T13:46:40.999Z</time></trkpt><trkpt lat="37.798644385146154" lon="15.214923466540881"><ele>78.0</ele><time>2026-04-06T13:46:41.999Z</time></trkpt><trkpt lat="37.798558930290305" lon="15.214849803694149"><ele>78.0</ele><time>2026-04-06T13:46:42.999Z</time></trkpt><trkpt lat="37.7984695619133" lon="15.214770636921509"><ele>78.0</ele><time>2026-04-06T13:46:43.999Z</time></trkpt><trkpt lat="37.798380604087065" lon="15.2146779997615"><ele>78.0</ele><time>2026-04-06T13:46:44.999Z</time></trkpt><trkpt lat="37.7982853746301" lon="15.21459825022379"><ele>75.75</ele><time>2026-04-06T13:46:45.999Z</time></trkpt><trkpt lat="37.79818767802012" lon="15.214513804216839"><ele>73.5</ele><time>2026-04-06T13:46:46.999Z</time></trkpt><trkpt lat="37.798090607617965" lon="15.214413558995728"><ele>71.25</ele><time>2026-04-06T13:46:47.999Z</time></trkpt><trkpt lat="37.7979883427855" lon="15.214311747871164"><ele>69.0</ele><time>2026-04-06T13:46:48.999Z</time></trkpt><trkpt lat="37.797883252386086" lon="15.214227915580134"><ele>69.0</ele><time>2026-04-06T13:46:49.999Z</time></trkpt><trkpt lat="37.79777349993328" lon="15.214151585964132"><ele>69.0</ele><time>2026-04-06T13:46:50.999Z</time></trkpt><trkpt lat="37.79766802764809" lon="15.214087438053399"><ele>69.0</ele><time>2026-04-06T13:46:51.999Z</time></trkpt><trkpt lat="37.797559911212645" lon="15.214034863858558"><ele>69.0</ele><time>2026-04-06T13:46:52.999Z</time></trkpt><trkpt lat="37.79744604670974" lon="15.213995397326752"><ele>68.60000000000001</ele><time>2026-04-06T13:46:53.999Z</time></trkpt><trkpt lat="37.79733703106177" lon="15.21396368305879"><ele>68.2</ele><time>2026-04-06T13:46:54.999Z</time></trkpt><trkpt lat="37.79722921844673" lon="15.213942268826834"><ele>67.80000000000001</ele><time>2026-04-06T13:46:55.999Z</time></trkpt><trkpt lat="37.79711849712955" lon="15.21393355346174"><ele>67.4</ele><time>2026-04-06T13:46:56.999Z</time></trkpt><trkpt lat="37.79701021544439" lon="15.213939307398705"><ele>67.0</ele><time>2026-04-06T13:46:57.999Z</time></trkpt><trkpt lat="37.79690290540074" lon="15.213956070966681"><ele>67.0</ele><time>2026-04-06T13:46:58.999Z</time></trkpt><trkpt lat="37.796792128140545" lon="15.21398299532825"><ele>67.0</ele><time>2026-04-06T13:46:59.999Z</time></trkpt><trkpt lat="37.79667716701069" lon="15.214003324710848"><ele>67.0</ele><time>2026-04-06T13:47:00.999Z</time></trkpt><trkpt lat="37.79656337706481" lon="15.214049680192163"><ele>67.0</ele><time>2026-04-06T13:47:01.999Z</time></trkpt><trkpt lat="37.796448940147194" lon="15.21409629914318"><ele>67.0</ele><time>2026-04-06T13:47:02.999Z</time></trkpt><trkpt lat="37.796335450299495" lon="15.214142532365297"><ele>67.0</ele><time>2026-04-06T13:47:03.999Z</time></trkpt><trkpt lat="37.79622347350521" lon="15.214196472709924"><ele>67.0</ele><time>2026-04-06T13:47:04.999Z</time></trkpt><trkpt lat="37.79611394099461" lon="15.214230977845707"><ele>67.0</ele><time>2026-04-06T13:47:05.999Z</time></trkpt><trkpt lat="37.796010099764004" lon="15.214257839184912"><ele>66.4</ele><time>2026-04-06T13:47:06.999Z</time></trkpt><trkpt lat="37.795904017678346" lon="15.21427347362087"><ele>65.80000000000001</ele><time>2026-04-06T13:47:07.998Z</time></trkpt><trkpt lat="37.79579621354467" lon="15.214280797186223"><ele>65.2</ele><time>2026-04-06T13:47:08.998Z</time></trkpt><trkpt lat="37.795689290253584" lon="15.214276582997542"><ele>64.60000000000001</ele><time>2026-04-06T13:47:09.998Z</time></trkpt><trkpt lat="37.79558064482654" lon="15.214261480450732"><ele>64.0</ele><time>2026-04-06T13:47:10.998Z</time></trkpt><trkpt lat="37.79547129903677" lon="15.214235291455852"><ele>64.0</ele><time>2026-04-06T13:47:11.998Z</time></trkpt><trkpt lat="37.79536445968826" lon="15.214198852305252"><ele>64.0</ele><time>2026-04-06T13:47:12.998Z</time></trkpt><trkpt lat="37.79525845143698" lon="15.214154168611097"><ele>64.0</ele><time>2026-04-06T13:47:13.998Z</time></trkpt><trkpt lat="37.79515422871399" lon="15.214101015539029"><ele>64.0</ele><time>2026-04-06T13:47:14.998Z</time></trkpt><trkpt lat="37.795059847710846" lon="15.214047604274272"><ele>64.0</ele><time>2026-04-06T13:47:15.998Z</time></trkpt><trkpt lat="37.79497052549405" lon="15.213997657109724"><ele>63.49999999999999</ele><time>2026-04-06T13:47:16.998Z</time></trkpt><trkpt lat="37.79488254436159" lon="15.213952067100422"><ele>63.0</ele><time>2026-04-06T13:47:17.998Z</time></trkpt><trkpt lat="37.79479816033432" lon="15.213909353200696"><ele>62.5</ele><time>2026-04-06T13:47:18.998Z</time></trkpt><trkpt lat="37.794717503142316" lon="15.213867394838154"><ele>62.0</ele><time>2026-04-06T13:47:19.998Z</time></trkpt><trkpt lat="37.79463820984044" lon="15.213825523809092"><ele>61.49999999999999</ele><time>2026-04-06T13:47:20.998Z</time></trkpt><trkpt lat="37.794563587581244" lon="15.213786791167303"><ele>61.0</ele><time>2026-04-06T13:47:21.998Z</time></trkpt><trkpt lat="37.794497924286404" lon="15.213748590815557"><ele>60.99999999999999</ele><time>2026-04-06T13:47:22.998Z</time></trkpt><trkpt lat="37.79439877974825" lon="15.213681208777501"><ele>61.0</ele><time>2026-04-06T13:47:24.998Z</time></trkpt><trkpt lat="37.79434964741327" lon="15.213580887298322"><ele>61.0</ele><time>2026-04-06T13:47:26.998Z</time></trkpt><trkpt lat="37.794285839901036" lon="15.213550436161622"><ele>61.0</ele><time>2026-04-06T13:47:28.998Z</time></trkpt><trkpt lat="37.79418920529735" lon="15.213582663897203"><ele>60.99999999999999</ele><time>2026-04-06T13:47:30.998Z</time></trkpt><trkpt lat="37.79414766545964" lon="15.213643309100295"><ele>61.0</ele><time>2026-04-06T13:47:31.998Z</time></trkpt><trkpt lat="37.794148501924894" lon="15.213796141209642"><ele>59.75</ele><time>2026-04-06T13:47:32.998Z</time></trkpt><trkpt lat="37.79409617745" lon="15.213907877646974"><ele>58.5</ele><time>2026-04-06T13:47:33.998Z</time></trkpt><trkpt lat="37.794036771586235" lon="15.214029778032103"><ele>57.25</ele><time>2026-04-06T13:47:34.998Z</time></trkpt><trkpt lat="37.79397073814095" lon="15.2141659023129"><ele>56.0</ele><time>2026-04-06T13:47:35.998Z</time></trkpt><trkpt lat="37.79390267665586" lon="15.21430720842621"><ele>55.5</ele><time>2026-04-06T13:47:36.998Z</time></trkpt><trkpt lat="37.79383634760296" lon="15.214445083330109"><ele>55.0</ele><time>2026-04-06T13:47:37.998Z</time></trkpt><trkpt lat="37.793769445153785" lon="15.214585101288288"><ele>54.5</ele><time>2026-04-06T13:47:38.998Z</time></trkpt><trkpt lat="37.79370260178913" lon="15.21472582873199"><ele>54.0</ele><time>2026-04-06T13:47:39.998Z</time></trkpt><trkpt lat="37.793637721279055" lon="15.214865519011555"><ele>54.0</ele><time>2026-04-06T13:47:40.998Z</time></trkpt><trkpt lat="37.7935769990578" lon="15.215008104107513"><ele>54.0</ele><time>2026-04-06T13:47:41.998Z</time></trkpt><trkpt lat="37.79352495534053" lon="15.215162983953082"><ele>54.0</ele><time>2026-04-06T13:47:42.998Z</time></trkpt><trkpt lat="37.79348655084507" lon="15.215324403545495"><ele>54.0</ele><time>2026-04-06T13:47:43.998Z</time></trkpt><trkpt lat="37.79345092610064" lon="15.215484911553403"><ele>53.75</ele><time>2026-04-06T13:47:44.998Z</time></trkpt><trkpt lat="37.793417658563556" lon="15.215645961538852"><ele>53.5</ele><time>2026-04-06T13:47:45.998Z</time></trkpt><trkpt lat="37.793384598547426" lon="15.2158060064697"><ele>53.25</ele><time>2026-04-06T13:47:46.998Z</time></trkpt><trkpt lat="37.79335305859613" lon="15.21596498924422"><ele>53.0</ele><time>2026-04-06T13:47:47.998Z</time></trkpt><trkpt lat="37.79332192502087" lon="15.216121107669531"><ele>52.0</ele><time>2026-04-06T13:47:48.998Z</time></trkpt><trkpt lat="37.793287028662064" lon="15.216265085951923"><ele>51.0</ele><time>2026-04-06T13:47:49.998Z</time></trkpt><trkpt lat="37.79324525823804" lon="15.21640799299537"><ele>50.0</ele><time>2026-04-06T13:47:50.998Z</time></trkpt><trkpt lat="37.79318803432375" lon="15.216537746239688"><ele>49.0</ele><time>2026-04-06T13:47:51.998Z</time></trkpt><trkpt lat="37.79311569253659" lon="15.216668203593423"><ele>48.5</ele><time>2026-04-06T13:47:53Z</time></trkpt><trkpt lat="37.7930430165599" lon="15.21681121457268"><ele>48.0</ele><time>2026-04-06T13:47:54Z</time></trkpt><trkpt lat="37.79297887489512" lon="15.216958733035895"><ele>47.5</ele><time>2026-04-06T13:47:55Z</time></trkpt><trkpt lat="37.79291765314746" lon="15.217110140899683"><ele>47.0</ele><time>2026-04-06T13:47:56Z</time></trkpt><trkpt lat="37.79285656804625" lon="15.217263504469562"><ele>46.5</ele><time>2026-04-06T13:47:57Z</time></trkpt><trkpt lat="37.79279667772303" lon="15.217417458367786"><ele>46.0</ele><time>2026-04-06T13:47:58Z</time></trkpt><trkpt lat="37.79273827355518" lon="15.217574354639453"><ele>45.5</ele><time>2026-04-06T13:47:59Z</time></trkpt><trkpt lat="37.79268594601679" lon="15.217731444068914"><ele>45.0</ele><time>2026-04-06T13:48:00Z</time></trkpt><trkpt lat="37.79263656008683" lon="15.21790191719449"><ele>45.0</ele><time>2026-04-06T13:48:01Z</time></trkpt><trkpt lat="37.79258939099555" lon="15.218070644919969"><ele>45.0</ele><time>2026-04-06T13:48:02Z</time></trkpt><trkpt lat="37.79254186142669" lon="15.218240619225345"><ele>45.0</ele><time>2026-04-06T13:48:03Z</time></trkpt><trkpt lat="37.79249312171044" lon="15.218412939205203"><ele>45.0</ele><time>2026-04-06T13:48:04Z</time></trkpt><trkpt lat="37.792443857531524" lon="15.21858711344366"><ele>44.5</ele><time>2026-04-06T13:48:05Z</time></trkpt><trkpt lat="37.79239539920721" lon="15.218758438580343"><ele>44.0</ele><time>2026-04-06T13:48:06Z</time></trkpt><trkpt lat="37.792347258073576" lon="15.218928642334049"><ele>43.5</ele><time>2026-04-06T13:48:07Z</time></trkpt><trkpt lat="37.79229973899911" lon="15.219096646659276"><ele>43.0</ele><time>2026-04-06T13:48:08Z</time></trkpt><trkpt lat="37.792252350668875" lon="15.21926418971877"><ele>42.5</ele><time>2026-04-06T13:48:09Z</time></trkpt><trkpt lat="37.79220462908183" lon="15.219428223530086"><ele>42.0</ele><time>2026-04-06T13:48:10Z</time></trkpt><trkpt lat="37.79215701091237" lon="15.21959221117623"><ele>41.5</ele><time>2026-04-06T13:48:11Z</time></trkpt><trkpt lat="37.79211138823789" lon="15.219754553616056"><ele>41.0</ele><time>2026-04-06T13:48:12Z</time></trkpt><trkpt lat="37.79206883018633" lon="15.219925232053221"><ele>40.25</ele><time>2026-04-06T13:48:13Z</time></trkpt><trkpt lat="37.79203145555653" lon="15.220099202028303"><ele>39.5</ele><time>2026-04-06T13:48:14Z</time></trkpt><trkpt lat="37.79199365575863" lon="15.22027697090683"><ele>38.75</ele><time>2026-04-06T13:48:15Z</time></trkpt><trkpt lat="37.79195648673317" lon="15.22045464928966"><ele>38.0</ele><time>2026-04-06T13:48:16Z</time></trkpt><trkpt lat="37.79191815534281" lon="15.220633363624184"><ele>38.0</ele><time>2026-04-06T13:48:17Z</time></trkpt><trkpt lat="37.79187794475602" lon="15.22081419282023"><ele>38.0</ele><time>2026-04-06T13:48:18Z</time></trkpt><trkpt lat="37.79183815994073" lon="15.22099310705225"><ele>38.0</ele><time>2026-04-06T13:48:19Z</time></trkpt><trkpt lat="37.79179871705751" lon="15.221172422996672"><ele>38.0</ele><time>2026-04-06T13:48:20Z</time></trkpt><trkpt lat="37.79176040606726" lon="15.221349152875467"><ele>37.5</ele><time>2026-04-06T13:48:21Z</time></trkpt><trkpt lat="37.79172321034154" lon="15.221524446877426"><ele>37.0</ele><time>2026-04-06T13:48:22Z</time></trkpt><trkpt lat="37.79168725698581" lon="15.221698018464691"><ele>36.5</ele><time>2026-04-06T13:48:23Z</time></trkpt><trkpt lat="37.79165232786297" lon="15.221872994608338"><ele>36.0</ele><time>2026-04-06T13:48:24Z</time></trkpt><trkpt lat="37.79162028883356" lon="15.222045469238797"><ele>36.0</ele><time>2026-04-06T13:48:25Z</time></trkpt><trkpt lat="37.791589374086946" lon="15.222215817629303"><ele>36.0</ele><time>2026-04-06T13:48:26Z</time></trkpt><trkpt lat="37.79155890751222" lon="15.222386479184125"><ele>36.0</ele><time>2026-04-06T13:48:27Z</time></trkpt><trkpt lat="37.79152846775218" lon="15.222558925315457"><ele>36.0</ele><time>2026-04-06T13:48:27.999Z</time></trkpt><trkpt lat="37.79150108307338" lon="15.222736593908584"><ele>35.75</ele><time>2026-04-06T13:48:28.999Z</time></trkpt><trkpt lat="37.79147695962319" lon="15.222915204937014"><ele>35.5</ele><time>2026-04-06T13:48:29.999Z</time></trkpt><trkpt lat="37.7914535692238" lon="15.223096587291058"><ele>35.25</ele><time>2026-04-06T13:48:30.999Z</time></trkpt><trkpt lat="37.79143023820271" lon="15.223279353154574"><ele>35.0</ele><time>2026-04-06T13:48:31.999Z</time></trkpt><trkpt lat="37.79140465533016" lon="15.223476486224344"><ele>35.0</ele><time>2026-04-06T13:48:32.999Z</time></trkpt><trkpt lat="37.791376298143845" lon="15.22367555473678"><ele>35.0</ele><time>2026-04-06T13:48:33.999Z</time></trkpt><trkpt lat="37.79134355520989" lon="15.223880391161092"><ele>35.0</ele><time>2026-04-06T13:48:34.999Z</time></trkpt><trkpt lat="37.79131220554044" lon="15.224072282951463"><ele>34.25</ele><time>2026-04-06T13:48:35.999Z</time></trkpt><trkpt lat="37.79128313872858" lon="15.224246124874412"><ele>33.5</ele><time>2026-04-06T13:48:36.999Z</time></trkpt><trkpt lat="37.7912543724895" lon="15.224413306128872"><ele>32.75</ele><time>2026-04-06T13:48:37.999Z</time></trkpt><trkpt lat="37.7912249723084" lon="15.224575994312977"><ele>32.0</ele><time>2026-04-06T13:48:38.999Z</time></trkpt><trkpt lat="37.79119486580418" lon="15.224738301939066"><ele>31.0</ele><time>2026-04-06T13:48:39.999Z</time></trkpt><trkpt lat="37.79117957684486" lon="15.224904683191284"><ele>30.0</ele><time>2026-04-06T13:48:40.999Z</time></trkpt><trkpt lat="37.79113417988113" lon="15.225061830930317"><ele>29.0</ele><time>2026-04-06T13:48:41.999Z</time></trkpt><trkpt lat="37.79110296648085" lon="15.225221580950187"><ele>28.0</ele><time>2026-04-06T13:48:42.999Z</time></trkpt><trkpt lat="37.79107146709381" lon="15.225382794592528"><ele>28.0</ele><time>2026-04-06T13:48:43.999Z</time></trkpt><trkpt lat="37.79103927630357" lon="15.225544803803679"><ele>28.0</ele><time>2026-04-06T13:48:44.999Z</time></trkpt><trkpt lat="37.79100450214735" lon="15.225708281425627"><ele>28.0</ele><time>2026-04-06T13:48:45.999Z</time></trkpt><trkpt lat="37.79096830168404" lon="15.225868652451123"><ele>28.0</ele><time>2026-04-06T13:48:46.999Z</time></trkpt><trkpt lat="37.79093162954006" lon="15.226030193276841"><ele>28.0</ele><time>2026-04-06T13:48:47.999Z</time></trkpt><trkpt lat="37.79089566508146" lon="15.22619638195574"><ele>28.0</ele><time>2026-04-06T13:48:48.999Z</time></trkpt><trkpt lat="37.790859815683916" lon="15.2263616467218"><ele>28.0</ele><time>2026-04-06T13:48:49.999Z</time></trkpt><trkpt lat="37.79082382730158" lon="15.226527552188138"><ele>28.0</ele><time>2026-04-06T13:48:50.999Z</time></trkpt><trkpt lat="37.790787880847994" lon="15.226696377312802"><ele>28.0</ele><time>2026-04-06T13:48:51.999Z</time></trkpt><trkpt lat="37.79075514490053" lon="15.226867051358806"><ele>28.0</ele><time>2026-04-06T13:48:52.999Z</time></trkpt><trkpt lat="37.79071677294463" lon="15.227032188889055"><ele>28.0</ele><time>2026-04-06T13:48:53.999Z</time></trkpt><trkpt lat="37.790667811995746" lon="15.227194003360456"><ele>28.0</ele><time>2026-04-06T13:48:54.999Z</time></trkpt><trkpt lat="37.79061579358545" lon="15.227353223984426"><ele>27.25</ele><time>2026-04-06T13:48:55.999Z</time></trkpt><trkpt lat="37.79056287175481" lon="15.227513733139006"><ele>26.5</ele><time>2026-04-06T13:48:56.999Z</time></trkpt><trkpt lat="37.7905097078692" lon="15.227670913261422"><ele>25.75</ele><time>2026-04-06T13:48:57.999Z</time></trkpt><trkpt lat="37.79045590686307" lon="15.22782752060578"><ele>25.0</ele><time>2026-04-06T13:48:58.999Z</time></trkpt><trkpt lat="37.79040273179339" lon="15.227980182398161"><ele>25.0</ele><time>2026-04-06T13:48:59.999Z</time></trkpt><trkpt lat="37.790350398991734" lon="15.228129555768994"><ele>25.0</ele><time>2026-04-06T13:49:00.999Z</time></trkpt><trkpt lat="37.79029694035289" lon="15.22827641731936"><ele>25.0</ele><time>2026-04-06T13:49:01.999Z</time></trkpt><trkpt lat="37.79024233462639" lon="15.228425063709825"><ele>25.0</ele><time>2026-04-06T13:49:02.999Z</time></trkpt><trkpt lat="37.790187432111495" lon="15.228570608140059"><ele>24.75</ele><time>2026-04-06T13:49:03.999Z</time></trkpt><trkpt lat="37.790125091370214" lon="15.228713250214925"><ele>24.5</ele><time>2026-04-06T13:49:04.999Z</time></trkpt><trkpt lat="37.79005758139612" lon="15.228852388406226"><ele>24.25</ele><time>2026-04-06T13:49:05.999Z</time></trkpt><trkpt lat="37.78998604533966" lon="15.22899570469552"><ele>24.0</ele><time>2026-04-06T13:49:06.999Z</time></trkpt><trkpt lat="37.78991563233073" lon="15.229136770968326"><ele>23.5</ele><time>2026-04-06T13:49:07.999Z</time></trkpt><trkpt lat="37.789844639154" lon="15.229278999601458"><ele>23.0</ele><time>2026-04-06T13:49:08.999Z</time></trkpt><trkpt lat="37.78977574988915" lon="15.229417013266518"><ele>22.5</ele><time>2026-04-06T13:49:09.999Z</time></trkpt><trkpt lat="37.78970768880485" lon="15.229553367713791"><ele>22.0</ele><time>2026-04-06T13:49:10.999Z</time></trkpt><trkpt lat="37.7896404985272" lon="15.229687977633283"><ele>21.0</ele><time>2026-04-06T13:49:11.998Z</time></trkpt><trkpt lat="37.789576349170524" lon="15.229816495278639"><ele>20.0</ele><time>2026-04-06T13:49:12.998Z</time></trkpt><trkpt lat="37.78951306113352" lon="15.229939053738878"><ele>19.0</ele><time>2026-04-06T13:49:13.998Z</time></trkpt><trkpt lat="37.78946227052088" lon="15.230062913294194"><ele>18.0</ele><time>2026-04-06T13:49:14.998Z</time></trkpt><trkpt lat="37.78938226909622" lon="15.230156951637806"><ele>17.5</ele><time>2026-04-06T13:49:15.998Z</time></trkpt><trkpt lat="37.78929343416465" lon="15.230238178104965"><ele>17.0</ele><time>2026-04-06T13:49:16.998Z</time></trkpt><trkpt lat="37.78919562537824" lon="15.230300239923396"><ele>16.5</ele><time>2026-04-06T13:49:17.998Z</time></trkpt><trkpt lat="37.78908466976235" lon="15.230348263712676"><ele>16.0</ele><time>2026-04-06T13:49:18.998Z</time></trkpt><trkpt lat="37.78896966132883" lon="15.230389793753181"><ele>16.0</ele><time>2026-04-06T13:49:19.998Z</time></trkpt><trkpt lat="37.78884529654056" lon="15.23043534442955"><ele>16.0</ele><time>2026-04-06T13:49:20.998Z</time></trkpt><trkpt lat="37.78871919275645" lon="15.230476573002125"><ele>16.0</ele><time>2026-04-06T13:49:21.998Z</time></trkpt><trkpt lat="37.78859191221998" lon="15.230518074241001"><ele>16.0</ele><time>2026-04-06T13:49:22.998Z</time></trkpt><trkpt lat="37.78845881130421" lon="15.23055758212147"><ele>14.75</ele><time>2026-04-06T13:49:23.998Z</time></trkpt><trkpt lat="37.78833017192725" lon="15.230597736351147"><ele>13.5</ele><time>2026-04-06T13:49:24.998Z</time></trkpt><trkpt lat="37.78820340594293" lon="15.230640015862294"><ele>12.25</ele><time>2026-04-06T13:49:25.998Z</time></trkpt><trkpt lat="37.7880790045423" lon="15.23068759556804"><ele>11.0</ele><time>2026-04-06T13:49:26.998Z</time></trkpt><trkpt lat="37.78794693873485" lon="15.230725615837809"><ele>10.25</ele><time>2026-04-06T13:49:27.998Z</time></trkpt><trkpt lat="37.78783258370043" lon="15.230816507148917"><ele>9.5</ele><time>2026-04-06T13:49:28.998Z</time></trkpt><trkpt lat="37.78771416438819" lon="15.23089797784328"><ele>8.75</ele><time>2026-04-06T13:49:29.998Z</time></trkpt><trkpt lat="37.78759527293147" lon="15.230983018111"><ele>8.0</ele><time>2026-04-06T13:49:30.998Z</time></trkpt><trkpt lat="37.78747649022905" lon="15.23107166496002"><ele>8.0</ele><time>2026-04-06T13:49:31.998Z</time></trkpt><trkpt lat="37.78735679830165" lon="15.231161465311121"><ele>8.0</ele><time>2026-04-06T13:49:32.998Z</time></trkpt><trkpt lat="37.787239539303776" lon="15.231248637060173"><ele>8.0</ele><time>2026-04-06T13:49:33.998Z</time></trkpt><trkpt lat="37.78711627595936" lon="15.231316037423488"><ele>8.0</ele><time>2026-04-06T13:49:34.998Z</time></trkpt><trkpt lat="37.787004042083424" lon="15.2313986864235"><ele>8.0</ele><time>2026-04-06T13:49:35.998Z</time></trkpt><trkpt lat="37.78689670217164" lon="15.231482544646553"><ele>8.0</ele><time>2026-04-06T13:49:36.998Z</time></trkpt><trkpt lat="37.78680307640358" lon="15.231565242756027"><ele>8.0</ele><time>2026-04-06T13:49:37.998Z</time></trkpt><trkpt lat="37.78671767033505" lon="15.231658525922136"><ele>8.0</ele><time>2026-04-06T13:49:38.998Z</time></trkpt><trkpt lat="37.786643706952454" lon="15.23176361800523"><ele>8.0</ele><time>2026-04-06T13:49:39.998Z</time></trkpt><trkpt lat="37.78658154814891" lon="15.231892361280376"><ele>8.0</ele><time>2026-04-06T13:49:40.998Z</time></trkpt><trkpt lat="37.78654075129629" lon="15.232031382069737"><ele>8.0</ele><time>2026-04-06T13:49:41.998Z</time></trkpt><trkpt lat="37.786507764511576" lon="15.23217820096112"><ele>8.0</ele><time>2026-04-06T13:49:42.998Z</time></trkpt><trkpt lat="37.78647825312998" lon="15.232329254383576"><ele>7.75</ele><time>2026-04-06T13:49:43.998Z</time></trkpt><trkpt lat="37.78644904540035" lon="15.23248021436724"><ele>7.5</ele><time>2026-04-06T13:49:44.998Z</time></trkpt><trkpt lat="37.78641971967325" lon="15.232635115476292"><ele>7.25</ele><time>2026-04-06T13:49:45.998Z</time></trkpt><trkpt lat="37.78639182815332" lon="15.232787162724403"><ele>7.0</ele><time>2026-04-06T13:49:46.998Z</time></trkpt><trkpt lat="37.786364451159" lon="15.232936405047358"><ele>7.0</ele><time>2026-04-06T13:49:47.998Z</time></trkpt><trkpt lat="37.78634084474859" lon="15.233084409895294"><ele>7.0</ele><time>2026-04-06T13:49:48.998Z</time></trkpt><trkpt lat="37.786321350034264" lon="15.233233611640541"><ele>7.0</ele><time>2026-04-06T13:49:49.998Z</time></trkpt><trkpt lat="37.78631463223021" lon="15.233386055830335"><ele>7.0</ele><time>2026-04-06T13:49:50.998Z</time></trkpt><trkpt lat="37.78632067789318" lon="15.233531850815249"><ele>7.0</ele><time>2026-04-06T13:49:51.998Z</time></trkpt><trkpt lat="37.78633202289658" lon="15.233668755048312"><ele>6.999999999999999</ele><time>2026-04-06T13:49:52.998Z</time></trkpt><trkpt lat="37.78633872912245" lon="15.233800339117545"><ele>6.999999999999999</ele><time>2026-04-06T13:49:53.998Z</time></trkpt><trkpt lat="37.7863443322297" lon="15.233921353707835"><ele>7.0</ele><time>2026-04-06T13:49:54.998Z</time></trkpt><trkpt lat="37.78633888847813" lon="15.23403019809899"><ele>7.0</ele><time>2026-04-06T13:49:55.998Z</time></trkpt><trkpt lat="37.78631355205001" lon="15.2341238775828"><ele>7.166666666666667</ele><time>2026-04-06T13:49:56.997Z</time></trkpt><trkpt lat="37.78627432906467" lon="15.234212365307217"><ele>7.333333333333334</ele><time>2026-04-06T13:49:57.997Z</time></trkpt><trkpt lat="37.78623026054189" lon="15.23429722809755"><ele>7.5</ele><time>2026-04-06T13:49:59Z</time></trkpt><trkpt lat="37.78618392959882" lon="15.23438109165961"><ele>7.666666666666666</ele><time>2026-04-06T13:50:00Z</time></trkpt><trkpt lat="37.786141732306156" lon="15.23445747280781"><ele>7.833333333333333</ele><time>2026-04-06T13:50:01Z</time></trkpt><trkpt lat="37.786105468757896" lon="15.23452752432449"><ele>8.0</ele><time>2026-04-06T13:50:02Z</time></trkpt><trkpt lat="37.78605597464093" lon="15.23464632943484"><ele>7.833333333333333</ele><time>2026-04-06T13:50:04Z</time></trkpt><trkpt lat="37.78596357389755" lon="15.23468879168524"><ele>7.666666666666666</ele><time>2026-04-06T13:50:06Z</time></trkpt><trkpt lat="37.78585741535004" lon="15.234676370977486"><ele>7.5</ele><time>2026-04-06T13:50:08Z</time></trkpt><trkpt lat="37.785798702253956" lon="15.234641143022092"><ele>7.333333333333334</ele><time>2026-04-06T13:50:09Z</time></trkpt><trkpt lat="37.78573270406046" lon="15.234592378331865"><ele>7.166666666666667</ele><time>2026-04-06T13:50:10Z</time></trkpt><trkpt lat="37.78566063632741" lon="15.234537817884851"><ele>7.0</ele><time>2026-04-06T13:50:11Z</time></trkpt><trkpt lat="37.78558236565837" lon="15.234476282346515"><ele>7.000000000000001</ele><time>2026-04-06T13:50:12Z</time></trkpt><trkpt lat="37.78550900937094" lon="15.234420842384749"><ele>7.0</ele><time>2026-04-06T13:50:13Z</time></trkpt><trkpt lat="37.78544609130034" lon="15.234368786606344"><ele>7.0</ele><time>2026-04-06T13:50:14Z</time></trkpt><trkpt lat="37.785380472301476" lon="15.234319474395164"><ele>7.0</ele><time>2026-04-06T13:50:15Z</time></trkpt><trkpt lat="37.78531743103613" lon="15.234271559673019"><ele>7.000000000000001</ele><time>2026-04-06T13:50:16Z</time></trkpt><trkpt lat="37.78525534345968" lon="15.234219915515732"><ele>7.0</ele><time>2026-04-06T13:50:17Z</time></trkpt><trkpt lat="37.7851870416368" lon="15.234166335942104"><ele>7.166666666666667</ele><time>2026-04-06T13:50:18Z</time></trkpt><trkpt lat="37.785115240884835" lon="15.234107436810227"><ele>7.333333333333334</ele><time>2026-04-06T13:50:19Z</time></trkpt><trkpt lat="37.78504279556185" lon="15.234050511717925"><ele>7.5</ele><time>2026-04-06T13:50:20Z</time></trkpt><trkpt lat="37.78497102679909" lon="15.233995567212888"><ele>7.666666666666666</ele><time>2026-04-06T13:50:21Z</time></trkpt><trkpt lat="37.78490059747368" lon="15.233939441321455"><ele>7.833333333333333</ele><time>2026-04-06T13:50:22Z</time></trkpt><trkpt lat="37.784826972504085" lon="15.233887474745588"><ele>8.0</ele><time>2026-04-06T13:50:23Z</time></trkpt><trkpt lat="37.784754897445836" lon="15.23382799707103"><ele>7.800000000000001</ele><time>2026-04-06T13:50:24Z</time></trkpt><trkpt lat="37.78467301464658" lon="15.233767742407734"><ele>7.6000000000000005</ele><time>2026-04-06T13:50:25Z</time></trkpt><trkpt lat="37.784586250433684" lon="15.233705915557643"><ele>7.3999999999999995</ele><time>2026-04-06T13:50:26Z</time></trkpt><trkpt lat="37.78449123527112" lon="15.233638776993253"><ele>7.199999999999999</ele><time>2026-04-06T13:50:27Z</time></trkpt><trkpt lat="37.784389741360734" lon="15.233571524859746"><ele>7.0</ele><time>2026-04-06T13:50:28Z</time></trkpt><trkpt lat="37.78428581449714" lon="15.23349949047211"><ele>7.0</ele><time>2026-04-06T13:50:29Z</time></trkpt><trkpt lat="37.78418420299678" lon="15.233430732991396"><ele>7.0</ele><time>2026-04-06T13:50:30Z</time></trkpt><trkpt lat="37.784081605988526" lon="15.23336391263123"><ele>7.0</ele><time>2026-04-06T13:50:31Z</time></trkpt><trkpt lat="37.7839823481247" lon="15.233296966192958"><ele>7.0</ele><time>2026-04-06T13:50:32Z</time></trkpt><trkpt lat="37.783884861243195" lon="15.233236916212721"><ele>7.0</ele><time>2026-04-06T13:50:33Z</time></trkpt><trkpt lat="37.783789205135626" lon="15.233177872368529"><ele>6.999999999999999</ele><time>2026-04-06T13:50:33.999Z</time></trkpt><trkpt lat="37.78369330469956" lon="15.23311648023745"><ele>6.999999999999999</ele><time>2026-04-06T13:50:34.999Z</time></trkpt><trkpt lat="37.7835967251498" lon="15.233057239208403"><ele>7.0</ele><time>2026-04-06T13:50:35.999Z</time></trkpt><trkpt lat="37.783497262425364" lon="15.232995495366753"><ele>7.0</ele><time>2026-04-06T13:50:36.999Z</time></trkpt><trkpt lat="37.783393862303036" lon="15.232928760624471"><ele>7.5</ele><time>2026-04-06T13:50:37.999Z</time></trkpt><trkpt lat="37.78328393892577" lon="15.232859696778755"><ele>8.0</ele><time>2026-04-06T13:50:38.999Z</time></trkpt><trkpt lat="37.783169803714195" lon="15.232786425603736"><ele>8.5</ele><time>2026-04-06T13:50:39.999Z</time></trkpt><trkpt lat="37.783050386865" lon="15.232710015172684"><ele>9.0</ele><time>2026-04-06T13:50:40.999Z</time></trkpt><trkpt lat="37.78292891987596" lon="15.232631825073614"><ele>9.0</ele><time>2026-04-06T13:50:41.999Z</time></trkpt><trkpt lat="37.78280245070727" lon="15.232553468007248"><ele>9.0</ele><time>2026-04-06T13:50:42.999Z</time></trkpt><trkpt lat="37.78267682720039" lon="15.23247522797038"><ele>9.0</ele><time>2026-04-06T13:50:43.999Z</time></trkpt><trkpt lat="37.78255517972133" lon="15.232398380441321"><ele>9.0</ele><time>2026-04-06T13:50:44.999Z</time></trkpt><trkpt lat="37.78244082020097" lon="15.232327679278754"><ele>9.0</ele><time>2026-04-06T13:50:45.999Z</time></trkpt><trkpt lat="37.782326042497985" lon="15.232258174513083"><ele>9.0</ele><time>2026-04-06T13:50:46.999Z</time></trkpt><trkpt lat="37.782224490934" lon="15.232191517424337"><ele>9.0</ele><time>2026-04-06T13:50:47.999Z</time></trkpt><trkpt lat="37.78212626109184" lon="15.232133278440317"><ele>9.0</ele><time>2026-04-06T13:50:48.999Z</time></trkpt><trkpt lat="37.78203146321399" lon="15.232077643383406"><ele>9.0</ele><time>2026-04-06T13:50:49.999Z</time></trkpt><trkpt lat="37.781942296200015" lon="15.232022859138056"><ele>9.0</ele><time>2026-04-06T13:50:50.999Z</time></trkpt><trkpt lat="37.78185920671269" lon="15.231970937617785"><ele>9.0</ele><time>2026-04-06T13:50:51.999Z</time></trkpt><trkpt lat="37.781780939301456" lon="15.231919965111869"><ele>9.0</ele><time>2026-04-06T13:50:52.999Z</time></trkpt><trkpt lat="37.78170366653009" lon="15.231867333001222"><ele>9.0</ele><time>2026-04-06T13:50:53.999Z</time></trkpt><trkpt lat="37.781621411874276" lon="15.23181787516132"><ele>9.0</ele><time>2026-04-06T13:50:54.999Z</time></trkpt><trkpt lat="37.78154135645834" lon="15.231768339445427"><ele>9.0</ele><time>2026-04-06T13:50:55.999Z</time></trkpt><trkpt lat="37.78146067521234" lon="15.231719973277245"><ele>9.0</ele><time>2026-04-06T13:50:56.999Z</time></trkpt><trkpt lat="37.7813833808277" lon="15.231671217563946"><ele>9.0</ele><time>2026-04-06T13:50:57.999Z</time></trkpt><trkpt lat="37.78130768086979" lon="15.231622104363453"><ele>9.0</ele><time>2026-04-06T13:50:58.999Z</time></trkpt><trkpt lat="37.78123162095405" lon="15.231575067757138"><ele>9.0</ele><time>2026-04-06T13:50:59.999Z</time></trkpt><trkpt lat="37.78116438811749" lon="15.231531857041519"><ele>9.000000000000002</ele><time>2026-04-06T13:51:00.999Z</time></trkpt><trkpt lat="37.78109611133744" lon="15.231490537566657"><ele>9.0</ele><time>2026-04-06T13:51:01.999Z</time></trkpt><trkpt lat="37.78102382261106" lon="15.231447859165408"><ele>9.0</ele><time>2026-04-06T13:51:02.999Z</time></trkpt><trkpt lat="37.78095425338088" lon="15.231404252990624"><ele>9.0</ele><time>2026-04-06T13:51:03.999Z</time></trkpt><trkpt lat="37.78088568667274" lon="15.231361334263562"><ele>9.0</ele><time>2026-04-06T13:51:04.999Z</time></trkpt><trkpt lat="37.780819369889336" lon="15.231319768244122"><ele>9.000000000000002</ele><time>2026-04-06T13:51:05.999Z</time></trkpt><trkpt lat="37.780761227286064" lon="15.231285554764824"><ele>9.0</ele><time>2026-04-06T13:51:06.999Z</time></trkpt><trkpt lat="37.78065368288306" lon="15.23121769315673"><ele>9.166666666666666</ele><time>2026-04-06T13:51:08.999Z</time></trkpt><trkpt lat="37.780547344871444" lon="15.231152386460362"><ele>9.333333333333334</ele><time>2026-04-06T13:51:10.999Z</time></trkpt><trkpt lat="37.78048256822939" lon="15.231111390211167"><ele>9.5</ele><time>2026-04-06T13:51:11.999Z</time></trkpt><trkpt lat="37.78041255253361" lon="15.231064766182092"><ele>9.666666666666668</ele><time>2026-04-06T13:51:12.999Z</time></trkpt><trkpt lat="37.78033547175004" lon="15.231015063358845"><ele>9.833333333333334</ele><time>2026-04-06T13:51:13.999Z</time></trkpt><trkpt lat="37.780252035267736" lon="15.230967107990114"><ele>10.0</ele><time>2026-04-06T13:51:14.999Z</time></trkpt><trkpt lat="37.780166098379475" lon="15.230912145147212"><ele>10.0</ele><time>2026-04-06T13:51:15.999Z</time></trkpt><trkpt lat="37.78007382284596" lon="15.23085529192148"><ele>10.0</ele><time>2026-04-06T13:51:16.999Z</time></trkpt><trkpt lat="37.7799758420624" lon="15.230793554081158"><ele>10.0</ele><time>2026-04-06T13:51:17.999Z</time></trkpt><trkpt lat="37.77987565559337" lon="15.23072977970558"><ele>10.0</ele><time>2026-04-06T13:51:18.998Z</time></trkpt><trkpt lat="37.77976922682529" lon="15.230662606562099"><ele>10.0</ele><time>2026-04-06T13:51:19.998Z</time></trkpt><trkpt lat="37.77966252736991" lon="15.230592486095192"><ele>10.25</ele><time>2026-04-06T13:51:20.998Z</time></trkpt><trkpt lat="37.779556994022464" lon="15.230526684281179"><ele>10.5</ele><time>2026-04-06T13:51:21.998Z</time></trkpt><trkpt lat="37.77945771309786" lon="15.230463260149758"><ele>10.75</ele><time>2026-04-06T13:51:22.998Z</time></trkpt><trkpt lat="37.779354358793114" lon="15.23039745135461"><ele>11.0</ele><time>2026-04-06T13:51:23.998Z</time></trkpt><trkpt lat="37.77924587994928" lon="15.23032972394953"><ele>12.75</ele><time>2026-04-06T13:51:24.998Z</time></trkpt><trkpt lat="37.7791377378703" lon="15.230262580001531"><ele>14.5</ele><time>2026-04-06T13:51:25.998Z</time></trkpt><trkpt lat="37.77902914336091" lon="15.230193429816639"><ele>16.25</ele><time>2026-04-06T13:51:26.998Z</time></trkpt><trkpt lat="37.778922584518405" lon="15.230126329019829"><ele>18.0</ele><time>2026-04-06T13:51:27.998Z</time></trkpt><trkpt lat="37.7788191009157" lon="15.230060612635869"><ele>18.0</ele><time>2026-04-06T13:51:28.998Z</time></trkpt><trkpt lat="37.77871319796001" lon="15.229998276400579"><ele>18.0</ele><time>2026-04-06T13:51:29.998Z</time></trkpt><trkpt lat="37.778615174309365" lon="15.229934716574737"><ele>18.0</ele><time>2026-04-06T13:51:30.998Z</time></trkpt><trkpt lat="37.77851934066345" lon="15.22987212631629"><ele>18.0</ele><time>2026-04-06T13:51:31.998Z</time></trkpt><trkpt lat="37.77842071476022" lon="15.22980950536221"><ele>18.0</ele><time>2026-04-06T13:51:32.998Z</time></trkpt><trkpt lat="37.778323295963446" lon="15.229751102362656"><ele>17.4</ele><time>2026-04-06T13:51:33.998Z</time></trkpt><trkpt lat="37.77822517412557" lon="15.22969411691434"><ele>16.8</ele><time>2026-04-06T13:51:34.998Z</time></trkpt><trkpt lat="37.77812996443283" lon="15.229636643171322"><ele>16.2</ele><time>2026-04-06T13:51:35.998Z</time></trkpt><trkpt lat="37.77803093820007" lon="15.229574920343882"><ele>15.6</ele><time>2026-04-06T13:51:36.998Z</time></trkpt><trkpt lat="37.777934457273766" lon="15.229510072275538"><ele>15.0</ele><time>2026-04-06T13:51:37.998Z</time></trkpt><trkpt lat="37.77783422861756" lon="15.229444590926736"><ele>15.0</ele><time>2026-04-06T13:51:38.998Z</time></trkpt><trkpt lat="37.777733058051865" lon="15.22937103949118"><ele>15.0</ele><time>2026-04-06T13:51:39.998Z</time></trkpt><trkpt lat="37.77762897971951" lon="15.229301563275731"><ele>15.0</ele><time>2026-04-06T13:51:40.998Z</time></trkpt><trkpt lat="37.77752645414444" lon="15.22923151151036"><ele>15.0</ele><time>2026-04-06T13:51:41.998Z</time></trkpt><trkpt lat="37.77742125842783" lon="15.229157374498765"><ele>13.5</ele><time>2026-04-06T13:51:42.998Z</time></trkpt><trkpt lat="37.77731907840908" lon="15.229085617725996"><ele>12.0</ele><time>2026-04-06T13:51:43.998Z</time></trkpt><trkpt lat="37.7772190748288" lon="15.229015139056191"><ele>10.5</ele><time>2026-04-06T13:51:44.998Z</time></trkpt><trkpt lat="37.777099324147514" lon="15.228948179728041"><ele>9.0</ele><time>2026-04-06T13:51:45.998Z</time></trkpt><trkpt lat="37.776969725910966" lon="15.228863488803704"><ele>8.666666666666666</ele><time>2026-04-06T13:51:46.998Z</time></trkpt><trkpt lat="37.77683124466621" lon="15.228773210368447"><ele>8.333333333333332</ele><time>2026-04-06T13:51:47.998Z</time></trkpt><trkpt lat="37.77669423089899" lon="15.228672474817719"><ele>8.0</ele><time>2026-04-06T13:51:48.998Z</time></trkpt><trkpt lat="37.77656063855455" lon="15.228568791598814"><ele>8.0</ele><time>2026-04-06T13:51:49.998Z</time></trkpt><trkpt lat="37.776428171596" lon="15.228467929195308"><ele>8.0</ele><time>2026-04-06T13:51:50.998Z</time></trkpt><trkpt lat="37.77629902671295" lon="15.228373150521074"><ele>8.0</ele><time>2026-04-06T13:51:51.998Z</time></trkpt><trkpt lat="37.776174305190104" lon="15.228281508619462"><ele>8.0</ele><time>2026-04-06T13:51:52.998Z</time></trkpt><trkpt lat="37.77605056310701" lon="15.228193026821112"><ele>8.25</ele><time>2026-04-06T13:51:53.998Z</time></trkpt><trkpt lat="37.77592907781682" lon="15.22810444194005"><ele>8.5</ele><time>2026-04-06T13:51:54.998Z</time></trkpt><trkpt lat="37.77580744910377" lon="15.228018909054512"><ele>8.75</ele><time>2026-04-06T13:51:55.998Z</time></trkpt><trkpt lat="37.775689181927426" lon="15.227933106715385"><ele>9.0</ele><time>2026-04-06T13:51:56.998Z</time></trkpt><trkpt lat="37.77556880118187" lon="15.227848036883938"><ele>9.0</ele><time>2026-04-06T13:51:57.998Z</time></trkpt><trkpt lat="37.77545189024503" lon="15.227763225684365"><ele>9.0</ele><time>2026-04-06T13:51:58.998Z</time></trkpt><trkpt lat="37.77533313349344" lon="15.227680077179743"><ele>9.0</ele><time>2026-04-06T13:51:59.998Z</time></trkpt><trkpt lat="37.77521409157828" lon="15.227599765847861"><ele>9.0</ele><time>2026-04-06T13:52:00.998Z</time></trkpt><trkpt lat="37.77509334221668" lon="15.227517976870493"><ele>8.5</ele><time>2026-04-06T13:52:01.998Z</time></trkpt><trkpt lat="37.77497373680917" lon="15.227438802640773"><ele>8.0</ele><time>2026-04-06T13:52:02.998Z</time></trkpt><trkpt lat="37.774854776040605" lon="15.227353423946544"><ele>7.5</ele><time>2026-04-06T13:52:03.997Z</time></trkpt><trkpt lat="37.77473553900248" lon="15.227271383150537"><ele>7.0</ele><time>2026-04-06T13:52:05Z</time></trkpt><trkpt lat="37.774616075527106" lon="15.227191045314132"><ele>7.0</ele><time>2026-04-06T13:52:06Z</time></trkpt><trkpt lat="37.77449695647205" lon="15.227106721595625"><ele>7.0</ele><time>2026-04-06T13:52:07Z</time></trkpt><trkpt lat="37.77437728576908" lon="15.227024915241817"><ele>7.0</ele><time>2026-04-06T13:52:08Z</time></trkpt><trkpt lat="37.77425455586732" lon="15.226941982453273"><ele>7.0</ele><time>2026-04-06T13:52:09Z</time></trkpt><trkpt lat="37.7741328906562" lon="15.226856982165144"><ele>7.75</ele><time>2026-04-06T13:52:10Z</time></trkpt><trkpt lat="37.77401216151129" lon="15.226773792405401"><ele>8.5</ele><time>2026-04-06T13:52:11Z</time></trkpt><trkpt lat="37.77389183423983" lon="15.226689983851669"><ele>9.25</ele><time>2026-04-06T13:52:12Z</time></trkpt><trkpt lat="37.77377435389496" lon="15.226607989749379"><ele>10.0</ele><time>2026-04-06T13:52:13Z</time></trkpt><trkpt lat="37.77365687362978" lon="15.226523671677008"><ele>9.75</ele><time>2026-04-06T13:52:14Z</time></trkpt><trkpt lat="37.77354333689918" lon="15.226434581904657"><ele>9.5</ele><time>2026-04-06T13:52:15Z</time></trkpt><trkpt lat="37.77343023340882" lon="15.226344400257604"><ele>9.25</ele><time>2026-04-06T13:52:16Z</time></trkpt><trkpt lat="37.77331483215872" lon="15.226255174483704"><ele>9.0</ele><time>2026-04-06T13:52:17Z</time></trkpt><trkpt lat="37.77320013410382" lon="15.226164150749861"><ele>9.0</ele><time>2026-04-06T13:52:18Z</time></trkpt><trkpt lat="37.77308647161248" lon="15.226074634793349"><ele>9.0</ele><time>2026-04-06T13:52:19Z</time></trkpt><trkpt lat="37.77297182401213" lon="15.225984785755305"><ele>9.0</ele><time>2026-04-06T13:52:20Z</time></trkpt><trkpt lat="37.77285566723107" lon="15.22589445932213"><ele>9.0</ele><time>2026-04-06T13:52:21Z</time></trkpt><trkpt lat="37.77274068692966" lon="15.225804235558797"><ele>9.0</ele><time>2026-04-06T13:52:22Z</time></trkpt><trkpt lat="37.77262533519968" lon="15.225713679279608"><ele>9.0</ele><time>2026-04-06T13:52:23Z</time></trkpt><trkpt lat="37.77250960934755" lon="15.225623404399535"><ele>9.0</ele><time>2026-04-06T13:52:24Z</time></trkpt><trkpt lat="37.772394301905344" lon="15.225529548394675"><ele>9.0</ele><time>2026-04-06T13:52:25Z</time></trkpt><trkpt lat="37.77228200512825" lon="15.225435148505575"><ele>8.5</ele><time>2026-04-06T13:52:26Z</time></trkpt><trkpt lat="37.772164514946894" lon="15.225341947618979"><ele>8.0</ele><time>2026-04-06T13:52:27Z</time></trkpt><trkpt lat="37.77205181178967" lon="15.225247873479667"><ele>7.5</ele><time>2026-04-06T13:52:28Z</time></trkpt><trkpt lat="37.7719362753983" lon="15.225150806623471"><ele>7.0</ele><time>2026-04-06T13:52:29Z</time></trkpt><trkpt lat="37.77182018766864" lon="15.22505654178992"><ele>7.75</ele><time>2026-04-06T13:52:30Z</time></trkpt><trkpt lat="37.771699468662966" lon="15.2249653010409"><ele>8.5</ele><time>2026-04-06T13:52:31Z</time></trkpt><trkpt lat="37.77157772157444" lon="15.22487162839184"><ele>9.25</ele><time>2026-04-06T13:52:32Z</time></trkpt><trkpt lat="37.77145477715266" lon="15.224775220008397"><ele>10.0</ele><time>2026-04-06T13:52:33Z</time></trkpt><trkpt lat="37.77133614675424" lon="15.224682597713114"><ele>10.0</ele><time>2026-04-06T13:52:34Z</time></trkpt><trkpt lat="37.77121951121365" lon="15.224589574878818"><ele>10.0</ele><time>2026-04-06T13:52:35Z</time></trkpt><trkpt lat="37.77110747496927" lon="15.224497467768703"><ele>10.0</ele><time>2026-04-06T13:52:36Z</time></trkpt><trkpt lat="37.77099400994302" lon="15.224394621001647"><ele>10.0</ele><time>2026-04-06T13:52:37Z</time></trkpt><trkpt lat="37.77088678938176" lon="15.224291732378333"><ele>10.0</ele><time>2026-04-06T13:52:37.999Z</time></trkpt><trkpt lat="37.77077755598154" lon="15.224183827542765"><ele>10.0</ele><time>2026-04-06T13:52:38.999Z</time></trkpt><trkpt lat="37.77067079659088" lon="15.224073495701784"><ele>10.0</ele><time>2026-04-06T13:52:39.999Z</time></trkpt><trkpt lat="37.77055945435358" lon="15.223960784155064"><ele>10.0</ele><time>2026-04-06T13:52:40.999Z</time></trkpt><trkpt lat="37.77044664403991" lon="15.223846631374485"><ele>9.5</ele><time>2026-04-06T13:52:41.999Z</time></trkpt><trkpt lat="37.770333281363" lon="15.223732343535051"><ele>9.0</ele><time>2026-04-06T13:52:42.999Z</time></trkpt><trkpt lat="37.770214480768225" lon="15.223614421780297"><ele>8.5</ele><time>2026-04-06T13:52:43.999Z</time></trkpt><trkpt lat="37.77009322437011" lon="15.223503730416176"><ele>8.0</ele><time>2026-04-06T13:52:44.999Z</time></trkpt><trkpt lat="37.76997029330859" lon="15.22339472316752"><ele>7.75</ele><time>2026-04-06T13:52:45.999Z</time></trkpt><trkpt lat="37.769848691713825" lon="15.223291868782308"><ele>7.5</ele><time>2026-04-06T13:52:46.999Z</time></trkpt><trkpt lat="37.76972918076682" lon="15.223189714209857"><ele>7.25</ele><time>2026-04-06T13:52:47.999Z</time></trkpt><trkpt lat="37.76961459476972" lon="15.223090294181649"><ele>7.0</ele><time>2026-04-06T13:52:48.999Z</time></trkpt><trkpt lat="37.7694983446423" lon="15.22299494262673"><ele>6.75</ele><time>2026-04-06T13:52:49.999Z</time></trkpt><trkpt lat="37.76938327797633" lon="15.222901136122791"><ele>6.5</ele><time>2026-04-06T13:52:50.999Z</time></trkpt><trkpt lat="37.769264447252546" lon="15.22280242684996"><ele>6.25</ele><time>2026-04-06T13:52:51.999Z</time></trkpt><trkpt lat="37.76914446319889" lon="15.22270668936167"><ele>6.0</ele><time>2026-04-06T13:52:52.999Z</time></trkpt><trkpt lat="37.76902676511392" lon="15.222610195783856"><ele>6.5</ele><time>2026-04-06T13:52:53.999Z</time></trkpt><trkpt lat="37.768911655130445" lon="15.222510191013576"><ele>7.0</ele><time>2026-04-06T13:52:54.999Z</time></trkpt><trkpt lat="37.768801083040344" lon="15.222410995144335"><ele>7.5</ele><time>2026-04-06T13:52:55.999Z</time></trkpt><trkpt lat="37.76868808269808" lon="15.22231312316115"><ele>8.0</ele><time>2026-04-06T13:52:56.999Z</time></trkpt><trkpt lat="37.76857834745218" lon="15.222217027335708"><ele>7.25</ele><time>2026-04-06T13:52:57.999Z</time></trkpt><trkpt lat="37.768461438549075" lon="15.222121305601851"><ele>6.5</ele><time>2026-04-06T13:52:58.999Z</time></trkpt><trkpt lat="37.76834492363901" lon="15.222062234812363"><ele>5.75</ele><time>2026-04-06T13:52:59.999Z</time></trkpt><trkpt lat="37.768228256350774" lon="15.221943939890732"><ele>5.0</ele><time>2026-04-06T13:53:00.999Z</time></trkpt><trkpt lat="37.768106429168846" lon="15.22184348382604"><ele>5.0</ele><time>2026-04-06T13:53:01.999Z</time></trkpt><trkpt lat="37.76798439267928" lon="15.221739749208348"><ele>5.0</ele><time>2026-04-06T13:53:02.999Z</time></trkpt><trkpt lat="37.76786323166047" lon="15.221641454413009"><ele>5.0</ele><time>2026-04-06T13:53:03.999Z</time></trkpt><trkpt lat="37.76774410395398" lon="15.22153739933425"><ele>5.0</ele><time>2026-04-06T13:53:04.999Z</time></trkpt><trkpt lat="37.76762543749103" lon="15.221442127359225"><ele>5.5</ele><time>2026-04-06T13:53:05.999Z</time></trkpt><trkpt lat="37.76751177996509" lon="15.221344689963013"><ele>6.0</ele><time>2026-04-06T13:53:06.999Z</time></trkpt><trkpt lat="37.767406551884044" lon="15.221243177130226"><ele>6.5</ele><time>2026-04-06T13:53:07.999Z</time></trkpt><trkpt lat="37.7673001467354" lon="15.221144516626726"><ele>7.0</ele><time>2026-04-06T13:53:08.999Z</time></trkpt><trkpt lat="37.767199442084234" lon="15.221057306685712"><ele>7.0</ele><time>2026-04-06T13:53:09.999Z</time></trkpt><trkpt lat="37.76710245560807" lon="15.22098502154551"><ele>6.999999999999999</ele><time>2026-04-06T13:53:10.999Z</time></trkpt><trkpt lat="37.76701371397539" lon="15.220904278736691"><ele>6.999999999999999</ele><time>2026-04-06T13:53:11.999Z</time></trkpt><trkpt lat="37.76692605163931" lon="15.220829847586923"><ele>7.0</ele><time>2026-04-06T13:53:12.999Z</time></trkpt><trkpt lat="37.76684744119079" lon="15.220760314511745"><ele>7.0</ele><time>2026-04-06T13:53:13.999Z</time></trkpt><trkpt lat="37.76677201355259" lon="15.22069611135569"><ele>7.000000000000001</ele><time>2026-04-06T13:53:14.999Z</time></trkpt><trkpt lat="37.76670217120156" lon="15.220632714520502"><ele>7.0</ele><time>2026-04-06T13:53:15.999Z</time></trkpt><trkpt lat="37.766633199078" lon="15.22057324535459"><ele>7.0</ele><time>2026-04-06T13:53:16.999Z</time></trkpt><trkpt lat="37.76656771592244" lon="15.220514853545847"><ele>7.0</ele><time>2026-04-06T13:53:17.999Z</time></trkpt><trkpt lat="37.766500734706696" lon="15.220457993277538"><ele>7.000000000000001</ele><time>2026-04-06T13:53:18.999Z</time></trkpt><trkpt lat="37.76643625893686" lon="15.220402325522466"><ele>7.0</ele><time>2026-04-06T13:53:19.999Z</time></trkpt><trkpt lat="37.76636918211756" lon="15.220345323570625"><ele>7.0</ele><time>2026-04-06T13:53:20.999Z</time></trkpt><trkpt lat="37.76629881559438" lon="15.220284038652096"><ele>6.999999999999999</ele><time>2026-04-06T13:53:21.998Z</time></trkpt><trkpt lat="37.76621906661903" lon="15.220217693608342"><ele>6.999999999999999</ele><time>2026-04-06T13:53:22.998Z</time></trkpt><trkpt lat="37.76613741361018" lon="15.220152439481168"><ele>7.0</ele><time>2026-04-06T13:53:23.998Z</time></trkpt><trkpt lat="37.76605114794121" lon="15.220080292119944"><ele>7.0</ele><time>2026-04-06T13:53:24.998Z</time></trkpt><trkpt lat="37.765960168390386" lon="15.220008042725002"><ele>7.25</ele><time>2026-04-06T13:53:25.998Z</time></trkpt><trkpt lat="37.765862045240375" lon="15.219925588701276"><ele>7.5</ele><time>2026-04-06T13:53:26.998Z</time></trkpt><trkpt lat="37.76576352496266" lon="15.21984048458792"><ele>7.75</ele><time>2026-04-06T13:53:27.998Z</time></trkpt><trkpt lat="37.765667078097714" lon="15.219750627977168"><ele>8.0</ele><time>2026-04-06T13:53:28.998Z</time></trkpt><trkpt lat="37.765571183959885" lon="15.219657466013329"><ele>8.0</ele><time>2026-04-06T13:53:29.998Z</time></trkpt><trkpt lat="37.76547270667195" lon="15.219581710616128"><ele>8.0</ele><time>2026-04-06T13:53:30.998Z</time></trkpt><trkpt lat="37.765383297636994" lon="15.219509081559814"><ele>8.0</ele><time>2026-04-06T13:53:31.998Z</time></trkpt><trkpt lat="37.76529949219072" lon="15.219439962539857"><ele>8.0</ele><time>2026-04-06T13:53:32.998Z</time></trkpt><trkpt lat="37.76521651841823" lon="15.219371943172211"><ele>8.0</ele><time>2026-04-06T13:53:33.998Z</time></trkpt><trkpt lat="37.765129056585344" lon="15.219301641644183"><ele>8.200000000000001</ele><time>2026-04-06T13:53:34.998Z</time></trkpt><trkpt lat="37.76504273513921" lon="15.219227596282089"><ele>8.4</ele><time>2026-04-06T13:53:35.998Z</time></trkpt><trkpt lat="37.76495621036365" lon="15.21915482465386"><ele>8.600000000000001</ele><time>2026-04-06T13:53:36.998Z</time></trkpt><trkpt lat="37.76487342094562" lon="15.219082263299752"><ele>8.8</ele><time>2026-04-06T13:53:37.998Z</time></trkpt><trkpt lat="37.76479631652275" lon="15.21901581496474"><ele>9.0</ele><time>2026-04-06T13:53:38.998Z</time></trkpt><trkpt lat="37.764728406652374" lon="15.218960941087778"><ele>9.166666666666666</ele><time>2026-04-06T13:53:39.998Z</time></trkpt><trkpt lat="37.7646636211594" lon="15.218905011203164"><ele>9.333333333333334</ele><time>2026-04-06T13:53:40.998Z</time></trkpt><trkpt lat="37.76459664793278" lon="15.218857232666227"><ele>9.5</ele><time>2026-04-06T13:53:41.998Z</time></trkpt><trkpt lat="37.7645384682651" lon="15.21880564679542"><ele>9.666666666666668</ele><time>2026-04-06T13:53:42.998Z</time></trkpt><trkpt lat="37.76448473990615" lon="15.2187616324053"><ele>9.833333333333334</ele><time>2026-04-06T13:53:43.998Z</time></trkpt><trkpt lat="37.764407554175214" lon="15.218693748560492"><ele>10.0</ele><time>2026-04-06T13:53:45.998Z</time></trkpt><trkpt lat="37.76437116402027" lon="15.218616479676326"><ele>10.0</ele><time>2026-04-06T13:53:48.998Z</time></trkpt><trkpt lat="37.76445655686755" lon="15.218454250280715"><ele>10.0</ele><time>2026-04-06T13:53:49.998Z</time></trkpt><trkpt lat="37.764519781488794" lon="15.21836038966691"><ele>10.0</ele><time>2026-04-06T13:53:50.998Z</time></trkpt><trkpt lat="37.764580535560626" lon="15.21826188789096"><ele>10.0</ele><time>2026-04-06T13:53:51.998Z</time></trkpt><trkpt lat="37.764630192209864" lon="15.218166289128499"><ele>10.0</ele><time>2026-04-06T13:53:52.998Z</time></trkpt><trkpt lat="37.764678982420236" lon="15.218077859246295"><ele>9.666666666666668</ele><time>2026-04-06T13:53:53.998Z</time></trkpt><trkpt lat="37.76472317301723" lon="15.217989195868972"><ele>9.333333333333334</ele><time>2026-04-06T13:53:54.998Z</time></trkpt><trkpt lat="37.76476129379095" lon="15.217904004389224"><ele>9.0</ele><time>2026-04-06T13:53:55.998Z</time></trkpt><trkpt lat="37.76479293539743" lon="15.217832968784831"><ele>8.666666666666666</ele><time>2026-04-06T13:53:56.998Z</time></trkpt><trkpt lat="37.764819887442876" lon="15.217755040074234"><ele>8.333333333333332</ele><time>2026-04-06T13:53:57.998Z</time></trkpt><trkpt lat="37.76485235158056" lon="15.21766213339438"><ele>8.0</ele><time>2026-04-06T13:53:58.998Z</time></trkpt><trkpt lat="37.764894828746606" lon="15.217560277832927"><ele>7.999999999999999</ele><time>2026-04-06T13:53:59.998Z</time></trkpt><trkpt lat="37.76495081071368" lon="15.217462031888601"><ele>8.0</ele><time>2026-04-06T13:54:00.998Z</time></trkpt><trkpt lat="37.7650006973655" lon="15.21736139862162"><ele>8.0</ele><time>2026-04-06T13:54:01.998Z</time></trkpt><trkpt lat="37.765053157340056" lon="15.217286400828588"><ele>8.0</ele><time>2026-04-06T13:54:02.998Z</time></trkpt><trkpt lat="37.76509700463348" lon="15.21720272015033"><ele>7.999999999999999</ele><time>2026-04-06T13:54:03.998Z</time></trkpt><trkpt lat="37.765133053022595" lon="15.217130232446582"><ele>8.0</ele><time>2026-04-06T13:54:04.998Z</time></trkpt><trkpt lat="37.76519268953386" lon="15.21700203866174"><ele>8.0</ele><time>2026-04-06T13:54:06.997Z</time></trkpt><trkpt lat="37.765242310468494" lon="15.216896816091868"><ele>8.0</ele><time>2026-04-06T13:54:08.997Z</time></trkpt><trkpt lat="37.765300492494895" lon="15.216781158824022"><ele>8.0</ele><time>2026-04-06T13:54:11Z</time></trkpt><trkpt lat="37.76536004742389" lon="15.216667046836728"><ele>8.0</ele><time>2026-04-06T13:54:13Z</time></trkpt><trkpt lat="37.76537595932389" lon="15.216551976016502"><ele>8.0</ele><time>2026-04-06T13:54:15Z</time></trkpt><trkpt lat="37.765306912168874" lon="15.21640845118213"><ele>8.0</ele><time>2026-04-06T13:54:17Z</time></trkpt><trkpt lat="37.765222603772514" lon="15.21635687326601"><ele>8.0</ele><time>2026-04-06T13:54:18Z</time></trkpt><trkpt lat="37.7651400350665" lon="15.21628251758965"><ele>8.0</ele><time>2026-04-06T13:54:19Z</time></trkpt><trkpt lat="37.765050011200536" lon="15.216185815541033"><ele>8.0</ele><time>2026-04-06T13:54:20Z</time></trkpt><trkpt lat="37.7649517934501" lon="15.216083471924078"><ele>8.0</ele><time>2026-04-06T13:54:21Z</time></trkpt><trkpt lat="37.76484386885135" lon="15.215973846791623"><ele>7.5</ele><time>2026-04-06T13:54:22Z</time></trkpt><trkpt lat="37.76473059911018" lon="15.21586245529063"><ele>7.0</ele><time>2026-04-06T13:54:23Z</time></trkpt><trkpt lat="37.76461654567474" lon="15.215754615717868"><ele>6.5</ele><time>2026-04-06T13:54:24Z</time></trkpt><trkpt lat="37.764502292154674" lon="15.215645058536644"><ele>6.0</ele><time>2026-04-06T13:54:25Z</time></trkpt><trkpt lat="37.76438779030956" lon="15.215529308177626"><ele>6.0</ele><time>2026-04-06T13:54:26Z</time></trkpt><trkpt lat="37.76426508200926" lon="15.215420797089847"><ele>6.0</ele><time>2026-04-06T13:54:27Z</time></trkpt><trkpt lat="37.764148515423564" lon="15.21531053055729"><ele>6.0</ele><time>2026-04-06T13:54:28Z</time></trkpt><trkpt lat="37.764031982163175" lon="15.215204534320877"><ele>6.0</ele><time>2026-04-06T13:54:29Z</time></trkpt><trkpt lat="37.763923350325214" lon="15.21509696729378"><ele>6.0</ele><time>2026-04-06T13:54:30Z</time></trkpt><trkpt lat="37.76381048950626" lon="15.214990092856498"><ele>6.0</ele><time>2026-04-06T13:54:31Z</time></trkpt><trkpt lat="37.763704751379116" lon="15.214890942187061"><ele>6.0</ele><time>2026-04-06T13:54:32Z</time></trkpt><trkpt lat="37.763597571070655" lon="15.214801295262491"><ele>6.0</ele><time>2026-04-06T13:54:33Z</time></trkpt><trkpt lat="37.76349165743285" lon="15.214711934414177"><ele>6.6</ele><time>2026-04-06T13:54:34Z</time></trkpt><trkpt lat="37.76339010938321" lon="15.21462847608566"><ele>7.199999999999999</ele><time>2026-04-06T13:54:35Z</time></trkpt><trkpt lat="37.76328880610678" lon="15.21455717819071"><ele>7.800000000000001</ele><time>2026-04-06T13:54:36Z</time></trkpt><trkpt lat="37.76318947536855" lon="15.214498626430652"><ele>8.4</ele><time>2026-04-06T13:54:37Z</time></trkpt><trkpt lat="37.76310090560819" lon="15.21443493368727"><ele>9.0</ele><time>2026-04-06T13:54:38Z</time></trkpt><trkpt lat="37.76301365134385" lon="15.214370584835212"><ele>9.0</ele><time>2026-04-06T13:54:39Z</time></trkpt><trkpt lat="37.76292882784137" lon="15.21431724860676"><ele>9.0</ele><time>2026-04-06T13:54:40Z</time></trkpt><trkpt lat="37.762851815908185" lon="15.214254401251164"><ele>9.0</ele><time>2026-04-06T13:54:41Z</time></trkpt><trkpt lat="37.76277683317833" lon="15.214197165098561"><ele>9.0</ele><time>2026-04-06T13:54:42Z</time></trkpt><trkpt lat="37.76270550850555" lon="15.214147237950154"><ele>9.0</ele><time>2026-04-06T13:54:43Z</time></trkpt><trkpt lat="37.76263944326943" lon="15.214099796675214"><ele>9.0</ele><time>2026-04-06T13:54:44Z</time></trkpt><trkpt lat="37.762577985392284" lon="15.214054944457043"><ele>8.833333333333334</ele><time>2026-04-06T13:54:45Z</time></trkpt><trkpt lat="37.76252230757238" lon="15.21401736581937"><ele>8.666666666666666</ele><time>2026-04-06T13:54:46Z</time></trkpt><trkpt lat="37.762432460202646" lon="15.213952817551847"><ele>8.5</ele><time>2026-04-06T13:54:48Z</time></trkpt><trkpt lat="37.76236979396504" lon="15.213890691324178"><ele>8.333333333333332</ele><time>2026-04-06T13:54:50Z</time></trkpt><trkpt lat="37.76228033785106" lon="15.213832742686787"><ele>8.166666666666666</ele><time>2026-04-06T13:54:51.999Z</time></trkpt><trkpt lat="37.7622257295655" lon="15.21378834729124"><ele>8.0</ele><time>2026-04-06T13:54:52.999Z</time></trkpt><trkpt lat="37.76216181937782" lon="15.213743573692659"><ele>7.999999999999999</ele><time>2026-04-06T13:54:53.999Z</time></trkpt><trkpt lat="37.76209662749437" lon="15.213688526915924"><ele>8.0</ele><time>2026-04-06T13:54:54.999Z</time></trkpt><trkpt lat="37.762022706028056" lon="15.213649777571145"><ele>8.0</ele><time>2026-04-06T13:54:55.999Z</time></trkpt><trkpt lat="37.76195895933247" lon="15.213593717776478"><ele>8.0</ele><time>2026-04-06T13:54:56.999Z</time></trkpt><trkpt lat="37.76189148471033" lon="15.213541729859955"><ele>7.999999999999999</ele><time>2026-04-06T13:54:57.999Z</time></trkpt><trkpt lat="37.761819471275906" lon="15.213488849436237"><ele>8.0</ele><time>2026-04-06T13:54:58.999Z</time></trkpt><trkpt lat="37.761753872789775" lon="15.213420570520311"><ele>8.0</ele><time>2026-04-06T13:54:59.999Z</time></trkpt><trkpt lat="37.76167674597825" lon="15.21337924376037"><ele>8.0</ele><time>2026-04-06T13:55:00.999Z</time></trkpt><trkpt lat="37.76160285116016" lon="15.21333613337996"><ele>8.0</ele><time>2026-04-06T13:55:01.999Z</time></trkpt><trkpt lat="37.7615408640686" lon="15.213301064355399"><ele>8.0</ele><time>2026-04-06T13:55:02.999Z</time></trkpt><trkpt lat="37.76143658934489" lon="15.213234078780367"><ele>8.0</ele><time>2026-04-06T13:55:04.999Z</time></trkpt><trkpt lat="37.7613355783537" lon="15.213171883820845"><ele>7.999999999999999</ele><time>2026-04-06T13:55:06.999Z</time></trkpt><trkpt lat="37.761273731810675" lon="15.21312797543927"><ele>8.0</ele><time>2026-04-06T13:55:08.999Z</time></trkpt><trkpt lat="37.76120322101308" lon="15.213076969851034"><ele>8.0</ele><time>2026-04-06T13:55:11.999Z</time></trkpt><trkpt lat="37.76110243376584" lon="15.2129916827396"><ele>8.0</ele><time>2026-04-06T13:55:13.999Z</time></trkpt><trkpt lat="37.76104277205984" lon="15.212944006165882"><ele>7.999999999999999</ele><time>2026-04-06T13:55:14.999Z</time></trkpt><trkpt lat="37.76097734123808" lon="15.212903775422276"><ele>8.0</ele><time>2026-04-06T13:55:15.999Z</time></trkpt><trkpt lat="37.76091529953169" lon="15.212862462084017"><ele>7.999999999999999</ele><time>2026-04-06T13:55:16.999Z</time></trkpt><trkpt lat="37.76085833604181" lon="15.212828202478278"><ele>8.0</ele><time>2026-04-06T13:55:17.999Z</time></trkpt><trkpt lat="37.76075426564282" lon="15.212754496100537"><ele>8.0</ele><time>2026-04-06T13:55:19.999Z</time></trkpt><trkpt lat="37.76070116792343" lon="15.212705136976947"><ele>8.0</ele><time>2026-04-06T13:55:20.999Z</time></trkpt><trkpt lat="37.76064377411929" lon="15.212664785015392"><ele>7.999999999999999</ele><time>2026-04-06T13:55:21.999Z</time></trkpt><trkpt lat="37.76057549618916" lon="15.212616822357496"><ele>8.0</ele><time>2026-04-06T13:55:22.999Z</time></trkpt><trkpt lat="37.7604991483659" lon="15.212569874613106"><ele>7.999999999999999</ele><time>2026-04-06T13:55:23.999Z</time></trkpt><trkpt lat="37.76042498648689" lon="15.212518127413729"><ele>8.0</ele><time>2026-04-06T13:55:24.999Z</time></trkpt><trkpt lat="37.76035897606078" lon="15.212469785387315"><ele>8.0</ele><time>2026-04-06T13:55:25.999Z</time></trkpt><trkpt lat="37.760265728119116" lon="15.212399462159578"><ele>8.0</ele><time>2026-04-06T13:55:27.999Z</time></trkpt><trkpt lat="37.76020424548958" lon="15.212354458119345"><ele>7.999999999999999</ele><time>2026-04-06T13:55:29.999Z</time></trkpt><trkpt lat="37.76012507613777" lon="15.212306597025057"><ele>8.0</ele><time>2026-04-06T13:55:31.999Z</time></trkpt><trkpt lat="37.76004333448378" lon="15.212245653482746"><ele>7.6000000000000005</ele><time>2026-04-06T13:55:33.999Z</time></trkpt><trkpt lat="37.75996605539437" lon="15.21217244010494"><ele>7.200000000000001</ele><time>2026-04-06T13:55:35.998Z</time></trkpt><trkpt lat="37.75987873081317" lon="15.212094145915069"><ele>6.8</ele><time>2026-04-06T13:55:37.998Z</time></trkpt><trkpt lat="37.759813402834254" lon="15.212048143489652"><ele>6.4</ele><time>2026-04-06T13:55:38.998Z</time></trkpt><trkpt lat="37.75973497265928" lon="15.211985326589756"><ele>6.0</ele><time>2026-04-06T13:55:39.998Z</time></trkpt><trkpt lat="37.759647470801696" lon="15.211918611454964"><ele>6.0</ele><time>2026-04-06T13:55:40.998Z</time></trkpt><trkpt lat="37.75955784867984" lon="15.211844319868094"><ele>6.0</ele><time>2026-04-06T13:55:41.998Z</time></trkpt><trkpt lat="37.75947494807471" lon="15.211775855909256"><ele>6.0</ele><time>2026-04-06T13:55:42.998Z</time></trkpt><trkpt lat="37.759397468665625" lon="15.211712462519237"><ele>6.0</ele><time>2026-04-06T13:55:43.998Z</time></trkpt><trkpt lat="37.75932078269563" lon="15.211648874389773"><ele>6.0</ele><time>2026-04-06T13:55:44.998Z</time></trkpt><trkpt lat="37.75924223247988" lon="15.211581529482848"><ele>6.0</ele><time>2026-04-06T13:55:45.998Z</time></trkpt><trkpt lat="37.75916225911159" lon="15.21151271530274"><ele>6.0</ele><time>2026-04-06T13:55:46.998Z</time></trkpt><trkpt lat="37.759089526563606" lon="15.211448505239911"><ele>6.0</ele><time>2026-04-06T13:55:47.998Z</time></trkpt><trkpt lat="37.75902492095656" lon="15.21138997923567"><ele>6.0</ele><time>2026-04-06T13:55:48.998Z</time></trkpt><trkpt lat="37.758967442171205" lon="15.21134155011371"><ele>6.0</ele><time>2026-04-06T13:55:49.998Z</time></trkpt><trkpt lat="37.758913392143135" lon="15.211295255556731"><ele>6.0</ele><time>2026-04-06T13:55:50.998Z</time></trkpt><trkpt lat="37.75885399227885" lon="15.211243563885265"><ele>6.199999999999999</ele><time>2026-04-06T13:55:51.998Z</time></trkpt><trkpt lat="37.758790809422806" lon="15.211191266686264"><ele>6.3999999999999995</ele><time>2026-04-06T13:55:52.998Z</time></trkpt><trkpt lat="37.75873009125552" lon="15.211129012267717"><ele>6.6</ele><time>2026-04-06T13:55:53.998Z</time></trkpt><trkpt lat="37.75864084477352" lon="15.211046329822564"><ele>6.8</ele><time>2026-04-06T13:55:55.998Z</time></trkpt><trkpt lat="37.75855552454412" lon="15.210970248571392"><ele>7.0</ele><time>2026-04-06T13:55:57.998Z</time></trkpt><trkpt lat="37.7584547800815" lon="15.210895027512235"><ele>7.0</ele><time>2026-04-06T13:55:59.998Z</time></trkpt><trkpt lat="37.75835399224421" lon="15.210802074754731"><ele>6.999999999999999</ele><time>2026-04-06T13:56:01.998Z</time></trkpt><trkpt lat="37.75828737750255" lon="15.21075181660665"><ele>6.999999999999999</ele><time>2026-04-06T13:56:02.998Z</time></trkpt><trkpt lat="37.758217375157514" lon="15.21068937884634"><ele>7.0</ele><time>2026-04-06T13:56:03.998Z</time></trkpt><trkpt lat="37.758151308873146" lon="15.210638427273928"><ele>7.0</ele><time>2026-04-06T13:56:04.998Z</time></trkpt><trkpt lat="37.75807801045848" lon="15.210573398163492"><ele>7.0</ele><time>2026-04-06T13:56:06.998Z</time></trkpt><trkpt lat="37.75800629091727" lon="15.210529710141948"><ele>6.999999999999999</ele><time>2026-04-06T13:56:18Z</time></trkpt><trkpt lat="37.757911850250615" lon="15.210407317393225"><ele>6.999999999999999</ele><time>2026-04-06T13:56:20Z</time></trkpt><trkpt lat="37.75784388879736" lon="15.210331191098355"><ele>7.0</ele><time>2026-04-06T13:56:21Z</time></trkpt><trkpt lat="37.75775471734982" lon="15.210263264424329"><ele>7.0</ele><time>2026-04-06T13:56:22Z</time></trkpt><trkpt lat="37.75767442935385" lon="15.210178761280034"><ele>7.0</ele><time>2026-04-06T13:56:23Z</time></trkpt><trkpt lat="37.75758922957216" lon="15.210079059617337"><ele>7.0</ele><time>2026-04-06T13:56:24Z</time></trkpt><trkpt lat="37.75751392919564" lon="15.209956764597768"><ele>7.0</ele><time>2026-04-06T13:56:25Z</time></trkpt><trkpt lat="37.75742752873194" lon="15.20984318990247"><ele>7.0</ele><time>2026-04-06T13:56:26Z</time></trkpt><trkpt lat="37.757347627544995" lon="15.209736958264433"><ele>6.833333333333334</ele><time>2026-04-06T13:56:27Z</time></trkpt><trkpt lat="37.7572828218867" lon="15.209634237231365"><ele>6.666666666666667</ele><time>2026-04-06T13:56:28Z</time></trkpt><trkpt lat="37.7572243642406" lon="15.209545181104911"><ele>6.5</ele><time>2026-04-06T13:56:29Z</time></trkpt><trkpt lat="37.75716869853341" lon="15.209462291183138"><ele>6.333333333333334</ele><time>2026-04-06T13:56:30Z</time></trkpt><trkpt lat="37.757134377121226" lon="15.209390095424853"><ele>6.166666666666667</ele><time>2026-04-06T13:56:31Z</time></trkpt><trkpt lat="37.7570932568293" lon="15.209325158204999"><ele>6.0</ele><time>2026-04-06T13:56:32Z</time></trkpt><trkpt lat="37.757048549267935" lon="15.209238412653558"><ele>6.0</ele><time>2026-04-06T13:56:33Z</time></trkpt><trkpt lat="37.75699993304498" lon="15.209139697238266"><ele>6.0</ele><time>2026-04-06T13:56:34Z</time></trkpt><trkpt lat="37.75694855249948" lon="15.209032505364842"><ele>6.0</ele><time>2026-04-06T13:56:35Z</time></trkpt><trkpt lat="37.75689088508471" lon="15.20892188314946"><ele>6.0</ele><time>2026-04-06T13:56:36Z</time></trkpt><trkpt lat="37.75683182496763" lon="15.20880240182758"><ele>6.0</ele><time>2026-04-06T13:56:37Z</time></trkpt><trkpt lat="37.75677721240665" lon="15.208670497798778"><ele>5.5</ele><time>2026-04-06T13:56:38Z</time></trkpt><trkpt lat="37.75670371290689" lon="15.208557774096017"><ele>5.0</ele><time>2026-04-06T13:56:39Z</time></trkpt><trkpt lat="37.75663645229824" lon="15.208437301689044"><ele>4.5</ele><time>2026-04-06T13:56:40Z</time></trkpt><trkpt lat="37.756564938768996" lon="15.208315407283242"><ele>4.0</ele><time>2026-04-06T13:56:41Z</time></trkpt><trkpt lat="37.75649315662124" lon="15.208204770173195"><ele>4.0</ele><time>2026-04-06T13:56:42Z</time></trkpt><trkpt lat="37.75641169337583" lon="15.20809087294729"><ele>4.0</ele><time>2026-04-06T13:56:43Z</time></trkpt><trkpt lat="37.75631913501072" lon="15.207983710914373"><ele>4.0</ele><time>2026-04-06T13:56:44Z</time></trkpt><trkpt lat="37.75622504542189" lon="15.207883919127017"><ele>4.0</ele><time>2026-04-06T13:56:45Z</time></trkpt><trkpt lat="37.75613572150198" lon="15.207798204472272"><ele>4.25</ele><time>2026-04-06T13:56:46Z</time></trkpt><trkpt lat="37.75602604155122" lon="15.207707972492958"><ele>4.5</ele><time>2026-04-06T13:56:47Z</time></trkpt><trkpt lat="37.75592569642055" lon="15.207620537391781"><ele>4.75</ele><time>2026-04-06T13:56:48Z</time></trkpt><trkpt lat="37.75580702511703" lon="15.207552543540166"><ele>5.0</ele><time>2026-04-06T13:56:49Z</time></trkpt><trkpt lat="37.75569054894277" lon="15.207500063024655"><ele>5.0</ele><time>2026-04-06T13:56:50Z</time></trkpt><trkpt lat="37.755562784550456" lon="15.207467465633522"><ele>5.0</ele><time>2026-04-06T13:56:51Z</time></trkpt><trkpt lat="37.75543542490991" lon="15.207418542132636"><ele>5.0</ele><time>2026-04-06T13:56:52Z</time></trkpt><trkpt lat="37.75530563884249" lon="15.207376602439226"><ele>5.0</ele><time>2026-04-06T13:56:52.999Z</time></trkpt><trkpt lat="37.75518239308894" lon="15.207339763373986"><ele>5.0</ele><time>2026-04-06T13:56:53.999Z</time></trkpt><trkpt lat="37.75504752290163" lon="15.20730795674966"><ele>5.0</ele><time>2026-04-06T13:56:54.999Z</time></trkpt><trkpt lat="37.754914509602" lon="15.207274996868145"><ele>5.0</ele><time>2026-04-06T13:56:55.999Z</time></trkpt><trkpt lat="37.754780625442386" lon="15.207234160840459"><ele>5.0</ele><time>2026-04-06T13:56:56.999Z</time></trkpt><trkpt lat="37.75464526216534" lon="15.207192587454383"><ele>5.0</ele><time>2026-04-06T13:56:57.999Z</time></trkpt><trkpt lat="37.75451092815233" lon="15.207150343957265"><ele>5.0</ele><time>2026-04-06T13:56:58.999Z</time></trkpt><trkpt lat="37.754380068871896" lon="15.207099967665394"><ele>5.0</ele><time>2026-04-06T13:56:59.999Z</time></trkpt><trkpt lat="37.754243885878886" lon="15.207056063482767"><ele>5.0</ele><time>2026-04-06T13:57:00.999Z</time></trkpt><trkpt lat="37.75411085223544" lon="15.207015032660717"><ele>5.25</ele><time>2026-04-06T13:57:01.999Z</time></trkpt><trkpt lat="37.75397083243271" lon="15.20697586648884"><ele>5.5</ele><time>2026-04-06T13:57:02.999Z</time></trkpt><trkpt lat="37.75384127083738" lon="15.206935569437077"><ele>5.75</ele><time>2026-04-06T13:57:03.999Z</time></trkpt><trkpt lat="37.75370385263061" lon="15.206896406989987"><ele>6.0</ele><time>2026-04-06T13:57:04.999Z</time></trkpt><trkpt lat="37.75357107713072" lon="15.20685114430758"><ele>6.0</ele><time>2026-04-06T13:57:05.999Z</time></trkpt><trkpt lat="37.75343092614141" lon="15.206830058192514"><ele>6.0</ele><time>2026-04-06T13:57:06.999Z</time></trkpt><trkpt lat="37.75329789512279" lon="15.206776642288851"><ele>6.0</ele><time>2026-04-06T13:57:07.999Z</time></trkpt><trkpt lat="37.75315100905875" lon="15.206736559622444"><ele>6.0</ele><time>2026-04-06T13:57:08.999Z</time></trkpt><trkpt lat="37.753034256175724" lon="15.2067033541268"><ele>6.0</ele><time>2026-04-06T13:57:09.999Z</time></trkpt><trkpt lat="37.75289922075559" lon="15.206658001318795"><ele>6.0</ele><time>2026-04-06T13:57:10.999Z</time></trkpt><trkpt lat="37.75276457792387" lon="15.206611220966993"><ele>6.0</ele><time>2026-04-06T13:57:11.999Z</time></trkpt><trkpt lat="37.752631192699525" lon="15.206581560503153"><ele>6.0</ele><time>2026-04-06T13:57:12.999Z</time></trkpt><trkpt lat="37.75249905568549" lon="15.206536693948923"><ele>6.25</ele><time>2026-04-06T13:57:13.999Z</time></trkpt><trkpt lat="37.75236211682203" lon="15.206500652585241"><ele>6.5</ele><time>2026-04-06T13:57:14.999Z</time></trkpt><trkpt lat="37.752231118424646" lon="15.206443892577617"><ele>6.75</ele><time>2026-04-06T13:57:15.999Z</time></trkpt><trkpt lat="37.75208912321025" lon="15.206401877956875"><ele>7.0</ele><time>2026-04-06T13:57:16.999Z</time></trkpt><trkpt lat="37.75195078608475" lon="15.206354388731134"><ele>7.0</ele><time>2026-04-06T13:57:17.999Z</time></trkpt><trkpt lat="37.75181396735283" lon="15.206301646468285"><ele>7.0</ele><time>2026-04-06T13:57:18.999Z</time></trkpt><trkpt lat="37.75167758665619" lon="15.206250988605891"><ele>7.0</ele><time>2026-04-06T13:57:19.999Z</time></trkpt><trkpt lat="37.75153949003011" lon="15.206193736577136"><ele>7.0</ele><time>2026-04-06T13:57:20.999Z</time></trkpt><trkpt lat="37.75139500911776" lon="15.206137327980946"><ele>7.0</ele><time>2026-04-06T13:57:21.999Z</time></trkpt><trkpt lat="37.75126008643013" lon="15.206074308328091"><ele>7.0</ele><time>2026-04-06T13:57:22.999Z</time></trkpt><trkpt lat="37.75111760792188" lon="15.20600612201827"><ele>7.0</ele><time>2026-04-06T13:57:23.999Z</time></trkpt><trkpt lat="37.75098128764729" lon="15.205943655501432"><ele>7.0</ele><time>2026-04-06T13:57:24.999Z</time></trkpt><trkpt lat="37.75084609942323" lon="15.205873800044259"><ele>7.0</ele><time>2026-04-06T13:57:25.999Z</time></trkpt><trkpt lat="37.750707968120196" lon="15.205826238859224"><ele>7.0</ele><time>2026-04-06T13:57:26.999Z</time></trkpt><trkpt lat="37.750581605210456" lon="15.205743606026733"><ele>7.0</ele><time>2026-04-06T13:57:27.999Z</time></trkpt><trkpt lat="37.75044453213169" lon="15.20568142360488"><ele>7.0</ele><time>2026-04-06T13:57:28.999Z</time></trkpt><trkpt lat="37.75031156614676" lon="15.205617022430447"><ele>7.25</ele><time>2026-04-06T13:57:29.999Z</time></trkpt><trkpt lat="37.750183408777495" lon="15.20555239513101"><ele>7.5</ele><time>2026-04-06T13:57:30.999Z</time></trkpt><trkpt lat="37.750056423478014" lon="15.205488991877186"><ele>7.75</ele><time>2026-04-06T13:57:31.999Z</time></trkpt><trkpt lat="37.74993094196703" lon="15.205430097640667"><ele>8.0</ele><time>2026-04-06T13:57:32.999Z</time></trkpt><trkpt lat="37.74980950601883" lon="15.205366678732705"><ele>8.0</ele><time>2026-04-06T13:57:33.999Z</time></trkpt><trkpt lat="37.74969392825089" lon="15.205295080872133"><ele>8.0</ele><time>2026-04-06T13:57:34.999Z</time></trkpt><trkpt lat="37.74957331686957" lon="15.205245514362945"><ele>8.0</ele><time>2026-04-06T13:57:35.998Z</time></trkpt><trkpt lat="37.74945706342881" lon="15.20519395567959"><ele>8.0</ele><time>2026-04-06T13:57:36.998Z</time></trkpt><trkpt lat="37.749337918224995" lon="15.205145247942268"><ele>8.0</ele><time>2026-04-06T13:57:37.998Z</time></trkpt><trkpt lat="37.74922082597026" lon="15.205085788797033"><ele>8.0</ele><time>2026-04-06T13:57:38.998Z</time></trkpt><trkpt lat="37.749098135789474" lon="15.205028464611212"><ele>8.0</ele><time>2026-04-06T13:57:39.998Z</time></trkpt><trkpt lat="37.74897062940151" lon="15.204966315229973"><ele>8.0</ele><time>2026-04-06T13:57:40.998Z</time></trkpt><trkpt lat="37.74884393831327" lon="15.204907234607372"><ele>8.0</ele><time>2026-04-06T13:57:41.998Z</time></trkpt><trkpt lat="37.74871970461068" lon="15.204845163965427"><ele>8.0</ele><time>2026-04-06T13:57:42.998Z</time></trkpt><trkpt lat="37.74859313147773" lon="15.204782816099145"><ele>8.0</ele><time>2026-04-06T13:57:43.998Z</time></trkpt><trkpt lat="37.74846418947917" lon="15.204721289041942"><ele>8.0</ele><time>2026-04-06T13:57:44.998Z</time></trkpt><trkpt lat="37.74833401466052" lon="15.204660640728736"><ele>8.0</ele><time>2026-04-06T13:57:45.998Z</time></trkpt><trkpt lat="37.748204264362094" lon="15.204595715076158"><ele>8.0</ele><time>2026-04-06T13:57:46.998Z</time></trkpt><trkpt lat="37.74807403498125" lon="15.204530459902397"><ele>8.0</ele><time>2026-04-06T13:57:47.998Z</time></trkpt><trkpt lat="37.74793717970752" lon="15.20447676170164"><ele>8.0</ele><time>2026-04-06T13:57:48.998Z</time></trkpt><trkpt lat="37.747808792545385" lon="15.204412509354855"><ele>7.75</ele><time>2026-04-06T13:57:49.998Z</time></trkpt><trkpt lat="37.74766950283271" lon="15.204354473116496"><ele>7.5</ele><time>2026-04-06T13:57:50.998Z</time></trkpt><trkpt lat="37.747537361334544" lon="15.204285234390655"><ele>7.25</ele><time>2026-04-06T13:57:51.998Z</time></trkpt><trkpt lat="37.74740589252421" lon="15.20421907196618"><ele>7.0</ele><time>2026-04-06T13:57:52.998Z</time></trkpt><trkpt lat="37.74727328148146" lon="15.204151662229982"><ele>7.0</ele><time>2026-04-06T13:57:53.998Z</time></trkpt><trkpt lat="37.747140765500596" lon="15.204092627912456"><ele>7.0</ele><time>2026-04-06T13:57:54.998Z</time></trkpt><trkpt lat="37.74701143412912" lon="15.204032366474872"><ele>7.0</ele><time>2026-04-06T13:57:55.998Z</time></trkpt><trkpt lat="37.74688264020312" lon="15.203967375436028"><ele>7.0</ele><time>2026-04-06T13:57:56.998Z</time></trkpt><trkpt lat="37.746754917465346" lon="15.203893799180415"><ele>7.5</ele><time>2026-04-06T13:57:57.998Z</time></trkpt><trkpt lat="37.74662162934449" lon="15.203827507624935"><ele>8.0</ele><time>2026-04-06T13:57:58.998Z</time></trkpt><trkpt lat="37.74648529701611" lon="15.203762984459663"><ele>8.5</ele><time>2026-04-06T13:57:59.998Z</time></trkpt><trkpt lat="37.74635217284591" lon="15.203686626209825"><ele>9.0</ele><time>2026-04-06T13:58:00.998Z</time></trkpt><trkpt lat="37.74621735387118" lon="15.203623314258438"><ele>9.0</ele><time>2026-04-06T13:58:01.998Z</time></trkpt><trkpt lat="37.74608666505102" lon="15.20356038849529"><ele>9.0</ele><time>2026-04-06T13:58:02.998Z</time></trkpt><trkpt lat="37.74595369139397" lon="15.203520086288101"><ele>9.0</ele><time>2026-04-06T13:58:03.998Z</time></trkpt><trkpt lat="37.74582063206485" lon="15.203460748990594"><ele>9.0</ele><time>2026-04-06T13:58:04.998Z</time></trkpt><trkpt lat="37.7456938757193" lon="15.203406919962656"><ele>9.0</ele><time>2026-04-06T13:58:05.998Z</time></trkpt><trkpt lat="37.74557111519833" lon="15.203352924370284"><ele>9.0</ele><time>2026-04-06T13:58:06.998Z</time></trkpt><trkpt lat="37.74545119062099" lon="15.203289219463729"><ele>9.0</ele><time>2026-04-06T13:58:07.998Z</time></trkpt><trkpt lat="37.74532968569358" lon="15.20322957708655"><ele>9.0</ele><time>2026-04-06T13:58:08.998Z</time></trkpt><trkpt lat="37.74520747853888" lon="15.203172103761684"><ele>8.75</ele><time>2026-04-06T13:58:09.998Z</time></trkpt><trkpt lat="37.74508559391833" lon="15.20311314043697"><ele>8.5</ele><time>2026-04-06T13:58:10.998Z</time></trkpt><trkpt lat="37.74496547924018" lon="15.203059355462896"><ele>8.25</ele><time>2026-04-06T13:58:11.998Z</time></trkpt><trkpt lat="37.7448468652178" lon="15.203004943862366"><ele>8.0</ele><time>2026-04-06T13:58:12.998Z</time></trkpt><trkpt lat="37.744731394124834" lon="15.202951855176163"><ele>8.0</ele><time>2026-04-06T13:58:13.998Z</time></trkpt><trkpt lat="37.74462139992516" lon="15.202886075778517"><ele>8.0</ele><time>2026-04-06T13:58:14.998Z</time></trkpt><trkpt lat="37.74451053101181" lon="15.202841227286136"><ele>8.0</ele><time>2026-04-06T13:58:15.998Z</time></trkpt><trkpt lat="37.744416121776595" lon="15.202786497526718"><ele>8.0</ele><time>2026-04-06T13:58:16.998Z</time></trkpt><trkpt lat="37.74433128044586" lon="15.202741765615542"><ele>8.0</ele><time>2026-04-06T13:58:17.998Z</time></trkpt><trkpt lat="37.74424583088541" lon="15.202713055869584"><ele>7.666666666666666</ele><time>2026-04-06T13:58:18.998Z</time></trkpt><trkpt lat="37.744172851740785" lon="15.202674934228165"><ele>7.333333333333333</ele><time>2026-04-06T13:58:19.997Z</time></trkpt><trkpt lat="37.74410986355257" lon="15.202641087746892"><ele>7.0</ele><time>2026-04-06T13:58:20.997Z</time></trkpt><trkpt lat="37.74404679354545" lon="15.202605447843379"><ele>6.666666666666666</ele><time>2026-04-06T13:58:21.997Z</time></trkpt><trkpt lat="37.74394780735434" lon="15.202538093563332"><ele>6.333333333333333</ele><time>2026-04-06T13:58:24Z</time></trkpt><trkpt lat="37.7438771003079" lon="15.202466353012118"><ele>6.0</ele><time>2026-04-06T13:58:26Z</time></trkpt><trkpt lat="37.74373914983905" lon="15.202471982761192"><ele>6.0</ele><time>2026-04-06T13:58:29Z</time></trkpt><trkpt lat="37.7437082911814" lon="15.202550340310829"><ele>6.0</ele><time>2026-04-06T13:58:30Z</time></trkpt><trkpt lat="37.74366944473723" lon="15.202615192031262"><ele>6.0</ele><time>2026-04-06T13:58:31Z</time></trkpt><trkpt lat="37.74361443707564" lon="15.202682889559703"><ele>6.0</ele><time>2026-04-06T13:58:32Z</time></trkpt><trkpt lat="37.74359390819973" lon="15.202780022004145"><ele>6.0</ele><time>2026-04-06T13:58:33Z</time></trkpt><trkpt lat="37.743563411681556" lon="15.202875523927032"><ele>6.0</ele><time>2026-04-06T13:58:34Z</time></trkpt><trkpt lat="37.743536142047446" lon="15.202974267000803"><ele>6.166666666666667</ele><time>2026-04-06T13:58:35Z</time></trkpt><trkpt lat="37.74350567714613" lon="15.203072805304886"><ele>6.333333333333334</ele><time>2026-04-06T13:58:36Z</time></trkpt><trkpt lat="37.743477326365614" lon="15.203168294185923"><ele>6.5</ele><time>2026-04-06T13:58:37Z</time></trkpt><trkpt lat="37.74345450280821" lon="15.203246040122465"><ele>6.666666666666667</ele><time>2026-04-06T13:58:38Z</time></trkpt><trkpt lat="37.74342316011341" lon="15.203343555947512"><ele>6.833333333333334</ele><time>2026-04-06T13:58:40Z</time></trkpt><trkpt lat="37.743386329153815" lon="15.203448191328205"><ele>7.0</ele><time>2026-04-06T13:58:43Z</time></trkpt><trkpt lat="37.74336557920379" lon="15.20353935319975"><ele>7.000000000000001</ele><time>2026-04-06T13:58:45Z</time></trkpt><trkpt lat="37.743331099091435" lon="15.203685704400375"><ele>7.0</ele><time>2026-04-06T13:58:47Z</time></trkpt><trkpt lat="37.7432942289486" lon="15.203755461247427"><ele>7.0</ele><time>2026-04-06T13:58:48Z</time></trkpt><trkpt lat="37.74328185565543" lon="15.203840876195576"><ele>7.0</ele><time>2026-04-06T13:58:49Z</time></trkpt><trkpt lat="37.74325817903805" lon="15.203923995224473"><ele>7.000000000000001</ele><time>2026-04-06T13:58:50Z</time></trkpt><trkpt lat="37.74324507451714" lon="15.204016145895043"><ele>7.0</ele><time>2026-04-06T13:58:51Z</time></trkpt><trkpt lat="37.74321198044905" lon="15.2041063383704"><ele>7.333333333333334</ele><time>2026-04-06T13:58:52Z</time></trkpt><trkpt lat="37.74318758930772" lon="15.204194015950739"><ele>7.666666666666667</ele><time>2026-04-06T13:58:53Z</time></trkpt><trkpt lat="37.743167558017895" lon="15.204288156826305"><ele>8.0</ele><time>2026-04-06T13:58:54Z</time></trkpt><trkpt lat="37.743139010583725" lon="15.204380915755207"><ele>8.333333333333334</ele><time>2026-04-06T13:58:55Z</time></trkpt><trkpt lat="37.74312675674365" lon="15.204467291433232"><ele>8.666666666666666</ele><time>2026-04-06T13:58:56Z</time></trkpt><trkpt lat="37.74308865602025" lon="15.204599895674633"><ele>9.0</ele><time>2026-04-06T13:58:58Z</time></trkpt><trkpt lat="37.743061349120204" lon="15.20467665010716"><ele>9.0</ele><time>2026-04-06T13:59:00Z</time></trkpt><trkpt lat="37.74290788223474" lon="15.204614356458025"><ele>9.0</ele><time>2026-04-06T13:59:02.999Z</time></trkpt><trkpt lat="37.742832951090136" lon="15.204572397182869"><ele>9.0</ele><time>2026-04-06T13:59:03.999Z</time></trkpt><trkpt lat="37.74273657528386" lon="15.204538301128917"><ele>9.0</ele><time>2026-04-06T13:59:04.999Z</time></trkpt><trkpt lat="37.74264606063113" lon="15.204497513784407"><ele>9.0</ele><time>2026-04-06T13:59:05.999Z</time></trkpt><trkpt lat="37.74254397162976" lon="15.20446684201913"><ele>9.2</ele><time>2026-04-06T13:59:06.999Z</time></trkpt><trkpt lat="37.74243488163784" lon="15.204445215727109"><ele>9.4</ele><time>2026-04-06T13:59:07.999Z</time></trkpt><trkpt lat="37.74232709896649" lon="15.204422668211715"><ele>9.6</ele><time>2026-04-06T13:59:08.999Z</time></trkpt><trkpt lat="37.742233764266906" lon="15.204407729214093"><ele>9.8</ele><time>2026-04-06T13:59:09.999Z</time></trkpt><trkpt lat="37.7421560162373" lon="15.204389180843327"><ele>10.0</ele><time>2026-04-06T13:59:10.999Z</time></trkpt><trkpt lat="37.74208654405918" lon="15.204375620409179"><ele>10.0</ele><time>2026-04-06T13:59:11.999Z</time></trkpt><trkpt lat="37.742021465904266" lon="15.2043580795037"><ele>10.0</ele><time>2026-04-06T13:59:12.999Z</time></trkpt><trkpt lat="37.741940988773806" lon="15.204341025746842"><ele>10.0</ele><time>2026-04-06T13:59:13.999Z</time></trkpt><trkpt lat="37.741846467724756" lon="15.204314948596938"><ele>10.0</ele><time>2026-04-06T13:59:14.999Z</time></trkpt><trkpt lat="37.74174880633367" lon="15.204295541752318"><ele>10.0</ele><time>2026-04-06T13:59:15.999Z</time></trkpt><trkpt lat="37.741643186946156" lon="15.20427033106194"><ele>10.0</ele><time>2026-04-06T13:59:16.999Z</time></trkpt><trkpt lat="37.741530710499305" lon="15.204240787589987"><ele>10.0</ele><time>2026-04-06T13:59:17.999Z</time></trkpt><trkpt lat="37.74141395628848" lon="15.204211364008051"><ele>10.0</ele><time>2026-04-06T13:59:18.999Z</time></trkpt><trkpt lat="37.74130067791857" lon="15.204176330600996"><ele>10.0</ele><time>2026-04-06T13:59:19.999Z</time></trkpt><trkpt lat="37.74119398960116" lon="15.204146605684684"><ele>10.0</ele><time>2026-04-06T13:59:20.999Z</time></trkpt><trkpt lat="37.7410921365163" lon="15.20412047360945"><ele>10.0</ele><time>2026-04-06T13:59:21.999Z</time></trkpt><trkpt lat="37.740992269748006" lon="15.204093493711202"><ele>10.0</ele><time>2026-04-06T13:59:22.999Z</time></trkpt><trkpt lat="37.74089260365401" lon="15.204068970125117"><ele>10.0</ele><time>2026-04-06T13:59:23.999Z</time></trkpt><trkpt lat="37.74079557469963" lon="15.204046374442793"><ele>10.0</ele><time>2026-04-06T13:59:24.999Z</time></trkpt><trkpt lat="37.740703224248556" lon="15.204030144004495"><ele>9.666666666666668</ele><time>2026-04-06T13:59:25.999Z</time></trkpt><trkpt lat="37.74061933794577" lon="15.20401942648776"><ele>9.333333333333334</ele><time>2026-04-06T13:59:26.999Z</time></trkpt><trkpt lat="37.740538744708886" lon="15.2040223392599"><ele>9.0</ele><time>2026-04-06T13:59:27.999Z</time></trkpt><trkpt lat="37.740458946594444" lon="15.204025004885471"><ele>8.666666666666666</ele><time>2026-04-06T13:59:28.999Z</time></trkpt><trkpt lat="37.74038024616756" lon="15.204030141286742"><ele>8.333333333333332</ele><time>2026-04-06T13:59:29.999Z</time></trkpt><trkpt lat="37.740300950316254" lon="15.204033909350626"><ele>8.0</ele><time>2026-04-06T13:59:30.999Z</time></trkpt><trkpt lat="37.74022473375023" lon="15.204030771987437"><ele>7.7142857142857135</ele><time>2026-04-06T13:59:31.999Z</time></trkpt><trkpt lat="37.74015443281131" lon="15.20403110457671"><ele>7.428571428571428</ele><time>2026-04-06T13:59:32.999Z</time></trkpt><trkpt lat="37.74008483060233" lon="15.204028802473745"><ele>7.142857142857142</ele><time>2026-04-06T13:59:33.999Z</time></trkpt><trkpt lat="37.74001782113439" lon="15.204024773479036"><ele>6.857142857142857</ele><time>2026-04-06T13:59:34.999Z</time></trkpt><trkpt lat="37.739948228707824" lon="15.204025890547737"><ele>6.571428571428571</ele><time>2026-04-06T13:59:35.999Z</time></trkpt><trkpt lat="37.73987845875176" lon="15.204028288432244"><ele>6.285714285714285</ele><time>2026-04-06T13:59:36.999Z</time></trkpt><trkpt lat="37.739810827652015" lon="15.204028659806976"><ele>6.0</ele><time>2026-04-06T13:59:37.999Z</time></trkpt><trkpt lat="37.73974232422932" lon="15.204034041660138"><ele>6.0</ele><time>2026-04-06T13:59:38.999Z</time></trkpt><trkpt lat="37.73967624173413" lon="15.20403368228161"><ele>6.0</ele><time>2026-04-06T13:59:39.999Z</time></trkpt><trkpt lat="37.73961270334503" lon="15.20403471461407"><ele>6.0</ele><time>2026-04-06T13:59:40.999Z</time></trkpt><trkpt lat="37.739548963075265" lon="15.204032602030935"><ele>6.0</ele><time>2026-04-06T13:59:41.999Z</time></trkpt><trkpt lat="37.73948578269915" lon="15.204032417669179"><ele>6.0</ele><time>2026-04-06T13:59:42.999Z</time></trkpt><trkpt lat="37.73936499479349" lon="15.204036748141602"><ele>6.0</ele><time>2026-04-06T13:59:44.998Z</time></trkpt><trkpt lat="37.739292795453885" lon="15.204037902129446"><ele>6.4</ele><time>2026-04-06T13:59:45.998Z</time></trkpt><trkpt lat="37.73921252434064" lon="15.20403607422317"><ele>6.8</ele><time>2026-04-06T13:59:46.998Z</time></trkpt><trkpt lat="37.73912392909722" lon="15.204037932448488"><ele>7.200000000000001</ele><time>2026-04-06T13:59:47.998Z</time></trkpt><trkpt lat="37.73902424295248" lon="15.20404317482032"><ele>7.6000000000000005</ele><time>2026-04-06T13:59:48.998Z</time></trkpt><trkpt lat="37.738924245904734" lon="15.204049506847989"><ele>8.0</ele><time>2026-04-06T13:59:49.998Z</time></trkpt><trkpt lat="37.73882595101319" lon="15.204058333629577"><ele>7.999999999999999</ele><time>2026-04-06T13:59:50.998Z</time></trkpt><trkpt lat="37.738732612311836" lon="15.204062834141004"><ele>8.0</ele><time>2026-04-06T13:59:51.998Z</time></trkpt><trkpt lat="37.73864612064472" lon="15.204059852168594"><ele>8.0</ele><time>2026-04-06T13:59:52.998Z</time></trkpt><trkpt lat="37.7385709853478" lon="15.204065552671336"><ele>8.0</ele><time>2026-04-06T13:59:53.998Z</time></trkpt><trkpt lat="37.73849886852202" lon="15.204070645076838"><ele>7.999999999999999</ele><time>2026-04-06T13:59:54.998Z</time></trkpt><trkpt lat="37.73843580605385" lon="15.204075792886877"><ele>8.0</ele><time>2026-04-06T13:59:55.998Z</time></trkpt><trkpt lat="37.738350588263934" lon="15.204078209656412"><ele>8.0</ele><time>2026-04-06T13:59:57.998Z</time></trkpt><trkpt lat="37.73820341318875" lon="15.204089569690224"><ele>8.0</ele><time>2026-04-06T13:59:59.998Z</time></trkpt><trkpt lat="37.73810943454997" lon="15.204095251369788"><ele>8.0</ele><time>2026-04-06T14:00:00.998Z</time></trkpt><trkpt lat="37.73801431119072" lon="15.20409475059192"><ele>8.0</ele><time>2026-04-06T14:00:01.998Z</time></trkpt><trkpt lat="37.73792373458715" lon="15.204086518692874"><ele>8.0</ele><time>2026-04-06T14:00:02.998Z</time></trkpt><trkpt lat="37.7378334434503" lon="15.204085511593474"><ele>7.999999999999999</ele><time>2026-04-06T14:00:03.998Z</time></trkpt><trkpt lat="37.73774368023893" lon="15.20408618346132"><ele>8.0</ele><time>2026-04-06T14:00:04.998Z</time></trkpt><trkpt lat="37.737654425129485" lon="15.204086279671069"><ele>8.0</ele><time>2026-04-06T14:00:05.998Z</time></trkpt><trkpt lat="37.73756307119688" lon="15.204096140194258"><ele>8.0</ele><time>2026-04-06T14:00:06.998Z</time></trkpt><trkpt lat="37.73747951170466" lon="15.20410050516076"><ele>7.999999999999999</ele><time>2026-04-06T14:00:07.998Z</time></trkpt><trkpt lat="37.73739819841753" lon="15.20410075001296"><ele>8.0</ele><time>2026-04-06T14:00:08.998Z</time></trkpt><trkpt lat="37.737326812864396" lon="15.20410056650531"><ele>8.0</ele><time>2026-04-06T14:00:09.998Z</time></trkpt><trkpt lat="37.73725813007312" lon="15.204099307871042"><ele>8.0</ele><time>2026-04-06T14:00:10.998Z</time></trkpt><trkpt lat="37.73719480465012" lon="15.204097319983498"><ele>8.0</ele><time>2026-04-06T14:00:11.998Z</time></trkpt><trkpt lat="37.737077973275234" lon="15.204081340584192"><ele>8.0</ele><time>2026-04-06T14:00:13.998Z</time></trkpt><trkpt lat="37.736977185969" lon="15.20401809148278"><ele>8.0</ele><time>2026-04-06T14:00:15.998Z</time></trkpt><trkpt lat="37.736880898625785" lon="15.20392841920111"><ele>8.0</ele><time>2026-04-06T14:00:17.998Z</time></trkpt><trkpt lat="37.73679255988589" lon="15.203840356966003"><ele>8.0</ele><time>2026-04-06T14:00:19.998Z</time></trkpt><trkpt lat="37.7367622962189" lon="15.203673584205193"><ele>8.0</ele><time>2026-04-06T14:00:21.998Z</time></trkpt><trkpt lat="37.73675120396935" lon="15.203585444044254"><ele>8.0</ele><time>2026-04-06T14:00:22.998Z</time></trkpt><trkpt lat="37.736745038220526" lon="15.203485459362733"><ele>8.0</ele><time>2026-04-06T14:00:23.998Z</time></trkpt><trkpt lat="37.73673994872653" lon="15.203378245020973"><ele>7.999999999999999</ele><time>2026-04-06T14:00:24.998Z</time></trkpt><trkpt lat="37.736732592031004" lon="15.203279779952187"><ele>8.0</ele><time>2026-04-06T14:00:25.998Z</time></trkpt><trkpt lat="37.73672162717059" lon="15.203187548140727"><ele>8.0</ele><time>2026-04-06T14:00:26.998Z</time></trkpt><trkpt lat="37.73671394404434" lon="15.20309742559268"><ele>8.0</ele><time>2026-04-06T14:00:27.998Z</time></trkpt><trkpt lat="37.7367062965186" lon="15.203013448264894"><ele>7.999999999999999</ele><time>2026-04-06T14:00:29Z</time></trkpt><trkpt lat="37.7366906966086" lon="15.20288174709617"><ele>8.0</ele><time>2026-04-06T14:00:31Z</time></trkpt><trkpt lat="37.73652462370363" lon="15.20284977560714"><ele>7.833333333333333</ele><time>2026-04-06T14:00:35Z</time></trkpt><trkpt lat="37.73641035444546" lon="15.202891982050668"><ele>7.666666666666666</ele><time>2026-04-06T14:00:37Z</time></trkpt><trkpt lat="37.736341676246084" lon="15.20291982896639"><ele>7.5</ele><time>2026-04-06T14:00:38Z</time></trkpt><trkpt lat="37.73627176547899" lon="15.202951792622263"><ele>7.333333333333334</ele><time>2026-04-06T14:00:39Z</time></trkpt><trkpt lat="37.736203914269616" lon="15.202975352417788"><ele>7.166666666666667</ele><time>2026-04-06T14:00:40Z</time></trkpt><trkpt lat="37.736138307093654" lon="15.202999642713118"><ele>7.0</ele><time>2026-04-06T14:00:41Z</time></trkpt><trkpt lat="37.736076781484314" lon="15.20301943001118"><ele>7.000000000000001</ele><time>2026-04-06T14:00:42Z</time></trkpt><trkpt lat="37.736006717489246" lon="15.20303868002598"><ele>7.0</ele><time>2026-04-06T14:00:43Z</time></trkpt><trkpt lat="37.73593093506147" lon="15.203057674305779"><ele>7.0</ele><time>2026-04-06T14:00:44Z</time></trkpt><trkpt lat="37.73584834461106" lon="15.203075838791833"><ele>7.0</ele><time>2026-04-06T14:00:45Z</time></trkpt><trkpt lat="37.73576393259653" lon="15.203095884756594"><ele>7.000000000000001</ele><time>2026-04-06T14:00:46Z</time></trkpt><trkpt lat="37.735678077226865" lon="15.20312680289667"><ele>7.0</ele><time>2026-04-06T14:00:47Z</time></trkpt><trkpt lat="37.73558933573821" lon="15.20315910522648"><ele>7.0</ele><time>2026-04-06T14:00:48Z</time></trkpt><trkpt lat="37.73549588501378" lon="15.203192245631397"><ele>6.999999999999999</ele><time>2026-04-06T14:00:49Z</time></trkpt><trkpt lat="37.735400531840476" lon="15.203227825724229"><ele>6.999999999999999</ele><time>2026-04-06T14:00:50Z</time></trkpt><trkpt lat="37.73530698753675" lon="15.203261209520027"><ele>7.0</ele><time>2026-04-06T14:00:51Z</time></trkpt><trkpt lat="37.73521593378964" lon="15.203294886443967"><ele>7.0</ele><time>2026-04-06T14:00:52Z</time></trkpt><trkpt lat="37.73512698849533" lon="15.203327086833513"><ele>7.199999999999999</ele><time>2026-04-06T14:00:53Z</time></trkpt><trkpt lat="37.735037983947244" lon="15.203351551662625"><ele>7.3999999999999995</ele><time>2026-04-06T14:00:54Z</time></trkpt><trkpt lat="37.73494766196409" lon="15.203384187881877"><ele>7.6000000000000005</ele><time>2026-04-06T14:00:55Z</time></trkpt><trkpt lat="37.73486707535904" lon="15.2034321166255"><ele>7.800000000000001</ele><time>2026-04-06T14:00:56Z</time></trkpt><trkpt lat="37.73477349808452" lon="15.203456035212996"><ele>8.0</ele><time>2026-04-06T14:00:57Z</time></trkpt><trkpt lat="37.734687182138224" lon="15.203483542072286"><ele>8.0</ele><time>2026-04-06T14:00:58Z</time></trkpt><trkpt lat="37.73459911058798" lon="15.203509801862147"><ele>8.0</ele><time>2026-04-06T14:00:59Z</time></trkpt><trkpt lat="37.73451051593663" lon="15.203535184227388"><ele>8.0</ele><time>2026-04-06T14:01:00Z</time></trkpt><trkpt lat="37.73442266289231" lon="15.203566977217404"><ele>8.0</ele><time>2026-04-06T14:01:01Z</time></trkpt><trkpt lat="37.73433476324494" lon="15.203597730429664"><ele>8.0</ele><time>2026-04-06T14:01:02Z</time></trkpt><trkpt lat="37.73424628384184" lon="15.203626121493993"><ele>8.600000000000001</ele><time>2026-04-06T14:01:03Z</time></trkpt><trkpt lat="37.73416906796126" lon="15.203657686551203"><ele>9.200000000000001</ele><time>2026-04-06T14:01:04Z</time></trkpt><trkpt lat="37.73410545641059" lon="15.20367767381827"><ele>9.8</ele><time>2026-04-06T14:01:05Z</time></trkpt><trkpt lat="37.73400360135728" lon="15.203718202777624"><ele>10.4</ele><time>2026-04-06T14:01:07Z</time></trkpt><trkpt lat="37.73393235909097" lon="15.203730799933966"><ele>11.0</ele><time>2026-04-06T14:01:08.999Z</time></trkpt><trkpt lat="37.73387480133642" lon="15.203456175829848"><ele>11.0</ele><time>2026-04-06T14:01:12.999Z</time></trkpt><trkpt lat="37.73385403423532" lon="15.203356886775408"><ele>11.0</ele><time>2026-04-06T14:01:13.999Z</time></trkpt><trkpt lat="37.733818463736725" lon="15.203246958198237"><ele>11.0</ele><time>2026-04-06T14:01:14.999Z</time></trkpt><trkpt lat="37.7337956612799" lon="15.203113830449515"><ele>11.0</ele><time>2026-04-06T14:01:15.999Z</time></trkpt><trkpt lat="37.73377030118025" lon="15.203000575968874"><ele>11.0</ele><time>2026-04-06T14:01:16.999Z</time></trkpt><trkpt lat="37.73374505113022" lon="15.20289411665592"><ele>10.8</ele><time>2026-04-06T14:01:17.999Z</time></trkpt><trkpt lat="37.733720784903355" lon="15.20279355929009"><ele>10.600000000000001</ele><time>2026-04-06T14:01:18.999Z</time></trkpt><trkpt lat="37.73370279927001" lon="15.20268407384585"><ele>10.4</ele><time>2026-04-06T14:01:19.999Z</time></trkpt><trkpt lat="37.73367153890113" lon="15.202563305490344"><ele>10.2</ele><time>2026-04-06T14:01:20.999Z</time></trkpt><trkpt lat="37.73363691694694" lon="15.202430600735273"><ele>10.0</ele><time>2026-04-06T14:01:21.999Z</time></trkpt><trkpt lat="37.73360606499149" lon="15.20230547899015"><ele>10.6</ele><time>2026-04-06T14:01:22.999Z</time></trkpt><trkpt lat="37.7335789202381" lon="15.20217934049781"><ele>11.2</ele><time>2026-04-06T14:01:23.999Z</time></trkpt><trkpt lat="37.73355210487878" lon="15.202057806151117"><ele>11.8</ele><time>2026-04-06T14:01:24.999Z</time></trkpt><trkpt lat="37.733522967095006" lon="15.201940853086311"><ele>12.4</ele><time>2026-04-06T14:01:25.999Z</time></trkpt><trkpt lat="37.73349719992425" lon="15.20181909725335"><ele>13.0</ele><time>2026-04-06T14:01:26.999Z</time></trkpt><trkpt lat="37.733467638846385" lon="15.20168789735631"><ele>13.5</ele><time>2026-04-06T14:01:27.999Z</time></trkpt><trkpt lat="37.73342313403242" lon="15.201554207709068"><ele>14.0</ele><time>2026-04-06T14:01:28.999Z</time></trkpt><trkpt lat="37.73339521014421" lon="15.20142117506578"><ele>14.5</ele><time>2026-04-06T14:01:29.999Z</time></trkpt><trkpt lat="37.73336589953303" lon="15.201274614902268"><ele>15.0</ele><time>2026-04-06T14:01:30.999Z</time></trkpt><trkpt lat="37.73333122375826" lon="15.201099506821583"><ele>15.6</ele><time>2026-04-06T14:01:31.999Z</time></trkpt><trkpt lat="37.73329494739121" lon="15.200941527113317"><ele>16.2</ele><time>2026-04-06T14:01:32.999Z</time></trkpt><trkpt lat="37.73326104774311" lon="15.200808638227743"><ele>16.8</ele><time>2026-04-06T14:01:33.999Z</time></trkpt><trkpt lat="37.73323535364336" lon="15.20069801935501"><ele>17.4</ele><time>2026-04-06T14:01:34.999Z</time></trkpt><trkpt lat="37.733213977889065" lon="15.20061281380555"><ele>18.0</ele><time>2026-04-06T14:01:35.999Z</time></trkpt><trkpt lat="37.73319083594193" lon="15.200483366914995"><ele>17.8</ele><time>2026-04-06T14:01:37.999Z</time></trkpt><trkpt lat="37.73334160738153" lon="15.200428791091678"><ele>17.6</ele><time>2026-04-06T14:01:40.999Z</time></trkpt><trkpt lat="37.73341882157624" lon="15.200390849167041"><ele>17.4</ele><time>2026-04-06T14:01:41.999Z</time></trkpt><trkpt lat="37.73350993555379" lon="15.200371332198218"><ele>17.2</ele><time>2026-04-06T14:01:42.999Z</time></trkpt><trkpt lat="37.73359706757425" lon="15.200341392802653"><ele>17.0</ele><time>2026-04-06T14:01:43.999Z</time></trkpt><trkpt lat="37.733690096113804" lon="15.200292850277911"><ele>17.0</ele><time>2026-04-06T14:01:44.999Z</time></trkpt><trkpt lat="37.733784110176614" lon="15.200270755213007"><ele>17.0</ele><time>2026-04-06T14:01:45.999Z</time></trkpt><trkpt lat="37.73385697169698" lon="15.200240125178592"><ele>17.0</ele><time>2026-04-06T14:01:46.999Z</time></trkpt><trkpt lat="37.73391898811739" lon="15.200222154478446"><ele>17.0</ele><time>2026-04-06T14:01:47.999Z</time></trkpt><trkpt lat="37.733988489073305" lon="15.20019382103536"><ele>17.0</ele><time>2026-04-06T14:01:49.999Z</time></trkpt><trkpt lat="37.73404221507529" lon="15.20029429111996"><ele>17.0</ele><time>2026-04-06T14:01:53.998Z</time></trkpt><trkpt lat="37.734066579054684" lon="15.200390857659515"><ele>17.0</ele><time>2026-04-06T14:01:54.998Z</time></trkpt><trkpt lat="37.7340883549009" lon="15.200483136269652"><ele>17.0</ele><time>2026-04-06T14:01:55.998Z</time></trkpt><trkpt lat="37.734111305108385" lon="15.200587892984222"><ele>17.0</ele><time>2026-04-06T14:01:56.998Z</time></trkpt><trkpt lat="37.73411783190166" lon="15.200703949457095"><ele>17.0</ele><time>2026-04-06T14:01:57.998Z</time></trkpt><trkpt lat="37.73413976233882" lon="15.200818785726549"><ele>17.0</ele><time>2026-04-06T14:01:58.998Z</time></trkpt><trkpt lat="37.73416129657534" lon="15.200931547343426"><ele>17.0</ele><time>2026-04-06T14:01:59.998Z</time></trkpt><trkpt lat="37.73419744189191" lon="15.20103828916919"><ele>16.5</ele><time>2026-04-06T14:02:00.998Z</time></trkpt><trkpt lat="37.734214794515005" lon="15.201145485395255"><ele>16.0</ele><time>2026-04-06T14:02:01.998Z</time></trkpt><trkpt lat="37.73423541764179" lon="15.201250582418096"><ele>15.5</ele><time>2026-04-06T14:02:02.998Z</time></trkpt><trkpt lat="37.73425607174934" lon="15.201352968174525"><ele>15.0</ele><time>2026-04-06T14:02:03.998Z</time></trkpt><trkpt lat="37.7342743945253" lon="15.201458543404883"><ele>14.500000000000002</ele><time>2026-04-06T14:02:04.998Z</time></trkpt><trkpt lat="37.734291132962184" lon="15.201562408553027"><ele>14.0</ele><time>2026-04-06T14:02:05.998Z</time></trkpt><trkpt lat="37.73431014489957" lon="15.201657406217224"><ele>13.799999999999999</ele><time>2026-04-06T14:02:06.998Z</time></trkpt><trkpt lat="37.73432714420111" lon="15.201742671486187"><ele>13.599999999999998</ele><time>2026-04-06T14:02:07.998Z</time></trkpt><trkpt lat="37.73435690627205" lon="15.201867917614992"><ele>13.4</ele><time>2026-04-06T14:02:09.998Z</time></trkpt><trkpt lat="37.734352924001605" lon="15.201957334535225"><ele>13.2</ele><time>2026-04-06T14:02:12.998Z</time></trkpt><trkpt lat="37.734374979890426" lon="15.202038199247546"><ele>13.0</ele><time>2026-04-06T14:03:46.999Z</time></trkpt><trkpt lat="37.734565517474536" lon="15.201991977016771"><ele>12.8</ele><time>2026-04-06T14:03:52.999Z</time></trkpt><trkpt lat="37.734681910248305" lon="15.20194871177538"><ele>12.600000000000001</ele><time>2026-04-06T14:03:54.998Z</time></trkpt><trkpt lat="37.734794142154655" lon="15.201910802248884"><ele>12.399999999999999</ele><time>2026-04-06T14:03:56.998Z</time></trkpt><trkpt lat="37.73485828243498" lon="15.201889377299734"><ele>12.2</ele><time>2026-04-06T14:03:57.998Z</time></trkpt><trkpt lat="37.734925947410176" lon="15.201863344721454"><ele>12.0</ele><time>2026-04-06T14:03:58.998Z</time></trkpt><trkpt lat="37.734999392684244" lon="15.201829907200377"><ele>12.0</ele><time>2026-04-06T14:03:59.998Z</time></trkpt><trkpt lat="37.73507470652905" lon="15.201815877520358"><ele>12.0</ele><time>2026-04-06T14:04:00.998Z</time></trkpt><trkpt lat="37.73515322556428" lon="15.20177473447937"><ele>12.0</ele><time>2026-04-06T14:04:02.998Z</time></trkpt><trkpt lat="37.7351648053533" lon="15.201941655031948"><ele>12.0</ele><time>2026-04-06T14:04:06.998Z</time></trkpt><trkpt lat="37.73518473110255" lon="15.20204410432878"><ele>12.0</ele><time>2026-04-06T14:04:09.998Z</time></trkpt><trkpt lat="37.73520458453768" lon="15.20211967099693"><ele>12.0</ele><time>2026-04-06T14:04:12.021Z</time></trkpt><trkpt lat="37.73522606877516" lon="15.202201444897561"><ele>12.0</ele><time>2026-04-06T14:04:14.02Z</time></trkpt><trkpt lat="37.73525478916531" lon="15.20231076122334"><ele>12.0</ele><time>2026-04-06T14:04:16.021Z</time></trkpt><trkpt lat="37.735123792585426" lon="15.202138931202862"><ele>12.0</ele><time>2026-04-06T14:04:17.021Z</time></trkpt><trkpt lat="37.735105280485165" lon="15.202333895792568"><ele>12.0</ele><time>2026-04-06T14:23:25.024Z</time></trkpt><trkpt lat="37.735188920459144" lon="15.20228717684759"><ele>12.0</ele><time>2026-04-06T14:26:37.999Z</time></trkpt><trkpt lat="37.73510317097758" lon="15.202295755057456"><ele>12.0</ele><time>2026-04-06T14:28:49.999Z</time></trkpt><trkpt lat="37.73521142194312" lon="15.202269761290099"><ele>12.0</ele><time>2026-04-06T14:33:02.999Z</time></trkpt></trkseg></trk></gpx>